<?xml version='1.0' encoding='UTF-8'?><gpx version="1.1" creator="JPX - https://github.com/jenetics/jpx" xmlns="http://www.topografix.com/GPX/1/1"><trk><trkseg><trkpt lat="44.42769053478066" lon="8.923851001999076"><ele>179.0</ele><time>2026-04-12T07:58:18Z</time></trkpt><trkpt lat="44.42785008027643" lon="8.924043887786484"><ele>179.0</ele><time>2026-04-12T07:58:32.001Z</time></trkpt><trkpt lat="44.42788564408475" lon="8.924141078868532"><ele>179.0</ele><time>2026-04-12T07:58:34.001Z</time></trkpt><trkpt lat="44.42783202441661" lon="8.924286984118337"><ele>179.0</ele><time>2026-04-12T07:58:38.001Z</time></trkpt><trkpt lat="44.42778047486672" lon="8.924376787323583"><ele>179.0</ele><time>2026-04-12T07:58:41.001Z</time></trkpt><trkpt lat="44.427683534571855" lon="8.924392942766577"><ele>179.0</ele><time>2026-04-12T07:58:44.001Z</time></trkpt><trkpt lat="44.42762550079338" lon="8.924348882710179"><ele>179.0</ele><time>2026-04-12T07:58:46.001Z</time></trkpt><trkpt lat="44.42757315808134" lon="8.924285040365989"><ele>179.0</ele><time>2026-04-12T07:58:49.022Z</time></trkpt><trkpt lat="44.42752332679865" lon="8.924228683409455"><ele>179.0</ele><time>2026-04-12T07:58:52.017Z</time></trkpt><trkpt lat="44.427140905111656" lon="8.923519440716724"><ele>178.2</ele><time>2026-04-12T07:59:09.019Z</time></trkpt><trkpt lat="44.42706302326652" lon="8.923511219877994"><ele>177.39999999999998</ele><time>2026-04-12T07:59:10.001Z</time></trkpt><trkpt lat="44.42708552563844" lon="8.923595825298973"><ele>176.6</ele><time>2026-04-12T07:59:11.001Z</time></trkpt><trkpt lat="44.426909890230384" lon="8.923465472173802"><ele>175.8</ele><time>2026-04-12T07:59:14.001Z</time></trkpt><trkpt lat="44.42690089488571" lon="8.923560399804863"><ele>175.0</ele><time>2026-04-12T07:59:21.001Z</time></trkpt><trkpt lat="44.42692528599804" lon="8.92368007698901"><ele>175.0</ele><time>2026-04-12T07:59:24.001Z</time></trkpt><trkpt lat="44.426974526046564" lon="8.923738491900922"><ele>175.0</ele><time>2026-04-12T07:59:26.001Z</time></trkpt><trkpt lat="44.427022706127275" lon="8.923811767956611"><ele>175.0</ele><time>2026-04-12T07:59:28.002Z</time></trkpt><trkpt lat="44.42698214426641" lon="8.92391450658211"><ele>175.0</ele><time>2026-04-12T07:59:31.002Z</time></trkpt><trkpt lat="44.42689716603973" lon="8.92390212354043"><ele>175.0</ele><time>2026-04-12T07:59:33.001Z</time></trkpt><trkpt lat="44.42684203133888" lon="8.923801794588472"><ele>175.0</ele><time>2026-04-12T07:59:35.001Z</time></trkpt><trkpt lat="44.426749474907865" lon="8.923804845582824"><ele>175.0</ele><time>2026-04-12T07:59:37.001Z</time></trkpt><trkpt lat="44.42663503513263" lon="8.923762861165542"><ele>175.0</ele><time>2026-04-12T07:59:39.001Z</time></trkpt><trkpt lat="44.426542427516026" lon="8.923703153628392"><ele>175.0</ele><time>2026-04-12T07:59:41.001Z</time></trkpt><trkpt lat="44.42654333338755" lon="8.923554607667585"><ele>175.0</ele><time>2026-04-12T07:59:42.001Z</time></trkpt><trkpt lat="44.42640609751279" lon="8.92360763380149"><ele>175.0</ele><time>2026-04-12T07:59:44.001Z</time></trkpt><trkpt lat="44.42634802407774" lon="8.923494252627778"><ele>175.0</ele><time>2026-04-12T07:59:46.001Z</time></trkpt><trkpt lat="44.42639154650564" lon="8.923382975457852"><ele>175.0</ele><time>2026-04-12T07:59:48Z</time></trkpt><trkpt lat="44.426361766465305" lon="8.923138447715052"><ele>175.0</ele><time>2026-04-12T07:59:50Z</time></trkpt><trkpt lat="44.42624571268417" lon="8.92305596956067"><ele>170.4</ele><time>2026-04-12T07:59:51Z</time></trkpt><trkpt lat="44.42620231811735" lon="8.92295245707835"><ele>165.8</ele><time>2026-04-12T07:59:52Z</time></trkpt><trkpt lat="44.42612866058946" lon="8.922830317323156"><ele>161.2</ele><time>2026-04-12T07:59:54Z</time></trkpt><trkpt lat="44.42608722991383" lon="8.922753697493393"><ele>156.6</ele><time>2026-04-12T07:59:55Z</time></trkpt><trkpt lat="44.42610352310873" lon="8.922600370201266"><ele>152.0</ele><time>2026-04-12T07:59:56Z</time></trkpt><trkpt lat="44.426050903737625" lon="8.922530269588577"><ele>149.6</ele><time>2026-04-12T07:59:57Z</time></trkpt><trkpt lat="44.42600175433678" lon="8.922466149354438"><ele>147.2</ele><time>2026-04-12T07:59:58Z</time></trkpt><trkpt lat="44.425908897312844" lon="8.922340451991467"><ele>144.8</ele><time>2026-04-12T08:00:00Z</time></trkpt><trkpt lat="44.42586401053925" lon="8.922272948060705"><ele>142.4</ele><time>2026-04-12T08:00:01Z</time></trkpt><trkpt lat="44.42581907669858" lon="8.92219930663069"><ele>140.0</ele><time>2026-04-12T08:00:02Z</time></trkpt><trkpt lat="44.42573540082411" lon="8.922057504240906"><ele>140.0</ele><time>2026-04-12T08:00:04Z</time></trkpt><trkpt lat="44.42569415027133" lon="8.921990389986519"><ele>140.0</ele><time>2026-04-12T08:00:05Z</time></trkpt><trkpt lat="44.42561912565837" lon="8.921872828439014"><ele>140.0</ele><time>2026-04-12T08:00:07Z</time></trkpt><trkpt lat="44.42556070993098" lon="8.92179783565574"><ele>140.0</ele><time>2026-04-12T08:00:09Z</time></trkpt><trkpt lat="44.42548466189168" lon="8.921825492051951"><ele>140.0</ele><time>2026-04-12T08:00:12Z</time></trkpt><trkpt lat="44.42545387941124" lon="8.921908977208576"><ele>140.0</ele><time>2026-04-12T08:00:16Z</time></trkpt><trkpt lat="44.4254985326854" lon="8.92197157353459"><ele>140.0</ele><time>2026-04-12T08:00:18Z</time></trkpt><trkpt lat="44.42558041747172" lon="8.922031198931839"><ele>140.0</ele><time>2026-04-12T08:00:20Z</time></trkpt><trkpt lat="44.425657307826064" lon="8.922163313184202"><ele>140.0</ele><time>2026-04-12T08:00:22Z</time></trkpt><trkpt lat="44.42569475729747" lon="8.92225093102153"><ele>140.0</ele><time>2026-04-12T08:00:23Z</time></trkpt><trkpt lat="44.42573998338284" lon="8.922337155231201"><ele>140.0</ele><time>2026-04-12T08:00:24Z</time></trkpt><trkpt lat="44.42578331941494" lon="8.922427388827346"><ele>140.0</ele><time>2026-04-12T08:00:25Z</time></trkpt><trkpt lat="44.42584134986615" lon="8.92250768294886"><ele>142.0</ele><time>2026-04-12T08:00:26Z</time></trkpt><trkpt lat="44.42589104313643" lon="8.922584503307853"><ele>144.0</ele><time>2026-04-12T08:00:27Z</time></trkpt><trkpt lat="44.42596155317228" lon="8.922692275627341"><ele>146.0</ele><time>2026-04-12T08:00:29Z</time></trkpt><trkpt lat="44.42598315937275" lon="8.922791258838672"><ele>148.0</ele><time>2026-04-12T08:00:31Z</time></trkpt><trkpt lat="44.425943215237396" lon="8.92288885552979"><ele>150.0</ele><time>2026-04-12T08:00:33Z</time></trkpt><trkpt lat="44.42588651458533" lon="8.922931340938549"><ele>152.0</ele><time>2026-04-12T08:00:34Z</time></trkpt><trkpt lat="44.42582967705459" lon="8.922836340106716"><ele>152.0</ele><time>2026-04-12T08:00:36Z</time></trkpt><trkpt lat="44.425785235698584" lon="8.922751011646447"><ele>152.0</ele><time>2026-04-12T08:00:38.001Z</time></trkpt><trkpt lat="44.425708864660756" lon="8.922649429099648"><ele>152.0</ele><time>2026-04-12T08:00:39.001Z</time></trkpt><trkpt lat="44.4256300249016" lon="8.92257383415213"><ele>152.0</ele><time>2026-04-12T08:00:40.001Z</time></trkpt><trkpt lat="44.425582576083166" lon="8.922478091437759"><ele>152.0</ele><time>2026-04-12T08:00:41.001Z</time></trkpt><trkpt lat="44.42552461554793" lon="8.922400747710661"><ele>152.0</ele><time>2026-04-12T08:00:42.001Z</time></trkpt><trkpt lat="44.42546372017569" lon="8.92232371881404"><ele>151.5</ele><time>2026-04-12T08:00:43.001Z</time></trkpt><trkpt lat="44.425408814759464" lon="8.922254266793765"><ele>151.0</ele><time>2026-04-12T08:00:44.001Z</time></trkpt><trkpt lat="44.42534956990639" lon="8.9221810195603"><ele>150.5</ele><time>2026-04-12T08:00:45.001Z</time></trkpt><trkpt lat="44.42528456084134" lon="8.922107772175872"><ele>150.0</ele><time>2026-04-12T08:00:46.001Z</time></trkpt><trkpt lat="44.425218039682505" lon="8.92205817750617"><ele>149.5</ele><time>2026-04-12T08:00:47.001Z</time></trkpt><trkpt lat="44.42516394276343" lon="8.922006852390037"><ele>149.0</ele><time>2026-04-12T08:00:48.001Z</time></trkpt><trkpt lat="44.425118049509216" lon="8.921893452753691"><ele>149.0</ele><time>2026-04-12T08:00:50.001Z</time></trkpt><trkpt lat="44.42503337526197" lon="8.921786884038706"><ele>149.0</ele><time>2026-04-12T08:00:52.001Z</time></trkpt><trkpt lat="44.42500458882597" lon="8.921691924527229"><ele>149.0</ele><time>2026-04-12T08:00:54.001Z</time></trkpt><trkpt lat="44.42501431573315" lon="8.92159639748646"><ele>149.0</ele><time>2026-04-12T08:00:56.001Z</time></trkpt><trkpt lat="44.4250657239801" lon="8.921521347676716"><ele>149.0</ele><time>2026-04-12T08:00:58.001Z</time></trkpt><trkpt lat="44.425131217501814" lon="8.921414035971921"><ele>149.0</ele><time>2026-04-12T08:01:00.001Z</time></trkpt><trkpt lat="44.42513751656108" lon="8.921296422019733"><ele>145.16666666666666</ele><time>2026-04-12T08:01:01.001Z</time></trkpt><trkpt lat="44.425150962701736" lon="8.921145592199007"><ele>141.33333333333331</ele><time>2026-04-12T08:01:03.001Z</time></trkpt><trkpt lat="44.42513298629567" lon="8.921037536195401"><ele>137.5</ele><time>2026-04-12T08:01:04.001Z</time></trkpt><trkpt lat="44.425097577086404" lon="8.920936146395986"><ele>133.66666666666666</ele><time>2026-04-12T08:01:05.001Z</time></trkpt><trkpt lat="44.42507095922333" lon="8.920838123758015"><ele>129.83333333333334</ele><time>2026-04-12T08:01:06.001Z</time></trkpt><trkpt lat="44.425041593340765" lon="8.920737296536746"><ele>126.0</ele><time>2026-04-12T08:01:07.001Z</time></trkpt><trkpt lat="44.42501737878258" lon="8.920613272427213"><ele>125.6</ele><time>2026-04-12T08:01:08.001Z</time></trkpt><trkpt lat="44.42501209440247" lon="8.920490642320202"><ele>125.19999999999999</ele><time>2026-04-12T08:01:09.001Z</time></trkpt><trkpt lat="44.424990359648504" lon="8.920356787678417"><ele>124.80000000000001</ele><time>2026-04-12T08:01:10.001Z</time></trkpt><trkpt lat="44.42496886916414" lon="8.920224437295763"><ele>124.4</ele><time>2026-04-12T08:01:11.001Z</time></trkpt><trkpt lat="44.42494790172573" lon="8.92009530811298"><ele>124.0</ele><time>2026-04-12T08:01:12.001Z</time></trkpt><trkpt lat="44.424926244812625" lon="8.919961302047657"><ele>124.0</ele><time>2026-04-12T08:01:13.001Z</time></trkpt><trkpt lat="44.424906466927375" lon="8.919837486105294"><ele>124.0</ele><time>2026-04-12T08:01:14.001Z</time></trkpt><trkpt lat="44.42488569457728" lon="8.919707444541025"><ele>124.0</ele><time>2026-04-12T08:01:15.001Z</time></trkpt><trkpt lat="44.42486656698873" lon="8.919587699728428"><ele>124.0</ele><time>2026-04-12T08:01:16.001Z</time></trkpt><trkpt lat="44.42484657290799" lon="8.91946253031485"><ele>124.0</ele><time>2026-04-12T08:01:17.001Z</time></trkpt><trkpt lat="44.42482725109561" lon="8.919342826377648"><ele>122.0</ele><time>2026-04-12T08:01:18.001Z</time></trkpt><trkpt lat="44.42480338603276" lon="8.919195090247591"><ele>120.0</ele><time>2026-04-12T08:01:19.001Z</time></trkpt><trkpt lat="44.424785409326304" lon="8.919074587646643"><ele>118.0</ele><time>2026-04-12T08:01:20.001Z</time></trkpt><trkpt lat="44.42477569763179" lon="8.918956339848794"><ele>116.0</ele><time>2026-04-12T08:01:21.001Z</time></trkpt><trkpt lat="44.424810912206716" lon="8.91875549147999"><ele>114.0</ele><time>2026-04-12T08:01:23.001Z</time></trkpt><trkpt lat="44.424884841349964" lon="8.91861969059722"><ele>114.0</ele><time>2026-04-12T08:01:25.001Z</time></trkpt><trkpt lat="44.42496079021051" lon="8.918537311301524"><ele>114.0</ele><time>2026-04-12T08:01:27.001Z</time></trkpt><trkpt lat="44.425017412641544" lon="8.918462958248695"><ele>114.0</ele><time>2026-04-12T08:01:28.001Z</time></trkpt><trkpt lat="44.4250915483924" lon="8.918442116381717"><ele>114.0</ele><time>2026-04-12T08:01:29.001Z</time></trkpt><trkpt lat="44.425158940448185" lon="8.918432006858886"><ele>114.0</ele><time>2026-04-12T08:01:30.001Z</time></trkpt><trkpt lat="44.42522205214685" lon="8.918413725814455"><ele>114.0</ele><time>2026-04-12T08:01:31.001Z</time></trkpt><trkpt lat="44.425339426333" lon="8.918423218091188"><ele>114.0</ele><time>2026-04-12T08:01:33.001Z</time></trkpt><trkpt lat="44.42543208326504" lon="8.918469188853948"><ele>114.0</ele><time>2026-04-12T08:01:34.001Z</time></trkpt><trkpt lat="44.42550829642044" lon="8.918471140910084"><ele>114.0</ele><time>2026-04-12T08:01:35.001Z</time></trkpt><trkpt lat="44.425573712758144" lon="8.91846713118069"><ele>114.0</ele><time>2026-04-12T08:01:36.001Z</time></trkpt><trkpt lat="44.42565273051123" lon="8.918390997868094"><ele>114.0</ele><time>2026-04-12T08:01:38.001Z</time></trkpt><trkpt lat="44.4256952975144" lon="8.91825808770063"><ele>114.0</ele><time>2026-04-12T08:01:40Z</time></trkpt><trkpt lat="44.42572422344708" lon="8.918148025250998"><ele>111.33333333333333</ele><time>2026-04-12T08:01:41Z</time></trkpt><trkpt lat="44.425781787326805" lon="8.918039216714254"><ele>108.66666666666666</ele><time>2026-04-12T08:01:42Z</time></trkpt><trkpt lat="44.425803803618074" lon="8.91793266020779"><ele>106.0</ele><time>2026-04-12T08:01:43Z</time></trkpt><trkpt lat="44.425825180143185" lon="8.917829399518507"><ele>103.33333333333333</ele><time>2026-04-12T08:01:44Z</time></trkpt><trkpt lat="44.42584815927593" lon="8.917718397441874"><ele>100.66666666666666</ele><time>2026-04-12T08:01:45Z</time></trkpt><trkpt lat="44.42585361923121" lon="8.917609004816109"><ele>98.0</ele><time>2026-04-12T08:01:46Z</time></trkpt><trkpt lat="44.42587541199192" lon="8.917504459907631"><ele>95.99999999999999</ele><time>2026-04-12T08:01:47Z</time></trkpt><trkpt lat="44.42590092326745" lon="8.917403046065246"><ele>94.0</ele><time>2026-04-12T08:01:48Z</time></trkpt><trkpt lat="44.42592276245076" lon="8.917303483024677"><ele>92.0</ele><time>2026-04-12T08:01:49Z</time></trkpt><trkpt lat="44.42594014479685" lon="8.917218535739062"><ele>90.0</ele><time>2026-04-12T08:01:50Z</time></trkpt><trkpt lat="44.42596353867808" lon="8.91709728723102"><ele>88.0</ele><time>2026-04-12T08:01:52Z</time></trkpt><trkpt lat="44.42598751048438" lon="8.916998288917455"><ele>86.0</ele><time>2026-04-12T08:01:54Z</time></trkpt><trkpt lat="44.42600915178574" lon="8.916869447955074"><ele>86.0</ele><time>2026-04-12T08:01:57Z</time></trkpt><trkpt lat="44.425987448332734" lon="8.916749497916836"><ele>86.0</ele><time>2026-04-12T08:01:59Z</time></trkpt><trkpt lat="44.42591619106684" lon="8.916693874848471"><ele>86.0</ele><time>2026-04-12T08:02:00Z</time></trkpt><trkpt lat="44.42586038958786" lon="8.916646260994701"><ele>86.0</ele><time>2026-04-12T08:02:01Z</time></trkpt><trkpt lat="44.425796823049005" lon="8.916603622427278"><ele>86.0</ele><time>2026-04-12T08:02:02Z</time></trkpt><trkpt lat="44.42573473724755" lon="8.91654588026773"><ele>86.0</ele><time>2026-04-12T08:02:03Z</time></trkpt><trkpt lat="44.42568116764892" lon="8.91647382395999"><ele>86.83333333333334</ele><time>2026-04-12T08:02:04Z</time></trkpt><trkpt lat="44.42564588652681" lon="8.916378347049159"><ele>87.66666666666667</ele><time>2026-04-12T08:02:05Z</time></trkpt><trkpt lat="44.42562432084229" lon="8.916264722270402"><ele>88.5</ele><time>2026-04-12T08:02:06Z</time></trkpt><trkpt lat="44.42560623622732" lon="8.916147289721534"><ele>89.33333333333333</ele><time>2026-04-12T08:02:07Z</time></trkpt><trkpt lat="44.42560277909353" lon="8.916028304203657"><ele>90.16666666666666</ele><time>2026-04-12T08:02:08Z</time></trkpt><trkpt lat="44.42561130769124" lon="8.915908310060331"><ele>91.0</ele><time>2026-04-12T08:02:09Z</time></trkpt><trkpt lat="44.42561970629718" lon="8.915792033290117"><ele>92.14285714285714</ele><time>2026-04-12T08:02:10Z</time></trkpt><trkpt lat="44.425618789213445" lon="8.915680129842775"><ele>93.28571428571428</ele><time>2026-04-12T08:02:11Z</time></trkpt><trkpt lat="44.425610134401374" lon="8.9155687971909"><ele>94.42857142857143</ele><time>2026-04-12T08:02:12Z</time></trkpt><trkpt lat="44.4255904203059" lon="8.915473898790587"><ele>95.57142857142857</ele><time>2026-04-12T08:02:13Z</time></trkpt><trkpt lat="44.42555822271849" lon="8.915393132923423"><ele>96.71428571428571</ele><time>2026-04-12T08:02:14Z</time></trkpt><trkpt lat="44.425515467311385" lon="8.915313243541238"><ele>97.85714285714286</ele><time>2026-04-12T08:02:15Z</time></trkpt><trkpt lat="44.42546363787384" lon="8.915247640120285"><ele>99.0</ele><time>2026-04-12T08:02:16Z</time></trkpt><trkpt lat="44.42540755934222" lon="8.915195624146097"><ele>100.16666666666667</ele><time>2026-04-12T08:02:17Z</time></trkpt><trkpt lat="44.42534563129701" lon="8.915150839421356"><ele>101.33333333333334</ele><time>2026-04-12T08:02:18Z</time></trkpt><trkpt lat="44.425271352842856" lon="8.915112933924418"><ele>102.5</ele><time>2026-04-12T08:02:19Z</time></trkpt><trkpt lat="44.42519895180771" lon="8.915085852654808"><ele>103.66666666666667</ele><time>2026-04-12T08:02:20Z</time></trkpt><trkpt lat="44.42512810258332" lon="8.9150705512474"><ele>104.83333333333334</ele><time>2026-04-12T08:02:21Z</time></trkpt><trkpt lat="44.42501104757096" lon="8.915085847192719"><ele>106.0</ele><time>2026-04-12T08:02:23Z</time></trkpt><trkpt lat="44.42489685646317" lon="8.915169651782975"><ele>107.16666666666667</ele><time>2026-04-12T08:02:25Z</time></trkpt><trkpt lat="44.42482549001323" lon="8.915237108506464"><ele>108.33333333333334</ele><time>2026-04-12T08:02:26Z</time></trkpt><trkpt lat="44.42474776400229" lon="8.915305609371131"><ele>109.5</ele><time>2026-04-12T08:02:27Z</time></trkpt><trkpt lat="44.4246733499129" lon="8.915362965785173"><ele>110.66666666666666</ele><time>2026-04-12T08:02:28Z</time></trkpt><trkpt lat="44.424601625819356" lon="8.915438970032197"><ele>111.83333333333333</ele><time>2026-04-12T08:02:29Z</time></trkpt><trkpt lat="44.4245311135843" lon="8.915504503689322"><ele>113.0</ele><time>2026-04-12T08:02:30Z</time></trkpt><trkpt lat="44.42446313305052" lon="8.915594961516048"><ele>112.99999999999999</ele><time>2026-04-12T08:02:31Z</time></trkpt><trkpt lat="44.42440384907176" lon="8.915660140505489"><ele>113.0</ele><time>2026-04-12T08:02:32Z</time></trkpt><trkpt lat="44.42435530945605" lon="8.915730752475799"><ele>113.0</ele><time>2026-04-12T08:02:33Z</time></trkpt><trkpt lat="44.42430748475272" lon="8.915824661884532"><ele>113.0</ele><time>2026-04-12T08:02:34Z</time></trkpt><trkpt lat="44.42425315750157" lon="8.91592272673238"><ele>112.99999999999999</ele><time>2026-04-12T08:02:35Z</time></trkpt><trkpt lat="44.42420667192217" lon="8.916003568988165"><ele>113.0</ele><time>2026-04-12T08:02:36Z</time></trkpt><trkpt lat="44.42411394365621" lon="8.916130887215726"><ele>110.49999999999999</ele><time>2026-04-12T08:02:38Z</time></trkpt><trkpt lat="44.424047550569924" lon="8.916148141670023"><ele>108.0</ele><time>2026-04-12T08:02:39Z</time></trkpt><trkpt lat="44.42399199210413" lon="8.916211462999556"><ele>105.5</ele><time>2026-04-12T08:02:40Z</time></trkpt><trkpt lat="44.423911979438955" lon="8.916251050970512"><ele>103.0</ele><time>2026-04-12T08:02:42Z</time></trkpt><trkpt lat="44.4238254184391" lon="8.916282919893325"><ele>100.49999999999999</ele><time>2026-04-12T08:02:44Z</time></trkpt><trkpt lat="44.423729594954494" lon="8.91630004493786"><ele>98.0</ele><time>2026-04-12T08:02:46Z</time></trkpt><trkpt lat="44.4236554555511" lon="8.91631120617097"><ele>97.99999999999999</ele><time>2026-04-12T08:02:47Z</time></trkpt><trkpt lat="44.42357185484226" lon="8.916321465101136"><ele>98.0</ele><time>2026-04-12T08:02:48Z</time></trkpt><trkpt lat="44.42348630305786" lon="8.916335061987395"><ele>98.0</ele><time>2026-04-12T08:02:49Z</time></trkpt><trkpt lat="44.423387631914" lon="8.916351252535287"><ele>98.0</ele><time>2026-04-12T08:02:50Z</time></trkpt><trkpt lat="44.42329375957618" lon="8.916351463262844"><ele>97.99999999999999</ele><time>2026-04-12T08:02:51Z</time></trkpt><trkpt lat="44.42320918784062" lon="8.916371628440757"><ele>98.0</ele><time>2026-04-12T08:02:52.001Z</time></trkpt><trkpt lat="44.423126739365166" lon="8.91638252826368"><ele>98.0</ele><time>2026-04-12T08:02:53.001Z</time></trkpt><trkpt lat="44.42303313631454" lon="8.916392987747441"><ele>98.0</ele><time>2026-04-12T08:02:54.001Z</time></trkpt><trkpt lat="44.4229530304202" lon="8.916401269305487"><ele>98.0</ele><time>2026-04-12T08:02:55.001Z</time></trkpt><trkpt lat="44.42287383802112" lon="8.916435196364908"><ele>98.0</ele><time>2026-04-12T08:02:56.001Z</time></trkpt><trkpt lat="44.42277941500957" lon="8.916450057904555"><ele>98.0</ele><time>2026-04-12T08:02:57.001Z</time></trkpt><trkpt lat="44.42265824525178" lon="8.916449135428056"><ele>99.0</ele><time>2026-04-12T08:02:58.001Z</time></trkpt><trkpt lat="44.42255054973859" lon="8.916498916025935"><ele>100.0</ele><time>2026-04-12T08:02:59.001Z</time></trkpt><trkpt lat="44.42244485525764" lon="8.916523111688297"><ele>101.0</ele><time>2026-04-12T08:03:00.001Z</time></trkpt><trkpt lat="44.42235767907953" lon="8.916532961986757"><ele>102.0</ele><time>2026-04-12T08:03:01.001Z</time></trkpt><trkpt lat="44.422266762879055" lon="8.916545985523129"><ele>103.0</ele><time>2026-04-12T08:03:02.001Z</time></trkpt><trkpt lat="44.422159592463025" lon="8.916574643610627"><ele>102.80000000000001</ele><time>2026-04-12T08:03:03.001Z</time></trkpt><trkpt lat="44.422065133907864" lon="8.916569975917229"><ele>102.6</ele><time>2026-04-12T08:03:04.001Z</time></trkpt><trkpt lat="44.42196616582646" lon="8.916590976082915"><ele>102.4</ele><time>2026-04-12T08:03:05.001Z</time></trkpt><trkpt lat="44.42185828423898" lon="8.91664953707163"><ele>102.19999999999999</ele><time>2026-04-12T08:03:06.001Z</time></trkpt><trkpt lat="44.42175410304193" lon="8.916661489130071"><ele>102.0</ele><time>2026-04-12T08:03:07.001Z</time></trkpt><trkpt lat="44.421671023324215" lon="8.916662669975068"><ele>102.0</ele><time>2026-04-12T08:03:08.001Z</time></trkpt><trkpt lat="44.421576559738064" lon="8.91666365128276"><ele>102.0</ele><time>2026-04-12T08:03:09.001Z</time></trkpt><trkpt lat="44.42148118879272" lon="8.916684502427024"><ele>102.0</ele><time>2026-04-12T08:03:10.001Z</time></trkpt><trkpt lat="44.42137585891475" lon="8.916737604469944"><ele>102.0</ele><time>2026-04-12T08:03:11.001Z</time></trkpt><trkpt lat="44.42127824663463" lon="8.916747355297279"><ele>102.0</ele><time>2026-04-12T08:03:12.001Z</time></trkpt><trkpt lat="44.421187101689604" lon="8.916760463324211"><ele>97.0</ele><time>2026-04-12T08:03:13.001Z</time></trkpt><trkpt lat="44.421100628260966" lon="8.916772454930772"><ele>92.0</ele><time>2026-04-12T08:03:14.001Z</time></trkpt><trkpt lat="44.4210077767896" lon="8.916782288458942"><ele>87.0</ele><time>2026-04-12T08:03:15.001Z</time></trkpt><trkpt lat="44.42092433995815" lon="8.916792321456821"><ele>82.0</ele><time>2026-04-12T08:03:16.001Z</time></trkpt><trkpt lat="44.420851352084505" lon="8.916792102788845"><ele>77.0</ele><time>2026-04-12T08:03:17.001Z</time></trkpt><trkpt lat="44.42078339879351" lon="8.91679218715656"><ele>72.0</ele><time>2026-04-12T08:03:18.001Z</time></trkpt><trkpt lat="44.420715130502764" lon="8.916780111639643"><ele>73.5</ele><time>2026-04-12T08:03:19.001Z</time></trkpt><trkpt lat="44.420624425365595" lon="8.91671347339891"><ele>75.0</ele><time>2026-04-12T08:03:21.001Z</time></trkpt><trkpt lat="44.42058432837953" lon="8.916642939163951"><ele>76.5</ele><time>2026-04-12T08:03:22.001Z</time></trkpt><trkpt lat="44.42054813469476" lon="8.916558403960662"><ele>78.0</ele><time>2026-04-12T08:03:23.001Z</time></trkpt><trkpt lat="44.42050310339176" lon="8.91645677445432"><ele>79.5</ele><time>2026-04-12T08:03:24.001Z</time></trkpt><trkpt lat="44.4204479963976" lon="8.916370622285486"><ele>81.0</ele><time>2026-04-12T08:03:25.001Z</time></trkpt><trkpt lat="44.42039512783257" lon="8.916289761836094"><ele>81.0</ele><time>2026-04-12T08:03:26.001Z</time></trkpt><trkpt lat="44.42033474163455" lon="8.916225495742784"><ele>81.0</ele><time>2026-04-12T08:03:27.001Z</time></trkpt><trkpt lat="44.42027439964548" lon="8.916170123731328"><ele>81.0</ele><time>2026-04-12T08:03:28.001Z</time></trkpt><trkpt lat="44.420205622142035" lon="8.916129550946682"><ele>81.0</ele><time>2026-04-12T08:03:29.001Z</time></trkpt><trkpt lat="44.42012252159162" lon="8.91609687641342"><ele>81.0</ele><time>2026-04-12T08:03:30.001Z</time></trkpt><trkpt lat="44.420032758086606" lon="8.916076235275051"><ele>81.0</ele><time>2026-04-12T08:03:31.001Z</time></trkpt><trkpt lat="44.41994447564354" lon="8.916049651315292"><ele>81.0</ele><time>2026-04-12T08:03:32.001Z</time></trkpt><trkpt lat="44.419876327214844" lon="8.916026858749667"><ele>81.0</ele><time>2026-04-12T08:03:33.001Z</time></trkpt><trkpt lat="44.419793363897426" lon="8.915989892428374"><ele>81.0</ele><time>2026-04-12T08:03:35.001Z</time></trkpt><trkpt lat="44.4197262004928" lon="8.915982521805473"><ele>81.0</ele><time>2026-04-12T08:03:37.001Z</time></trkpt><trkpt lat="44.41962461488515" lon="8.91595498606177"><ele>81.0</ele><time>2026-04-12T08:03:45Z</time></trkpt><trkpt lat="44.419526657829934" lon="8.91593834967212"><ele>81.0</ele><time>2026-04-12T08:03:48Z</time></trkpt><trkpt lat="44.419435170545846" lon="8.915903113310554"><ele>80.33333333333333</ele><time>2026-04-12T08:03:50Z</time></trkpt><trkpt lat="44.41936665778922" lon="8.915900492933433"><ele>79.66666666666667</ele><time>2026-04-12T08:03:51Z</time></trkpt><trkpt lat="44.41929488659233" lon="8.915897806788177"><ele>79.0</ele><time>2026-04-12T08:03:52Z</time></trkpt><trkpt lat="44.41916671190686" lon="8.915899324943695"><ele>78.33333333333334</ele><time>2026-04-12T08:03:54Z</time></trkpt><trkpt lat="44.41909762827533" lon="8.915917871122874"><ele>77.66666666666667</ele><time>2026-04-12T08:03:55Z</time></trkpt><trkpt lat="44.41903317939671" lon="8.915913083444053"><ele>77.0</ele><time>2026-04-12T08:03:56Z</time></trkpt><trkpt lat="44.41897182436604" lon="8.915886345093508"><ele>80.4</ele><time>2026-04-12T08:03:57Z</time></trkpt><trkpt lat="44.41887988476165" lon="8.915761592169249"><ele>83.80000000000001</ele><time>2026-04-12T08:03:59Z</time></trkpt><trkpt lat="44.418821361031824" lon="8.91572823641305"><ele>87.2</ele><time>2026-04-12T08:04:00Z</time></trkpt><trkpt lat="44.41880810858949" lon="8.915567029489772"><ele>90.60000000000001</ele><time>2026-04-12T08:04:02Z</time></trkpt><trkpt lat="44.41881756593152" lon="8.915385026343586"><ele>94.0</ele><time>2026-04-12T08:04:04Z</time></trkpt><trkpt lat="44.41888012926065" lon="8.915287757865624"><ele>95.80000000000001</ele><time>2026-04-12T08:04:05Z</time></trkpt><trkpt lat="44.41892573336557" lon="8.915213864913689"><ele>97.60000000000001</ele><time>2026-04-12T08:04:06Z</time></trkpt><trkpt lat="44.41901085690748" lon="8.915089225424389"><ele>99.4</ele><time>2026-04-12T08:04:08Z</time></trkpt><trkpt lat="44.419072504650394" lon="8.915034759688236"><ele>101.2</ele><time>2026-04-12T08:04:09Z</time></trkpt><trkpt lat="44.41915169203229" lon="8.91490787647914"><ele>103.0</ele><time>2026-04-12T08:04:11Z</time></trkpt><trkpt lat="44.41921533107838" lon="8.914826033943172"><ele>103.16666666666667</ele><time>2026-04-12T08:04:12Z</time></trkpt><trkpt lat="44.41926114990572" lon="8.914752279814659"><ele>103.33333333333334</ele><time>2026-04-12T08:04:13Z</time></trkpt><trkpt lat="44.41935295078434" lon="8.914618588257605"><ele>103.5</ele><time>2026-04-12T08:04:15Z</time></trkpt><trkpt lat="44.41939406257647" lon="8.914519667720855"><ele>103.66666666666666</ele><time>2026-04-12T08:04:16Z</time></trkpt><trkpt lat="44.41943451720217" lon="8.914422017873338"><ele>103.83333333333333</ele><time>2026-04-12T08:04:17Z</time></trkpt><trkpt lat="44.41947740991445" lon="8.914326467148964"><ele>104.0</ele><time>2026-04-12T08:04:18Z</time></trkpt><trkpt lat="44.419531738330754" lon="8.914235985459982"><ele>103.99999999999999</ele><time>2026-04-12T08:04:19Z</time></trkpt><trkpt lat="44.419573532520175" lon="8.91415615154187"><ele>104.0</ele><time>2026-04-12T08:04:20Z</time></trkpt><trkpt lat="44.41961271102394" lon="8.9140615567394"><ele>104.0</ele><time>2026-04-12T08:04:21Z</time></trkpt><trkpt lat="44.419671526489225" lon="8.913981383148354"><ele>104.0</ele><time>2026-04-12T08:04:22Z</time></trkpt><trkpt lat="44.41976740070872" lon="8.913897923070943"><ele>103.99999999999999</ele><time>2026-04-12T08:04:24Z</time></trkpt><trkpt lat="44.41983931068241" lon="8.913917629267209"><ele>104.0</ele><time>2026-04-12T08:04:25Z</time></trkpt><trkpt lat="44.41989032387652" lon="8.913841353137661"><ele>104.99999999999999</ele><time>2026-04-12T08:04:26Z</time></trkpt><trkpt lat="44.419974397631314" lon="8.913787405474386"><ele>106.0</ele><time>2026-04-12T08:04:27Z</time></trkpt><trkpt lat="44.42003289981828" lon="8.9137344727289"><ele>107.0</ele><time>2026-04-12T08:04:28Z</time></trkpt><trkpt lat="44.420096927102655" lon="8.913675926491905"><ele>108.0</ele><time>2026-04-12T08:04:29Z</time></trkpt><trkpt lat="44.42018010770181" lon="8.913612234866939"><ele>108.99999999999999</ele><time>2026-04-12T08:04:31Z</time></trkpt><trkpt lat="44.42019978704653" lon="8.913464553354505"><ele>110.0</ele><time>2026-04-12T08:04:33Z</time></trkpt><trkpt lat="44.42019451881081" lon="8.913297210841314"><ele>110.0</ele><time>2026-04-12T08:04:34Z</time></trkpt><trkpt lat="44.42021224657002" lon="8.913187597150772"><ele>110.0</ele><time>2026-04-12T08:04:35Z</time></trkpt><trkpt lat="44.42014261624544" lon="8.913016433112915"><ele>110.0</ele><time>2026-04-12T08:04:37Z</time></trkpt><trkpt lat="44.42006206719639" lon="8.912846503370877"><ele>110.0</ele><time>2026-04-12T08:04:39Z</time></trkpt><trkpt lat="44.42000414077079" lon="8.912769920403646"><ele>110.0</ele><time>2026-04-12T08:04:40Z</time></trkpt><trkpt lat="44.4199255084454" lon="8.912701596087038"><ele>109.99999999999999</ele><time>2026-04-12T08:04:41Z</time></trkpt><trkpt lat="44.41988072671864" lon="8.912598526143839"><ele>110.0</ele><time>2026-04-12T08:04:42Z</time></trkpt><trkpt lat="44.41981584726047" lon="8.91251242527436"><ele>110.0</ele><time>2026-04-12T08:04:43Z</time></trkpt><trkpt lat="44.41973746453547" lon="8.912446281319022"><ele>110.0</ele><time>2026-04-12T08:04:44Z</time></trkpt><trkpt lat="44.41967653575625" lon="8.912370614993531"><ele>109.99999999999999</ele><time>2026-04-12T08:04:45Z</time></trkpt><trkpt lat="44.41961198272185" lon="8.912286024558439"><ele>110.0</ele><time>2026-04-12T08:04:46Z</time></trkpt><trkpt lat="44.41954688259366" lon="8.912201438134181"><ele>108.6</ele><time>2026-04-12T08:04:47Z</time></trkpt><trkpt lat="44.41948489120341" lon="8.912109202569635"><ele>107.2</ele><time>2026-04-12T08:04:48Z</time></trkpt><trkpt lat="44.41942012287396" lon="8.912026849794186"><ele>105.80000000000001</ele><time>2026-04-12T08:04:49Z</time></trkpt><trkpt lat="44.41935803343298" lon="8.911935685477397"><ele>104.4</ele><time>2026-04-12T08:04:50Z</time></trkpt><trkpt lat="44.419282879502035" lon="8.9118339826007"><ele>103.0</ele><time>2026-04-12T08:04:51Z</time></trkpt><trkpt lat="44.41920613797808" lon="8.911738493766912"><ele>102.80000000000001</ele><time>2026-04-12T08:04:52Z</time></trkpt><trkpt lat="44.41912785785103" lon="8.911656972171784"><ele>102.6</ele><time>2026-04-12T08:04:53Z</time></trkpt><trkpt lat="44.419080345318044" lon="8.911506409206462"><ele>102.4</ele><time>2026-04-12T08:04:54Z</time></trkpt><trkpt lat="44.41901991913776" lon="8.911418515396456"><ele>102.19999999999999</ele><time>2026-04-12T08:04:55Z</time></trkpt><trkpt lat="44.41896271383788" lon="8.91133193130713"><ele>102.0</ele><time>2026-04-12T08:04:56Z</time></trkpt><trkpt lat="44.41892764175087" lon="8.911246287379484"><ele>102.0</ele><time>2026-04-12T08:04:57Z</time></trkpt><trkpt lat="44.41889134757929" lon="8.911144681601975"><ele>102.0</ele><time>2026-04-12T08:04:58Z</time></trkpt><trkpt lat="44.41887259122774" lon="8.91103456213973"><ele>102.0</ele><time>2026-04-12T08:04:59Z</time></trkpt><trkpt lat="44.41886661809042" lon="8.910925563933416"><ele>102.0</ele><time>2026-04-12T08:05:00Z</time></trkpt><trkpt lat="44.418874590776895" lon="8.910826203192737"><ele>102.0</ele><time>2026-04-12T08:05:01Z</time></trkpt><trkpt lat="44.41890340319016" lon="8.91071799926855"><ele>102.0</ele><time>2026-04-12T08:05:02Z</time></trkpt><trkpt lat="44.41895722656863" lon="8.910617789203679"><ele>101.5</ele><time>2026-04-12T08:05:03Z</time></trkpt><trkpt lat="44.41902779045703" lon="8.91054710705224"><ele>101.0</ele><time>2026-04-12T08:05:04Z</time></trkpt><trkpt lat="44.41910325096681" lon="8.910474436503415"><ele>100.5</ele><time>2026-04-12T08:05:05Z</time></trkpt><trkpt lat="44.41917450853793" lon="8.910407526501373"><ele>100.0</ele><time>2026-04-12T08:05:06Z</time></trkpt><trkpt lat="44.419263714930736" lon="8.910390720727412"><ele>99.5</ele><time>2026-04-12T08:05:07Z</time></trkpt><trkpt lat="44.419350157410165" lon="8.910345022050356"><ele>99.0</ele><time>2026-04-12T08:05:08Z</time></trkpt><trkpt lat="44.41943625472076" lon="8.9103035393962"><ele>99.0</ele><time>2026-04-12T08:05:09Z</time></trkpt><trkpt lat="44.419518125495614" lon="8.91025511614161"><ele>99.0</ele><time>2026-04-12T08:05:10Z</time></trkpt><trkpt lat="44.41962106304069" lon="8.910211476707396"><ele>99.0</ele><time>2026-04-12T08:05:11Z</time></trkpt><trkpt lat="44.41970977150636" lon="8.91017222712579"><ele>99.0</ele><time>2026-04-12T08:05:12Z</time></trkpt><trkpt lat="44.41979095897478" lon="8.910127106989632"><ele>99.0</ele><time>2026-04-12T08:05:13Z</time></trkpt><trkpt lat="44.41985512479041" lon="8.910084477979598"><ele>99.0</ele><time>2026-04-12T08:05:14Z</time></trkpt><trkpt lat="44.419927219112736" lon="8.910044066814121"><ele>98.80000000000001</ele><time>2026-04-12T08:05:15Z</time></trkpt><trkpt lat="44.419995372568316" lon="8.91003023628241"><ele>98.60000000000001</ele><time>2026-04-12T08:05:16Z</time></trkpt><trkpt lat="44.420105619555265" lon="8.909938292077808"><ele>98.4</ele><time>2026-04-12T08:05:18Z</time></trkpt><trkpt lat="44.42015694940719" lon="8.909815025380906"><ele>98.2</ele><time>2026-04-12T08:05:20Z</time></trkpt><trkpt lat="44.42016346838114" lon="8.909696009848538"><ele>98.0</ele><time>2026-04-12T08:05:21Z</time></trkpt><trkpt lat="44.420136599083776" lon="8.909537520664411"><ele>98.0</ele><time>2026-04-12T08:05:23.001Z</time></trkpt><trkpt lat="44.420062585674486" lon="8.909414375344708"><ele>98.0</ele><time>2026-04-12T08:05:25.001Z</time></trkpt><trkpt lat="44.42009588006699" lon="8.909312918016925"><ele>98.0</ele><time>2026-04-12T08:05:26.001Z</time></trkpt><trkpt lat="44.42007955981145" lon="8.909221508567892"><ele>98.0</ele><time>2026-04-12T08:05:27.001Z</time></trkpt><trkpt lat="44.42004342670536" lon="8.909019127956553"><ele>98.0</ele><time>2026-04-12T08:05:29.001Z</time></trkpt><trkpt lat="44.42002685391014" lon="8.90892630418437"><ele>98.0</ele><time>2026-04-12T08:05:30.001Z</time></trkpt><trkpt lat="44.42000167746044" lon="8.90878530165142"><ele>98.0</ele><time>2026-04-12T08:05:32.001Z</time></trkpt><trkpt lat="44.419978969556865" lon="8.90865830944009"><ele>98.0</ele><time>2026-04-12T08:05:33.001Z</time></trkpt><trkpt lat="44.419957192711045" lon="8.908508163898537"><ele>98.0</ele><time>2026-04-12T08:05:35.001Z</time></trkpt><trkpt lat="44.41989328571048" lon="8.90817525132596"><ele>98.0</ele><time>2026-04-12T08:05:37.001Z</time></trkpt><trkpt lat="44.41986409607373" lon="8.908010341282333"><ele>98.0</ele><time>2026-04-12T08:05:38.001Z</time></trkpt><trkpt lat="44.41982747629585" lon="8.90789455672117"><ele>98.0</ele><time>2026-04-12T08:05:39.001Z</time></trkpt><trkpt lat="44.419825928661936" lon="8.907795625836846"><ele>98.0</ele><time>2026-04-12T08:05:40.001Z</time></trkpt><trkpt lat="44.41980040498871" lon="8.90765278371528"><ele>98.0</ele><time>2026-04-12T08:05:42.001Z</time></trkpt><trkpt lat="44.41976962397828" lon="8.907497787854334"><ele>98.83333333333333</ele><time>2026-04-12T08:05:44.001Z</time></trkpt><trkpt lat="44.41971159397544" lon="8.907410318065665"><ele>99.66666666666666</ele><time>2026-04-12T08:05:45.001Z</time></trkpt><trkpt lat="44.41964580413325" lon="8.907392540125663"><ele>100.5</ele><time>2026-04-12T08:05:46.001Z</time></trkpt><trkpt lat="44.41957787236457" lon="8.907399131582622"><ele>101.33333333333334</ele><time>2026-04-12T08:05:47.001Z</time></trkpt><trkpt lat="44.419512252532456" lon="8.907470102851281"><ele>102.16666666666667</ele><time>2026-04-12T08:05:48.001Z</time></trkpt><trkpt lat="44.4193844440683" lon="8.907538488538643"><ele>103.0</ele><time>2026-04-12T08:05:50.001Z</time></trkpt><trkpt lat="44.419309474140725" lon="8.907556799756184"><ele>100.33333333333334</ele><time>2026-04-12T08:05:51Z</time></trkpt><trkpt lat="44.419234153224814" lon="8.907591144243069"><ele>97.66666666666667</ele><time>2026-04-12T08:05:52Z</time></trkpt><trkpt lat="44.419161905300996" lon="8.907609830404807"><ele>95.0</ele><time>2026-04-12T08:05:53Z</time></trkpt><trkpt lat="44.41909746845534" lon="8.907641591218168"><ele>92.33333333333334</ele><time>2026-04-12T08:05:54Z</time></trkpt><trkpt lat="44.4190334761917" lon="8.907663526690241"><ele>89.66666666666667</ele><time>2026-04-12T08:05:55Z</time></trkpt><trkpt lat="44.418966438207185" lon="8.907693148985189"><ele>87.0</ele><time>2026-04-12T08:05:56Z</time></trkpt><trkpt lat="44.41886550168695" lon="8.907769366317613"><ele>87.0</ele><time>2026-04-12T08:05:58Z</time></trkpt><trkpt lat="44.418826252509284" lon="8.907884299205346"><ele>87.0</ele><time>2026-04-12T08:06:00Z</time></trkpt><trkpt lat="44.4188010345516" lon="8.907984257398613"><ele>87.0</ele><time>2026-04-12T08:06:03Z</time></trkpt><trkpt lat="44.41878130208269" lon="8.908109716674515"><ele>87.0</ele><time>2026-04-12T08:06:05Z</time></trkpt><trkpt lat="44.418778373249374" lon="8.908217350966854"><ele>87.0</ele><time>2026-04-12T08:06:06Z</time></trkpt><trkpt lat="44.41876080157842" lon="8.908399998381084"><ele>83.0</ele><time>2026-04-12T08:06:08Z</time></trkpt><trkpt lat="44.41875251834203" lon="8.908506682283882"><ele>79.0</ele><time>2026-04-12T08:06:09Z</time></trkpt><trkpt lat="44.418745545357524" lon="8.9086090254175"><ele>75.0</ele><time>2026-04-12T08:06:10Z</time></trkpt><trkpt lat="44.418743851594634" lon="8.908711036916053"><ele>71.0</ele><time>2026-04-12T08:06:11Z</time></trkpt><trkpt lat="44.418746411019725" lon="8.908824759519314"><ele>67.0</ele><time>2026-04-12T08:06:12Z</time></trkpt><trkpt lat="44.41875952426246" lon="8.908926851608406"><ele>63.0</ele><time>2026-04-12T08:06:13Z</time></trkpt><trkpt lat="44.418776671712266" lon="8.909029511083942"><ele>63.0</ele><time>2026-04-12T08:06:14Z</time></trkpt><trkpt lat="44.41879627104864" lon="8.909126155042273"><ele>63.0</ele><time>2026-04-12T08:06:15Z</time></trkpt><trkpt lat="44.418821134726834" lon="8.909223233654961"><ele>63.0</ele><time>2026-04-12T08:06:16Z</time></trkpt><trkpt lat="44.41885817215339" lon="8.909345828476791"><ele>63.0</ele><time>2026-04-12T08:06:17Z</time></trkpt><trkpt lat="44.41888674430537" lon="8.909437107455897"><ele>63.0</ele><time>2026-04-12T08:06:18Z</time></trkpt><trkpt lat="44.41891793070873" lon="8.90953885778313"><ele>63.0</ele><time>2026-04-12T08:06:19Z</time></trkpt><trkpt lat="44.41894832896263" lon="8.909643682638555"><ele>68.0</ele><time>2026-04-12T08:06:20Z</time></trkpt><trkpt lat="44.41898328650381" lon="8.909750460678087"><ele>73.0</ele><time>2026-04-12T08:06:21Z</time></trkpt><trkpt lat="44.41898865414479" lon="8.909839362934903"><ele>78.0</ele><time>2026-04-12T08:06:22Z</time></trkpt><trkpt lat="44.4189667407101" lon="8.909933527921067"><ele>83.0</ele><time>2026-04-12T08:06:23Z</time></trkpt><trkpt lat="44.41889687133103" lon="8.910056768594089"><ele>88.0</ele><time>2026-04-12T08:06:25Z</time></trkpt><trkpt lat="44.41875385590431" lon="8.910079097438558"><ele>84.80000000000001</ele><time>2026-04-12T08:06:27Z</time></trkpt><trkpt lat="44.418692080538364" lon="8.910047551048851"><ele>81.60000000000001</ele><time>2026-04-12T08:06:28Z</time></trkpt><trkpt lat="44.418585242887694" lon="8.91001642052788"><ele>78.4</ele><time>2026-04-12T08:06:30Z</time></trkpt><trkpt lat="44.41857257471641" lon="8.909801076269032"><ele>75.2</ele><time>2026-04-12T08:06:31Z</time></trkpt><trkpt lat="44.4185527243905" lon="8.909691414320077"><ele>72.0</ele><time>2026-04-12T08:06:32Z</time></trkpt><trkpt lat="44.41853205570443" lon="8.90957998009419"><ele>72.0</ele><time>2026-04-12T08:06:33Z</time></trkpt><trkpt lat="44.418504628159084" lon="8.909456195258224"><ele>72.0</ele><time>2026-04-12T08:06:34Z</time></trkpt><trkpt lat="44.418493602398804" lon="8.90933846430137"><ele>72.0</ele><time>2026-04-12T08:06:35Z</time></trkpt><trkpt lat="44.418480899928554" lon="8.909216891561469"><ele>72.0</ele><time>2026-04-12T08:06:36Z</time></trkpt><trkpt lat="44.41846437691363" lon="8.909092780976259"><ele>72.0</ele><time>2026-04-12T08:06:37Z</time></trkpt><trkpt lat="44.418465809419004" lon="8.908974481244496"><ele>72.0</ele><time>2026-04-12T08:06:38Z</time></trkpt><trkpt lat="44.41847076416934" lon="8.908846836290321"><ele>71.5</ele><time>2026-04-12T08:06:39Z</time></trkpt><trkpt lat="44.418480834594355" lon="8.90872891424509"><ele>71.0</ele><time>2026-04-12T08:06:40Z</time></trkpt><trkpt lat="44.41849236950607" lon="8.908612551400537"><ele>70.5</ele><time>2026-04-12T08:06:41Z</time></trkpt><trkpt lat="44.418508331951934" lon="8.90849942163345"><ele>70.0</ele><time>2026-04-12T08:06:42Z</time></trkpt><trkpt lat="44.418524705916326" lon="8.908410026794133"><ele>69.5</ele><time>2026-04-12T08:06:43Z</time></trkpt><trkpt lat="44.4185277375445" lon="8.90831766779249"><ele>69.0</ele><time>2026-04-12T08:06:44Z</time></trkpt><trkpt lat="44.41849686297957" lon="8.908153734690726"><ele>69.0</ele><time>2026-04-12T08:06:46Z</time></trkpt><trkpt lat="44.41845362403357" lon="8.908083442588456"><ele>69.0</ele><time>2026-04-12T08:06:47Z</time></trkpt><trkpt lat="44.418354114146574" lon="8.90799060291494"><ele>69.0</ele><time>2026-04-12T08:06:49Z</time></trkpt><trkpt lat="44.41824433168695" lon="8.907971605263874"><ele>69.0</ele><time>2026-04-12T08:06:51Z</time></trkpt><trkpt lat="44.41815869624523" lon="8.908053560172265"><ele>69.0</ele><time>2026-04-12T08:06:53Z</time></trkpt><trkpt lat="44.41807534862742" lon="8.908152878341289"><ele>69.0</ele><time>2026-04-12T08:06:55Z</time></trkpt><trkpt lat="44.41804300978364" lon="8.908274325959036"><ele>69.0</ele><time>2026-04-12T08:06:57Z</time></trkpt><trkpt lat="44.418038800860174" lon="8.908388312812255"><ele>69.0</ele><time>2026-04-12T08:06:58Z</time></trkpt><trkpt lat="44.418048697710276" lon="8.908485880836512"><ele>69.0</ele><time>2026-04-12T08:06:59Z</time></trkpt><trkpt lat="44.41807588917951" lon="8.908625817865573"><ele>69.0</ele><time>2026-04-12T08:07:01Z</time></trkpt><trkpt lat="44.41810342791788" lon="8.908766575678746"><ele>69.5</ele><time>2026-04-12T08:07:03Z</time></trkpt><trkpt lat="44.41812941856765" lon="8.90889942081261"><ele>70.0</ele><time>2026-04-12T08:07:04Z</time></trkpt><trkpt lat="44.41814754460936" lon="8.908992068371065"><ele>70.5</ele><time>2026-04-12T08:07:05Z</time></trkpt><trkpt lat="44.418167927030055" lon="8.909099521774325"><ele>71.0</ele><time>2026-04-12T08:07:06Z</time></trkpt><trkpt lat="44.418192063824264" lon="8.909226156282099"><ele>71.5</ele><time>2026-04-12T08:07:07Z</time></trkpt><trkpt lat="44.418215926556115" lon="8.909351353249429"><ele>72.0</ele><time>2026-04-12T08:07:08Z</time></trkpt><trkpt lat="44.41823653453365" lon="8.909479274571629"><ele>72.0</ele><time>2026-04-12T08:07:09Z</time></trkpt><trkpt lat="44.4182126218571" lon="8.909590801036986"><ele>72.0</ele><time>2026-04-12T08:07:10Z</time></trkpt><trkpt lat="44.41814870859134" lon="8.909662994675058"><ele>72.0</ele><time>2026-04-12T08:07:11Z</time></trkpt><trkpt lat="44.41808593392606" lon="8.909728539121648"><ele>72.0</ele><time>2026-04-12T08:07:12Z</time></trkpt><trkpt lat="44.418029624953626" lon="8.909811072131191"><ele>72.0</ele><time>2026-04-12T08:07:13Z</time></trkpt><trkpt lat="44.41796348521765" lon="8.909896092309463"><ele>72.0</ele><time>2026-04-12T08:07:14Z</time></trkpt><trkpt lat="44.417891376584144" lon="8.909988344304807"><ele>72.4</ele><time>2026-04-12T08:07:15Z</time></trkpt><trkpt lat="44.417823495355215" lon="8.910089953651408"><ele>72.80000000000001</ele><time>2026-04-12T08:07:16Z</time></trkpt><trkpt lat="44.41775992793387" lon="8.91018021134869"><ele>73.2</ele><time>2026-04-12T08:07:17Z</time></trkpt><trkpt lat="44.41768123108649" lon="8.910245713873895"><ele>73.60000000000001</ele><time>2026-04-12T08:07:18Z</time></trkpt><trkpt lat="44.41761175715142" lon="8.910296054349185"><ele>74.0</ele><time>2026-04-12T08:07:19Z</time></trkpt><trkpt lat="44.41750181901042" lon="8.910341065647735"><ele>74.0</ele><time>2026-04-12T08:07:21Z</time></trkpt><trkpt lat="44.417418417006374" lon="8.910281594764557"><ele>74.0</ele><time>2026-04-12T08:07:22Z</time></trkpt><trkpt lat="44.41732827739902" lon="8.910293319116013"><ele>74.0</ele><time>2026-04-12T08:07:23Z</time></trkpt><trkpt lat="44.41721399427845" lon="8.910223218481711"><ele>74.0</ele><time>2026-04-12T08:07:25Z</time></trkpt><trkpt lat="44.4170688822317" lon="8.910234544606631"><ele>72.0</ele><time>2026-04-12T08:07:27Z</time></trkpt><trkpt lat="44.41698138705222" lon="8.910205367798397"><ele>70.0</ele><time>2026-04-12T08:07:28Z</time></trkpt><trkpt lat="44.4169103154968" lon="8.910185536629237"><ele>68.0</ele><time>2026-04-12T08:07:29Z</time></trkpt><trkpt lat="44.4168221621635" lon="8.910172486820509"><ele>66.0</ele><time>2026-04-12T08:07:30Z</time></trkpt><trkpt lat="44.416721017203436" lon="8.91019406782955"><ele>64.0</ele><time>2026-04-12T08:07:31Z</time></trkpt><trkpt lat="44.41662418591488" lon="8.91014301752269"><ele>64.0</ele><time>2026-04-12T08:07:32Z</time></trkpt><trkpt lat="44.41653208852508" lon="8.910137762397712"><ele>64.0</ele><time>2026-04-12T08:07:33.001Z</time></trkpt><trkpt lat="44.4164515928143" lon="8.91012272313217"><ele>64.0</ele><time>2026-04-12T08:07:34.001Z</time></trkpt><trkpt lat="44.41634106638224" lon="8.910101970360492"><ele>64.0</ele><time>2026-04-12T08:07:35.001Z</time></trkpt><trkpt lat="44.41624724387055" lon="8.910084354043127"><ele>64.0</ele><time>2026-04-12T08:07:36.001Z</time></trkpt><trkpt lat="44.41616021230564" lon="8.910055435906504"><ele>59.666666666666664</ele><time>2026-04-12T08:07:37.001Z</time></trkpt><trkpt lat="44.41607272908042" lon="8.910055482881038"><ele>55.33333333333333</ele><time>2026-04-12T08:07:38.001Z</time></trkpt><trkpt lat="44.415984687859655" lon="8.910038326395448"><ele>51.0</ele><time>2026-04-12T08:07:39.001Z</time></trkpt><trkpt lat="44.415924437548114" lon="8.910011203201906"><ele>46.666666666666664</ele><time>2026-04-12T08:07:40.001Z</time></trkpt><trkpt lat="44.41582830665351" lon="8.909994998611358"><ele>42.33333333333333</ele><time>2026-04-12T08:07:41.001Z</time></trkpt><trkpt lat="44.4157353216744" lon="8.909989333415792"><ele>38.0</ele><time>2026-04-12T08:07:42.001Z</time></trkpt><trkpt lat="44.41563948264102" lon="8.909971715367558"><ele>38.0</ele><time>2026-04-12T08:07:43.001Z</time></trkpt><trkpt lat="44.41556544059663" lon="8.90997170956682"><ele>38.0</ele><time>2026-04-12T08:07:44.001Z</time></trkpt><trkpt lat="44.41549764291539" lon="8.909949087237937"><ele>38.0</ele><time>2026-04-12T08:07:45.001Z</time></trkpt><trkpt lat="44.41538678570883" lon="8.909945240413172"><ele>38.0</ele><time>2026-04-12T08:07:46.001Z</time></trkpt><trkpt lat="44.41529468040576" lon="8.909932699239869"><ele>38.0</ele><time>2026-04-12T08:07:47.001Z</time></trkpt><trkpt lat="44.41521465622096" lon="8.90992254529684"><ele>38.0</ele><time>2026-04-12T08:07:48.001Z</time></trkpt><trkpt lat="44.415145663544365" lon="8.909886012266574"><ele>38.199999999999996</ele><time>2026-04-12T08:07:49.001Z</time></trkpt><trkpt lat="44.41507886903899" lon="8.909834404105265"><ele>38.4</ele><time>2026-04-12T08:07:50.001Z</time></trkpt><trkpt lat="44.41499177033245" lon="8.909757384323104"><ele>38.599999999999994</ele><time>2026-04-12T08:07:51.001Z</time></trkpt><trkpt lat="44.41489987809841" lon="8.909701800780157"><ele>38.8</ele><time>2026-04-12T08:07:52.001Z</time></trkpt><trkpt lat="44.41479526911801" lon="8.909689829774383"><ele>39.0</ele><time>2026-04-12T08:07:53.001Z</time></trkpt><trkpt lat="44.41469374390986" lon="8.909664014950303"><ele>36.2</ele><time>2026-04-12T08:07:54.001Z</time></trkpt><trkpt lat="44.414599490074764" lon="8.909619024753267"><ele>33.4</ele><time>2026-04-12T08:07:55.001Z</time></trkpt><trkpt lat="44.41450611138052" lon="8.909566203371016"><ele>30.6</ele><time>2026-04-12T08:07:56.001Z</time></trkpt><trkpt lat="44.414423592263915" lon="8.909520413646366"><ele>27.8</ele><time>2026-04-12T08:07:57Z</time></trkpt><trkpt lat="44.41434929880691" lon="8.90948303560619"><ele>25.0</ele><time>2026-04-12T08:07:58Z</time></trkpt><trkpt lat="44.41425979075345" lon="8.909448038832178"><ele>25.000000000000004</ele><time>2026-04-12T08:07:59Z</time></trkpt><trkpt lat="44.414182569871926" lon="8.909410208221209"><ele>25.0</ele><time>2026-04-12T08:08:00Z</time></trkpt><trkpt lat="44.41410711262551" lon="8.909372192746332"><ele>25.0</ele><time>2026-04-12T08:08:01Z</time></trkpt><trkpt lat="44.4140436510343" lon="8.909333798192451"><ele>25.0</ele><time>2026-04-12T08:08:02Z</time></trkpt><trkpt lat="44.41395369310303" lon="8.909323076606412"><ele>25.000000000000004</ele><time>2026-04-12T08:08:04Z</time></trkpt><trkpt lat="44.41384943712378" lon="8.909373174977786"><ele>25.0</ele><time>2026-04-12T08:08:06Z</time></trkpt><trkpt lat="44.41378941658072" lon="8.909409364307304"><ele>23.000000000000004</ele><time>2026-04-12T08:08:08Z</time></trkpt><trkpt lat="44.41372005092668" lon="8.909452192338053"><ele>21.0</ele><time>2026-04-12T08:08:10Z</time></trkpt><trkpt lat="44.413661054372106" lon="8.909487759593388"><ele>19.0</ele><time>2026-04-12T08:08:12Z</time></trkpt><trkpt lat="44.41358190421592" lon="8.909534055093674"><ele>17.0</ele><time>2026-04-12T08:08:15Z</time></trkpt><trkpt lat="44.41351476674003" lon="8.909523893008647"><ele>15.0</ele><time>2026-04-12T08:08:16Z</time></trkpt><trkpt lat="44.413414971478325" lon="8.9095017218097"><ele>13.0</ele><time>2026-04-12T08:08:18Z</time></trkpt><trkpt lat="44.413336358089815" lon="8.909492405862453"><ele>12.999999999999998</ele><time>2026-04-12T08:08:20Z</time></trkpt><trkpt lat="44.41325627069547" lon="8.909506751126159"><ele>13.0</ele><time>2026-04-12T08:08:22Z</time></trkpt><trkpt lat="44.41315850455492" lon="8.909557514302268"><ele>13.0</ele><time>2026-04-12T08:08:24Z</time></trkpt><trkpt lat="44.413076906929845" lon="8.909622019692987"><ele>13.0</ele><time>2026-04-12T08:08:26Z</time></trkpt><trkpt lat="44.4130038328262" lon="8.909622054395346"><ele>12.999999999999998</ele><time>2026-04-12T08:08:28Z</time></trkpt><trkpt lat="44.41293280196315" lon="8.909663255876042"><ele>13.0</ele><time>2026-04-12T08:08:31Z</time></trkpt><trkpt lat="44.41284940396738" lon="8.909710318998137"><ele>12.333333333333332</ele><time>2026-04-12T08:09:22Z</time></trkpt><trkpt lat="44.41273830721739" lon="8.909701669753282"><ele>11.666666666666666</ele><time>2026-04-12T08:09:24Z</time></trkpt><trkpt lat="44.412678127263554" lon="8.909667833751024"><ele>11.0</ele><time>2026-04-12T08:09:25Z</time></trkpt><trkpt lat="44.412621951707784" lon="8.909621311072874"><ele>10.333333333333332</ele><time>2026-04-12T08:09:26Z</time></trkpt><trkpt lat="44.41255722166938" lon="8.909569492889846"><ele>9.666666666666666</ele><time>2026-04-12T08:09:27Z</time></trkpt><trkpt lat="44.41248398155242" lon="8.909509332445605"><ele>9.0</ele><time>2026-04-12T08:09:28Z</time></trkpt><trkpt lat="44.412404964706965" lon="8.909443561208887"><ele>9.0</ele><time>2026-04-12T08:09:29Z</time></trkpt><trkpt lat="44.41232820028595" lon="8.909379393634907"><ele>9.0</ele><time>2026-04-12T08:09:30Z</time></trkpt><trkpt lat="44.41225700414359" lon="8.909313283239545"><ele>9.0</ele><time>2026-04-12T08:09:31Z</time></trkpt><trkpt lat="44.412200072513926" lon="8.909249811821514"><ele>9.0</ele><time>2026-04-12T08:09:32Z</time></trkpt><trkpt lat="44.4121161184508" lon="8.909177747980728"><ele>9.0</ele><time>2026-04-12T08:09:33Z</time></trkpt><trkpt lat="44.412044259966045" lon="8.909106125225053"><ele>9.0</ele><time>2026-04-12T08:09:34Z</time></trkpt><trkpt lat="44.41196973798136" lon="8.909041163739847"><ele>8.8</ele><time>2026-04-12T08:09:35Z</time></trkpt><trkpt lat="44.411900908445034" lon="8.908966776103485"><ele>8.600000000000001</ele><time>2026-04-12T08:09:36Z</time></trkpt><trkpt lat="44.411821298713924" lon="8.908886312200654"><ele>8.4</ele><time>2026-04-12T08:09:37Z</time></trkpt><trkpt lat="44.411736829971346" lon="8.908801797759299"><ele>8.200000000000001</ele><time>2026-04-12T08:09:38Z</time></trkpt><trkpt lat="44.41165606185037" lon="8.908715481631331"><ele>8.0</ele><time>2026-04-12T08:09:39Z</time></trkpt><trkpt lat="44.4115725382526" lon="8.90862842683529"><ele>8.0</ele><time>2026-04-12T08:09:40Z</time></trkpt><trkpt lat="44.41149037015014" lon="8.908543597959929"><ele>8.0</ele><time>2026-04-12T08:09:41Z</time></trkpt><trkpt lat="44.41141284967441" lon="8.908438604621287"><ele>8.0</ele><time>2026-04-12T08:09:42Z</time></trkpt><trkpt lat="44.41132895709376" lon="8.90833680717785"><ele>8.0</ele><time>2026-04-12T08:09:43Z</time></trkpt><trkpt lat="44.41124849694711" lon="8.908242408540703"><ele>8.0</ele><time>2026-04-12T08:09:44Z</time></trkpt><trkpt lat="44.41116692131628" lon="8.908142686070724"><ele>8.5</ele><time>2026-04-12T08:09:45.02Z</time></trkpt><trkpt lat="44.411087294549404" lon="8.908050346618186"><ele>9.0</ele><time>2026-04-12T08:09:46.017Z</time></trkpt><trkpt lat="44.411015193722506" lon="8.907972343023935"><ele>9.5</ele><time>2026-04-12T08:09:47.022Z</time></trkpt><trkpt lat="44.41092827430942" lon="8.907903968134482"><ele>10.0</ele><time>2026-04-12T08:09:48.019Z</time></trkpt><trkpt lat="44.4109980369895" lon="8.9076901114038"><ele>10.0</ele><time>2026-04-12T08:09:49.021Z</time></trkpt><trkpt lat="44.41071269953421" lon="8.908040611768762"><ele>10.0</ele><time>2026-04-12T08:09:50Z</time></trkpt><trkpt lat="44.41063004302826" lon="8.907968460826426"><ele>10.0</ele><time>2026-04-12T08:09:51Z</time></trkpt><trkpt lat="44.41051330029097" lon="8.907927073452504"><ele>10.0</ele><time>2026-04-12T08:09:52Z</time></trkpt><trkpt lat="44.41042450930613" lon="8.90785362506673"><ele>10.0</ele><time>2026-04-12T08:09:53Z</time></trkpt><trkpt lat="44.410356640988944" lon="8.907777066763721"><ele>10.0</ele><time>2026-04-12T08:09:54Z</time></trkpt><trkpt lat="44.410253749749245" lon="8.9077139406552"><ele>10.0</ele><time>2026-04-12T08:09:55.001Z</time></trkpt><trkpt lat="44.41016052176501" lon="8.907648929630637"><ele>10.2</ele><time>2026-04-12T08:09:56.001Z</time></trkpt><trkpt lat="44.41006445123872" lon="8.90758641597281"><ele>10.4</ele><time>2026-04-12T08:09:57.001Z</time></trkpt><trkpt lat="44.409967414605795" lon="8.907529753652126"><ele>10.600000000000001</ele><time>2026-04-12T08:09:58.001Z</time></trkpt><trkpt lat="44.40988330726574" lon="8.907473600895006"><ele>10.8</ele><time>2026-04-12T08:09:59.001Z</time></trkpt><trkpt lat="44.40979112022232" lon="8.907411755063583"><ele>11.0</ele><time>2026-04-12T08:10:00.001Z</time></trkpt><trkpt lat="44.40971101935621" lon="8.907335687611676"><ele>10.200000000000001</ele><time>2026-04-12T08:10:01.001Z</time></trkpt><trkpt lat="44.40962767091058" lon="8.907269234545733"><ele>9.4</ele><time>2026-04-12T08:10:02.001Z</time></trkpt><trkpt lat="44.409543654412396" lon="8.907201613651495"><ele>8.6</ele><time>2026-04-12T08:10:03Z</time></trkpt><trkpt lat="44.409464501097354" lon="8.907119558027892"><ele>7.8</ele><time>2026-04-12T08:10:04Z</time></trkpt><trkpt lat="44.40938041002939" lon="8.90702577309466"><ele>7.0</ele><time>2026-04-12T08:10:05Z</time></trkpt><trkpt lat="44.40930371370573" lon="8.906935743927983"><ele>7.0</ele><time>2026-04-12T08:10:06Z</time></trkpt><trkpt lat="44.40923248364752" lon="8.906847286764162"><ele>6.999999999999999</ele><time>2026-04-12T08:10:07Z</time></trkpt><trkpt lat="44.4091518700624" lon="8.906762979343942"><ele>6.999999999999999</ele><time>2026-04-12T08:10:08Z</time></trkpt><trkpt lat="44.409065300672495" lon="8.906685417368946"><ele>7.0</ele><time>2026-04-12T08:10:09Z</time></trkpt><trkpt lat="44.408986022776496" lon="8.906625962732457"><ele>7.0</ele><time>2026-04-12T08:10:10Z</time></trkpt><trkpt lat="44.40890402303262" lon="8.90657520214993"><ele>7.6</ele><time>2026-04-12T08:10:11Z</time></trkpt><trkpt lat="44.40882180222379" lon="8.90653194441061"><ele>8.2</ele><time>2026-04-12T08:10:12Z</time></trkpt><trkpt lat="44.408737423320176" lon="8.90648735090019"><ele>8.8</ele><time>2026-04-12T08:10:13Z</time></trkpt><trkpt lat="44.40862759939903" lon="8.906439901648985"><ele>9.4</ele><time>2026-04-12T08:10:14Z</time></trkpt><trkpt lat="44.408521333928505" lon="8.906415055865928"><ele>10.0</ele><time>2026-04-12T08:10:15Z</time></trkpt><trkpt lat="44.40841062172557" lon="8.906394643881693"><ele>10.0</ele><time>2026-04-12T08:10:16Z</time></trkpt><trkpt lat="44.4083080781905" lon="8.90636005251292"><ele>10.0</ele><time>2026-04-12T08:10:17Z</time></trkpt><trkpt lat="44.408204501990305" lon="8.906319020358303"><ele>10.0</ele><time>2026-04-12T08:10:18Z</time></trkpt><trkpt lat="44.408097348636076" lon="8.906283134913942"><ele>10.0</ele><time>2026-04-12T08:10:19Z</time></trkpt><trkpt lat="44.40800600088409" lon="8.906246669431855"><ele>10.0</ele><time>2026-04-12T08:10:20Z</time></trkpt><trkpt lat="44.407916299429495" lon="8.906207180321799"><ele>10.5</ele><time>2026-04-12T08:10:21Z</time></trkpt><trkpt lat="44.40782311045643" lon="8.906159444262169"><ele>11.0</ele><time>2026-04-12T08:10:22Z</time></trkpt><trkpt lat="44.407752214755675" lon="8.906099069903988"><ele>11.5</ele><time>2026-04-12T08:10:23Z</time></trkpt><trkpt lat="44.407686440724866" lon="8.906022968379041"><ele>12.0</ele><time>2026-04-12T08:10:24Z</time></trkpt><trkpt lat="44.40764241432958" lon="8.90593624386875"><ele>12.499999999999998</ele><time>2026-04-12T08:10:25Z</time></trkpt><trkpt lat="44.40759574219713" lon="8.90583311951619"><ele>13.0</ele><time>2026-04-12T08:10:26Z</time></trkpt><trkpt lat="44.40755769644842" lon="8.905728458441196"><ele>13.4</ele><time>2026-04-12T08:10:27Z</time></trkpt><trkpt lat="44.40751094339896" lon="8.905604422014097"><ele>13.8</ele><time>2026-04-12T08:10:28Z</time></trkpt><trkpt lat="44.40746736207798" lon="8.905483884051671"><ele>14.2</ele><time>2026-04-12T08:10:29Z</time></trkpt><trkpt lat="44.407419925682966" lon="8.90535491723699"><ele>14.6</ele><time>2026-04-12T08:10:30Z</time></trkpt><trkpt lat="44.40738192863284" lon="8.905225398050973"><ele>15.0</ele><time>2026-04-12T08:10:31Z</time></trkpt><trkpt lat="44.407336937127454" lon="8.905067298976224"><ele>15.0</ele><time>2026-04-12T08:10:32Z</time></trkpt><trkpt lat="44.40729167987285" lon="8.904922458319431"><ele>15.0</ele><time>2026-04-12T08:10:33Z</time></trkpt><trkpt lat="44.40724474492768" lon="8.904768372652672"><ele>15.0</ele><time>2026-04-12T08:10:34Z</time></trkpt><trkpt lat="44.40719650030357" lon="8.90461289203273"><ele>15.0</ele><time>2026-04-12T08:10:35Z</time></trkpt><trkpt lat="44.407153309136994" lon="8.90446573418026"><ele>15.25</ele><time>2026-04-12T08:10:36Z</time></trkpt><trkpt lat="44.40710396045711" lon="8.904311876910992"><ele>15.5</ele><time>2026-04-12T08:10:37Z</time></trkpt><trkpt lat="44.40710761439018" lon="8.904151038397984"><ele>15.75</ele><time>2026-04-12T08:10:38Z</time></trkpt><trkpt lat="44.40713704036622" lon="8.90437647742243"><ele>16.0</ele><time>2026-04-12T08:10:39Z</time></trkpt><trkpt lat="44.40710828109216" lon="8.904279630530903"><ele>16.333333333333332</ele><time>2026-04-12T08:10:40Z</time></trkpt><trkpt lat="44.407075836030586" lon="8.90417136002288"><ele>16.666666666666668</ele><time>2026-04-12T08:10:42Z</time></trkpt><trkpt lat="44.40709896095559" lon="8.904015978969435"><ele>17.0</ele><time>2026-04-12T08:10:44Z</time></trkpt><trkpt lat="44.406990550572445" lon="8.90363163984839"><ele>17.666666666666668</ele><time>2026-04-12T08:10:45Z</time></trkpt><trkpt lat="44.40690653990886" lon="8.903375385552629"><ele>18.333333333333332</ele><time>2026-04-12T08:10:46Z</time></trkpt><trkpt lat="44.406787532099784" lon="8.903075492602827"><ele>19.0</ele><time>2026-04-12T08:10:47Z</time></trkpt><trkpt lat="44.406661958017665" lon="8.902879735431656"><ele>19.0</ele><time>2026-04-12T08:10:48Z</time></trkpt><trkpt lat="44.40666807039185" lon="8.902758597258709"><ele>19.0</ele><time>2026-04-12T08:10:49Z</time></trkpt><trkpt lat="44.40668055224485" lon="8.902649551871459"><ele>19.0</ele><time>2026-04-12T08:10:50Z</time></trkpt><trkpt lat="44.40665712134647" lon="8.902446809141292"><ele>19.0</ele><time>2026-04-12T08:10:51Z</time></trkpt><trkpt lat="44.40667760033437" lon="8.90230907556906"><ele>19.0</ele><time>2026-04-12T08:10:52Z</time></trkpt><trkpt lat="44.40669901954735" lon="8.902172607756912"><ele>17.2</ele><time>2026-04-12T08:10:53Z</time></trkpt><trkpt lat="44.406748177718505" lon="8.902007012265756"><ele>15.399999999999999</ele><time>2026-04-12T08:10:54Z</time></trkpt><trkpt lat="44.40678236133346" lon="8.901898313170234"><ele>13.6</ele><time>2026-04-12T08:10:55Z</time></trkpt><trkpt lat="44.40681960499217" lon="8.901776964960597"><ele>11.8</ele><time>2026-04-12T08:10:56Z</time></trkpt><trkpt lat="44.406843448551975" lon="8.901656881899065"><ele>10.0</ele><time>2026-04-12T08:10:57Z</time></trkpt><trkpt lat="44.40686051994063" lon="8.901530029544672"><ele>9.6</ele><time>2026-04-12T08:10:58Z</time></trkpt><trkpt lat="44.406875160364244" lon="8.901404905674745"><ele>9.2</ele><time>2026-04-12T08:10:59Z</time></trkpt><trkpt lat="44.40687775631078" lon="8.901268204066016"><ele>8.8</ele><time>2026-04-12T08:11:00Z</time></trkpt><trkpt lat="44.40688819173498" lon="8.901122815467941"><ele>8.4</ele><time>2026-04-12T08:11:01Z</time></trkpt><trkpt lat="44.40690734809871" lon="8.900980569565125"><ele>8.0</ele><time>2026-04-12T08:11:02Z</time></trkpt><trkpt lat="44.406928623995235" lon="8.900835863115175"><ele>8.0</ele><time>2026-04-12T08:11:03Z</time></trkpt><trkpt lat="44.40694887935932" lon="8.900684918915353"><ele>8.0</ele><time>2026-04-12T08:11:04Z</time></trkpt><trkpt lat="44.40696753260412" lon="8.900542300723728"><ele>8.0</ele><time>2026-04-12T08:11:05Z</time></trkpt><trkpt lat="44.40699374713888" lon="8.900398949554402"><ele>8.0</ele><time>2026-04-12T08:11:06Z</time></trkpt><trkpt lat="44.40701328820541" lon="8.900253724999903"><ele>8.0</ele><time>2026-04-12T08:11:07Z</time></trkpt><trkpt lat="44.40702573123642" lon="8.900084924650793"><ele>8.0</ele><time>2026-04-12T08:11:08Z</time></trkpt><trkpt lat="44.4070423132293" lon="8.899942540992818"><ele>8.0</ele><time>2026-04-12T08:11:09Z</time></trkpt><trkpt lat="44.40705958186661" lon="8.899804778096053"><ele>8.0</ele><time>2026-04-12T08:11:10Z</time></trkpt><trkpt lat="44.40707992799498" lon="8.899668694481665"><ele>8.0</ele><time>2026-04-12T08:11:11Z</time></trkpt><trkpt lat="44.40710354113948" lon="8.899523827867641"><ele>8.0</ele><time>2026-04-12T08:11:12Z</time></trkpt><trkpt lat="44.40712861023368" lon="8.899372784085076"><ele>7.4</ele><time>2026-04-12T08:11:13Z</time></trkpt><trkpt lat="44.40714780961637" lon="8.89922052166787"><ele>6.800000000000001</ele><time>2026-04-12T08:11:14Z</time></trkpt><trkpt lat="44.40714580769644" lon="8.899062844443362"><ele>6.2</ele><time>2026-04-12T08:11:15Z</time></trkpt><trkpt lat="44.40718746053296" lon="8.89891818995096"><ele>5.6</ele><time>2026-04-12T08:11:16Z</time></trkpt><trkpt lat="44.40721354152872" lon="8.89878043816358"><ele>5.0</ele><time>2026-04-12T08:11:17Z</time></trkpt><trkpt lat="44.407237563148875" lon="8.898670907619861"><ele>7.0</ele><time>2026-04-12T08:11:18Z</time></trkpt><trkpt lat="44.40727026114824" lon="8.898571617097177"><ele>9.0</ele><time>2026-04-12T08:11:19Z</time></trkpt><trkpt lat="44.40731081331823" lon="8.89847147940715"><ele>11.0</ele><time>2026-04-12T08:11:20Z</time></trkpt><trkpt lat="44.40734777648079" lon="8.898375169350185"><ele>13.0</ele><time>2026-04-12T08:11:21Z</time></trkpt><trkpt lat="44.407378694772824" lon="8.89827825978764"><ele>15.000000000000002</ele><time>2026-04-12T08:11:22Z</time></trkpt><trkpt lat="44.40740393751203" lon="8.898172735914413"><ele>17.0</ele><time>2026-04-12T08:11:23Z</time></trkpt><trkpt lat="44.40742087375998" lon="8.898062747597631"><ele>17.0</ele><time>2026-04-12T08:11:24Z</time></trkpt><trkpt lat="44.407434780649936" lon="8.897957799062048"><ele>17.0</ele><time>2026-04-12T08:11:25Z</time></trkpt><trkpt lat="44.407405704067386" lon="8.897831506405309"><ele>17.0</ele><time>2026-04-12T08:11:26Z</time></trkpt><trkpt lat="44.407440073621366" lon="8.89773306030062"><ele>17.0</ele><time>2026-04-12T08:11:27Z</time></trkpt><trkpt lat="44.407436587330864" lon="8.897619134116939"><ele>17.0</ele><time>2026-04-12T08:11:28Z</time></trkpt><trkpt lat="44.407444947173225" lon="8.89750459006268"><ele>17.0</ele><time>2026-04-12T08:11:29Z</time></trkpt><trkpt lat="44.4074607910576" lon="8.897377452648842"><ele>16.0</ele><time>2026-04-12T08:11:30Z</time></trkpt><trkpt lat="44.407484039864464" lon="8.897261161132514"><ele>15.0</ele><time>2026-04-12T08:11:31Z</time></trkpt><trkpt lat="44.40751627667405" lon="8.897139749018118"><ele>14.0</ele><time>2026-04-12T08:11:32Z</time></trkpt><trkpt lat="44.407550939595026" lon="8.89701058494073"><ele>13.0</ele><time>2026-04-12T08:11:33Z</time></trkpt><trkpt lat="44.40759326680176" lon="8.89687684699807"><ele>12.0</ele><time>2026-04-12T08:11:34Z</time></trkpt><trkpt lat="44.40763729387908" lon="8.896743277193124"><ele>11.0</ele><time>2026-04-12T08:11:35Z</time></trkpt><trkpt lat="44.407684260738286" lon="8.89660623473045"><ele>10.0</ele><time>2026-04-12T08:11:36Z</time></trkpt><trkpt lat="44.407728891721526" lon="8.896472775060014"><ele>9.0</ele><time>2026-04-12T08:11:37Z</time></trkpt><trkpt lat="44.40777843450331" lon="8.896335408428754"><ele>8.0</ele><time>2026-04-12T08:11:38Z</time></trkpt><trkpt lat="44.407824792048096" lon="8.89619201951753"><ele>7.0</ele><time>2026-04-12T08:11:39Z</time></trkpt><trkpt lat="44.407845890043774" lon="8.896071222797874"><ele>6.75</ele><time>2026-04-12T08:11:40Z</time></trkpt><trkpt lat="44.407907856247995" lon="8.895910282610203"><ele>6.5</ele><time>2026-04-12T08:11:41Z</time></trkpt><trkpt lat="44.40796024901244" lon="8.895763620106333"><ele>6.25</ele><time>2026-04-12T08:11:42Z</time></trkpt><trkpt lat="44.40800027714784" lon="8.8956286953225"><ele>6.0</ele><time>2026-04-12T08:11:43Z</time></trkpt><trkpt lat="44.40804036882717" lon="8.895501606888088"><ele>6.6</ele><time>2026-04-12T08:11:44Z</time></trkpt><trkpt lat="44.40807777448323" lon="8.895376808287404"><ele>7.199999999999999</ele><time>2026-04-12T08:11:45Z</time></trkpt><trkpt lat="44.408117488300896" lon="8.895250532681283"><ele>7.800000000000001</ele><time>2026-04-12T08:11:46Z</time></trkpt><trkpt lat="44.40815399771005" lon="8.89512198689488"><ele>8.4</ele><time>2026-04-12T08:11:47Z</time></trkpt><trkpt lat="44.4081884430482" lon="8.894989100444429"><ele>9.0</ele><time>2026-04-12T08:11:48Z</time></trkpt><trkpt lat="44.40822395289082" lon="8.894857309474514"><ele>9.0</ele><time>2026-04-12T08:11:49Z</time></trkpt><trkpt lat="44.40826061201984" lon="8.894713114712328"><ele>9.0</ele><time>2026-04-12T08:11:50Z</time></trkpt><trkpt lat="44.40829476751375" lon="8.894570233217943"><ele>9.0</ele><time>2026-04-12T08:11:51Z</time></trkpt><trkpt lat="44.408328139615776" lon="8.894413874630398"><ele>9.0</ele><time>2026-04-12T08:11:52Z</time></trkpt><trkpt lat="44.40836189267872" lon="8.894275003883212"><ele>9.0</ele><time>2026-04-12T08:11:53Z</time></trkpt><trkpt lat="44.408396681142726" lon="8.894133218962507"><ele>8.4</ele><time>2026-04-12T08:11:54Z</time></trkpt><trkpt lat="44.408429906977794" lon="8.893995035963515"><ele>7.800000000000001</ele><time>2026-04-12T08:11:55Z</time></trkpt><trkpt lat="44.40846811762002" lon="8.893853012376741"><ele>7.199999999999999</ele><time>2026-04-12T08:11:56Z</time></trkpt><trkpt lat="44.40850331556029" lon="8.893701307203123"><ele>6.6</ele><time>2026-04-12T08:11:57Z</time></trkpt><trkpt lat="44.40853000725395" lon="8.893559909646395"><ele>6.0</ele><time>2026-04-12T08:11:58Z</time></trkpt><trkpt lat="44.40856715009096" lon="8.893422759974007"><ele>6.0</ele><time>2026-04-12T08:11:59Z</time></trkpt><trkpt lat="44.4085979154408" lon="8.893296898364158"><ele>6.0</ele><time>2026-04-12T08:12:00Z</time></trkpt><trkpt lat="44.40863815591979" lon="8.893154789037979"><ele>6.0</ele><time>2026-04-12T08:12:01Z</time></trkpt><trkpt lat="44.40866849508514" lon="8.893005626112155"><ele>6.0</ele><time>2026-04-12T08:12:02Z</time></trkpt><trkpt lat="44.40869660472841" lon="8.892872739235202"><ele>6.0</ele><time>2026-04-12T08:12:03Z</time></trkpt><trkpt lat="44.40873316752736" lon="8.892729872178938"><ele>5.8</ele><time>2026-04-12T08:12:04Z</time></trkpt><trkpt lat="44.40876708862138" lon="8.892576114545697"><ele>5.6</ele><time>2026-04-12T08:12:05Z</time></trkpt><trkpt lat="44.40878211477152" lon="8.892460081450945"><ele>5.4</ele><time>2026-04-12T08:12:06Z</time></trkpt><trkpt lat="44.408830469372326" lon="8.89231209391386"><ele>5.2</ele><time>2026-04-12T08:12:07Z</time></trkpt><trkpt lat="44.40886926556342" lon="8.89216929453659"><ele>5.0</ele><time>2026-04-12T08:12:08Z</time></trkpt><trkpt lat="44.40889467968082" lon="8.892030844487696"><ele>5.6</ele><time>2026-04-12T08:12:09Z</time></trkpt><trkpt lat="44.40892480555959" lon="8.891885352568487"><ele>6.2</ele><time>2026-04-12T08:12:10Z</time></trkpt><trkpt lat="44.408958996084344" lon="8.891739964671215"><ele>6.800000000000001</ele><time>2026-04-12T08:12:11Z</time></trkpt><trkpt lat="44.40899648524363" lon="8.891599677739928"><ele>7.4</ele><time>2026-04-12T08:12:12Z</time></trkpt><trkpt lat="44.409030943304224" lon="8.891464726961537"><ele>8.0</ele><time>2026-04-12T08:12:13Z</time></trkpt><trkpt lat="44.409063750450535" lon="8.891338432526867"><ele>8.0</ele><time>2026-04-12T08:12:14Z</time></trkpt><trkpt lat="44.40908846348907" lon="8.891198129904623"><ele>8.0</ele><time>2026-04-12T08:12:15Z</time></trkpt><trkpt lat="44.40912656859375" lon="8.891072736449287"><ele>8.0</ele><time>2026-04-12T08:12:16Z</time></trkpt><trkpt lat="44.40915903528003" lon="8.89094326797817"><ele>8.0</ele><time>2026-04-12T08:12:17Z</time></trkpt><trkpt lat="44.409187482832856" lon="8.89079887623807"><ele>8.0</ele><time>2026-04-12T08:12:18Z</time></trkpt><trkpt lat="44.40922118587461" lon="8.890661674483727"><ele>7.800000000000001</ele><time>2026-04-12T08:12:19Z</time></trkpt><trkpt lat="44.40925362324899" lon="8.890525940459865"><ele>7.6000000000000005</ele><time>2026-04-12T08:12:20Z</time></trkpt><trkpt lat="44.40928806740619" lon="8.890390960743517"><ele>7.3999999999999995</ele><time>2026-04-12T08:12:21Z</time></trkpt><trkpt lat="44.40932246185953" lon="8.8902529637954"><ele>7.199999999999999</ele><time>2026-04-12T08:12:22Z</time></trkpt><trkpt lat="44.40936252223488" lon="8.890100153613663"><ele>7.0</ele><time>2026-04-12T08:12:23Z</time></trkpt><trkpt lat="44.409393460339025" lon="8.88995654458946"><ele>6.6</ele><time>2026-04-12T08:12:24Z</time></trkpt><trkpt lat="44.40942706259887" lon="8.88983047073782"><ele>6.199999999999999</ele><time>2026-04-12T08:12:25Z</time></trkpt><trkpt lat="44.40946117423719" lon="8.889695903650237"><ele>5.8</ele><time>2026-04-12T08:12:26Z</time></trkpt><trkpt lat="44.4094947087803" lon="8.88956160357229"><ele>5.4</ele><time>2026-04-12T08:12:27Z</time></trkpt><trkpt lat="44.40952563645496" lon="8.889417154679977"><ele>5.0</ele><time>2026-04-12T08:12:28Z</time></trkpt><trkpt lat="44.40955904128241" lon="8.889273006366905"><ele>5.0</ele><time>2026-04-12T08:12:29Z</time></trkpt><trkpt lat="44.40958986755778" lon="8.889131923211457"><ele>5.0</ele><time>2026-04-12T08:12:30Z</time></trkpt><trkpt lat="44.40962348409592" lon="8.888988586092568"><ele>5.0</ele><time>2026-04-12T08:12:31Z</time></trkpt><trkpt lat="44.40965692018404" lon="8.888848895815153"><ele>5.0</ele><time>2026-04-12T08:12:32Z</time></trkpt><trkpt lat="44.409688967572635" lon="8.88871278040292"><ele>5.0</ele><time>2026-04-12T08:12:33Z</time></trkpt><trkpt lat="44.409719718514545" lon="8.88857966007783"><ele>5.6</ele><time>2026-04-12T08:12:34Z</time></trkpt><trkpt lat="44.40975111232339" lon="8.88843982749543"><ele>6.2</ele><time>2026-04-12T08:12:35Z</time></trkpt><trkpt lat="44.40978790081069" lon="8.888286427691922"><ele>6.800000000000001</ele><time>2026-04-12T08:12:36Z</time></trkpt><trkpt lat="44.40982240883258" lon="8.888148460683938"><ele>7.4</ele><time>2026-04-12T08:12:37Z</time></trkpt><trkpt lat="44.40985615359088" lon="8.888015566163979"><ele>8.0</ele><time>2026-04-12T08:12:38Z</time></trkpt><trkpt lat="44.409889143849476" lon="8.887872574401861"><ele>8.0</ele><time>2026-04-12T08:12:39Z</time></trkpt><trkpt lat="44.409920515700364" lon="8.88772466027635"><ele>8.0</ele><time>2026-04-12T08:12:40Z</time></trkpt><trkpt lat="44.40995344939304" lon="8.887588893429669"><ele>8.0</ele><time>2026-04-12T08:12:41Z</time></trkpt><trkpt lat="44.40997812950191" lon="8.88746954106716"><ele>8.0</ele><time>2026-04-12T08:12:42Z</time></trkpt><trkpt lat="44.410007235751635" lon="8.887336580981588"><ele>8.0</ele><time>2026-04-12T08:12:43Z</time></trkpt><trkpt lat="44.4100337963394" lon="8.887206347422897"><ele>7.800000000000001</ele><time>2026-04-12T08:12:44Z</time></trkpt><trkpt lat="44.41006133904351" lon="8.887068845427407"><ele>7.6000000000000005</ele><time>2026-04-12T08:12:45Z</time></trkpt><trkpt lat="44.41008888083528" lon="8.886929484721882"><ele>7.3999999999999995</ele><time>2026-04-12T08:12:46Z</time></trkpt><trkpt lat="44.41011908743508" lon="8.886780322900753"><ele>7.199999999999999</ele><time>2026-04-12T08:12:47Z</time></trkpt><trkpt lat="44.4101486207494" lon="8.886629514644012"><ele>7.0</ele><time>2026-04-12T08:12:48Z</time></trkpt><trkpt lat="44.41017633318418" lon="8.886482601292906"><ele>6.8</ele><time>2026-04-12T08:12:49Z</time></trkpt><trkpt lat="44.41020656193931" lon="8.886338522867764"><ele>6.6</ele><time>2026-04-12T08:12:50Z</time></trkpt><trkpt lat="44.41023498065039" lon="8.886192156196877"><ele>6.3999999999999995</ele><time>2026-04-12T08:12:51Z</time></trkpt><trkpt lat="44.4102604968742" lon="8.88604072403687"><ele>6.199999999999999</ele><time>2026-04-12T08:12:52Z</time></trkpt><trkpt lat="44.41028981900279" lon="8.885887380999286"><ele>6.0</ele><time>2026-04-12T08:12:53Z</time></trkpt><trkpt lat="44.41031640756951" lon="8.885735342893904"><ele>5.5</ele><time>2026-04-12T08:12:54Z</time></trkpt><trkpt lat="44.41034443340002" lon="8.88558459079798"><ele>5.0</ele><time>2026-04-12T08:12:55Z</time></trkpt><trkpt lat="44.41037323338186" lon="8.885433016847328"><ele>4.5</ele><time>2026-04-12T08:12:56Z</time></trkpt><trkpt lat="44.410404509027956" lon="8.885277706113557"><ele>4.0</ele><time>2026-04-12T08:12:57Z</time></trkpt><trkpt lat="44.41043522864335" lon="8.885118641953621"><ele>4.0</ele><time>2026-04-12T08:12:58Z</time></trkpt><trkpt lat="44.410467266993905" lon="8.884957569797432"><ele>4.0</ele><time>2026-04-12T08:12:59Z</time></trkpt><trkpt lat="44.41050237546424" lon="8.884791918223288"><ele>4.0</ele><time>2026-04-12T08:13:00Z</time></trkpt><trkpt lat="44.410537921055706" lon="8.884622106605066"><ele>4.0</ele><time>2026-04-12T08:13:01Z</time></trkpt><trkpt lat="44.41057285462568" lon="8.884446808129972"><ele>4.75</ele><time>2026-04-12T08:13:02Z</time></trkpt><trkpt lat="44.410607336722265" lon="8.884269458328832"><ele>5.5</ele><time>2026-04-12T08:13:03Z</time></trkpt><trkpt lat="44.410644195575884" lon="8.884093672766072"><ele>6.25</ele><time>2026-04-12T08:13:04Z</time></trkpt><trkpt lat="44.41068207136309" lon="8.883914939708859"><ele>7.0</ele><time>2026-04-12T08:13:05Z</time></trkpt><trkpt lat="44.410719139091526" lon="8.883737064043602"><ele>7.0</ele><time>2026-04-12T08:13:06Z</time></trkpt><trkpt lat="44.41075858418017" lon="8.883563159013123"><ele>7.0</ele><time>2026-04-12T08:13:07Z</time></trkpt><trkpt lat="44.410797936000066" lon="8.883388989005518"><ele>7.0</ele><time>2026-04-12T08:13:08Z</time></trkpt><trkpt lat="44.41083924277112" lon="8.883213663883398"><ele>7.0</ele><time>2026-04-12T08:13:09Z</time></trkpt><trkpt lat="44.4108821213292" lon="8.883037108986024"><ele>7.25</ele><time>2026-04-12T08:13:10Z</time></trkpt><trkpt lat="44.41092548085974" lon="8.882863125213285"><ele>7.5</ele><time>2026-04-12T08:13:11Z</time></trkpt><trkpt lat="44.410967697334584" lon="8.882686584232221"><ele>7.75</ele><time>2026-04-12T08:13:12Z</time></trkpt><trkpt lat="44.41101076664653" lon="8.882499245536879"><ele>8.0</ele><time>2026-04-12T08:13:13Z</time></trkpt><trkpt lat="44.411053916065065" lon="8.882315081529056"><ele>8.25</ele><time>2026-04-12T08:13:14Z</time></trkpt><trkpt lat="44.41109686207131" lon="8.882134782947583"><ele>8.5</ele><time>2026-04-12T08:13:15Z</time></trkpt><trkpt lat="44.41113738661867" lon="8.881951512625323"><ele>8.75</ele><time>2026-04-12T08:13:16Z</time></trkpt><trkpt lat="44.41118217894101" lon="8.881779276566311"><ele>9.0</ele><time>2026-04-12T08:13:17Z</time></trkpt><trkpt lat="44.411226964322324" lon="8.881604185649971"><ele>9.25</ele><time>2026-04-12T08:13:18Z</time></trkpt><trkpt lat="44.41126711106171" lon="8.881435876511386"><ele>9.5</ele><time>2026-04-12T08:13:19Z</time></trkpt><trkpt lat="44.41131379965722" lon="8.881259326827221"><ele>9.75</ele><time>2026-04-12T08:13:20Z</time></trkpt><trkpt lat="44.41135863637685" lon="8.881076524030522"><ele>10.0</ele><time>2026-04-12T08:13:21Z</time></trkpt><trkpt lat="44.411404654222245" lon="8.880891807642778"><ele>10.0</ele><time>2026-04-12T08:13:22Z</time></trkpt><trkpt lat="44.41145372222971" lon="8.880703958673402"><ele>10.0</ele><time>2026-04-12T08:13:23Z</time></trkpt><trkpt lat="44.41149654721787" lon="8.880525577193696"><ele>10.0</ele><time>2026-04-12T08:13:24Z</time></trkpt><trkpt lat="44.41154026036811" lon="8.880346411318847"><ele>10.0</ele><time>2026-04-12T08:13:25Z</time></trkpt><trkpt lat="44.41158510794518" lon="8.880154321617214"><ele>9.5</ele><time>2026-04-12T08:13:26Z</time></trkpt><trkpt lat="44.411632781164144" lon="8.879973578717877"><ele>9.0</ele><time>2026-04-12T08:13:27Z</time></trkpt><trkpt lat="44.411681186622715" lon="8.879788581581769"><ele>8.5</ele><time>2026-04-12T08:13:28Z</time></trkpt><trkpt lat="44.41172885027895" lon="8.879600596316848"><ele>8.0</ele><time>2026-04-12T08:13:29Z</time></trkpt><trkpt lat="44.41177659965095" lon="8.879414532828841"><ele>7.25</ele><time>2026-04-12T08:13:30Z</time></trkpt><trkpt lat="44.41182322170433" lon="8.879228527621853"><ele>6.5</ele><time>2026-04-12T08:13:31Z</time></trkpt><trkpt lat="44.41187252168978" lon="8.87904662716945"><ele>5.75</ele><time>2026-04-12T08:13:32Z</time></trkpt><trkpt lat="44.41192220078412" lon="8.878859063628669"><ele>5.0</ele><time>2026-04-12T08:13:33Z</time></trkpt><trkpt lat="44.4119687101869" lon="8.878680248367571"><ele>5.0</ele><time>2026-04-12T08:13:34Z</time></trkpt><trkpt lat="44.412015327603854" lon="8.878500361320995"><ele>5.0</ele><time>2026-04-12T08:13:35Z</time></trkpt><trkpt lat="44.412061938482424" lon="8.878320522392146"><ele>5.0</ele><time>2026-04-12T08:13:36Z</time></trkpt><trkpt lat="44.412106572469845" lon="8.87813932954868"><ele>5.0</ele><time>2026-04-12T08:13:37Z</time></trkpt><trkpt lat="44.41215159863018" lon="8.87795714140362"><ele>5.0</ele><time>2026-04-12T08:13:38Z</time></trkpt><trkpt lat="44.41219881225496" lon="8.877777521134142"><ele>5.0</ele><time>2026-04-12T08:13:39Z</time></trkpt><trkpt lat="44.412239438897906" lon="8.877602844156561"><ele>5.0</ele><time>2026-04-12T08:13:40Z</time></trkpt><trkpt lat="44.41228490887388" lon="8.877424877491809"><ele>5.0</ele><time>2026-04-12T08:13:41Z</time></trkpt><trkpt lat="44.41233287004076" lon="8.877241528422054"><ele>5.0</ele><time>2026-04-12T08:13:42Z</time></trkpt><trkpt lat="44.41238181461538" lon="8.87705576148877"><ele>5.0</ele><time>2026-04-12T08:13:43Z</time></trkpt><trkpt lat="44.4124252462957" lon="8.876869384516345"><ele>5.0</ele><time>2026-04-12T08:13:44Z</time></trkpt><trkpt lat="44.412470496766765" lon="8.876675665114128"><ele>5.0</ele><time>2026-04-12T08:13:45Z</time></trkpt><trkpt lat="44.41251489079927" lon="8.876483585878656"><ele>6.0</ele><time>2026-04-12T08:13:46Z</time></trkpt><trkpt lat="44.412556576647084" lon="8.876289031052055"><ele>7.0</ele><time>2026-04-12T08:13:47Z</time></trkpt><trkpt lat="44.41260122061943" lon="8.876102151039627"><ele>8.0</ele><time>2026-04-12T08:13:48Z</time></trkpt><trkpt lat="44.41263957879912" lon="8.875917896113979"><ele>9.0</ele><time>2026-04-12T08:13:49Z</time></trkpt><trkpt lat="44.41267939978661" lon="8.87572692921504"><ele>9.0</ele><time>2026-04-12T08:13:50Z</time></trkpt><trkpt lat="44.41271057813975" lon="8.875540197163506"><ele>9.0</ele><time>2026-04-12T08:13:51Z</time></trkpt><trkpt lat="44.41274042283799" lon="8.87535486058101"><ele>9.0</ele><time>2026-04-12T08:13:52Z</time></trkpt><trkpt lat="44.41276473996706" lon="8.875180101972711"><ele>9.0</ele><time>2026-04-12T08:13:53Z</time></trkpt><trkpt lat="44.412789411079935" lon="8.87500517176567"><ele>9.0</ele><time>2026-04-12T08:13:54Z</time></trkpt><trkpt lat="44.412814255385605" lon="8.874834604786017"><ele>9.0</ele><time>2026-04-12T08:13:55Z</time></trkpt><trkpt lat="44.412834534488596" lon="8.874662007692825"><ele>9.0</ele><time>2026-04-12T08:13:56Z</time></trkpt><trkpt lat="44.41285217581004" lon="8.874482231120549"><ele>9.0</ele><time>2026-04-12T08:13:57Z</time></trkpt><trkpt lat="44.412866767574684" lon="8.874295942485597"><ele>8.5</ele><time>2026-04-12T08:13:58Z</time></trkpt><trkpt lat="44.41288709995115" lon="8.874102382603681"><ele>8.0</ele><time>2026-04-12T08:13:59Z</time></trkpt><trkpt lat="44.41290158886045" lon="8.873908274157447"><ele>7.5</ele><time>2026-04-12T08:14:00Z</time></trkpt><trkpt lat="44.41291805800446" lon="8.87371760746622"><ele>7.0</ele><time>2026-04-12T08:14:01Z</time></trkpt><trkpt lat="44.41293557468953" lon="8.873519161969643"><ele>6.75</ele><time>2026-04-12T08:14:02Z</time></trkpt><trkpt lat="44.41295393074231" lon="8.873317779463921"><ele>6.5</ele><time>2026-04-12T08:14:03Z</time></trkpt><trkpt lat="44.41297010501093" lon="8.87311726979924"><ele>6.25</ele><time>2026-04-12T08:14:04Z</time></trkpt><trkpt lat="44.41298655661723" lon="8.872920119580838"><ele>6.0</ele><time>2026-04-12T08:14:05Z</time></trkpt><trkpt lat="44.41300360344151" lon="8.87271832004965"><ele>5.75</ele><time>2026-04-12T08:14:06Z</time></trkpt><trkpt lat="44.41302441468745" lon="8.872511187997953"><ele>5.5</ele><time>2026-04-12T08:14:07Z</time></trkpt><trkpt lat="44.413048931074336" lon="8.872305006820055"><ele>5.25</ele><time>2026-04-12T08:14:08Z</time></trkpt><trkpt lat="44.41307327613755" lon="8.87210328432385"><ele>5.0</ele><time>2026-04-12T08:14:09Z</time></trkpt><trkpt lat="44.41310085748472" lon="8.871908519103041"><ele>5.0</ele><time>2026-04-12T08:14:10Z</time></trkpt><trkpt lat="44.41313170416864" lon="8.871718139033511"><ele>5.0</ele><time>2026-04-12T08:14:11Z</time></trkpt><trkpt lat="44.41316507193422" lon="8.871520745245904"><ele>5.0</ele><time>2026-04-12T08:14:12Z</time></trkpt><trkpt lat="44.41320016554471" lon="8.871324871089435"><ele>5.0</ele><time>2026-04-12T08:14:13Z</time></trkpt><trkpt lat="44.41323631940169" lon="8.871133001408833"><ele>5.0</ele><time>2026-04-12T08:14:14.001Z</time></trkpt><trkpt lat="44.41327574503166" lon="8.870943186251285"><ele>5.0</ele><time>2026-04-12T08:14:15Z</time></trkpt><trkpt lat="44.413317932235245" lon="8.870755503000604"><ele>5.0</ele><time>2026-04-12T08:14:16Z</time></trkpt><trkpt lat="44.41335688435953" lon="8.870574193207894"><ele>5.0</ele><time>2026-04-12T08:14:17Z</time></trkpt><trkpt lat="44.41339320957839" lon="8.870409861334279"><ele>5.0</ele><time>2026-04-12T08:14:18Z</time></trkpt><trkpt lat="44.41343163186807" lon="8.870254285893223"><ele>5.0</ele><time>2026-04-12T08:14:19Z</time></trkpt><trkpt lat="44.41346808414288" lon="8.870112775307927"><ele>5.0</ele><time>2026-04-12T08:14:20Z</time></trkpt><trkpt lat="44.41351029002974" lon="8.869971277707997"><ele>5.0</ele><time>2026-04-12T08:14:21Z</time></trkpt><trkpt lat="44.41355425597627" lon="8.869819085968292"><ele>4.75</ele><time>2026-04-12T08:14:22Z</time></trkpt><trkpt lat="44.41360081754002" lon="8.869665663192997"><ele>4.5</ele><time>2026-04-12T08:14:23Z</time></trkpt><trkpt lat="44.41364887690674" lon="8.869505332792682"><ele>4.25</ele><time>2026-04-12T08:14:24Z</time></trkpt><trkpt lat="44.41369612071568" lon="8.869341473546509"><ele>4.0</ele><time>2026-04-12T08:14:25Z</time></trkpt><trkpt lat="44.41374356067938" lon="8.869178075562052"><ele>3.75</ele><time>2026-04-12T08:14:26Z</time></trkpt><trkpt lat="44.413785289420154" lon="8.86902922530218"><ele>3.5</ele><time>2026-04-12T08:14:27Z</time></trkpt><trkpt lat="44.413827687425155" lon="8.868871116981552"><ele>3.25</ele><time>2026-04-12T08:14:28Z</time></trkpt><trkpt lat="44.41386731075046" lon="8.868698641803219"><ele>3.0</ele><time>2026-04-12T08:14:29Z</time></trkpt><trkpt lat="44.413909155265436" lon="8.86852427374514"><ele>4.0</ele><time>2026-04-12T08:14:30Z</time></trkpt><trkpt lat="44.41395256809646" lon="8.868352645702872"><ele>5.0</ele><time>2026-04-12T08:14:31Z</time></trkpt><trkpt lat="44.41399718846482" lon="8.868186263638618"><ele>6.0</ele><time>2026-04-12T08:14:32Z</time></trkpt><trkpt lat="44.414031815765526" lon="8.868024227843295"><ele>7.0</ele><time>2026-04-12T08:14:33Z</time></trkpt><trkpt lat="44.41407179109454" lon="8.86785560407957"><ele>7.0</ele><time>2026-04-12T08:14:34Z</time></trkpt><trkpt lat="44.4141099763591" lon="8.867690894433442"><ele>7.0</ele><time>2026-04-12T08:14:35Z</time></trkpt><trkpt lat="44.41414735779497" lon="8.867540007102425"><ele>7.0</ele><time>2026-04-12T08:14:36Z</time></trkpt><trkpt lat="44.41417484169088" lon="8.867393216515131"><ele>7.0</ele><time>2026-04-12T08:14:37Z</time></trkpt><trkpt lat="44.414201665773135" lon="8.867251211797868"><ele>7.6</ele><time>2026-04-12T08:14:38Z</time></trkpt><trkpt lat="44.41422459791804" lon="8.867112956596795"><ele>8.2</ele><time>2026-04-12T08:14:39Z</time></trkpt><trkpt lat="44.41424824227977" lon="8.866966733359433"><ele>8.8</ele><time>2026-04-12T08:14:40Z</time></trkpt><trkpt lat="44.414275648885365" lon="8.866812105296273"><ele>9.4</ele><time>2026-04-12T08:14:41Z</time></trkpt><trkpt lat="44.4142963416698" lon="8.866671556111566"><ele>10.0</ele><time>2026-04-12T08:14:42Z</time></trkpt><trkpt lat="44.41431724109306" lon="8.866532251242491"><ele>10.666666666666668</ele><time>2026-04-12T08:14:43Z</time></trkpt><trkpt lat="44.41434015535071" lon="8.866411099101931"><ele>11.333333333333334</ele><time>2026-04-12T08:14:44Z</time></trkpt><trkpt lat="44.41436722845004" lon="8.86629555888025"><ele>12.0</ele><time>2026-04-12T08:14:45Z</time></trkpt><trkpt lat="44.414398586099175" lon="8.866202366130775"><ele>12.666666666666668</ele><time>2026-04-12T08:14:46Z</time></trkpt><trkpt lat="44.41444226812844" lon="8.866128031882814"><ele>13.333333333333334</ele><time>2026-04-12T08:14:47Z</time></trkpt><trkpt lat="44.41449291990873" lon="8.866070051500548"><ele>14.0</ele><time>2026-04-12T08:14:48Z</time></trkpt><trkpt lat="44.4145544504064" lon="8.866030509720696"><ele>14.000000000000002</ele><time>2026-04-12T08:14:49.02Z</time></trkpt><trkpt lat="44.41461893829784" lon="8.866007271645177"><ele>14.0</ele><time>2026-04-12T08:14:50.016Z</time></trkpt><trkpt lat="44.414684219919344" lon="8.865988031784562"><ele>14.0</ele><time>2026-04-12T08:14:51.02Z</time></trkpt><trkpt lat="44.41477135321995" lon="8.865966469755975"><ele>14.0</ele><time>2026-04-12T08:14:52Z</time></trkpt><trkpt lat="44.41487586338154" lon="8.865907259074731"><ele>14.000000000000002</ele><time>2026-04-12T08:14:53Z</time></trkpt><trkpt lat="44.41493148109987" lon="8.865857292374518"><ele>14.0</ele><time>2026-04-12T08:14:54Z</time></trkpt><trkpt lat="44.41500980914397" lon="8.865743961383911"><ele>12.399999999999999</ele><time>2026-04-12T08:14:56Z</time></trkpt><trkpt lat="44.41506734661316" lon="8.865682453680398"><ele>10.799999999999999</ele><time>2026-04-12T08:14:58Z</time></trkpt><trkpt lat="44.41522606675499" lon="8.865622378267044"><ele>9.2</ele><time>2026-04-12T08:15:20Z</time></trkpt><trkpt lat="44.415306481054024" lon="8.865583031010871"><ele>7.6</ele><time>2026-04-12T08:15:22Z</time></trkpt><trkpt lat="44.41536959977848" lon="8.865534891810963"><ele>6.0</ele><time>2026-04-12T08:15:24Z</time></trkpt><trkpt lat="44.41539864087341" lon="8.865394944974145"><ele>6.0</ele><time>2026-04-12T08:15:26Z</time></trkpt><trkpt lat="44.41540293933572" lon="8.86527248946245"><ele>6.0</ele><time>2026-04-12T08:15:27Z</time></trkpt><trkpt lat="44.415386032936205" lon="8.865086429989661"><ele>6.0</ele><time>2026-04-12T08:15:29Z</time></trkpt><trkpt lat="44.41537788302649" lon="8.86497304574037"><ele>6.0</ele><time>2026-04-12T08:15:30Z</time></trkpt><trkpt lat="44.41536861774544" lon="8.864858475438908"><ele>6.0</ele><time>2026-04-12T08:15:31Z</time></trkpt><trkpt lat="44.41536904665459" lon="8.864749583389946"><ele>6.0</ele><time>2026-04-12T08:15:32Z</time></trkpt><trkpt lat="44.4153716468645" lon="8.864633057884895"><ele>6.0</ele><time>2026-04-12T08:15:33Z</time></trkpt><trkpt lat="44.41537932965429" lon="8.864503519750178"><ele>6.0</ele><time>2026-04-12T08:15:34Z</time></trkpt><trkpt lat="44.41537354389469" lon="8.864390301038947"><ele>6.0</ele><time>2026-04-12T08:15:35Z</time></trkpt><trkpt lat="44.415404106990714" lon="8.86427355695668"><ele>6.0</ele><time>2026-04-12T08:15:36Z</time></trkpt><trkpt lat="44.41543996895764" lon="8.86418280103404"><ele>6.0</ele><time>2026-04-12T08:15:37Z</time></trkpt><trkpt lat="44.415447839894725" lon="8.86405132534257"><ele>6.0</ele><time>2026-04-12T08:15:38Z</time></trkpt><trkpt lat="44.41546219019278" lon="8.863925833393168"><ele>6.0</ele><time>2026-04-12T08:15:39Z</time></trkpt><trkpt lat="44.41546295042102" lon="8.86378266321167"><ele>6.0</ele><time>2026-04-12T08:15:40Z</time></trkpt><trkpt lat="44.41547747676655" lon="8.863643478124574"><ele>6.0</ele><time>2026-04-12T08:15:41Z</time></trkpt><trkpt lat="44.41549606941483" lon="8.863513765137615"><ele>6.0</ele><time>2026-04-12T08:15:42Z</time></trkpt><trkpt lat="44.415509754654956" lon="8.863376391937503"><ele>8.8</ele><time>2026-04-12T08:15:43Z</time></trkpt><trkpt lat="44.41552228162333" lon="8.86323971416686"><ele>11.6</ele><time>2026-04-12T08:15:44Z</time></trkpt><trkpt lat="44.41553614890726" lon="8.86310428903614"><ele>14.4</ele><time>2026-04-12T08:15:45Z</time></trkpt><trkpt lat="44.41555030549329" lon="8.862955901363208"><ele>17.2</ele><time>2026-04-12T08:15:46Z</time></trkpt><trkpt lat="44.415561336665924" lon="8.862805581939146"><ele>20.0</ele><time>2026-04-12T08:15:47Z</time></trkpt><trkpt lat="44.41557490787886" lon="8.862659860432728"><ele>19.4</ele><time>2026-04-12T08:15:48Z</time></trkpt><trkpt lat="44.41558924075423" lon="8.862518513288636"><ele>18.8</ele><time>2026-04-12T08:15:49Z</time></trkpt><trkpt lat="44.41561748189488" lon="8.862400080576977"><ele>18.2</ele><time>2026-04-12T08:15:50Z</time></trkpt><trkpt lat="44.41562789222189" lon="8.862277686389096"><ele>17.6</ele><time>2026-04-12T08:15:51Z</time></trkpt><trkpt lat="44.41562816960424" lon="8.862138771526748"><ele>17.0</ele><time>2026-04-12T08:15:52Z</time></trkpt><trkpt lat="44.4156298302383" lon="8.862019069466687"><ele>17.0</ele><time>2026-04-12T08:15:53Z</time></trkpt><trkpt lat="44.41564313633023" lon="8.861913838061449"><ele>17.0</ele><time>2026-04-12T08:15:54Z</time></trkpt><trkpt lat="44.415691115910995" lon="8.861814989927055"><ele>17.0</ele><time>2026-04-12T08:15:55Z</time></trkpt><trkpt lat="44.41574157083584" lon="8.861682455419393"><ele>17.0</ele><time>2026-04-12T08:15:56Z</time></trkpt><trkpt lat="44.41578881038304" lon="8.861556168548823"><ele>17.0</ele><time>2026-04-12T08:15:57Z</time></trkpt><trkpt lat="44.41583557259266" lon="8.861401506388361"><ele>15.8</ele><time>2026-04-12T08:15:58Z</time></trkpt><trkpt lat="44.41589493600491" lon="8.861284797640845"><ele>14.6</ele><time>2026-04-12T08:15:59Z</time></trkpt><trkpt lat="44.41595168992995" lon="8.861153121210847"><ele>13.4</ele><time>2026-04-12T08:16:00Z</time></trkpt><trkpt lat="44.41602340355298" lon="8.861015760623758"><ele>12.200000000000001</ele><time>2026-04-12T08:16:01Z</time></trkpt><trkpt lat="44.416095703266514" lon="8.860893906655786"><ele>11.0</ele><time>2026-04-12T08:16:02Z</time></trkpt><trkpt lat="44.416161389841896" lon="8.860780385078971"><ele>10.4</ele><time>2026-04-12T08:16:03Z</time></trkpt><trkpt lat="44.41622112429528" lon="8.860695385477337"><ele>9.8</ele><time>2026-04-12T08:16:04Z</time></trkpt><trkpt lat="44.41628320011239" lon="8.860591382768929"><ele>9.200000000000001</ele><time>2026-04-12T08:16:05Z</time></trkpt><trkpt lat="44.416369921294915" lon="8.860493424060536"><ele>8.600000000000001</ele><time>2026-04-12T08:16:06Z</time></trkpt><trkpt lat="44.41645521688002" lon="8.860396230871109"><ele>8.0</ele><time>2026-04-12T08:16:07Z</time></trkpt><trkpt lat="44.41655084024356" lon="8.86028690078934"><ele>7.6000000000000005</ele><time>2026-04-12T08:16:08Z</time></trkpt><trkpt lat="44.41664060526922" lon="8.860189299681553"><ele>7.200000000000001</ele><time>2026-04-12T08:16:09Z</time></trkpt><trkpt lat="44.41673085857949" lon="8.860096698647915"><ele>6.8</ele><time>2026-04-12T08:16:10Z</time></trkpt><trkpt lat="44.41682242623291" lon="8.860019997319458"><ele>6.4</ele><time>2026-04-12T08:16:11Z</time></trkpt><trkpt lat="44.41692109210263" lon="8.859940047791572"><ele>6.0</ele><time>2026-04-12T08:16:12Z</time></trkpt><trkpt lat="44.4170219980005" lon="8.859853984978503"><ele>6.0</ele><time>2026-04-12T08:16:13Z</time></trkpt><trkpt lat="44.41711818392581" lon="8.85978409029033"><ele>6.0</ele><time>2026-04-12T08:16:14Z</time></trkpt><trkpt lat="44.4172157989453" lon="8.859719077709435"><ele>6.0</ele><time>2026-04-12T08:16:15Z</time></trkpt><trkpt lat="44.4173224713818" lon="8.85966400795856"><ele>6.0</ele><time>2026-04-12T08:16:16Z</time></trkpt><trkpt lat="44.41741668180304" lon="8.859611475241268"><ele>6.0</ele><time>2026-04-12T08:16:17Z</time></trkpt><trkpt lat="44.41751088515906" lon="8.859559628528602"><ele>8.4</ele><time>2026-04-12T08:16:18Z</time></trkpt><trkpt lat="44.41760273688522" lon="8.85952044486166"><ele>10.8</ele><time>2026-04-12T08:16:19.001Z</time></trkpt><trkpt lat="44.417702878289845" lon="8.859476295680757"><ele>13.200000000000001</ele><time>2026-04-12T08:16:20.001Z</time></trkpt><trkpt lat="44.41779797597887" lon="8.859436609170775"><ele>15.6</ele><time>2026-04-12T08:16:21Z</time></trkpt><trkpt lat="44.417884408305206" lon="8.859387409056652"><ele>18.0</ele><time>2026-04-12T08:16:22Z</time></trkpt><trkpt lat="44.41796598854789" lon="8.859347675310865"><ele>18.5</ele><time>2026-04-12T08:16:23Z</time></trkpt><trkpt lat="44.418043935993985" lon="8.859312872086885"><ele>19.0</ele><time>2026-04-12T08:16:24Z</time></trkpt><trkpt lat="44.418125479093796" lon="8.859291107817036"><ele>19.5</ele><time>2026-04-12T08:16:25Z</time></trkpt><trkpt lat="44.41821100311305" lon="8.859277142801941"><ele>20.0</ele><time>2026-04-12T08:16:26Z</time></trkpt><trkpt lat="44.418297489748745" lon="8.859267537529725"><ele>20.5</ele><time>2026-04-12T08:16:27Z</time></trkpt><trkpt lat="44.41838671665513" lon="8.859264503795984"><ele>21.0</ele><time>2026-04-12T08:16:28Z</time></trkpt><trkpt lat="44.418470602733954" lon="8.8592643957615"><ele>19.666666666666668</ele><time>2026-04-12T08:16:29Z</time></trkpt><trkpt lat="44.418558485771484" lon="8.859269463273012"><ele>18.333333333333332</ele><time>2026-04-12T08:16:30Z</time></trkpt><trkpt lat="44.41864370785268" lon="8.859276414172717"><ele>17.0</ele><time>2026-04-12T08:16:31Z</time></trkpt><trkpt lat="44.41871786824609" lon="8.859279045676058"><ele>15.666666666666666</ele><time>2026-04-12T08:16:32Z</time></trkpt><trkpt lat="44.418791327184344" lon="8.85927799525961"><ele>14.333333333333332</ele><time>2026-04-12T08:16:33Z</time></trkpt><trkpt lat="44.41886817198242" lon="8.859276992101384"><ele>13.0</ele><time>2026-04-12T08:16:34Z</time></trkpt><trkpt lat="44.41893571911809" lon="8.859270686895357"><ele>13.0</ele><time>2026-04-12T08:16:35Z</time></trkpt><trkpt lat="44.41903124907282" lon="8.859262477062112"><ele>13.0</ele><time>2026-04-12T08:16:37Z</time></trkpt><trkpt lat="44.419118586548" lon="8.859243671247109"><ele>13.0</ele><time>2026-04-12T08:16:39Z</time></trkpt><trkpt lat="44.41923639735644" lon="8.859234917522928"><ele>13.0</ele><time>2026-04-12T08:16:41Z</time></trkpt><trkpt lat="44.41933762143506" lon="8.859215081527912"><ele>13.0</ele><time>2026-04-12T08:16:43Z</time></trkpt><trkpt lat="44.4194039885249" lon="8.859129605422345"><ele>12.999999999999998</ele><time>2026-04-12T08:16:45Z</time></trkpt><trkpt lat="44.41943765129199" lon="8.85899884592152"><ele>13.0</ele><time>2026-04-12T08:16:47Z</time></trkpt><trkpt lat="44.419432553082125" lon="8.858825707429732"><ele>13.0</ele><time>2026-04-12T08:16:49Z</time></trkpt><trkpt lat="44.419438797188135" lon="8.858726278673547"><ele>13.0</ele><time>2026-04-12T08:16:50Z</time></trkpt><trkpt lat="44.419477592477556" lon="8.858650479591502"><ele>12.999999999999998</ele><time>2026-04-12T08:16:51Z</time></trkpt><trkpt lat="44.41951017225344" lon="8.858545722615332"><ele>13.0</ele><time>2026-04-12T08:16:52Z</time></trkpt><trkpt lat="44.41955534688292" lon="8.858441264302174"><ele>11.4</ele><time>2026-04-12T08:16:53Z</time></trkpt><trkpt lat="44.4195999884881" lon="8.858344669917418"><ele>9.8</ele><time>2026-04-12T08:16:54Z</time></trkpt><trkpt lat="44.41965644194279" lon="8.858233029423031"><ele>8.2</ele><time>2026-04-12T08:16:55Z</time></trkpt><trkpt lat="44.41972176414709" lon="8.858125413763299"><ele>6.6</ele><time>2026-04-12T08:16:56Z</time></trkpt><trkpt lat="44.41977352436614" lon="8.858016870807118"><ele>5.0</ele><time>2026-04-12T08:16:57Z</time></trkpt><trkpt lat="44.41983068621957" lon="8.857910576766153"><ele>5.0</ele><time>2026-04-12T08:16:58Z</time></trkpt><trkpt lat="44.41988810211102" lon="8.857816190250688"><ele>5.0</ele><time>2026-04-12T08:16:59Z</time></trkpt><trkpt lat="44.41993774238584" lon="8.857701132879088"><ele>5.0</ele><time>2026-04-12T08:17:00Z</time></trkpt><trkpt lat="44.41998898874398" lon="8.857597339847871"><ele>5.0</ele><time>2026-04-12T08:17:01Z</time></trkpt><trkpt lat="44.4200395630899" lon="8.857474379545714"><ele>5.0</ele><time>2026-04-12T08:17:02Z</time></trkpt><trkpt lat="44.420090615716965" lon="8.85735544826307"><ele>5.0</ele><time>2026-04-12T08:17:03Z</time></trkpt><trkpt lat="44.42014359677374" lon="8.857235600945806"><ele>5.0</ele><time>2026-04-12T08:17:04Z</time></trkpt><trkpt lat="44.420187453462475" lon="8.85710556302315"><ele>5.0</ele><time>2026-04-12T08:17:05Z</time></trkpt><trkpt lat="44.42022594940573" lon="8.856970978020302"><ele>5.0</ele><time>2026-04-12T08:17:06Z</time></trkpt><trkpt lat="44.42026992619562" lon="8.856834996377547"><ele>5.0</ele><time>2026-04-12T08:17:07Z</time></trkpt><trkpt lat="44.42031817975159" lon="8.856694821185009"><ele>4.6</ele><time>2026-04-12T08:17:08Z</time></trkpt><trkpt lat="44.42035876089671" lon="8.856548908356725"><ele>4.2</ele><time>2026-04-12T08:17:09Z</time></trkpt><trkpt lat="44.420407204216566" lon="8.856401165119212"><ele>3.8</ele><time>2026-04-12T08:17:10Z</time></trkpt><trkpt lat="44.4204457436407" lon="8.85626312373164"><ele>3.4</ele><time>2026-04-12T08:17:11Z</time></trkpt><trkpt lat="44.42049026709823" lon="8.856120838935693"><ele>3.0</ele><time>2026-04-12T08:17:12Z</time></trkpt><trkpt lat="44.420530633624146" lon="8.85597269146"><ele>3.75</ele><time>2026-04-12T08:17:13Z</time></trkpt><trkpt lat="44.42055321757557" lon="8.85579674354353"><ele>4.5</ele><time>2026-04-12T08:17:14Z</time></trkpt><trkpt lat="44.42059323957507" lon="8.855650195727877"><ele>5.25</ele><time>2026-04-12T08:17:15Z</time></trkpt><trkpt lat="44.4206498382052" lon="8.855530515842963"><ele>6.0</ele><time>2026-04-12T08:17:16Z</time></trkpt><trkpt lat="44.42068025621062" lon="8.855350380971577"><ele>6.0</ele><time>2026-04-12T08:17:17Z</time></trkpt><trkpt lat="44.42072639299119" lon="8.855198630020796"><ele>6.0</ele><time>2026-04-12T08:17:18Z</time></trkpt><trkpt lat="44.42076454509953" lon="8.855053434938585"><ele>6.0</ele><time>2026-04-12T08:17:19Z</time></trkpt><trkpt lat="44.420808748291314" lon="8.854902864920676"><ele>6.0</ele><time>2026-04-12T08:17:20Z</time></trkpt><trkpt lat="44.42085294563345" lon="8.85475209998806"><ele>6.0</ele><time>2026-04-12T08:17:21Z</time></trkpt><trkpt lat="44.42089552231587" lon="8.854601607566686"><ele>6.0</ele><time>2026-04-12T08:17:22Z</time></trkpt><trkpt lat="44.42093493289196" lon="8.854448608731916"><ele>6.0</ele><time>2026-04-12T08:17:23Z</time></trkpt><trkpt lat="44.42097770712874" lon="8.854300811877629"><ele>6.0</ele><time>2026-04-12T08:17:24Z</time></trkpt><trkpt lat="44.42102823147204" lon="8.85416479684005"><ele>6.25</ele><time>2026-04-12T08:17:25Z</time></trkpt><trkpt lat="44.4210698136845" lon="8.85401739730639"><ele>6.5</ele><time>2026-04-12T08:17:26Z</time></trkpt><trkpt lat="44.42110661668914" lon="8.853860993581177"><ele>6.75</ele><time>2026-04-12T08:17:27Z</time></trkpt><trkpt lat="44.42114476522152" lon="8.853708896029508"><ele>7.0</ele><time>2026-04-12T08:17:28Z</time></trkpt><trkpt lat="44.421184989236075" lon="8.853568956887145"><ele>7.0</ele><time>2026-04-12T08:17:29Z</time></trkpt><trkpt lat="44.42122475106401" lon="8.853425025504773"><ele>6.999999999999999</ele><time>2026-04-12T08:17:30Z</time></trkpt><trkpt lat="44.42126370632621" lon="8.853291951053041"><ele>6.999999999999999</ele><time>2026-04-12T08:17:31Z</time></trkpt><trkpt lat="44.42130374501366" lon="8.853151051371539"><ele>7.0</ele><time>2026-04-12T08:17:32Z</time></trkpt><trkpt lat="44.42134218446228" lon="8.853012743188073"><ele>7.0</ele><time>2026-04-12T08:17:33Z</time></trkpt><trkpt lat="44.421385553678626" lon="8.852874913483724"><ele>7.0</ele><time>2026-04-12T08:17:34Z</time></trkpt><trkpt lat="44.42142358287041" lon="8.852743757095045"><ele>6.999999999999999</ele><time>2026-04-12T08:17:35Z</time></trkpt><trkpt lat="44.421465703806916" lon="8.852604235426131"><ele>6.999999999999999</ele><time>2026-04-12T08:17:36Z</time></trkpt><trkpt lat="44.42150768306561" lon="8.852465010356543"><ele>7.0</ele><time>2026-04-12T08:17:37Z</time></trkpt><trkpt lat="44.42154437618382" lon="8.852324227286713"><ele>7.0</ele><time>2026-04-12T08:17:38Z</time></trkpt><trkpt lat="44.421587070731704" lon="8.852183070371218"><ele>6.8</ele><time>2026-04-12T08:17:39Z</time></trkpt><trkpt lat="44.42162253214976" lon="8.852041848072428"><ele>6.6</ele><time>2026-04-12T08:17:40Z</time></trkpt><trkpt lat="44.42165069800776" lon="8.851913826505996"><ele>6.3999999999999995</ele><time>2026-04-12T08:17:41Z</time></trkpt><trkpt lat="44.4216978327724" lon="8.851780102336528"><ele>6.199999999999999</ele><time>2026-04-12T08:17:42Z</time></trkpt><trkpt lat="44.42173174595741" lon="8.851645296310235"><ele>6.0</ele><time>2026-04-12T08:17:43Z</time></trkpt><trkpt lat="44.42178155579152" lon="8.851509729134836"><ele>6.75</ele><time>2026-04-12T08:17:44Z</time></trkpt><trkpt lat="44.42181491035475" lon="8.851361463152614"><ele>7.5</ele><time>2026-04-12T08:17:45Z</time></trkpt><trkpt lat="44.42185260430503" lon="8.851214201707084"><ele>8.25</ele><time>2026-04-12T08:17:46Z</time></trkpt><trkpt lat="44.421885116710854" lon="8.851056201548591"><ele>9.0</ele><time>2026-04-12T08:17:47Z</time></trkpt><trkpt lat="44.42191929565784" lon="8.85089746494291"><ele>9.0</ele><time>2026-04-12T08:17:48Z</time></trkpt><trkpt lat="44.421954120498945" lon="8.850735991822132"><ele>9.0</ele><time>2026-04-12T08:17:49Z</time></trkpt><trkpt lat="44.4219941732723" lon="8.850590024288286"><ele>9.0</ele><time>2026-04-12T08:17:50Z</time></trkpt><trkpt lat="44.42203162184705" lon="8.850452583235825"><ele>9.0</ele><time>2026-04-12T08:17:51Z</time></trkpt><trkpt lat="44.42206083119401" lon="8.850306015608668"><ele>9.0</ele><time>2026-04-12T08:17:52Z</time></trkpt><trkpt lat="44.42209303058314" lon="8.850157561990253"><ele>8.8</ele><time>2026-04-12T08:17:53Z</time></trkpt><trkpt lat="44.42212710741821" lon="8.85000561807203"><ele>8.600000000000001</ele><time>2026-04-12T08:17:54Z</time></trkpt><trkpt lat="44.4221569544765" lon="8.849863548970644"><ele>8.4</ele><time>2026-04-12T08:17:55Z</time></trkpt><trkpt lat="44.422189859721314" lon="8.849724090567966"><ele>8.200000000000001</ele><time>2026-04-12T08:17:56Z</time></trkpt><trkpt lat="44.422222999906595" lon="8.84959115223608"><ele>8.0</ele><time>2026-04-12T08:17:57Z</time></trkpt><trkpt lat="44.422254243484744" lon="8.84946185153901"><ele>8.0</ele><time>2026-04-12T08:17:58Z</time></trkpt><trkpt lat="44.42229219392738" lon="8.849333386426729"><ele>8.0</ele><time>2026-04-12T08:17:59Z</time></trkpt><trkpt lat="44.42232603950982" lon="8.849212384919344"><ele>8.0</ele><time>2026-04-12T08:18:00Z</time></trkpt><trkpt lat="44.422358746137874" lon="8.849100471904706"><ele>8.0</ele><time>2026-04-12T08:18:01Z</time></trkpt><trkpt lat="44.42239144851543" lon="8.84898116965232"><ele>8.0</ele><time>2026-04-12T08:18:02Z</time></trkpt><trkpt lat="44.4224265271882" lon="8.848867770498057"><ele>7.999999999999999</ele><time>2026-04-12T08:18:03Z</time></trkpt><trkpt lat="44.42245842140656" lon="8.848752178717453"><ele>8.0</ele><time>2026-04-12T08:18:04Z</time></trkpt><trkpt lat="44.42249342649595" lon="8.848642695799569"><ele>8.0</ele><time>2026-04-12T08:18:05Z</time></trkpt><trkpt lat="44.4225259914139" lon="8.848533100524497"><ele>8.0</ele><time>2026-04-12T08:18:06Z</time></trkpt><trkpt lat="44.42255010264313" lon="8.84839519193748"><ele>7.999999999999999</ele><time>2026-04-12T08:18:07Z</time></trkpt><trkpt lat="44.42258061177379" lon="8.84828390211336"><ele>8.0</ele><time>2026-04-12T08:18:08Z</time></trkpt><trkpt lat="44.422614685044465" lon="8.84817083423581"><ele>7.999999999999999</ele><time>2026-04-12T08:18:09Z</time></trkpt><trkpt lat="44.42264831036425" lon="8.848058908174076"><ele>8.0</ele><time>2026-04-12T08:18:10Z</time></trkpt><trkpt lat="44.422679487892324" lon="8.847939717213336"><ele>8.0</ele><time>2026-04-12T08:18:11Z</time></trkpt><trkpt lat="44.42271523710995" lon="8.847840925074278"><ele>8.0</ele><time>2026-04-12T08:18:12Z</time></trkpt><trkpt lat="44.422745617922665" lon="8.847739681279297"><ele>7.999999999999999</ele><time>2026-04-12T08:18:13Z</time></trkpt><trkpt lat="44.42278002422437" lon="8.847633641011548"><ele>8.0</ele><time>2026-04-12T08:18:14Z</time></trkpt><trkpt lat="44.422805451658455" lon="8.847535966705566"><ele>8.166666666666666</ele><time>2026-04-12T08:18:15Z</time></trkpt><trkpt lat="44.422826604072554" lon="8.8474496850678"><ele>8.333333333333332</ele><time>2026-04-12T08:18:16Z</time></trkpt><trkpt lat="44.42285424358359" lon="8.847323174744457"><ele>8.5</ele><time>2026-04-12T08:18:18Z</time></trkpt><trkpt lat="44.42289978074277" lon="8.847179240608137"><ele>8.666666666666666</ele><time>2026-04-12T08:18:20Z</time></trkpt><trkpt lat="44.422925919133" lon="8.847053951964112"><ele>8.833333333333334</ele><time>2026-04-12T08:18:22Z</time></trkpt><trkpt lat="44.42295109562267" lon="8.846958853269822"><ele>9.0</ele><time>2026-04-12T08:18:25Z</time></trkpt><trkpt lat="44.42298863934722" lon="8.846867793932429"><ele>9.2</ele><time>2026-04-12T08:18:51Z</time></trkpt><trkpt lat="44.42302780482027" lon="8.846745395394068"><ele>9.4</ele><time>2026-04-12T08:18:53Z</time></trkpt><trkpt lat="44.423065534313096" lon="8.846618571082038"><ele>9.6</ele><time>2026-04-12T08:18:55Z</time></trkpt><trkpt lat="44.423112549437064" lon="8.846450447752996"><ele>9.8</ele><time>2026-04-12T08:18:57Z</time></trkpt><trkpt lat="44.42313507613135" lon="8.846342735601308"><ele>10.0</ele><time>2026-04-12T08:18:58Z</time></trkpt><trkpt lat="44.42315981786599" lon="8.846241926827995"><ele>10.0</ele><time>2026-04-12T08:18:59Z</time></trkpt><trkpt lat="44.42318535939194" lon="8.846151549992564"><ele>10.0</ele><time>2026-04-12T08:19:00Z</time></trkpt><trkpt lat="44.42321311059209" lon="8.846058742931836"><ele>10.0</ele><time>2026-04-12T08:19:01Z</time></trkpt><trkpt lat="44.42323713851841" lon="8.845972147415115"><ele>10.0</ele><time>2026-04-12T08:19:02Z</time></trkpt><trkpt lat="44.423261002213145" lon="8.845881986682716"><ele>10.0</ele><time>2026-04-12T08:19:03Z</time></trkpt><trkpt lat="44.42328001538908" lon="8.845792260140275"><ele>10.0</ele><time>2026-04-12T08:19:04Z</time></trkpt><trkpt lat="44.42331142095188" lon="8.845667366274602"><ele>10.0</ele><time>2026-04-12T08:19:06Z</time></trkpt><trkpt lat="44.42333941476007" lon="8.845563993852979"><ele>10.0</ele><time>2026-04-12T08:19:09Z</time></trkpt><trkpt lat="44.42334716951908" lon="8.845470959118046"><ele>10.0</ele><time>2026-04-12T08:19:48Z</time></trkpt><trkpt lat="44.42337433128956" lon="8.84535686728236"><ele>10.0</ele><time>2026-04-12T08:19:51Z</time></trkpt><trkpt lat="44.42340721592315" lon="8.845230720565507"><ele>10.0</ele><time>2026-04-12T08:19:54Z</time></trkpt><trkpt lat="44.423444739048456" lon="8.845101922566789"><ele>10.0</ele><time>2026-04-12T08:19:57Z</time></trkpt><trkpt lat="44.42346892464928" lon="8.844996059900717"><ele>10.0</ele><time>2026-04-12T08:19:59Z</time></trkpt><trkpt lat="44.423508022649635" lon="8.84489035945338"><ele>9.8</ele><time>2026-04-12T08:20:01Z</time></trkpt><trkpt lat="44.42354370297363" lon="8.844760672274468"><ele>9.6</ele><time>2026-04-12T08:20:03Z</time></trkpt><trkpt lat="44.42359090599401" lon="8.844631899434804"><ele>9.4</ele><time>2026-04-12T08:20:05Z</time></trkpt><trkpt lat="44.4236089389602" lon="8.844491317929146"><ele>9.2</ele><time>2026-04-12T08:20:07Z</time></trkpt><trkpt lat="44.42364767136805" lon="8.84437201311383"><ele>9.0</ele><time>2026-04-12T08:20:09Z</time></trkpt><trkpt lat="44.42365997011555" lon="8.844226599219303"><ele>9.0</ele><time>2026-04-12T08:20:11Z</time></trkpt><trkpt lat="44.42371205346018" lon="8.8441700958305"><ele>9.0</ele><time>2026-04-12T08:20:12Z</time></trkpt><trkpt lat="44.423800371759484" lon="8.84407184951802"><ele>9.0</ele><time>2026-04-12T08:20:14Z</time></trkpt><trkpt lat="44.4238654999676" lon="8.844032827429594"><ele>9.0</ele><time>2026-04-12T08:20:15Z</time></trkpt><trkpt lat="44.423930437070545" lon="8.844031525024345"><ele>9.0</ele><time>2026-04-12T08:20:16Z</time></trkpt><trkpt lat="44.42399820360557" lon="8.844040963510816"><ele>9.0</ele><time>2026-04-12T08:20:17Z</time></trkpt><trkpt lat="44.42407524115553" lon="8.844027834201906"><ele>9.4</ele><time>2026-04-12T08:20:18Z</time></trkpt><trkpt lat="44.42414713117375" lon="8.844060794189277"><ele>9.8</ele><time>2026-04-12T08:20:19Z</time></trkpt><trkpt lat="44.42424956541464" lon="8.844068757741047"><ele>10.200000000000001</ele><time>2026-04-12T08:20:21Z</time></trkpt><trkpt lat="44.42432531578443" lon="8.84408277898645"><ele>10.600000000000001</ele><time>2026-04-12T08:20:23Z</time></trkpt><trkpt lat="44.42439007378124" lon="8.844102132295559"><ele>11.0</ele><time>2026-04-12T08:20:25Z</time></trkpt><trkpt lat="44.42457388294673" lon="8.844073522702057"><ele>10.833333333333332</ele><time>2026-04-12T08:20:39Z</time></trkpt><trkpt lat="44.424706532353035" lon="8.844078720446023"><ele>10.666666666666666</ele><time>2026-04-12T08:20:42Z</time></trkpt><trkpt lat="44.424775429429026" lon="8.844083877077322"><ele>10.5</ele><time>2026-04-12T08:20:43Z</time></trkpt><trkpt lat="44.42484604110867" lon="8.84408813712339"><ele>10.333333333333334</ele><time>2026-04-12T08:20:44Z</time></trkpt><trkpt lat="44.4249146391167" lon="8.844085428971763"><ele>10.166666666666668</ele><time>2026-04-12T08:20:45Z</time></trkpt><trkpt lat="44.42497981506273" lon="8.844089746680297"><ele>10.0</ele><time>2026-04-12T08:20:46Z</time></trkpt><trkpt lat="44.42505224760263" lon="8.84410073080526"><ele>10.0</ele><time>2026-04-12T08:20:47Z</time></trkpt><trkpt lat="44.42511801382788" lon="8.844109104353821"><ele>10.0</ele><time>2026-04-12T08:20:48Z</time></trkpt><trkpt lat="44.42517998245107" lon="8.844136726930705"><ele>10.0</ele><time>2026-04-12T08:20:49Z</time></trkpt><trkpt lat="44.42525990995413" lon="8.84414426878971"><ele>10.0</ele><time>2026-04-12T08:20:50Z</time></trkpt><trkpt lat="44.42532847377411" lon="8.844146414994356"><ele>10.0</ele><time>2026-04-12T08:20:51Z</time></trkpt><trkpt lat="44.42539447210675" lon="8.844140642429066"><ele>10.0</ele><time>2026-04-12T08:20:52Z</time></trkpt><trkpt lat="44.425472505956115" lon="8.844143097058057"><ele>10.0</ele><time>2026-04-12T08:20:53Z</time></trkpt><trkpt lat="44.4255451763937" lon="8.844157062647746"><ele>9.6</ele><time>2026-04-12T08:20:54Z</time></trkpt><trkpt lat="44.42565675399477" lon="8.844230230668648"><ele>9.2</ele><time>2026-04-12T08:20:56Z</time></trkpt><trkpt lat="44.4257255567626" lon="8.844227572892796"><ele>8.8</ele><time>2026-04-12T08:20:57Z</time></trkpt><trkpt lat="44.425823085948736" lon="8.844222828241543"><ele>8.4</ele><time>2026-04-12T08:20:59Z</time></trkpt><trkpt lat="44.42592806753803" lon="8.844082793777934"><ele>8.0</ele><time>2026-04-12T08:21:01Z</time></trkpt><trkpt lat="44.42595860806692" lon="8.843995984727377"><ele>7.999999999999999</ele><time>2026-04-12T08:21:02Z</time></trkpt><trkpt lat="44.42596015177626" lon="8.843876390238545"><ele>8.0</ele><time>2026-04-12T08:21:03Z</time></trkpt><trkpt lat="44.42598104442625" lon="8.843780995446593"><ele>8.0</ele><time>2026-04-12T08:21:04Z</time></trkpt><trkpt lat="44.42600454646995" lon="8.84367329184663"><ele>8.0</ele><time>2026-04-12T08:21:05Z</time></trkpt><trkpt lat="44.42603050355019" lon="8.843561827843038"><ele>7.999999999999999</ele><time>2026-04-12T08:21:06Z</time></trkpt><trkpt lat="44.42605543763228" lon="8.8434551460839"><ele>8.0</ele><time>2026-04-12T08:21:07Z</time></trkpt><trkpt lat="44.42607925379349" lon="8.843353622227893"><ele>7.999999999999999</ele><time>2026-04-12T08:21:08Z</time></trkpt><trkpt lat="44.4261058259001" lon="8.843245904284743"><ele>8.0</ele><time>2026-04-12T08:21:09Z</time></trkpt><trkpt lat="44.426134005876904" lon="8.843131668373655"><ele>8.0</ele><time>2026-04-12T08:21:10Z</time></trkpt><trkpt lat="44.42616619791593" lon="8.843004617552353"><ele>8.0</ele><time>2026-04-12T08:21:11Z</time></trkpt><trkpt lat="44.426195656451526" lon="8.842889185666518"><ele>7.999999999999999</ele><time>2026-04-12T08:21:12Z</time></trkpt><trkpt lat="44.42622573699622" lon="8.842771316476318"><ele>8.0</ele><time>2026-04-12T08:21:13Z</time></trkpt><trkpt lat="44.4262523825006" lon="8.842666907321902"><ele>7.999999999999999</ele><time>2026-04-12T08:21:14Z</time></trkpt><trkpt lat="44.4262786801861" lon="8.842563861074666"><ele>8.0</ele><time>2026-04-12T08:21:15Z</time></trkpt><trkpt lat="44.42629425283043" lon="8.842452175291847"><ele>8.0</ele><time>2026-04-12T08:21:16Z</time></trkpt><trkpt lat="44.42632239947365" lon="8.842356981120853"><ele>8.0</ele><time>2026-04-12T08:21:17Z</time></trkpt><trkpt lat="44.426347685510876" lon="8.842254749218693"><ele>7.999999999999999</ele><time>2026-04-12T08:21:18Z</time></trkpt><trkpt lat="44.42637461880314" lon="8.84216218597498"><ele>8.0</ele><time>2026-04-12T08:21:19Z</time></trkpt><trkpt lat="44.426411129716875" lon="8.842017295913964"><ele>8.333333333333332</ele><time>2026-04-12T08:21:21Z</time></trkpt><trkpt lat="44.426436369550515" lon="8.84191710502521"><ele>8.666666666666666</ele><time>2026-04-12T08:21:23Z</time></trkpt><trkpt lat="44.42646652148916" lon="8.841823880191939"><ele>9.0</ele><time>2026-04-12T08:21:25Z</time></trkpt><trkpt lat="44.42648993166054" lon="8.841731107898172"><ele>9.333333333333334</ele><time>2026-04-12T08:21:27Z</time></trkpt><trkpt lat="44.42652441462332" lon="8.841594674158507"><ele>9.666666666666668</ele><time>2026-04-12T08:21:44Z</time></trkpt><trkpt lat="44.42649287983988" lon="8.841512204621111"><ele>10.0</ele><time>2026-04-12T08:21:45Z</time></trkpt><trkpt lat="44.42650861585816" lon="8.841408767830966"><ele>10.0</ele><time>2026-04-12T08:21:47Z</time></trkpt><trkpt lat="44.42653867235094" lon="8.841312304052789"><ele>10.0</ele><time>2026-04-12T08:21:49Z</time></trkpt><trkpt lat="44.4265746466269" lon="8.84117410068204"><ele>10.0</ele><time>2026-04-12T08:21:51Z</time></trkpt><trkpt lat="44.426658110172184" lon="8.841071993626906"><ele>10.0</ele><time>2026-04-12T08:21:53Z</time></trkpt><trkpt lat="44.426693190903066" lon="8.840938449127899"><ele>10.0</ele><time>2026-04-12T08:21:55Z</time></trkpt><trkpt lat="44.42673222774816" lon="8.840789844573408"><ele>9.833333333333334</ele><time>2026-04-12T08:21:57Z</time></trkpt><trkpt lat="44.426754285422305" lon="8.84070595971624"><ele>9.666666666666668</ele><time>2026-04-12T08:21:59Z</time></trkpt><trkpt lat="44.42678183147467" lon="8.840601263399686"><ele>9.5</ele><time>2026-04-12T08:22:02Z</time></trkpt><trkpt lat="44.426808408411" lon="8.840500250486073"><ele>9.333333333333334</ele><time>2026-04-12T08:22:04Z</time></trkpt><trkpt lat="44.42683215177714" lon="8.840410007320399"><ele>9.166666666666666</ele><time>2026-04-12T08:22:06Z</time></trkpt><trkpt lat="44.42686120871865" lon="8.840251786130201"><ele>9.0</ele><time>2026-04-12T08:22:08Z</time></trkpt><trkpt lat="44.42688821928928" lon="8.840155554974048"><ele>9.0</ele><time>2026-04-12T08:22:09Z</time></trkpt><trkpt lat="44.42691522032265" lon="8.840054633019387"><ele>9.0</ele><time>2026-04-12T08:22:10Z</time></trkpt><trkpt lat="44.42694330301274" lon="8.839951761184645"><ele>9.0</ele><time>2026-04-12T08:22:11Z</time></trkpt><trkpt lat="44.42697558116731" lon="8.839850878151754"><ele>9.0</ele><time>2026-04-12T08:22:12Z</time></trkpt><trkpt lat="44.42700393250717" lon="8.839735439353019"><ele>9.0</ele><time>2026-04-12T08:22:13Z</time></trkpt><trkpt lat="44.4270373684939" lon="8.83961106289599"><ele>9.0</ele><time>2026-04-12T08:22:14Z</time></trkpt><trkpt lat="44.42707658282876" lon="8.839497257037403"><ele>9.0</ele><time>2026-04-12T08:22:15Z</time></trkpt><trkpt lat="44.42710054089632" lon="8.839362705399624"><ele>9.0</ele><time>2026-04-12T08:22:16Z</time></trkpt><trkpt lat="44.427134211803654" lon="8.839233357675312"><ele>9.0</ele><time>2026-04-12T08:22:17Z</time></trkpt><trkpt lat="44.42718549151241" lon="8.839104931329365"><ele>9.0</ele><time>2026-04-12T08:22:18Z</time></trkpt><trkpt lat="44.42721602794847" lon="8.838970446992148"><ele>9.0</ele><time>2026-04-12T08:22:19Z</time></trkpt><trkpt lat="44.42724227901972" lon="8.838847980153593"><ele>9.6</ele><time>2026-04-12T08:22:20Z</time></trkpt><trkpt lat="44.4272578806905" lon="8.838727671256734"><ele>10.2</ele><time>2026-04-12T08:22:21Z</time></trkpt><trkpt lat="44.42726890273472" lon="8.83861953321604"><ele>10.799999999999999</ele><time>2026-04-12T08:22:22Z</time></trkpt><trkpt lat="44.42727986268923" lon="8.83849132728608"><ele>11.4</ele><time>2026-04-12T08:22:23Z</time></trkpt><trkpt lat="44.427286429359164" lon="8.83836185502614"><ele>12.0</ele><time>2026-04-12T08:22:24Z</time></trkpt><trkpt lat="44.42729524555575" lon="8.838218930428702"><ele>12.2</ele><time>2026-04-12T08:22:25Z</time></trkpt><trkpt lat="44.42730382162263" lon="8.838079898711376"><ele>12.399999999999999</ele><time>2026-04-12T08:22:26.001Z</time></trkpt><trkpt lat="44.42731241886823" lon="8.837942157212119"><ele>12.600000000000001</ele><time>2026-04-12T08:22:27.001Z</time></trkpt><trkpt lat="44.42732144107022" lon="8.837800596183556"><ele>12.8</ele><time>2026-04-12T08:22:28.001Z</time></trkpt><trkpt lat="44.427316700880006" lon="8.837657095625778"><ele>13.0</ele><time>2026-04-12T08:22:29.001Z</time></trkpt><trkpt lat="44.42734630544273" lon="8.837503714277942"><ele>12.4</ele><time>2026-04-12T08:22:30.001Z</time></trkpt><trkpt lat="44.42735852697015" lon="8.837344633990982"><ele>11.8</ele><time>2026-04-12T08:22:31.001Z</time></trkpt><trkpt lat="44.42736889608377" lon="8.837203475920985"><ele>11.2</ele><time>2026-04-12T08:22:32.001Z</time></trkpt><trkpt lat="44.42738485887249" lon="8.837072586490919"><ele>10.6</ele><time>2026-04-12T08:22:33.001Z</time></trkpt><trkpt lat="44.42739236636036" lon="8.836937963450833"><ele>10.0</ele><time>2026-04-12T08:22:34.001Z</time></trkpt><trkpt lat="44.42740309660355" lon="8.83681745641969"><ele>9.5</ele><time>2026-04-12T08:22:35.001Z</time></trkpt><trkpt lat="44.42741270445578" lon="8.836712136318164"><ele>9.0</ele><time>2026-04-12T08:22:36.001Z</time></trkpt><trkpt lat="44.427421466175645" lon="8.836620232141778"><ele>8.5</ele><time>2026-04-12T08:22:37.001Z</time></trkpt><trkpt lat="44.42743479508905" lon="8.836462901434524"><ele>8.0</ele><time>2026-04-12T08:22:39Z</time></trkpt><trkpt lat="44.42744247297065" lon="8.836314756353236"><ele>7.500000000000001</ele><time>2026-04-12T08:22:41Z</time></trkpt><trkpt lat="44.42744901741586" lon="8.836224352919107"><ele>7.0</ele><time>2026-04-12T08:22:42Z</time></trkpt><trkpt lat="44.42745549987342" lon="8.836118997608486"><ele>7.000000000000001</ele><time>2026-04-12T08:22:43Z</time></trkpt><trkpt lat="44.42746156526368" lon="8.836006685574198"><ele>7.0</ele><time>2026-04-12T08:22:44Z</time></trkpt><trkpt lat="44.42746971012212" lon="8.83589611613842"><ele>7.0</ele><time>2026-04-12T08:22:45Z</time></trkpt><trkpt lat="44.427478291851656" lon="8.83579649677591"><ele>7.0</ele><time>2026-04-12T08:22:46Z</time></trkpt><trkpt lat="44.4274864065225" lon="8.835692185121331"><ele>7.000000000000001</ele><time>2026-04-12T08:22:47Z</time></trkpt><trkpt lat="44.427493851508686" lon="8.835597448948054"><ele>7.0</ele><time>2026-04-12T08:22:48Z</time></trkpt><trkpt lat="44.42750416841495" lon="8.835464589199551"><ele>7.166666666666667</ele><time>2026-04-12T08:22:50Z</time></trkpt><trkpt lat="44.42751137744864" lon="8.83533548511893"><ele>7.333333333333334</ele><time>2026-04-12T08:22:52Z</time></trkpt><trkpt lat="44.42752738288041" lon="8.835186011732938"><ele>7.5</ele><time>2026-04-12T08:22:54Z</time></trkpt><trkpt lat="44.42750852866063" lon="8.835026622306598"><ele>7.666666666666666</ele><time>2026-04-12T08:22:56Z</time></trkpt><trkpt lat="44.42749476797619" lon="8.8349397057043"><ele>7.833333333333333</ele><time>2026-04-12T08:22:57Z</time></trkpt><trkpt lat="44.42747523970448" lon="8.834847144667288"><ele>8.0</ele><time>2026-04-12T08:22:58Z</time></trkpt><trkpt lat="44.42743285703841" lon="8.83469883424098"><ele>8.0</ele><time>2026-04-12T08:23:00Z</time></trkpt><trkpt lat="44.42739890684795" lon="8.834620499494346"><ele>7.999999999999999</ele><time>2026-04-12T08:23:01Z</time></trkpt><trkpt lat="44.4273596697832" lon="8.83454459076053"><ele>8.0</ele><time>2026-04-12T08:23:02Z</time></trkpt><trkpt lat="44.427319414339934" lon="8.834470134516913"><ele>8.0</ele><time>2026-04-12T08:23:03Z</time></trkpt><trkpt lat="44.427269493274665" lon="8.834385845148713"><ele>7.999999999999999</ele><time>2026-04-12T08:23:04Z</time></trkpt><trkpt lat="44.42722178720676" lon="8.834307113291626"><ele>8.0</ele><time>2026-04-12T08:23:05Z</time></trkpt><trkpt lat="44.42717080265811" lon="8.834226924060125"><ele>8.0</ele><time>2026-04-12T08:23:06Z</time></trkpt><trkpt lat="44.427117186072735" lon="8.834135022949054"><ele>8.0</ele><time>2026-04-12T08:23:07Z</time></trkpt><trkpt lat="44.42705657290618" lon="8.834042224555771"><ele>8.0</ele><time>2026-04-12T08:23:08Z</time></trkpt><trkpt lat="44.42700011184523" lon="8.833947938599746"><ele>8.0</ele><time>2026-04-12T08:23:09Z</time></trkpt><trkpt lat="44.426936777299964" lon="8.833850551790034"><ele>8.0</ele><time>2026-04-12T08:23:10Z</time></trkpt><trkpt lat="44.42687141477214" lon="8.83373801996396"><ele>8.0</ele><time>2026-04-12T08:23:11Z</time></trkpt><trkpt lat="44.426806652437584" lon="8.83362780702927"><ele>8.0</ele><time>2026-04-12T08:23:12Z</time></trkpt><trkpt lat="44.42674695957303" lon="8.833519096491132"><ele>8.0</ele><time>2026-04-12T08:23:13Z</time></trkpt><trkpt lat="44.42668386036352" lon="8.833409029336645"><ele>8.0</ele><time>2026-04-12T08:23:14Z</time></trkpt><trkpt lat="44.42662113196741" lon="8.833301670090343"><ele>8.0</ele><time>2026-04-12T08:23:15Z</time></trkpt><trkpt lat="44.426560642412355" lon="8.833192197458075"><ele>8.0</ele><time>2026-04-12T08:23:16Z</time></trkpt><trkpt lat="44.42649541921423" lon="8.833082182685619"><ele>7.800000000000001</ele><time>2026-04-12T08:23:17Z</time></trkpt><trkpt lat="44.426432006553675" lon="8.83296703320133"><ele>7.6000000000000005</ele><time>2026-04-12T08:23:18Z</time></trkpt><trkpt lat="44.42638067614521" lon="8.832861489250481"><ele>7.3999999999999995</ele><time>2026-04-12T08:23:19Z</time></trkpt><trkpt lat="44.42632009938267" lon="8.83275683627211"><ele>7.199999999999999</ele><time>2026-04-12T08:23:20Z</time></trkpt><trkpt lat="44.42625579108569" lon="8.832645914584074"><ele>7.0</ele><time>2026-04-12T08:23:21Z</time></trkpt><trkpt lat="44.42620929821793" lon="8.832530909633844"><ele>7.000000000000001</ele><time>2026-04-12T08:23:22Z</time></trkpt><trkpt lat="44.42615984227595" lon="8.832430056933259"><ele>7.0</ele><time>2026-04-12T08:23:23Z</time></trkpt><trkpt lat="44.42612872375951" lon="8.83232231927601"><ele>7.0</ele><time>2026-04-12T08:23:24Z</time></trkpt><trkpt lat="44.42611286142359" lon="8.832209600371412"><ele>7.0</ele><time>2026-04-12T08:23:25Z</time></trkpt><trkpt lat="44.4261117979324" lon="8.83208626920548"><ele>7.000000000000001</ele><time>2026-04-12T08:23:26Z</time></trkpt><trkpt lat="44.42611842436508" lon="8.831955749420969"><ele>7.0</ele><time>2026-04-12T08:23:27Z</time></trkpt><trkpt lat="44.42612577898674" lon="8.83182516373827"><ele>7.0</ele><time>2026-04-12T08:23:28Z</time></trkpt><trkpt lat="44.4261368632561" lon="8.83169150963372"><ele>6.999999999999999</ele><time>2026-04-12T08:23:29Z</time></trkpt><trkpt lat="44.42614293304529" lon="8.831538313349528"><ele>6.999999999999999</ele><time>2026-04-12T08:23:30Z</time></trkpt><trkpt lat="44.42615655299995" lon="8.831396246802008"><ele>7.0</ele><time>2026-04-12T08:23:31Z</time></trkpt><trkpt lat="44.42616889301181" lon="8.831246132756956"><ele>7.0</ele><time>2026-04-12T08:23:32Z</time></trkpt><trkpt lat="44.42618109077128" lon="8.831095257599191"><ele>6.8</ele><time>2026-04-12T08:23:33Z</time></trkpt><trkpt lat="44.42619434173126" lon="8.830942767631155"><ele>6.6</ele><time>2026-04-12T08:23:34Z</time></trkpt><trkpt lat="44.426207777963114" lon="8.830794911834705"><ele>6.3999999999999995</ele><time>2026-04-12T08:23:35Z</time></trkpt><trkpt lat="44.42621921335931" lon="8.830650668818874"><ele>6.199999999999999</ele><time>2026-04-12T08:23:36Z</time></trkpt><trkpt lat="44.42622717470826" lon="8.830501369506045"><ele>6.0</ele><time>2026-04-12T08:23:37Z</time></trkpt><trkpt lat="44.42623411175242" lon="8.830360921534668"><ele>6.0</ele><time>2026-04-12T08:23:38Z</time></trkpt><trkpt lat="44.426236693569926" lon="8.830217230782203"><ele>6.0</ele><time>2026-04-12T08:23:39Z</time></trkpt><trkpt lat="44.42624166924957" lon="8.830075684872485"><ele>6.0</ele><time>2026-04-12T08:23:40Z</time></trkpt><trkpt lat="44.42624570982648" lon="8.829946237443904"><ele>6.0</ele><time>2026-04-12T08:23:41Z</time></trkpt><trkpt lat="44.426245401706325" lon="8.829810376152851"><ele>6.0</ele><time>2026-04-12T08:23:42Z</time></trkpt><trkpt lat="44.42625013866119" lon="8.829703794543573"><ele>6.0</ele><time>2026-04-12T08:23:43Z</time></trkpt><trkpt lat="44.426250692295305" lon="8.8295986099305"><ele>6.0</ele><time>2026-04-12T08:23:44Z</time></trkpt><trkpt lat="44.426255672026066" lon="8.829507709954367"><ele>6.0</ele><time>2026-04-12T08:23:45Z</time></trkpt><trkpt lat="44.42625142701022" lon="8.829364613936349"><ele>6.0</ele><time>2026-04-12T08:23:47Z</time></trkpt><trkpt lat="44.42622511517692" lon="8.829239908186443"><ele>6.0</ele><time>2026-04-12T08:23:49Z</time></trkpt><trkpt lat="44.42619729653715" lon="8.829147071825634"><ele>6.0</ele><time>2026-04-12T08:23:51Z</time></trkpt><trkpt lat="44.426151908566446" lon="8.82898260201792"><ele>6.4</ele><time>2026-04-12T08:24:18Z</time></trkpt><trkpt lat="44.42611808184178" lon="8.828852138158839"><ele>6.8</ele><time>2026-04-12T08:24:20Z</time></trkpt><trkpt lat="44.42606974878076" lon="8.828689837699562"><ele>7.200000000000001</ele><time>2026-04-12T08:24:22Z</time></trkpt><trkpt lat="44.426040758124905" lon="8.828594665480521"><ele>7.6000000000000005</ele><time>2026-04-12T08:24:23Z</time></trkpt><trkpt lat="44.42600939353472" lon="8.828480696245492"><ele>8.0</ele><time>2026-04-12T08:24:24Z</time></trkpt><trkpt lat="44.42597644839042" lon="8.828369817414686"><ele>7.2</ele><time>2026-04-12T08:24:25Z</time></trkpt><trkpt lat="44.42594125853166" lon="8.82824901774354"><ele>6.4</ele><time>2026-04-12T08:24:26Z</time></trkpt><trkpt lat="44.4259052441374" lon="8.828111878308881"><ele>5.6000000000000005</ele><time>2026-04-12T08:24:27Z</time></trkpt><trkpt lat="44.425868851754615" lon="8.827980409175195"><ele>4.800000000000001</ele><time>2026-04-12T08:24:28Z</time></trkpt><trkpt lat="44.42583204930357" lon="8.827850841758577"><ele>4.0</ele><time>2026-04-12T08:24:29Z</time></trkpt><trkpt lat="44.425792769382134" lon="8.827719561367095"><ele>4.2</ele><time>2026-04-12T08:24:30Z</time></trkpt><trkpt lat="44.425753607647884" lon="8.827588759883904"><ele>4.4</ele><time>2026-04-12T08:24:31Z</time></trkpt><trkpt lat="44.425715483192526" lon="8.827457229034636"><ele>4.6</ele><time>2026-04-12T08:24:32Z</time></trkpt><trkpt lat="44.425681869510505" lon="8.82733618996905"><ele>4.8</ele><time>2026-04-12T08:24:33Z</time></trkpt><trkpt lat="44.42564627144573" lon="8.827162471671683"><ele>5.0</ele><time>2026-04-12T08:24:34Z</time></trkpt><trkpt lat="44.42561622645122" lon="8.827032918427118"><ele>5.0</ele><time>2026-04-12T08:24:35Z</time></trkpt><trkpt lat="44.42559008216866" lon="8.826893201013027"><ele>5.0</ele><time>2026-04-12T08:24:36Z</time></trkpt><trkpt lat="44.42556360848143" lon="8.82674203761672"><ele>5.0</ele><time>2026-04-12T08:24:37Z</time></trkpt><trkpt lat="44.42554064420489" lon="8.826595320312588"><ele>5.0</ele><time>2026-04-12T08:24:38Z</time></trkpt><trkpt lat="44.42551924017279" lon="8.826468676356575"><ele>5.0</ele><time>2026-04-12T08:24:39Z</time></trkpt><trkpt lat="44.425499445780886" lon="8.826330459057262"><ele>4.8</ele><time>2026-04-12T08:24:40Z</time></trkpt><trkpt lat="44.425476916593325" lon="8.826196377174401"><ele>4.6</ele><time>2026-04-12T08:24:41Z</time></trkpt><trkpt lat="44.42545560135726" lon="8.826060348872913"><ele>4.4</ele><time>2026-04-12T08:24:42Z</time></trkpt><trkpt lat="44.42543501444225" lon="8.825928448132922"><ele>4.2</ele><time>2026-04-12T08:24:43.001Z</time></trkpt><trkpt lat="44.425417150595116" lon="8.825796981125253"><ele>4.0</ele><time>2026-04-12T08:24:44.001Z</time></trkpt><trkpt lat="44.42539304848079" lon="8.825684432031487"><ele>3.9999999999999996</ele><time>2026-04-12T08:24:45Z</time></trkpt><trkpt lat="44.425375139217834" lon="8.825573145024586"><ele>4.0</ele><time>2026-04-12T08:24:46Z</time></trkpt><trkpt lat="44.4253563220854" lon="8.825470182145008"><ele>4.0</ele><time>2026-04-12T08:24:47Z</time></trkpt><trkpt lat="44.42533767148397" lon="8.825383475670165"><ele>4.0</ele><time>2026-04-12T08:24:48Z</time></trkpt><trkpt lat="44.42532256548553" lon="8.825295946563317"><ele>3.9999999999999996</ele><time>2026-04-12T08:24:49Z</time></trkpt><trkpt lat="44.425295239508685" lon="8.82514054161572"><ele>4.0</ele><time>2026-04-12T08:24:51Z</time></trkpt><trkpt lat="44.425270072766516" lon="8.824991636015378"><ele>3.9999999999999996</ele><time>2026-04-12T08:24:53Z</time></trkpt><trkpt lat="44.42524567697003" lon="8.824863778368758"><ele>4.0</ele><time>2026-04-12T08:24:55Z</time></trkpt><trkpt lat="44.42522529250378" lon="8.824755108719078"><ele>4.0</ele><time>2026-04-12T08:24:57Z</time></trkpt><trkpt lat="44.42520557830638" lon="8.824622289809318"><ele>4.0</ele><time>2026-04-12T08:25:00Z</time></trkpt><trkpt lat="44.42517808341858" lon="8.824470123757191"><ele>3.9999999999999996</ele><time>2026-04-12T08:25:02Z</time></trkpt><trkpt lat="44.425160648750015" lon="8.824383394969685"><ele>4.0</ele><time>2026-04-12T08:25:03Z</time></trkpt><trkpt lat="44.425145115723396" lon="8.824291426249479"><ele>4.166666666666666</ele><time>2026-04-12T08:25:04Z</time></trkpt><trkpt lat="44.425129762747126" lon="8.824188141565921"><ele>4.333333333333333</ele><time>2026-04-12T08:25:05Z</time></trkpt><trkpt lat="44.42511330050281" lon="8.824078441783653"><ele>4.5</ele><time>2026-04-12T08:25:06Z</time></trkpt><trkpt lat="44.425099559145856" lon="8.823962753471875"><ele>4.666666666666667</ele><time>2026-04-12T08:25:07Z</time></trkpt><trkpt lat="44.425083630091066" lon="8.823849157670255"><ele>4.833333333333334</ele><time>2026-04-12T08:25:08Z</time></trkpt><trkpt lat="44.425071118041075" lon="8.823732075233323"><ele>5.0</ele><time>2026-04-12T08:25:09Z</time></trkpt><trkpt lat="44.42505727787304" lon="8.82360874905206"><ele>5.0</ele><time>2026-04-12T08:25:10Z</time></trkpt><trkpt lat="44.42504139795973" lon="8.823477625262354"><ele>5.0</ele><time>2026-04-12T08:25:11Z</time></trkpt><trkpt lat="44.4250290822141" lon="8.823365224986597"><ele>5.0</ele><time>2026-04-12T08:25:12Z</time></trkpt><trkpt lat="44.425014657902416" lon="8.82323723019289"><ele>5.0</ele><time>2026-04-12T08:25:13Z</time></trkpt><trkpt lat="44.42500332818751" lon="8.823102910015045"><ele>5.0</ele><time>2026-04-12T08:25:14Z</time></trkpt><trkpt lat="44.42499272386909" lon="8.822970523543832"><ele>5.0</ele><time>2026-04-12T08:25:15Z</time></trkpt><trkpt lat="44.42498295165584" lon="8.822841251396344"><ele>5.0</ele><time>2026-04-12T08:25:16Z</time></trkpt><trkpt lat="44.424975629720436" lon="8.822703475889421"><ele>5.0</ele><time>2026-04-12T08:25:17Z</time></trkpt><trkpt lat="44.42496896882612" lon="8.822577153309846"><ele>5.0</ele><time>2026-04-12T08:25:18Z</time></trkpt><trkpt lat="44.42496190091059" lon="8.822442784316454"><ele>5.0</ele><time>2026-04-12T08:25:19Z</time></trkpt><trkpt lat="44.42495276577985" lon="8.822311834465943"><ele>5.0</ele><time>2026-04-12T08:25:20Z</time></trkpt><trkpt lat="44.42494421034159" lon="8.822183299549353"><ele>5.0</ele><time>2026-04-12T08:25:21Z</time></trkpt><trkpt lat="44.42493853591841" lon="8.822053631127865"><ele>5.0</ele><time>2026-04-12T08:25:22Z</time></trkpt><trkpt lat="44.42493229939847" lon="8.82191185640529"><ele>5.0</ele><time>2026-04-12T08:25:23Z</time></trkpt><trkpt lat="44.42492186031153" lon="8.821774245204816"><ele>5.0</ele><time>2026-04-12T08:25:24Z</time></trkpt><trkpt lat="44.424910399722854" lon="8.821638721116633"><ele>5.0</ele><time>2026-04-12T08:25:25Z</time></trkpt><trkpt lat="44.424902409278694" lon="8.8215000052611"><ele>5.0</ele><time>2026-04-12T08:25:26Z</time></trkpt><trkpt lat="44.424895187763454" lon="8.821363486757745"><ele>5.0</ele><time>2026-04-12T08:25:27Z</time></trkpt><trkpt lat="44.424888406457896" lon="8.821213753816721"><ele>5.0</ele><time>2026-04-12T08:25:28Z</time></trkpt><trkpt lat="44.42487992968708" lon="8.821063077266773"><ele>5.0</ele><time>2026-04-12T08:25:29Z</time></trkpt><trkpt lat="44.42487111827041" lon="8.820917660516358"><ele>5.6</ele><time>2026-04-12T08:25:30Z</time></trkpt><trkpt lat="44.424861109359675" lon="8.820778402958332"><ele>6.2</ele><time>2026-04-12T08:25:31Z</time></trkpt><trkpt lat="44.4248447204839" lon="8.820639174159378"><ele>6.800000000000001</ele><time>2026-04-12T08:25:32Z</time></trkpt><trkpt lat="44.42483312181806" lon="8.820486106835078"><ele>7.4</ele><time>2026-04-12T08:25:33Z</time></trkpt><trkpt lat="44.42483260330465" lon="8.82033825755129"><ele>8.0</ele><time>2026-04-12T08:25:34Z</time></trkpt><trkpt lat="44.42482125825556" lon="8.820182440895746"><ele>8.200000000000001</ele><time>2026-04-12T08:25:35Z</time></trkpt><trkpt lat="44.42480821993824" lon="8.82002996278249"><ele>8.4</ele><time>2026-04-12T08:25:36Z</time></trkpt><trkpt lat="44.42479145411622" lon="8.819880687405917"><ele>8.600000000000001</ele><time>2026-04-12T08:25:37Z</time></trkpt><trkpt lat="44.42477773185627" lon="8.819728892769165"><ele>8.8</ele><time>2026-04-12T08:25:38Z</time></trkpt><trkpt lat="44.424771009862646" lon="8.819578877471665"><ele>9.0</ele><time>2026-04-12T08:25:39Z</time></trkpt><trkpt lat="44.424758098235685" lon="8.819428042639638"><ele>8.6</ele><time>2026-04-12T08:25:40Z</time></trkpt><trkpt lat="44.42474669996596" lon="8.819278749385678"><ele>8.2</ele><time>2026-04-12T08:25:41Z</time></trkpt><trkpt lat="44.42473660361396" lon="8.819131189217106"><ele>7.799999999999999</ele><time>2026-04-12T08:25:42Z</time></trkpt><trkpt lat="44.42472847184292" lon="8.81898713138046"><ele>7.3999999999999995</ele><time>2026-04-12T08:25:43Z</time></trkpt><trkpt lat="44.42471883790278" lon="8.81884338227527"><ele>7.0</ele><time>2026-04-12T08:25:44Z</time></trkpt><trkpt lat="44.42471431416006" lon="8.818711921384487"><ele>7.0</ele><time>2026-04-12T08:25:45Z</time></trkpt><trkpt lat="44.42473028141062" lon="8.818583009000424"><ele>6.999999999999999</ele><time>2026-04-12T08:25:46Z</time></trkpt><trkpt lat="44.42474988008382" lon="8.818454957880334"><ele>6.999999999999999</ele><time>2026-04-12T08:25:47Z</time></trkpt><trkpt lat="44.42477901311108" lon="8.818326822935308"><ele>7.0</ele><time>2026-04-12T08:25:48Z</time></trkpt><trkpt lat="44.424812810945326" lon="8.81819620281649"><ele>7.0</ele><time>2026-04-12T08:25:49Z</time></trkpt><trkpt lat="44.42484879640342" lon="8.81806618416945"><ele>7.0</ele><time>2026-04-12T08:25:50Z</time></trkpt><trkpt lat="44.42488102776274" lon="8.817927949473605"><ele>6.999999999999999</ele><time>2026-04-12T08:25:51Z</time></trkpt><trkpt lat="44.42491095307188" lon="8.817785538494737"><ele>6.999999999999999</ele><time>2026-04-12T08:25:52Z</time></trkpt><trkpt lat="44.424935874131506" lon="8.817652136536923"><ele>7.0</ele><time>2026-04-12T08:25:53Z</time></trkpt><trkpt lat="44.4249537553503" lon="8.817519796414254"><ele>7.0</ele><time>2026-04-12T08:25:54Z</time></trkpt><trkpt lat="44.42497354330558" lon="8.817386938464104"><ele>6.8</ele><time>2026-04-12T08:25:55Z</time></trkpt><trkpt lat="44.424988639422445" lon="8.817249447979423"><ele>6.6</ele><time>2026-04-12T08:25:56Z</time></trkpt><trkpt lat="44.424989275163355" lon="8.81710298691957"><ele>6.3999999999999995</ele><time>2026-04-12T08:25:57Z</time></trkpt><trkpt lat="44.42498849972246" lon="8.816963170955693"><ele>6.199999999999999</ele><time>2026-04-12T08:25:58Z</time></trkpt><trkpt lat="44.42498397183404" lon="8.816828481083117"><ele>6.0</ele><time>2026-04-12T08:25:59Z</time></trkpt><trkpt lat="44.42497305380533" lon="8.816685730404117"><ele>6.4</ele><time>2026-04-12T08:26:00Z</time></trkpt><trkpt lat="44.42496297762447" lon="8.816542586417363"><ele>6.8</ele><time>2026-04-12T08:26:01Z</time></trkpt><trkpt lat="44.424951352687884" lon="8.816407599090352"><ele>7.200000000000001</ele><time>2026-04-12T08:26:02Z</time></trkpt><trkpt lat="44.424929791090214" lon="8.81627134432208"><ele>7.6000000000000005</ele><time>2026-04-12T08:26:03Z</time></trkpt><trkpt lat="44.42490484096787" lon="8.816129290384888"><ele>8.0</ele><time>2026-04-12T08:26:04Z</time></trkpt><trkpt lat="44.42486484208363" lon="8.815984884293801"><ele>8.600000000000001</ele><time>2026-04-12T08:26:05Z</time></trkpt><trkpt lat="44.42483478314609" lon="8.815833196845928"><ele>9.200000000000001</ele><time>2026-04-12T08:26:06Z</time></trkpt><trkpt lat="44.424805486407045" lon="8.815687501131897"><ele>9.8</ele><time>2026-04-12T08:26:07Z</time></trkpt><trkpt lat="44.424780490871555" lon="8.815551180506814"><ele>10.4</ele><time>2026-04-12T08:26:08Z</time></trkpt><trkpt lat="44.42475170579718" lon="8.81540774998671"><ele>11.0</ele><time>2026-04-12T08:26:09Z</time></trkpt><trkpt lat="44.424721195258805" lon="8.815262346644953"><ele>10.8</ele><time>2026-04-12T08:26:10Z</time></trkpt><trkpt lat="44.4246978904261" lon="8.815120605833396"><ele>10.600000000000001</ele><time>2026-04-12T08:26:11Z</time></trkpt><trkpt lat="44.42468506427573" lon="8.814990843256385"><ele>10.4</ele><time>2026-04-12T08:26:12Z</time></trkpt><trkpt lat="44.42467413490313" lon="8.814869810601719"><ele>10.2</ele><time>2026-04-12T08:26:13Z</time></trkpt><trkpt lat="44.42468076023079" lon="8.814751212574373"><ele>10.0</ele><time>2026-04-12T08:26:14Z</time></trkpt><trkpt lat="44.42470269231662" lon="8.814628476863923"><ele>10.0</ele><time>2026-04-12T08:26:15Z</time></trkpt><trkpt lat="44.42473150147777" lon="8.814513853096448"><ele>10.0</ele><time>2026-04-12T08:26:16Z</time></trkpt><trkpt lat="44.42475051130006" lon="8.814386702052646"><ele>10.0</ele><time>2026-04-12T08:26:17Z</time></trkpt><trkpt lat="44.42477775297198" lon="8.814259997859596"><ele>10.0</ele><time>2026-04-12T08:26:18Z</time></trkpt><trkpt lat="44.424793696151404" lon="8.81412170740025"><ele>10.0</ele><time>2026-04-12T08:26:19Z</time></trkpt><trkpt lat="44.4248211980088" lon="8.813999555236236"><ele>9.6</ele><time>2026-04-12T08:26:20Z</time></trkpt><trkpt lat="44.424836967026174" lon="8.813869281840585"><ele>9.2</ele><time>2026-04-12T08:26:21Z</time></trkpt><trkpt lat="44.42484352418764" lon="8.81372187552747"><ele>8.8</ele><time>2026-04-12T08:26:22Z</time></trkpt><trkpt lat="44.42485268327775" lon="8.813582527389748"><ele>8.4</ele><time>2026-04-12T08:26:23Z</time></trkpt><trkpt lat="44.424862067644256" lon="8.813460770377645"><ele>8.0</ele><time>2026-04-12T08:26:24Z</time></trkpt><trkpt lat="44.42486641395057" lon="8.813333760557372"><ele>7.999999999999999</ele><time>2026-04-12T08:26:25Z</time></trkpt><trkpt lat="44.42486354378668" lon="8.813225917822676"><ele>8.0</ele><time>2026-04-12T08:26:26Z</time></trkpt><trkpt lat="44.424861517070234" lon="8.813124409160576"><ele>8.0</ele><time>2026-04-12T08:26:27Z</time></trkpt><trkpt lat="44.424846459908224" lon="8.813013484304312"><ele>8.0</ele><time>2026-04-12T08:26:28Z</time></trkpt><trkpt lat="44.42482086941295" lon="8.8128980303117"><ele>7.999999999999999</ele><time>2026-04-12T08:26:29Z</time></trkpt><trkpt lat="44.424791434038454" lon="8.812795447926732"><ele>8.0</ele><time>2026-04-12T08:26:30Z</time></trkpt><trkpt lat="44.42476159420892" lon="8.81270973162443"><ele>7.800000000000001</ele><time>2026-04-12T08:26:31Z</time></trkpt><trkpt lat="44.42472128404078" lon="8.812596581580257"><ele>7.6000000000000005</ele><time>2026-04-12T08:26:32Z</time></trkpt><trkpt lat="44.42468052015702" lon="8.812489882477845"><ele>7.3999999999999995</ele><time>2026-04-12T08:26:33Z</time></trkpt><trkpt lat="44.424649345859876" lon="8.81237669082058"><ele>7.199999999999999</ele><time>2026-04-12T08:26:34Z</time></trkpt><trkpt lat="44.424601918504734" lon="8.812259432060893"><ele>7.0</ele><time>2026-04-12T08:26:35Z</time></trkpt><trkpt lat="44.42455422686403" lon="8.812130622302401"><ele>6.6</ele><time>2026-04-12T08:26:36Z</time></trkpt><trkpt lat="44.424518389761715" lon="8.812003162913927"><ele>6.199999999999999</ele><time>2026-04-12T08:26:37Z</time></trkpt><trkpt lat="44.424474938827125" lon="8.811874927167889"><ele>5.8</ele><time>2026-04-12T08:26:38Z</time></trkpt><trkpt lat="44.424433222406364" lon="8.811752001350118"><ele>5.4</ele><time>2026-04-12T08:26:39Z</time></trkpt><trkpt lat="44.424388809081144" lon="8.81162985662919"><ele>5.0</ele><time>2026-04-12T08:26:40Z</time></trkpt><trkpt lat="44.42434378170937" lon="8.811506777013758"><ele>5.0</ele><time>2026-04-12T08:26:41Z</time></trkpt><trkpt lat="44.42429830532662" lon="8.811382396467033"><ele>5.0</ele><time>2026-04-12T08:26:42Z</time></trkpt><trkpt lat="44.424255862205484" lon="8.811275883686388"><ele>5.0</ele><time>2026-04-12T08:26:43Z</time></trkpt><trkpt lat="44.4242175802537" lon="8.811177772615569"><ele>5.0</ele><time>2026-04-12T08:26:44Z</time></trkpt><trkpt lat="44.42418423650992" lon="8.811085687310243"><ele>5.0</ele><time>2026-04-12T08:26:45Z</time></trkpt><trkpt lat="44.42413189045628" lon="8.810935600202063"><ele>5.5</ele><time>2026-04-12T08:26:47Z</time></trkpt><trkpt lat="44.424089428364546" lon="8.810813275907279"><ele>6.0</ele><time>2026-04-12T08:26:49.001Z</time></trkpt><trkpt lat="44.42405951426042" lon="8.810732247673696"><ele>6.5</ele><time>2026-04-12T08:26:51Z</time></trkpt><trkpt lat="44.42402312940396" lon="8.810641843095285"><ele>7.0</ele><time>2026-04-12T08:27:07Z</time></trkpt><trkpt lat="44.423971272406014" lon="8.810490666401723"><ele>7.499999999999999</ele><time>2026-04-12T08:27:09Z</time></trkpt><trkpt lat="44.42393890107594" lon="8.810402070908546"><ele>8.0</ele><time>2026-04-12T08:27:10Z</time></trkpt><trkpt lat="44.42390686738576" lon="8.810302464702621"><ele>7.999999999999999</ele><time>2026-04-12T08:27:11Z</time></trkpt><trkpt lat="44.423872544396424" lon="8.810209090652446"><ele>8.0</ele><time>2026-04-12T08:27:12Z</time></trkpt><trkpt lat="44.42383631459836" lon="8.810106860711436"><ele>8.0</ele><time>2026-04-12T08:27:13Z</time></trkpt><trkpt lat="44.42379946312376" lon="8.809991159957383"><ele>8.0</ele><time>2026-04-12T08:27:14Z</time></trkpt><trkpt lat="44.42376712644161" lon="8.809872181329897"><ele>7.999999999999999</ele><time>2026-04-12T08:27:15Z</time></trkpt><trkpt lat="44.4237298609714" lon="8.809745683407249"><ele>8.0</ele><time>2026-04-12T08:27:16Z</time></trkpt><trkpt lat="44.42367680824491" lon="8.809640228238164"><ele>8.166666666666666</ele><time>2026-04-12T08:27:17Z</time></trkpt><trkpt lat="44.42365096942789" lon="8.809527890319869"><ele>8.333333333333332</ele><time>2026-04-12T08:27:18Z</time></trkpt><trkpt lat="44.423626819869824" lon="8.809401671117634"><ele>8.5</ele><time>2026-04-12T08:27:19Z</time></trkpt><trkpt lat="44.42360242833911" lon="8.80927683294079"><ele>8.666666666666666</ele><time>2026-04-12T08:27:20Z</time></trkpt><trkpt lat="44.42357126323553" lon="8.809153648369545"><ele>8.833333333333334</ele><time>2026-04-12T08:27:21Z</time></trkpt><trkpt lat="44.42354151156641" lon="8.809044119305346"><ele>9.0</ele><time>2026-04-12T08:27:22Z</time></trkpt><trkpt lat="44.42350156451566" lon="8.808929072862327"><ele>9.0</ele><time>2026-04-12T08:27:23Z</time></trkpt><trkpt lat="44.423459730906494" lon="8.808812558085744"><ele>9.0</ele><time>2026-04-12T08:27:24Z</time></trkpt><trkpt lat="44.4234115389544" lon="8.808697081275886"><ele>9.0</ele><time>2026-04-12T08:27:25Z</time></trkpt><trkpt lat="44.42337268081458" lon="8.808573884105655"><ele>9.0</ele><time>2026-04-12T08:27:26Z</time></trkpt><trkpt lat="44.42332667332203" lon="8.808446186843623"><ele>9.0</ele><time>2026-04-12T08:27:27Z</time></trkpt><trkpt lat="44.42328862830192" lon="8.808318363617655"><ele>10.166666666666666</ele><time>2026-04-12T08:27:28Z</time></trkpt><trkpt lat="44.42325054723733" lon="8.80819469801898"><ele>11.333333333333332</ele><time>2026-04-12T08:27:29Z</time></trkpt><trkpt lat="44.42322109180408" lon="8.808086285391047"><ele>12.5</ele><time>2026-04-12T08:27:30Z</time></trkpt><trkpt lat="44.423200385032295" lon="8.807974836332466"><ele>13.666666666666666</ele><time>2026-04-12T08:27:31Z</time></trkpt><trkpt lat="44.42319410477827" lon="8.807869159066033"><ele>14.833333333333332</ele><time>2026-04-12T08:27:32Z</time></trkpt><trkpt lat="44.42319668300401" lon="8.807757402469688"><ele>16.0</ele><time>2026-04-12T08:27:33Z</time></trkpt><trkpt lat="44.423210123812176" lon="8.807655285565811"><ele>15.999999999999998</ele><time>2026-04-12T08:27:34Z</time></trkpt><trkpt lat="44.423239723547965" lon="8.807546923754549"><ele>16.0</ele><time>2026-04-12T08:27:35Z</time></trkpt><trkpt lat="44.42327968654138" lon="8.807446157456353"><ele>16.0</ele><time>2026-04-12T08:27:36Z</time></trkpt><trkpt lat="44.42332980732648" lon="8.80735657751431"><ele>16.0</ele><time>2026-04-12T08:27:37Z</time></trkpt><trkpt lat="44.42338989414647" lon="8.80726871620805"><ele>15.999999999999998</ele><time>2026-04-12T08:27:38Z</time></trkpt><trkpt lat="44.42345261263454" lon="8.807179366135598"><ele>16.0</ele><time>2026-04-12T08:27:39Z</time></trkpt><trkpt lat="44.42352417105431" lon="8.8071047773605"><ele>15.999999999999998</ele><time>2026-04-12T08:27:40Z</time></trkpt><trkpt lat="44.42357373234931" lon="8.807010057136226"><ele>16.0</ele><time>2026-04-12T08:27:41Z</time></trkpt><trkpt lat="44.423636380625275" lon="8.806926782351669"><ele>16.0</ele><time>2026-04-12T08:27:42Z</time></trkpt><trkpt lat="44.42369327634266" lon="8.806837843691971"><ele>16.0</ele><time>2026-04-12T08:27:43Z</time></trkpt><trkpt lat="44.42374340393494" lon="8.806760206439739"><ele>15.999999999999998</ele><time>2026-04-12T08:27:44Z</time></trkpt><trkpt lat="44.42378649773692" lon="8.806681505210307"><ele>16.0</ele><time>2026-04-12T08:27:45Z</time></trkpt><trkpt lat="44.42381497534823" lon="8.806601479476235"><ele>16.8</ele><time>2026-04-12T08:27:46Z</time></trkpt><trkpt lat="44.42384221191542" lon="8.806422688072656"><ele>17.6</ele><time>2026-04-12T08:27:48Z</time></trkpt><trkpt lat="44.42384485866213" lon="8.806307906940003"><ele>18.4</ele><time>2026-04-12T08:27:49Z</time></trkpt><trkpt lat="44.42384845986183" lon="8.80618126810185"><ele>19.2</ele><time>2026-04-12T08:27:50Z</time></trkpt><trkpt lat="44.42385254106011" lon="8.806054183714625"><ele>20.0</ele><time>2026-04-12T08:27:51Z</time></trkpt><trkpt lat="44.42385343415045" lon="8.805928398229828"><ele>20.0</ele><time>2026-04-12T08:27:52Z</time></trkpt><trkpt lat="44.423857471151734" lon="8.805798191452952"><ele>20.0</ele><time>2026-04-12T08:27:53Z</time></trkpt><trkpt lat="44.423865050075584" lon="8.80565695245671"><ele>20.0</ele><time>2026-04-12T08:27:54Z</time></trkpt><trkpt lat="44.42387020238264" lon="8.805521252304867"><ele>20.0</ele><time>2026-04-12T08:27:55Z</time></trkpt><trkpt lat="44.42387866306125" lon="8.805398852025595"><ele>20.0</ele><time>2026-04-12T08:27:56Z</time></trkpt><trkpt lat="44.42388639548913" lon="8.805279112863762"><ele>18.666666666666668</ele><time>2026-04-12T08:27:57Z</time></trkpt><trkpt lat="44.42389818724025" lon="8.805153472513707"><ele>17.333333333333336</ele><time>2026-04-12T08:27:58Z</time></trkpt><trkpt lat="44.42391142296395" lon="8.805034728562386"><ele>16.0</ele><time>2026-04-12T08:27:59Z</time></trkpt><trkpt lat="44.42392223642214" lon="8.804915909447283"><ele>14.666666666666668</ele><time>2026-04-12T08:28:00Z</time></trkpt><trkpt lat="44.42393989692901" lon="8.804792688006527"><ele>13.333333333333334</ele><time>2026-04-12T08:28:01Z</time></trkpt><trkpt lat="44.423955549790946" lon="8.80466827191626"><ele>12.0</ele><time>2026-04-12T08:28:02Z</time></trkpt><trkpt lat="44.42397254084057" lon="8.804548439893729"><ele>12.0</ele><time>2026-04-12T08:28:03Z</time></trkpt><trkpt lat="44.4239878370463" lon="8.804425880048859"><ele>12.0</ele><time>2026-04-12T08:28:04Z</time></trkpt><trkpt lat="44.42400511318474" lon="8.804299862305555"><ele>12.0</ele><time>2026-04-12T08:28:05Z</time></trkpt><trkpt lat="44.42402634938715" lon="8.804165911352168"><ele>12.0</ele><time>2026-04-12T08:28:06Z</time></trkpt><trkpt lat="44.42404453377485" lon="8.80402379251176"><ele>12.0</ele><time>2026-04-12T08:28:07Z</time></trkpt><trkpt lat="44.42406607485508" lon="8.803873729178452"><ele>11.2</ele><time>2026-04-12T08:28:08Z</time></trkpt><trkpt lat="44.42409834416702" lon="8.803748818995306"><ele>10.399999999999999</ele><time>2026-04-12T08:28:09Z</time></trkpt><trkpt lat="44.424126322100555" lon="8.803613945794114"><ele>9.600000000000001</ele><time>2026-04-12T08:28:10Z</time></trkpt><trkpt lat="44.42415251153527" lon="8.80347925562915"><ele>8.8</ele><time>2026-04-12T08:28:11Z</time></trkpt><trkpt lat="44.42417487608957" lon="8.803352466269402"><ele>8.0</ele><time>2026-04-12T08:28:12Z</time></trkpt><trkpt lat="44.42419413069662" lon="8.803226100291269"><ele>8.0</ele><time>2026-04-12T08:28:13Z</time></trkpt><trkpt lat="44.4242128112212" lon="8.803095244854894"><ele>8.0</ele><time>2026-04-12T08:28:14Z</time></trkpt><trkpt lat="44.4242376709381" lon="8.80296812131218"><ele>8.0</ele><time>2026-04-12T08:28:15Z</time></trkpt><trkpt lat="44.42426162591655" lon="8.802835678679363"><ele>8.0</ele><time>2026-04-12T08:28:16Z</time></trkpt><trkpt lat="44.42428332174135" lon="8.802703622752237"><ele>8.0</ele><time>2026-04-12T08:28:17Z</time></trkpt><trkpt lat="44.42430234183601" lon="8.802582098688722"><ele>7.666666666666666</ele><time>2026-04-12T08:28:18Z</time></trkpt><trkpt lat="44.42432855820702" lon="8.802452674705611"><ele>7.333333333333333</ele><time>2026-04-12T08:28:19Z</time></trkpt><trkpt lat="44.42434798827925" lon="8.802329248782698"><ele>7.0</ele><time>2026-04-12T08:28:20Z</time></trkpt><trkpt lat="44.42437042360504" lon="8.802217734045252"><ele>6.666666666666666</ele><time>2026-04-12T08:28:21Z</time></trkpt><trkpt lat="44.42439085402384" lon="8.802099304754885"><ele>6.333333333333333</ele><time>2026-04-12T08:28:22Z</time></trkpt><trkpt lat="44.42441177012941" lon="8.801978343575557"><ele>6.0</ele><time>2026-04-12T08:28:23Z</time></trkpt><trkpt lat="44.424432723063596" lon="8.80186208254943"><ele>5.333333333333333</ele><time>2026-04-12T08:28:24Z</time></trkpt><trkpt lat="44.42445488349873" lon="8.801747443401233"><ele>4.666666666666667</ele><time>2026-04-12T08:28:25Z</time></trkpt><trkpt lat="44.424476813618135" lon="8.801627159324857"><ele>4.0</ele><time>2026-04-12T08:28:26Z</time></trkpt><trkpt lat="44.42449811704914" lon="8.801512744572136"><ele>3.333333333333333</ele><time>2026-04-12T08:28:27Z</time></trkpt><trkpt lat="44.42451659461607" lon="8.801390353313849"><ele>2.6666666666666665</ele><time>2026-04-12T08:28:28Z</time></trkpt><trkpt lat="44.424541075135394" lon="8.801262280554358"><ele>2.0</ele><time>2026-04-12T08:28:29Z</time></trkpt><trkpt lat="44.42456361574814" lon="8.801143301182085"><ele>2.0</ele><time>2026-04-12T08:28:30Z</time></trkpt><trkpt lat="44.424582425625076" lon="8.801023095057916"><ele>2.0</ele><time>2026-04-12T08:28:31Z</time></trkpt><trkpt lat="44.42460014341749" lon="8.800892566997684"><ele>2.0</ele><time>2026-04-12T08:28:32Z</time></trkpt><trkpt lat="44.424616321388534" lon="8.800752988602847"><ele>2.0</ele><time>2026-04-12T08:28:33Z</time></trkpt><trkpt lat="44.424641444930224" lon="8.800623029994425"><ele>2.0</ele><time>2026-04-12T08:28:34Z</time></trkpt><trkpt lat="44.42466314202093" lon="8.800497668129118"><ele>4.333333333333333</ele><time>2026-04-12T08:28:35Z</time></trkpt><trkpt lat="44.42468355409818" lon="8.80038701027772"><ele>6.666666666666666</ele><time>2026-04-12T08:28:36Z</time></trkpt><trkpt lat="44.42470604209375" lon="8.800265551255476"><ele>9.0</ele><time>2026-04-12T08:28:37Z</time></trkpt><trkpt lat="44.42472680974356" lon="8.800159279588573"><ele>11.333333333333332</ele><time>2026-04-12T08:28:38Z</time></trkpt><trkpt lat="44.424748648904945" lon="8.800060559371063"><ele>13.666666666666666</ele><time>2026-04-12T08:28:39Z</time></trkpt><trkpt lat="44.424765538600276" lon="8.799961092332923"><ele>16.0</ele><time>2026-04-12T08:28:40Z</time></trkpt><trkpt lat="44.42477274644254" lon="8.799866143467012"><ele>15.999999999999998</ele><time>2026-04-12T08:28:41Z</time></trkpt><trkpt lat="44.424785891260875" lon="8.799767825712673"><ele>16.0</ele><time>2026-04-12T08:28:42Z</time></trkpt><trkpt lat="44.424798451248044" lon="8.799668635511818"><ele>16.0</ele><time>2026-04-12T08:28:43Z</time></trkpt><trkpt lat="44.424812713808976" lon="8.799573648456729"><ele>16.0</ele><time>2026-04-12T08:28:44Z</time></trkpt><trkpt lat="44.424832299708775" lon="8.79946676365274"><ele>15.999999999999998</ele><time>2026-04-12T08:28:45Z</time></trkpt><trkpt lat="44.42484999631807" lon="8.79934492295087"><ele>16.0</ele><time>2026-04-12T08:28:46Z</time></trkpt><trkpt lat="44.42486953282363" lon="8.79924228230937"><ele>15.833333333333332</ele><time>2026-04-12T08:28:47Z</time></trkpt><trkpt lat="44.42488903716492" lon="8.799148481283977"><ele>15.666666666666666</ele><time>2026-04-12T08:28:48Z</time></trkpt><trkpt lat="44.424920805176285" lon="8.799002333436954"><ele>15.5</ele><time>2026-04-12T08:28:50Z</time></trkpt><trkpt lat="44.424938676477325" lon="8.798909075606744"><ele>15.333333333333332</ele><time>2026-04-12T08:28:51Z</time></trkpt><trkpt lat="44.424959616488366" lon="8.798799240248938"><ele>15.166666666666666</ele><time>2026-04-12T08:28:52Z</time></trkpt><trkpt lat="44.42498017201731" lon="8.798680964819935"><ele>15.0</ele><time>2026-04-12T08:28:53Z</time></trkpt><trkpt lat="44.42500011143924" lon="8.798567992480326"><ele>13.6</ele><time>2026-04-12T08:28:54.001Z</time></trkpt><trkpt lat="44.425018448621955" lon="8.798447296257155"><ele>12.2</ele><time>2026-04-12T08:28:55.001Z</time></trkpt><trkpt lat="44.42504076667335" lon="8.798325568113746"><ele>10.8</ele><time>2026-04-12T08:28:56.001Z</time></trkpt><trkpt lat="44.4250645003637" lon="8.798202500068086"><ele>9.4</ele><time>2026-04-12T08:28:57Z</time></trkpt><trkpt lat="44.42508294059849" lon="8.798072474196049"><ele>8.0</ele><time>2026-04-12T08:28:58Z</time></trkpt><trkpt lat="44.42511216222361" lon="8.79792757066663"><ele>8.0</ele><time>2026-04-12T08:28:59Z</time></trkpt><trkpt lat="44.42514145082403" lon="8.797784275208457"><ele>8.0</ele><time>2026-04-12T08:29:00Z</time></trkpt><trkpt lat="44.42516285680428" lon="8.79763162619397"><ele>8.0</ele><time>2026-04-12T08:29:01Z</time></trkpt><trkpt lat="44.42518619679758" lon="8.797481312114234"><ele>8.0</ele><time>2026-04-12T08:29:02Z</time></trkpt><trkpt lat="44.42521592134639" lon="8.79733536977546"><ele>8.0</ele><time>2026-04-12T08:29:03Z</time></trkpt><trkpt lat="44.42524451935415" lon="8.797195026559914"><ele>7.800000000000001</ele><time>2026-04-12T08:29:04Z</time></trkpt><trkpt lat="44.42527155320981" lon="8.797060751581352"><ele>7.6000000000000005</ele><time>2026-04-12T08:29:05Z</time></trkpt><trkpt lat="44.425285814323004" lon="8.796921360160812"><ele>7.3999999999999995</ele><time>2026-04-12T08:29:06Z</time></trkpt><trkpt lat="44.42531420332317" lon="8.796788420749401"><ele>7.199999999999999</ele><time>2026-04-12T08:29:07Z</time></trkpt><trkpt lat="44.42533780042477" lon="8.796648183730507"><ele>7.0</ele><time>2026-04-12T08:29:08Z</time></trkpt><trkpt lat="44.42536001252219" lon="8.796514057873516"><ele>7.000000000000001</ele><time>2026-04-12T08:29:09Z</time></trkpt><trkpt lat="44.42537841527821" lon="8.796383188633753"><ele>7.0</ele><time>2026-04-12T08:29:10Z</time></trkpt><trkpt lat="44.42539131602754" lon="8.796258785396777"><ele>7.0</ele><time>2026-04-12T08:29:11Z</time></trkpt><trkpt lat="44.425419994109" lon="8.796174066079056"><ele>7.0</ele><time>2026-04-12T08:29:12Z</time></trkpt><trkpt lat="44.425421624209314" lon="8.796074620194632"><ele>7.000000000000001</ele><time>2026-04-12T08:29:13Z</time></trkpt><trkpt lat="44.425451689249634" lon="8.795963841570812"><ele>7.0</ele><time>2026-04-12T08:29:14Z</time></trkpt><trkpt lat="44.42547301256492" lon="8.795865871692834"><ele>7.333333333333334</ele><time>2026-04-12T08:29:15Z</time></trkpt><trkpt lat="44.42548024494969" lon="8.795767545235696"><ele>7.666666666666667</ele><time>2026-04-12T08:29:16Z</time></trkpt><trkpt lat="44.4254993389262" lon="8.795676466638376"><ele>8.0</ele><time>2026-04-12T08:29:17Z</time></trkpt><trkpt lat="44.42551293419431" lon="8.795588150956293"><ele>8.333333333333334</ele><time>2026-04-12T08:29:18Z</time></trkpt><trkpt lat="44.42553538306004" lon="8.795491488706848"><ele>8.666666666666666</ele><time>2026-04-12T08:29:19Z</time></trkpt><trkpt lat="44.425555090973944" lon="8.795392332241912"><ele>9.0</ele><time>2026-04-12T08:29:20Z</time></trkpt><trkpt lat="44.42557700879781" lon="8.795222838232695"><ele>9.333333333333334</ele><time>2026-04-12T08:29:22Z</time></trkpt><trkpt lat="44.42558269956585" lon="8.795100249007072"><ele>9.666666666666666</ele><time>2026-04-12T08:29:24Z</time></trkpt><trkpt lat="44.425574941366534" lon="8.794991528117189"><ele>10.0</ele><time>2026-04-12T08:29:28Z</time></trkpt><trkpt lat="44.42558475587126" lon="8.794871029814033"><ele>10.333333333333332</ele><time>2026-04-12T08:29:33Z</time></trkpt><trkpt lat="44.42561532046039" lon="8.794723061329982"><ele>10.666666666666666</ele><time>2026-04-12T08:29:35Z</time></trkpt><trkpt lat="44.42563259385832" lon="8.794633909031052"><ele>11.0</ele><time>2026-04-12T08:29:36Z</time></trkpt><trkpt lat="44.42565077459725" lon="8.794533018155558"><ele>11.0</ele><time>2026-04-12T08:29:37Z</time></trkpt><trkpt lat="44.42567104456257" lon="8.794430022459046"><ele>11.0</ele><time>2026-04-12T08:29:38Z</time></trkpt><trkpt lat="44.42569288803578" lon="8.794318473579036"><ele>11.0</ele><time>2026-04-12T08:29:39Z</time></trkpt><trkpt lat="44.42571610218336" lon="8.794199291729354"><ele>11.0</ele><time>2026-04-12T08:29:40Z</time></trkpt><trkpt lat="44.42574095696718" lon="8.794075559431617"><ele>11.0</ele><time>2026-04-12T08:29:41Z</time></trkpt><trkpt lat="44.42576390786443" lon="8.79395293781437"><ele>11.0</ele><time>2026-04-12T08:29:42Z</time></trkpt><trkpt lat="44.425785155583185" lon="8.793821901690881"><ele>10.200000000000001</ele><time>2026-04-12T08:29:43Z</time></trkpt><trkpt lat="44.42581116495144" lon="8.793691938522903"><ele>9.4</ele><time>2026-04-12T08:29:44Z</time></trkpt><trkpt lat="44.42583787573254" lon="8.793557183576315"><ele>8.6</ele><time>2026-04-12T08:29:45Z</time></trkpt><trkpt lat="44.42586325759497" lon="8.793416991304438"><ele>7.8</ele><time>2026-04-12T08:29:46Z</time></trkpt><trkpt lat="44.42588678174595" lon="8.79327554850304"><ele>7.0</ele><time>2026-04-12T08:29:47Z</time></trkpt><trkpt lat="44.42590853648649" lon="8.793130451840652"><ele>6.8</ele><time>2026-04-12T08:29:48Z</time></trkpt><trkpt lat="44.42593333510833" lon="8.792986674277167"><ele>6.6</ele><time>2026-04-12T08:29:49Z</time></trkpt><trkpt lat="44.42595666620804" lon="8.792843656478375"><ele>6.3999999999999995</ele><time>2026-04-12T08:29:50Z</time></trkpt><trkpt lat="44.425982867610465" lon="8.792703024252672"><ele>6.199999999999999</ele><time>2026-04-12T08:29:51Z</time></trkpt><trkpt lat="44.42600594344618" lon="8.792551811797715"><ele>6.0</ele><time>2026-04-12T08:29:52Z</time></trkpt><trkpt lat="44.42603179458553" lon="8.792414593806669"><ele>5.8</ele><time>2026-04-12T08:29:53Z</time></trkpt><trkpt lat="44.42605745161122" lon="8.792271583280293"><ele>5.6</ele><time>2026-04-12T08:29:54Z</time></trkpt><trkpt lat="44.426085087857786" lon="8.79212622121416"><ele>5.4</ele><time>2026-04-12T08:29:55Z</time></trkpt><trkpt lat="44.42610972549597" lon="8.791980201940877"><ele>5.2</ele><time>2026-04-12T08:29:56Z</time></trkpt><trkpt lat="44.42613810789266" lon="8.791844542325464"><ele>5.0</ele><time>2026-04-12T08:29:57Z</time></trkpt><trkpt lat="44.42616446169157" lon="8.7916954680876"><ele>4.8</ele><time>2026-04-12T08:29:58Z</time></trkpt><trkpt lat="44.42618992349017" lon="8.791542778995833"><ele>4.6</ele><time>2026-04-12T08:29:59Z</time></trkpt><trkpt lat="44.42621804719737" lon="8.791399530247176"><ele>4.4</ele><time>2026-04-12T08:30:00Z</time></trkpt><trkpt lat="44.42624466758316" lon="8.791255547614803"><ele>4.2</ele><time>2026-04-12T08:30:01Z</time></trkpt><trkpt lat="44.42626875674808" lon="8.791116381259743"><ele>4.0</ele><time>2026-04-12T08:30:02Z</time></trkpt><trkpt lat="44.42629264344562" lon="8.790988030303094"><ele>4.833333333333333</ele><time>2026-04-12T08:30:03Z</time></trkpt><trkpt lat="44.42631686982319" lon="8.790854003208198"><ele>5.666666666666666</ele><time>2026-04-12T08:30:04Z</time></trkpt><trkpt lat="44.42633483562232" lon="8.790733272400852"><ele>6.5</ele><time>2026-04-12T08:30:05Z</time></trkpt><trkpt lat="44.426350664069616" lon="8.790626175438739"><ele>7.333333333333333</ele><time>2026-04-12T08:30:06Z</time></trkpt><trkpt lat="44.426364504251865" lon="8.790537606219202"><ele>8.166666666666666</ele><time>2026-04-12T08:30:07Z</time></trkpt><trkpt lat="44.42637018097706" lon="8.790378254268683"><ele>9.0</ele><time>2026-04-12T08:30:09Z</time></trkpt><trkpt lat="44.4263593419028" lon="8.790246551708986"><ele>8.8</ele><time>2026-04-12T08:30:11Z</time></trkpt><trkpt lat="44.42634167074977" lon="8.79011310026099"><ele>8.600000000000001</ele><time>2026-04-12T08:30:14Z</time></trkpt><trkpt lat="44.426351741091445" lon="8.789942611329064"><ele>8.4</ele><time>2026-04-12T08:30:16Z</time></trkpt><trkpt lat="44.426364354922846" lon="8.789841861402108"><ele>8.200000000000001</ele><time>2026-04-12T08:30:17Z</time></trkpt><trkpt lat="44.42637770788404" lon="8.78972910774968"><ele>8.0</ele><time>2026-04-12T08:30:18Z</time></trkpt><trkpt lat="44.42639273267768" lon="8.789605884659547"><ele>7.999999999999999</ele><time>2026-04-12T08:30:19Z</time></trkpt><trkpt lat="44.42641053782366" lon="8.789478882501497"><ele>8.0</ele><time>2026-04-12T08:30:20Z</time></trkpt><trkpt lat="44.42642818404448" lon="8.789344857257214"><ele>8.0</ele><time>2026-04-12T08:30:21Z</time></trkpt><trkpt lat="44.42644430263658" lon="8.789210996555372"><ele>8.0</ele><time>2026-04-12T08:30:22Z</time></trkpt><trkpt lat="44.42645636302304" lon="8.789095297652091"><ele>7.999999999999999</ele><time>2026-04-12T08:30:23Z</time></trkpt><trkpt lat="44.426465755234624" lon="8.788998081175578"><ele>8.0</ele><time>2026-04-12T08:30:24Z</time></trkpt><trkpt lat="44.426486790684265" lon="8.788845813198046"><ele>7.666666666666666</ele><time>2026-04-12T08:30:26Z</time></trkpt><trkpt lat="44.42650199308775" lon="8.788739590083088"><ele>7.333333333333333</ele><time>2026-04-12T08:30:28Z</time></trkpt><trkpt lat="44.426512157084204" lon="8.78862357081428"><ele>7.0</ele><time>2026-04-12T08:30:31Z</time></trkpt><trkpt lat="44.426511831955885" lon="8.788527710532904"><ele>6.666666666666666</ele><time>2026-04-12T08:30:49Z</time></trkpt><trkpt lat="44.42653442961823" lon="8.788372131157242"><ele>6.333333333333333</ele><time>2026-04-12T08:30:51Z</time></trkpt><trkpt lat="44.426546491025036" lon="8.78827848859791"><ele>6.0</ele><time>2026-04-12T08:30:52Z</time></trkpt><trkpt lat="44.42655907350644" lon="8.788174431775847"><ele>5.999999999999999</ele><time>2026-04-12T08:30:53Z</time></trkpt><trkpt lat="44.426574031948356" lon="8.788068318421134"><ele>6.0</ele><time>2026-04-12T08:30:54Z</time></trkpt><trkpt lat="44.42659067229709" lon="8.787956508661479"><ele>6.0</ele><time>2026-04-12T08:30:55Z</time></trkpt><trkpt lat="44.426609783919595" lon="8.787850733407389"><ele>6.0</ele><time>2026-04-12T08:30:56Z</time></trkpt><trkpt lat="44.42663227621136" lon="8.787754571613824"><ele>6.0</ele><time>2026-04-12T08:30:57Z</time></trkpt><trkpt lat="44.42665738300944" lon="8.787656309087156"><ele>5.999999999999999</ele><time>2026-04-12T08:30:58Z</time></trkpt><trkpt lat="44.42668687301741" lon="8.787576192324531"><ele>6.0</ele><time>2026-04-12T08:30:59Z</time></trkpt><trkpt lat="44.42673950500089" lon="8.787465393814292"><ele>6.0</ele><time>2026-04-12T08:31:01Z</time></trkpt><trkpt lat="44.42680131928263" lon="8.787314385959643"><ele>6.0</ele><time>2026-04-12T08:31:03Z</time></trkpt><trkpt lat="44.426832967249005" lon="8.787223662564186"><ele>6.0</ele><time>2026-04-12T08:31:04Z</time></trkpt><trkpt lat="44.426851552819386" lon="8.787135939428557"><ele>6.0</ele><time>2026-04-12T08:31:05Z</time></trkpt><trkpt lat="44.42686287429616" lon="8.787048823115551"><ele>6.0</ele><time>2026-04-12T08:31:06Z</time></trkpt><trkpt lat="44.42687296644627" lon="8.786941373893507"><ele>6.0</ele><time>2026-04-12T08:31:07Z</time></trkpt><trkpt lat="44.42688348540216" lon="8.786779178754937"><ele>5.833333333333333</ele><time>2026-04-12T08:31:09Z</time></trkpt><trkpt lat="44.426878943929694" lon="8.786605599420893"><ele>5.666666666666667</ele><time>2026-04-12T08:31:11Z</time></trkpt><trkpt lat="44.42687804345077" lon="8.786499351815415"><ele>5.5</ele><time>2026-04-12T08:31:12Z</time></trkpt><trkpt lat="44.42687918122568" lon="8.786380869035098"><ele>5.333333333333334</ele><time>2026-04-12T08:31:13Z</time></trkpt><trkpt lat="44.426879032293215" lon="8.786277706943823"><ele>5.166666666666667</ele><time>2026-04-12T08:31:14Z</time></trkpt><trkpt lat="44.42688080890135" lon="8.78616771889675"><ele>5.0</ele><time>2026-04-12T08:31:15Z</time></trkpt><trkpt lat="44.42688196562376" lon="8.786052035044891"><ele>5.333333333333334</ele><time>2026-04-12T08:31:16Z</time></trkpt><trkpt lat="44.42688355852629" lon="8.785930649181589"><ele>5.666666666666667</ele><time>2026-04-12T08:31:17Z</time></trkpt><trkpt lat="44.42688686247739" lon="8.7858019613609"><ele>6.0</ele><time>2026-04-12T08:31:18Z</time></trkpt><trkpt lat="44.426887897093785" lon="8.785681795145901"><ele>6.333333333333334</ele><time>2026-04-12T08:31:19Z</time></trkpt><trkpt lat="44.42689312823538" lon="8.785566871199945"><ele>6.666666666666667</ele><time>2026-04-12T08:31:20Z</time></trkpt><trkpt lat="44.42690548778779" lon="8.785454357263543"><ele>7.0</ele><time>2026-04-12T08:31:21Z</time></trkpt><trkpt lat="44.42691836739703" lon="8.785336216790169"><ele>7.000000000000001</ele><time>2026-04-12T08:31:22Z</time></trkpt><trkpt lat="44.426933898864974" lon="8.78521033669221"><ele>7.0</ele><time>2026-04-12T08:31:23Z</time></trkpt><trkpt lat="44.42694701221359" lon="8.785091449638601"><ele>7.0</ele><time>2026-04-12T08:31:24Z</time></trkpt><trkpt lat="44.426960572135584" lon="8.784979276657571"><ele>7.0</ele><time>2026-04-12T08:31:25Z</time></trkpt><trkpt lat="44.42697955577466" lon="8.784867011634057"><ele>7.000000000000001</ele><time>2026-04-12T08:31:26Z</time></trkpt><trkpt lat="44.4269952596713" lon="8.784751370695416"><ele>7.0</ele><time>2026-04-12T08:31:27Z</time></trkpt><trkpt lat="44.427016212073696" lon="8.784635021977824"><ele>7.000000000000001</ele><time>2026-04-12T08:31:28Z</time></trkpt><trkpt lat="44.427042782485515" lon="8.784521430539112"><ele>7.0</ele><time>2026-04-12T08:31:29Z</time></trkpt><trkpt lat="44.42706883593527" lon="8.784403915249936"><ele>7.0</ele><time>2026-04-12T08:31:30Z</time></trkpt><trkpt lat="44.42709269463433" lon="8.78429241160816"><ele>7.0</ele><time>2026-04-12T08:31:31Z</time></trkpt><trkpt lat="44.4271140240109" lon="8.784186291105506"><ele>7.000000000000001</ele><time>2026-04-12T08:31:32Z</time></trkpt><trkpt lat="44.427130343387184" lon="8.784092719726573"><ele>7.0</ele><time>2026-04-12T08:31:33Z</time></trkpt><trkpt lat="44.42714234366542" lon="8.783987700870634"><ele>7.666666666666667</ele><time>2026-04-12T08:31:34Z</time></trkpt><trkpt lat="44.42715915448013" lon="8.78387816822239"><ele>8.333333333333334</ele><time>2026-04-12T08:31:35Z</time></trkpt><trkpt lat="44.42717412935255" lon="8.783754409740324"><ele>9.0</ele><time>2026-04-12T08:31:36Z</time></trkpt><trkpt lat="44.42718673376419" lon="8.783632288499376"><ele>9.666666666666666</ele><time>2026-04-12T08:31:37Z</time></trkpt><trkpt lat="44.427198563751574" lon="8.78352282477321"><ele>10.333333333333332</ele><time>2026-04-12T08:31:38Z</time></trkpt><trkpt lat="44.42721078387155" lon="8.783416477638157"><ele>11.0</ele><time>2026-04-12T08:31:39Z</time></trkpt><trkpt lat="44.427223190853354" lon="8.78331469502903"><ele>11.0</ele><time>2026-04-12T08:31:40Z</time></trkpt><trkpt lat="44.42723229762352" lon="8.78322364196266"><ele>11.0</ele><time>2026-04-12T08:31:41Z</time></trkpt><trkpt lat="44.4272460352541" lon="8.783123718492154"><ele>11.0</ele><time>2026-04-12T08:31:42Z</time></trkpt><trkpt lat="44.42726347024166" lon="8.783016973272442"><ele>11.0</ele><time>2026-04-12T08:31:43Z</time></trkpt><trkpt lat="44.42727349852429" lon="8.782906113656525"><ele>11.0</ele><time>2026-04-12T08:31:44Z</time></trkpt><trkpt lat="44.42728725742041" lon="8.782806400561475"><ele>11.0</ele><time>2026-04-12T08:31:45Z</time></trkpt><trkpt lat="44.4272973715673" lon="8.782717227517507"><ele>11.0</ele><time>2026-04-12T08:31:46Z</time></trkpt><trkpt lat="44.42731743649127" lon="8.782557776501882"><ele>11.333333333333332</ele><time>2026-04-12T08:31:48Z</time></trkpt><trkpt lat="44.427333496627824" lon="8.782406073429456"><ele>11.666666666666666</ele><time>2026-04-12T08:31:50Z</time></trkpt><trkpt lat="44.42734461768236" lon="8.782317405267843"><ele>12.0</ele><time>2026-04-12T08:31:51Z</time></trkpt><trkpt lat="44.42736471206096" lon="8.78216134512148"><ele>12.333333333333332</ele><time>2026-04-12T08:31:53Z</time></trkpt><trkpt lat="44.427374218912036" lon="8.782069105686682"><ele>12.666666666666666</ele><time>2026-04-12T08:31:55Z</time></trkpt><trkpt lat="44.42739152798436" lon="8.781970577087378"><ele>13.0</ele><time>2026-04-12T08:31:59Z</time></trkpt><trkpt lat="44.42739224964583" lon="8.781873977524649"><ele>13.166666666666666</ele><time>2026-04-12T08:32:13Z</time></trkpt><trkpt lat="44.42740514492601" lon="8.781748303891673"><ele>13.333333333333332</ele><time>2026-04-12T08:32:15Z</time></trkpt><trkpt lat="44.427415015741644" lon="8.781641212594609"><ele>13.5</ele><time>2026-04-12T08:32:17Z</time></trkpt><trkpt lat="44.42742334201742" lon="8.781492295806519"><ele>13.666666666666668</ele><time>2026-04-12T08:32:19Z</time></trkpt><trkpt lat="44.427428372975925" lon="8.7813975707874"><ele>13.833333333333334</ele><time>2026-04-12T08:32:20Z</time></trkpt><trkpt lat="44.42743429708641" lon="8.781302169753197"><ele>14.0</ele><time>2026-04-12T08:32:21Z</time></trkpt><trkpt lat="44.42743822503366" lon="8.781201350115719"><ele>14.000000000000002</ele><time>2026-04-12T08:32:22Z</time></trkpt><trkpt lat="44.42744331791841" lon="8.781086408962025"><ele>14.0</ele><time>2026-04-12T08:32:23Z</time></trkpt><trkpt lat="44.42744583390658" lon="8.780968223960784"><ele>14.0</ele><time>2026-04-12T08:32:24Z</time></trkpt><trkpt lat="44.42744698366617" lon="8.780863922936295"><ele>14.0</ele><time>2026-04-12T08:32:25Z</time></trkpt><trkpt lat="44.427449097572975" lon="8.780764661157468"><ele>14.000000000000002</ele><time>2026-04-12T08:32:26Z</time></trkpt><trkpt lat="44.42744840663994" lon="8.780652925141574"><ele>14.0</ele><time>2026-04-12T08:32:27Z</time></trkpt><trkpt lat="44.4274502899361" lon="8.780547090569915"><ele>13.333333333333334</ele><time>2026-04-12T08:32:28Z</time></trkpt><trkpt lat="44.42744928507305" lon="8.78042429547651"><ele>12.666666666666668</ele><time>2026-04-12T08:32:29Z</time></trkpt><trkpt lat="44.42744753113459" lon="8.780314650565993"><ele>12.0</ele><time>2026-04-12T08:32:30Z</time></trkpt><trkpt lat="44.4274429117302" lon="8.780212189990946"><ele>11.333333333333334</ele><time>2026-04-12T08:32:31Z</time></trkpt><trkpt lat="44.42743931110429" lon="8.780104772680078"><ele>10.666666666666668</ele><time>2026-04-12T08:32:32Z</time></trkpt><trkpt lat="44.42743226380436" lon="8.779985889107511"><ele>10.0</ele><time>2026-04-12T08:32:33Z</time></trkpt><trkpt lat="44.42742709218959" lon="8.779873990104035"><ele>10.142857142857142</ele><time>2026-04-12T08:32:34Z</time></trkpt><trkpt lat="44.427419559898375" lon="8.779770356903288"><ele>10.285714285714286</ele><time>2026-04-12T08:32:35Z</time></trkpt><trkpt lat="44.42741248823849" lon="8.779662006772542"><ele>10.428571428571429</ele><time>2026-04-12T08:32:36Z</time></trkpt><trkpt lat="44.42740463665717" lon="8.779558935102292"><ele>10.571428571428571</ele><time>2026-04-12T08:32:37Z</time></trkpt><trkpt lat="44.4273968991655" lon="8.779470652043964"><ele>10.714285714285714</ele><time>2026-04-12T08:32:38Z</time></trkpt><trkpt lat="44.427390556744236" lon="8.779379839448364"><ele>10.857142857142858</ele><time>2026-04-12T08:32:39Z</time></trkpt><trkpt lat="44.42738417948747" lon="8.779277290111782"><ele>11.0</ele><time>2026-04-12T08:32:40Z</time></trkpt><trkpt lat="44.42737473893376" lon="8.779175985835963"><ele>11.0</ele><time>2026-04-12T08:32:41Z</time></trkpt><trkpt lat="44.42736815037052" lon="8.779077440969902"><ele>11.0</ele><time>2026-04-12T08:32:42Z</time></trkpt><trkpt lat="44.4273614049494" lon="8.778988573059229"><ele>11.0</ele><time>2026-04-12T08:32:43Z</time></trkpt><trkpt lat="44.4273427399731" lon="8.778839683336543"><ele>11.0</ele><time>2026-04-12T08:32:45Z</time></trkpt><trkpt lat="44.42732574610162" lon="8.778734542903083"><ele>11.0</ele><time>2026-04-12T08:32:47Z</time></trkpt><trkpt lat="44.42730212098132" lon="8.778637668956858"><ele>11.0</ele><time>2026-04-12T08:32:49Z</time></trkpt><trkpt lat="44.42726735075321" lon="8.778464928718233"><ele>11.166666666666666</ele><time>2026-04-12T08:32:51Z</time></trkpt><trkpt lat="44.42725095032837" lon="8.778365050773065"><ele>11.333333333333332</ele><time>2026-04-12T08:32:52Z</time></trkpt><trkpt lat="44.42723261276979" lon="8.778268446663064"><ele>11.5</ele><time>2026-04-12T08:32:53Z</time></trkpt><trkpt lat="44.427222845277925" lon="8.778176024717517"><ele>11.666666666666666</ele><time>2026-04-12T08:32:54Z</time></trkpt><trkpt lat="44.42721839925925" lon="8.778073524498314"><ele>11.833333333333334</ele><time>2026-04-12T08:32:55Z</time></trkpt><trkpt lat="44.42722306690739" lon="8.777959302152528"><ele>12.0</ele><time>2026-04-12T08:32:56Z</time></trkpt><trkpt lat="44.42722683015311" lon="8.777836951370968"><ele>12.0</ele><time>2026-04-12T08:32:57Z</time></trkpt><trkpt lat="44.42722799882598" lon="8.777714189880994"><ele>12.0</ele><time>2026-04-12T08:32:58Z</time></trkpt><trkpt lat="44.42722811297785" lon="8.777600894450885"><ele>12.0</ele><time>2026-04-12T08:32:59Z</time></trkpt><trkpt lat="44.427226622316134" lon="8.77748474636859"><ele>12.0</ele><time>2026-04-12T08:33:00Z</time></trkpt><trkpt lat="44.42722387693771" lon="8.777359374906185"><ele>12.0</ele><time>2026-04-12T08:33:01Z</time></trkpt><trkpt lat="44.427220035609096" lon="8.777233801963678"><ele>12.0</ele><time>2026-04-12T08:33:02Z</time></trkpt><trkpt lat="44.42721757480059" lon="8.777133599329726"><ele>11.166666666666666</ele><time>2026-04-12T08:33:03.001Z</time></trkpt><trkpt lat="44.42721449696171" lon="8.777029241744525"><ele>10.333333333333334</ele><time>2026-04-12T08:33:04.001Z</time></trkpt><trkpt lat="44.42720947961491" lon="8.776915631902325"><ele>9.5</ele><time>2026-04-12T08:33:05.001Z</time></trkpt><trkpt lat="44.42720523472584" lon="8.77682056832725"><ele>8.666666666666668</ele><time>2026-04-12T08:33:06.001Z</time></trkpt><trkpt lat="44.427206087037234" lon="8.77672546952267"><ele>7.833333333333334</ele><time>2026-04-12T08:33:07.001Z</time></trkpt><trkpt lat="44.4272033361858" lon="8.776610693791422"><ele>7.0</ele><time>2026-04-12T08:33:08.001Z</time></trkpt><trkpt lat="44.427201006832995" lon="8.776493189897517"><ele>6.666666666666667</ele><time>2026-04-12T08:33:09Z</time></trkpt><trkpt lat="44.427203345942175" lon="8.776379685620752"><ele>6.333333333333334</ele><time>2026-04-12T08:33:10Z</time></trkpt><trkpt lat="44.42720405169089" lon="8.776250665452132"><ele>6.0</ele><time>2026-04-12T08:33:11Z</time></trkpt><trkpt lat="44.427208920683285" lon="8.776128688546246"><ele>5.666666666666667</ele><time>2026-04-12T08:33:12Z</time></trkpt><trkpt lat="44.42721359491276" lon="8.776008790735464"><ele>5.333333333333334</ele><time>2026-04-12T08:33:13Z</time></trkpt><trkpt lat="44.427219034670166" lon="8.77588364049219"><ele>5.0</ele><time>2026-04-12T08:33:14Z</time></trkpt><trkpt lat="44.42722338380151" lon="8.775761160327257"><ele>5.0</ele><time>2026-04-12T08:33:15Z</time></trkpt><trkpt lat="44.4272333479385" lon="8.775647287576406"><ele>5.0</ele><time>2026-04-12T08:33:16Z</time></trkpt><trkpt lat="44.42724044731805" lon="8.775536905333027"><ele>5.0</ele><time>2026-04-12T08:33:17Z</time></trkpt><trkpt lat="44.42725611134273" lon="8.775390015910624"><ele>5.0</ele><time>2026-04-12T08:33:19Z</time></trkpt><trkpt lat="44.42726601301533" lon="8.775289078390225"><ele>5.0</ele><time>2026-04-12T08:33:21Z</time></trkpt><trkpt lat="44.42727624836918" lon="8.775166144398533"><ele>5.0</ele><time>2026-04-12T08:33:23Z</time></trkpt><trkpt lat="44.42729651098907" lon="8.77500849680551"><ele>5.0</ele><time>2026-04-12T08:33:25Z</time></trkpt><trkpt lat="44.42731134159373" lon="8.774917195440587"><ele>5.0</ele><time>2026-04-12T08:33:26Z</time></trkpt><trkpt lat="44.42733838643382" lon="8.774758712228197"><ele>5.0</ele><time>2026-04-12T08:33:28Z</time></trkpt><trkpt lat="44.427364069203115" lon="8.774623514756057"><ele>5.0</ele><time>2026-04-12T08:33:30Z</time></trkpt><trkpt lat="44.427402548003606" lon="8.774435833399282"><ele>5.0</ele><time>2026-04-12T08:33:32Z</time></trkpt><trkpt lat="44.42742074789835" lon="8.774335252212886"><ele>5.0</ele><time>2026-04-12T08:33:33Z</time></trkpt><trkpt lat="44.4274420739906" lon="8.774225881221827"><ele>5.0</ele><time>2026-04-12T08:33:34Z</time></trkpt><trkpt lat="44.427460924683025" lon="8.774118936476745"><ele>5.0</ele><time>2026-04-12T08:33:35Z</time></trkpt><trkpt lat="44.427479140877324" lon="8.774008021672635"><ele>5.0</ele><time>2026-04-12T08:33:36Z</time></trkpt><trkpt lat="44.42751320215777" lon="8.773843955641283"><ele>5.0</ele><time>2026-04-12T08:33:38Z</time></trkpt><trkpt lat="44.42753634713273" lon="8.77370185325705"><ele>5.0</ele><time>2026-04-12T08:33:40Z</time></trkpt><trkpt lat="44.42754810700912" lon="8.773594711484781"><ele>5.0</ele><time>2026-04-12T08:33:41Z</time></trkpt><trkpt lat="44.42757017260574" lon="8.773475175038277"><ele>5.0</ele><time>2026-04-12T08:33:42Z</time></trkpt><trkpt lat="44.42759790588332" lon="8.773337683513265"><ele>5.0</ele><time>2026-04-12T08:33:43Z</time></trkpt><trkpt lat="44.427621513093" lon="8.773189210833392"><ele>5.0</ele><time>2026-04-12T08:33:44Z</time></trkpt><trkpt lat="44.42764813746599" lon="8.773061912963515"><ele>4.8</ele><time>2026-04-12T08:33:45Z</time></trkpt><trkpt lat="44.42767294257903" lon="8.77292035250685"><ele>4.6</ele><time>2026-04-12T08:33:46Z</time></trkpt><trkpt lat="44.427697914107824" lon="8.772775244534762"><ele>4.4</ele><time>2026-04-12T08:33:47Z</time></trkpt><trkpt lat="44.4277193630563" lon="8.77265743743627"><ele>4.2</ele><time>2026-04-12T08:33:48Z</time></trkpt><trkpt lat="44.427740580317966" lon="8.772516264062748"><ele>4.0</ele><time>2026-04-12T08:33:49Z</time></trkpt><trkpt lat="44.427762810672135" lon="8.77237851022001"><ele>3.9999999999999996</ele><time>2026-04-12T08:33:50Z</time></trkpt><trkpt lat="44.427782619135726" lon="8.772257234631038"><ele>4.0</ele><time>2026-04-12T08:33:51Z</time></trkpt><trkpt lat="44.42779487143557" lon="8.77214005558629"><ele>4.0</ele><time>2026-04-12T08:33:52Z</time></trkpt><trkpt lat="44.42780818986137" lon="8.77202056028081"><ele>4.0</ele><time>2026-04-12T08:33:53Z</time></trkpt><trkpt lat="44.427820916459694" lon="8.771923297726934"><ele>3.9999999999999996</ele><time>2026-04-12T08:33:54Z</time></trkpt><trkpt lat="44.42783263691908" lon="8.771818476975847"><ele>4.0</ele><time>2026-04-12T08:33:55Z</time></trkpt><trkpt lat="44.427841324863856" lon="8.77172524448054"><ele>3.9999999999999996</ele><time>2026-04-12T08:33:56Z</time></trkpt><trkpt lat="44.4278529963972" lon="8.771575299230523"><ele>4.0</ele><time>2026-04-12T08:33:58Z</time></trkpt><trkpt lat="44.42786248852829" lon="8.771478466192875"><ele>4.0</ele><time>2026-04-12T08:34:01Z</time></trkpt><trkpt lat="44.42785791834083" lon="8.77136937682308"><ele>4.0</ele><time>2026-04-12T08:34:35Z</time></trkpt><trkpt lat="44.427863335313184" lon="8.771240178380467"><ele>3.9999999999999996</ele><time>2026-04-12T08:34:37Z</time></trkpt><trkpt lat="44.42787582693908" lon="8.771141138697875"><ele>4.0</ele><time>2026-04-12T08:34:39Z</time></trkpt><trkpt lat="44.42788587416306" lon="8.771036851964453"><ele>4.0</ele><time>2026-04-12T08:34:41Z</time></trkpt><trkpt lat="44.427890952048756" lon="8.770945514131178"><ele>3.9999999999999996</ele><time>2026-04-12T08:34:43Z</time></trkpt><trkpt lat="44.42789988574972" lon="8.77085093748639"><ele>4.0</ele><time>2026-04-12T08:34:46Z</time></trkpt><trkpt lat="44.42790759034985" lon="8.770728803817418"><ele>4.0</ele><time>2026-04-12T08:34:48Z</time></trkpt><trkpt lat="44.427916530643486" lon="8.770634661831556"><ele>3.9999999999999996</ele><time>2026-04-12T08:34:50Z</time></trkpt><trkpt lat="44.42790989657006" lon="8.770522302854593"><ele>4.0</ele><time>2026-04-12T08:35:05Z</time></trkpt><trkpt lat="44.42791684722773" lon="8.770413804530678"><ele>4.0</ele><time>2026-04-12T08:35:07Z</time></trkpt><trkpt lat="44.4279232304657" lon="8.7702777251051"><ele>3.8000000000000003</ele><time>2026-04-12T08:35:09Z</time></trkpt><trkpt lat="44.427927569114864" lon="8.77011217534993"><ele>3.6000000000000005</ele><time>2026-04-12T08:35:11Z</time></trkpt><trkpt lat="44.42795747168014" lon="8.769963885776624"><ele>3.4</ele><time>2026-04-12T08:35:13Z</time></trkpt><trkpt lat="44.42796812462769" lon="8.769800015274754"><ele>3.2</ele><time>2026-04-12T08:35:15Z</time></trkpt><trkpt lat="44.42797417908207" lon="8.769709232742777"><ele>3.0</ele><time>2026-04-12T08:35:16Z</time></trkpt><trkpt lat="44.427979184672544" lon="8.76960320828982"><ele>4.2</ele><time>2026-04-12T08:35:17Z</time></trkpt><trkpt lat="44.42798437941545" lon="8.769409604894975"><ele>5.4</ele><time>2026-04-12T08:35:19Z</time></trkpt><trkpt lat="44.427986645686865" lon="8.769304731164345"><ele>6.6000000000000005</ele><time>2026-04-12T08:35:20Z</time></trkpt><trkpt lat="44.42798795944702" lon="8.769192246355002"><ele>7.8</ele><time>2026-04-12T08:35:21Z</time></trkpt><trkpt lat="44.42799181627667" lon="8.769061868935319"><ele>9.0</ele><time>2026-04-12T08:35:22Z</time></trkpt><trkpt lat="44.42799662569312" lon="8.768927293805056"><ele>9.0</ele><time>2026-04-12T08:35:23Z</time></trkpt><trkpt lat="44.4280025520433" lon="8.768793737644046"><ele>9.0</ele><time>2026-04-12T08:35:24Z</time></trkpt><trkpt lat="44.42799375864963" lon="8.768656257237767"><ele>9.0</ele><time>2026-04-12T08:35:25Z</time></trkpt><trkpt lat="44.428004707657074" lon="8.768529742956861"><ele>9.0</ele><time>2026-04-12T08:35:26Z</time></trkpt><trkpt lat="44.428016607554675" lon="8.768405216504522"><ele>9.0</ele><time>2026-04-12T08:35:27Z</time></trkpt><trkpt lat="44.42802515330794" lon="8.76827339583072"><ele>9.0</ele><time>2026-04-12T08:35:28Z</time></trkpt><trkpt lat="44.4280353064163" lon="8.76814338799586"><ele>9.0</ele><time>2026-04-12T08:35:29Z</time></trkpt><trkpt lat="44.42804338904931" lon="8.76801179542939"><ele>9.0</ele><time>2026-04-12T08:35:30Z</time></trkpt><trkpt lat="44.42805361433906" lon="8.767885956553126"><ele>9.0</ele><time>2026-04-12T08:35:31Z</time></trkpt><trkpt lat="44.42806247928577" lon="8.76776178933582"><ele>9.0</ele><time>2026-04-12T08:35:32Z</time></trkpt><trkpt lat="44.42806929652724" lon="8.767627710210121"><ele>9.0</ele><time>2026-04-12T08:35:33Z</time></trkpt><trkpt lat="44.42807508910871" lon="8.767486178369964"><ele>9.0</ele><time>2026-04-12T08:35:34Z</time></trkpt><trkpt lat="44.42808205591017" lon="8.767349164943473"><ele>9.0</ele><time>2026-04-12T08:35:35Z</time></trkpt><trkpt lat="44.428087726565266" lon="8.767212270518497"><ele>9.0</ele><time>2026-04-12T08:35:36Z</time></trkpt><trkpt lat="44.428095920238775" lon="8.767087249677113"><ele>9.0</ele><time>2026-04-12T08:35:37Z</time></trkpt><trkpt lat="44.42810000598449" lon="8.766942069699343"><ele>8.6</ele><time>2026-04-12T08:35:38Z</time></trkpt><trkpt lat="44.42810690621228" lon="8.766810000029757"><ele>8.2</ele><time>2026-04-12T08:35:39Z</time></trkpt><trkpt lat="44.42811335332607" lon="8.7666887187767"><ele>7.799999999999999</ele><time>2026-04-12T08:35:40Z</time></trkpt><trkpt lat="44.42811892494845" lon="8.766557043763777"><ele>7.3999999999999995</ele><time>2026-04-12T08:35:41Z</time></trkpt><trkpt lat="44.4281256259084" lon="8.76641812707388"><ele>7.0</ele><time>2026-04-12T08:35:42Z</time></trkpt><trkpt lat="44.42813093215254" lon="8.766278318237857"><ele>7.0</ele><time>2026-04-12T08:35:43Z</time></trkpt><trkpt lat="44.42813452775676" lon="8.766140790033763"><ele>6.999999999999999</ele><time>2026-04-12T08:35:44Z</time></trkpt><trkpt lat="44.42813993559569" lon="8.766003160838906"><ele>6.999999999999999</ele><time>2026-04-12T08:35:45Z</time></trkpt><trkpt lat="44.42814628537004" lon="8.765857564089389"><ele>7.0</ele><time>2026-04-12T08:35:46Z</time></trkpt><trkpt lat="44.428153164903044" lon="8.765716496767745"><ele>7.0</ele><time>2026-04-12T08:35:47Z</time></trkpt><trkpt lat="44.428157717009654" lon="8.765571026341687"><ele>7.0</ele><time>2026-04-12T08:35:48Z</time></trkpt><trkpt lat="44.428165491454344" lon="8.765425870568164"><ele>6.999999999999999</ele><time>2026-04-12T08:35:49Z</time></trkpt><trkpt lat="44.42817309302203" lon="8.765280547179398"><ele>6.999999999999999</ele><time>2026-04-12T08:35:50Z</time></trkpt><trkpt lat="44.428179278387844" lon="8.765129331621832"><ele>7.0</ele><time>2026-04-12T08:35:51Z</time></trkpt><trkpt lat="44.4281843832274" lon="8.764976808880593"><ele>7.0</ele><time>2026-04-12T08:35:52Z</time></trkpt><trkpt lat="44.4281896548332" lon="8.76482020913761"><ele>7.0</ele><time>2026-04-12T08:35:53Z</time></trkpt><trkpt lat="44.42819721039288" lon="8.76466441499502"><ele>7.0</ele><time>2026-04-12T08:35:54Z</time></trkpt><trkpt lat="44.42820495548588" lon="8.764509270513656"><ele>7.0</ele><time>2026-04-12T08:35:55Z</time></trkpt><trkpt lat="44.42821165389636" lon="8.764347505034653"><ele>7.0</ele><time>2026-04-12T08:35:56Z</time></trkpt><trkpt lat="44.42821797390298" lon="8.764184545761328"><ele>7.0</ele><time>2026-04-12T08:35:57Z</time></trkpt><trkpt lat="44.42823143072137" lon="8.76402382489961"><ele>7.0</ele><time>2026-04-12T08:35:58Z</time></trkpt><trkpt lat="44.428236752457316" lon="8.763860616044294"><ele>7.0</ele><time>2026-04-12T08:35:59Z</time></trkpt><trkpt lat="44.428243207788576" lon="8.76369498976777"><ele>7.0</ele><time>2026-04-12T08:36:00Z</time></trkpt><trkpt lat="44.42824905677806" lon="8.763542559997086"><ele>6.8</ele><time>2026-04-12T08:36:01Z</time></trkpt><trkpt lat="44.42825403035666" lon="8.763382382857149"><ele>6.6</ele><time>2026-04-12T08:36:02Z</time></trkpt><trkpt lat="44.428262856315165" lon="8.763228765960465"><ele>6.3999999999999995</ele><time>2026-04-12T08:36:03Z</time></trkpt><trkpt lat="44.42827090921628" lon="8.763073481448071"><ele>6.199999999999999</ele><time>2026-04-12T08:36:04Z</time></trkpt><trkpt lat="44.428285026882804" lon="8.762921729925454"><ele>6.0</ele><time>2026-04-12T08:36:05Z</time></trkpt><trkpt lat="44.42830060004926" lon="8.76278455100073"><ele>6.4</ele><time>2026-04-12T08:36:06Z</time></trkpt><trkpt lat="44.42832164715468" lon="8.762649441597759"><ele>6.8</ele><time>2026-04-12T08:36:07Z</time></trkpt><trkpt lat="44.42834831762159" lon="8.762508625026838"><ele>7.200000000000001</ele><time>2026-04-12T08:36:08Z</time></trkpt><trkpt lat="44.42837736219418" lon="8.762365389410292"><ele>7.6000000000000005</ele><time>2026-04-12T08:36:09Z</time></trkpt><trkpt lat="44.428404276375" lon="8.762217812503478"><ele>8.0</ele><time>2026-04-12T08:36:10Z</time></trkpt><trkpt lat="44.428434956455895" lon="8.762072878598294"><ele>8.0</ele><time>2026-04-12T08:36:11Z</time></trkpt><trkpt lat="44.42846382308177" lon="8.761936058355595"><ele>8.0</ele><time>2026-04-12T08:36:12Z</time></trkpt><trkpt lat="44.42850114707591" lon="8.76180084500935"><ele>8.0</ele><time>2026-04-12T08:36:13Z</time></trkpt><trkpt lat="44.42852702072087" lon="8.761661211977316"><ele>8.0</ele><time>2026-04-12T08:36:14Z</time></trkpt><trkpt lat="44.428550964614715" lon="8.761524750616367"><ele>8.0</ele><time>2026-04-12T08:36:15Z</time></trkpt><trkpt lat="44.42857722549841" lon="8.761390433426673"><ele>8.0</ele><time>2026-04-12T08:36:16Z</time></trkpt><trkpt lat="44.42859850415053" lon="8.761262872852145"><ele>8.0</ele><time>2026-04-12T08:36:17Z</time></trkpt><trkpt lat="44.428620968081916" lon="8.761127342829472"><ele>8.0</ele><time>2026-04-12T08:36:18Z</time></trkpt><trkpt lat="44.42864129008064" lon="8.760984617359215"><ele>8.0</ele><time>2026-04-12T08:36:19Z</time></trkpt><trkpt lat="44.42866291434801" lon="8.76084264864167"><ele>8.0</ele><time>2026-04-12T08:36:20Z</time></trkpt><trkpt lat="44.4286818991019" lon="8.760711020088081"><ele>7.800000000000001</ele><time>2026-04-12T08:36:21Z</time></trkpt><trkpt lat="44.4287024885084" lon="8.760570052017734"><ele>7.6000000000000005</ele><time>2026-04-12T08:36:22Z</time></trkpt><trkpt lat="44.428722252446164" lon="8.76043076293744"><ele>7.3999999999999995</ele><time>2026-04-12T08:36:23Z</time></trkpt><trkpt lat="44.4287438816579" lon="8.760289500751067"><ele>7.199999999999999</ele><time>2026-04-12T08:36:24Z</time></trkpt><trkpt lat="44.42876354544302" lon="8.760143334521107"><ele>7.0</ele><time>2026-04-12T08:36:25Z</time></trkpt><trkpt lat="44.42878729621084" lon="8.759997682108194"><ele>9.8</ele><time>2026-04-12T08:36:26Z</time></trkpt><trkpt lat="44.42881148097494" lon="8.759852771170058"><ele>12.6</ele><time>2026-04-12T08:36:27Z</time></trkpt><trkpt lat="44.42883116379673" lon="8.75971102835786"><ele>15.400000000000002</ele><time>2026-04-12T08:36:28Z</time></trkpt><trkpt lat="44.42884928953101" lon="8.759582192206894"><ele>18.2</ele><time>2026-04-12T08:36:29Z</time></trkpt><trkpt lat="44.428866106017914" lon="8.759462718220227"><ele>21.0</ele><time>2026-04-12T08:36:30Z</time></trkpt><trkpt lat="44.428876076219375" lon="8.759330942190518"><ele>21.0</ele><time>2026-04-12T08:36:31Z</time></trkpt><trkpt lat="44.42888688192733" lon="8.759213708833032"><ele>21.0</ele><time>2026-04-12T08:36:32Z</time></trkpt><trkpt lat="44.42889524974468" lon="8.759124717769089"><ele>21.0</ele><time>2026-04-12T08:36:33Z</time></trkpt><trkpt lat="44.428899053172906" lon="8.758990732639255"><ele>21.0</ele><time>2026-04-12T08:36:35Z</time></trkpt><trkpt lat="44.42889974037012" lon="8.758848000169797"><ele>21.0</ele><time>2026-04-12T08:36:37Z</time></trkpt><trkpt lat="44.42889136818373" lon="8.758730164855496"><ele>21.0</ele><time>2026-04-12T08:36:39Z</time></trkpt><trkpt lat="44.42887356486464" lon="8.758559424103606"><ele>20.333333333333332</ele><time>2026-04-12T08:36:41Z</time></trkpt><trkpt lat="44.428854324513445" lon="8.758469899740543"><ele>19.666666666666668</ele><time>2026-04-12T08:36:42Z</time></trkpt><trkpt lat="44.42882875330149" lon="8.75836980771303"><ele>19.0</ele><time>2026-04-12T08:36:43Z</time></trkpt><trkpt lat="44.42878778555737" lon="8.758267282211744"><ele>18.333333333333336</ele><time>2026-04-12T08:36:44Z</time></trkpt><trkpt lat="44.428741403836206" lon="8.758177308477281"><ele>17.666666666666668</ele><time>2026-04-12T08:36:45Z</time></trkpt><trkpt lat="44.428686799496035" lon="8.758092174773685"><ele>17.0</ele><time>2026-04-12T08:36:46Z</time></trkpt><trkpt lat="44.42863212445012" lon="8.758008231578842"><ele>15.57142857142857</ele><time>2026-04-12T08:36:47Z</time></trkpt><trkpt lat="44.42857787249632" lon="8.757926337418398"><ele>14.142857142857142</ele><time>2026-04-12T08:36:48Z</time></trkpt><trkpt lat="44.428524385725126" lon="8.757842548624504"><ele>12.714285714285714</ele><time>2026-04-12T08:36:49Z</time></trkpt><trkpt lat="44.42847395459582" lon="8.7577530391724"><ele>11.285714285714285</ele><time>2026-04-12T08:36:50Z</time></trkpt><trkpt lat="44.42843533834798" lon="8.75767146351229"><ele>9.857142857142858</ele><time>2026-04-12T08:36:51Z</time></trkpt><trkpt lat="44.42840957356329" lon="8.757585796829582"><ele>8.428571428571429</ele><time>2026-04-12T08:36:52Z</time></trkpt><trkpt lat="44.428397268934276" lon="8.757497272917272"><ele>7.0</ele><time>2026-04-12T08:36:53Z</time></trkpt><trkpt lat="44.428386419158365" lon="8.757405393553402"><ele>7.000000000000001</ele><time>2026-04-12T08:36:54Z</time></trkpt><trkpt lat="44.42843567361409" lon="8.757303700054557"><ele>7.0</ele><time>2026-04-12T08:36:55Z</time></trkpt><trkpt lat="44.42846060336601" lon="8.7571990810029"><ele>7.0</ele><time>2026-04-12T08:36:56Z</time></trkpt><trkpt lat="44.428482333482286" lon="8.757095784293815"><ele>7.0</ele><time>2026-04-12T08:36:57Z</time></trkpt><trkpt lat="44.42850011510424" lon="8.756997462764494"><ele>7.000000000000001</ele><time>2026-04-12T08:36:58Z</time></trkpt><trkpt lat="44.42851293218487" lon="8.75689653581602"><ele>7.0</ele><time>2026-04-12T08:36:59Z</time></trkpt><trkpt lat="44.42851893341793" lon="8.756800723445668"><ele>6.833333333333334</ele><time>2026-04-12T08:37:00Z</time></trkpt><trkpt lat="44.428521249865845" lon="8.756694980249787"><ele>6.666666666666667</ele><time>2026-04-12T08:37:01Z</time></trkpt><trkpt lat="44.42852047029109" lon="8.756581249713255"><ele>6.5</ele><time>2026-04-12T08:37:02Z</time></trkpt><trkpt lat="44.42852412909015" lon="8.756469834632538"><ele>6.333333333333334</ele><time>2026-04-12T08:37:03Z</time></trkpt><trkpt lat="44.4285265031491" lon="8.756365933000525"><ele>6.166666666666667</ele><time>2026-04-12T08:37:04Z</time></trkpt><trkpt lat="44.428521890676535" lon="8.756252033785579"><ele>6.0</ele><time>2026-04-12T08:37:05Z</time></trkpt><trkpt lat="44.42852222177515" lon="8.756150426616673"><ele>6.0</ele><time>2026-04-12T08:37:06Z</time></trkpt><trkpt lat="44.42852144919222" lon="8.756061258904177"><ele>6.0</ele><time>2026-04-12T08:37:07Z</time></trkpt><trkpt lat="44.42852194351937" lon="8.755967229827952"><ele>6.0</ele><time>2026-04-12T08:37:08Z</time></trkpt><trkpt lat="44.428518568591606" lon="8.755811499144167"><ele>6.0</ele><time>2026-04-12T08:37:10Z</time></trkpt><trkpt lat="44.42851997674962" lon="8.755702442095236"><ele>6.0</ele><time>2026-04-12T08:37:12.001Z</time></trkpt><trkpt lat="44.42851145895048" lon="8.755593219151077"><ele>6.0</ele><time>2026-04-12T08:37:14.001Z</time></trkpt><trkpt lat="44.42851782701617" lon="8.755413303130435"><ele>6.0</ele><time>2026-04-12T08:37:16.001Z</time></trkpt><trkpt lat="44.42851435228834" lon="8.755321711693544"><ele>6.0</ele><time>2026-04-12T08:37:17.001Z</time></trkpt><trkpt lat="44.42850671271322" lon="8.75523087456565"><ele>6.0</ele><time>2026-04-12T08:37:18.001Z</time></trkpt><trkpt lat="44.42850173215361" lon="8.755134390641233"><ele>6.0</ele><time>2026-04-12T08:37:19.001Z</time></trkpt><trkpt lat="44.42849531488582" lon="8.755026829109182"><ele>6.0</ele><time>2026-04-12T08:37:20.001Z</time></trkpt><trkpt lat="44.42849301995252" lon="8.754936814653648"><ele>6.0</ele><time>2026-04-12T08:37:21Z</time></trkpt><trkpt lat="44.42848184361365" lon="8.754757366588338"><ele>5.833333333333333</ele><time>2026-04-12T08:37:23Z</time></trkpt><trkpt lat="44.42847585490812" lon="8.754657288469117"><ele>5.666666666666667</ele><time>2026-04-12T08:37:24Z</time></trkpt><trkpt lat="44.42846948434712" lon="8.754476509967596"><ele>5.5</ele><time>2026-04-12T08:37:26Z</time></trkpt><trkpt lat="44.42846765513922" lon="8.754367697030402"><ele>5.333333333333334</ele><time>2026-04-12T08:37:27Z</time></trkpt><trkpt lat="44.42846277844254" lon="8.754265613557935"><ele>5.166666666666667</ele><time>2026-04-12T08:37:28Z</time></trkpt><trkpt lat="44.428461608665096" lon="8.754163184125158"><ele>5.0</ele><time>2026-04-12T08:37:29Z</time></trkpt><trkpt lat="44.428455818068116" lon="8.754066478409872"><ele>5.5</ele><time>2026-04-12T08:37:30Z</time></trkpt><trkpt lat="44.42844770698075" lon="8.753957807730082"><ele>6.0</ele><time>2026-04-12T08:37:31Z</time></trkpt><trkpt lat="44.42844110710232" lon="8.753851009477795"><ele>6.5</ele><time>2026-04-12T08:37:32Z</time></trkpt><trkpt lat="44.428430272161016" lon="8.753746023699435"><ele>7.0</ele><time>2026-04-12T08:37:33Z</time></trkpt><trkpt lat="44.42842919907629" lon="8.753643042081986"><ele>7.499999999999999</ele><time>2026-04-12T08:37:34Z</time></trkpt><trkpt lat="44.42842469963895" lon="8.753525013407087"><ele>8.0</ele><time>2026-04-12T08:37:35Z</time></trkpt><trkpt lat="44.42841603228359" lon="8.75340546281806"><ele>8.166666666666666</ele><time>2026-04-12T08:37:36Z</time></trkpt><trkpt lat="44.42841236609381" lon="8.753298319766195"><ele>8.333333333333332</ele><time>2026-04-12T08:37:37Z</time></trkpt><trkpt lat="44.42840726740064" lon="8.753193484947309"><ele>8.5</ele><time>2026-04-12T08:37:38Z</time></trkpt><trkpt lat="44.42839499601043" lon="8.753072009589438"><ele>8.666666666666666</ele><time>2026-04-12T08:37:39Z</time></trkpt><trkpt lat="44.42838381012385" lon="8.752961910035166"><ele>8.833333333333334</ele><time>2026-04-12T08:37:40Z</time></trkpt><trkpt lat="44.42834837448366" lon="8.75286128539885"><ele>9.0</ele><time>2026-04-12T08:37:41Z</time></trkpt><trkpt lat="44.42834584754165" lon="8.752754763131636"><ele>9.0</ele><time>2026-04-12T08:37:42Z</time></trkpt><trkpt lat="44.428330251193415" lon="8.752627708355803"><ele>9.0</ele><time>2026-04-12T08:37:43Z</time></trkpt><trkpt lat="44.42832040403114" lon="8.75249939501243"><ele>9.0</ele><time>2026-04-12T08:37:44Z</time></trkpt><trkpt lat="44.42831796119105" lon="8.752397923767465"><ele>9.0</ele><time>2026-04-12T08:37:45Z</time></trkpt><trkpt lat="44.42832173074272" lon="8.75230377610778"><ele>9.0</ele><time>2026-04-12T08:37:46Z</time></trkpt><trkpt lat="44.4283194742039" lon="8.752181848266112"><ele>9.0</ele><time>2026-04-12T08:37:47Z</time></trkpt><trkpt lat="44.428323090339326" lon="8.752075382463788"><ele>9.0</ele><time>2026-04-12T08:37:48Z</time></trkpt><trkpt lat="44.42832420795389" lon="8.751951086891713"><ele>9.0</ele><time>2026-04-12T08:37:49Z</time></trkpt><trkpt lat="44.42832346874504" lon="8.75182155590681"><ele>9.0</ele><time>2026-04-12T08:37:50Z</time></trkpt><trkpt lat="44.428325455104776" lon="8.751724081705929"><ele>9.0</ele><time>2026-04-12T08:37:51Z</time></trkpt><trkpt lat="44.428327355971874" lon="8.751621620447185"><ele>9.0</ele><time>2026-04-12T08:37:52Z</time></trkpt><trkpt lat="44.428340678270075" lon="8.75151703859311"><ele>9.0</ele><time>2026-04-12T08:37:53Z</time></trkpt><trkpt lat="44.42835154117748" lon="8.751416923789655"><ele>8.833333333333334</ele><time>2026-04-12T08:37:54Z</time></trkpt><trkpt lat="44.42836732482053" lon="8.75125085165871"><ele>8.666666666666666</ele><time>2026-04-12T08:37:56Z</time></trkpt><trkpt lat="44.42838082912744" lon="8.751152484396366"><ele>8.5</ele><time>2026-04-12T08:37:57Z</time></trkpt><trkpt lat="44.428402224838905" lon="8.751057096635119"><ele>8.333333333333332</ele><time>2026-04-12T08:37:58Z</time></trkpt><trkpt lat="44.42840281443116" lon="8.75095417399553"><ele>8.166666666666666</ele><time>2026-04-12T08:37:59Z</time></trkpt><trkpt lat="44.42842676178778" lon="8.7508501986998"><ele>8.0</ele><time>2026-04-12T08:38:00Z</time></trkpt><trkpt lat="44.42844375306322" lon="8.750743752896591"><ele>8.0</ele><time>2026-04-12T08:38:01Z</time></trkpt><trkpt lat="44.42845452316373" lon="8.750578646066884"><ele>8.0</ele><time>2026-04-12T08:38:03Z</time></trkpt><trkpt lat="44.42846772324913" lon="8.75039938092273"><ele>8.0</ele><time>2026-04-12T08:38:05Z</time></trkpt><trkpt lat="44.428484764785416" lon="8.750255275586763"><ele>8.0</ele><time>2026-04-12T08:38:07Z</time></trkpt><trkpt lat="44.42850483780784" lon="8.75010840809037"><ele>8.0</ele><time>2026-04-12T08:38:09Z</time></trkpt><trkpt lat="44.42851329999977" lon="8.749948357751201"><ele>8.0</ele><time>2026-04-12T08:38:11Z</time></trkpt><trkpt lat="44.42852808325391" lon="8.749825908496021"><ele>8.0</ele><time>2026-04-12T08:38:13Z</time></trkpt><trkpt lat="44.42854860184582" lon="8.749689766397475"><ele>8.0</ele><time>2026-04-12T08:38:15Z</time></trkpt><trkpt lat="44.4285421917506" lon="8.74956138787249"><ele>8.0</ele><time>2026-04-12T08:38:17Z</time></trkpt><trkpt lat="44.428572383343685" lon="8.74946058439146"><ele>7.833333333333333</ele><time>2026-04-12T08:38:19Z</time></trkpt><trkpt lat="44.42856781519579" lon="8.7493305165563"><ele>7.666666666666666</ele><time>2026-04-12T08:38:21Z</time></trkpt><trkpt lat="44.42857344071265" lon="8.749204023892142"><ele>7.5</ele><time>2026-04-12T08:38:23Z</time></trkpt><trkpt lat="44.42857677558259" lon="8.749075064500706"><ele>7.333333333333334</ele><time>2026-04-12T08:38:25Z</time></trkpt><trkpt lat="44.428576979900114" lon="8.748948011616744"><ele>7.166666666666667</ele><time>2026-04-12T08:38:27Z</time></trkpt><trkpt lat="44.42858050909447" lon="8.748832285138198"><ele>7.0</ele><time>2026-04-12T08:38:29Z</time></trkpt><trkpt lat="44.428583598760056" lon="8.74871795477575"><ele>7.0</ele><time>2026-04-12T08:38:31Z</time></trkpt><trkpt lat="44.428578748018566" lon="8.748554941005548"><ele>6.999999999999999</ele><time>2026-04-12T08:38:33Z</time></trkpt><trkpt lat="44.42858268239686" lon="8.748466903120537"><ele>6.999999999999999</ele><time>2026-04-12T08:38:34Z</time></trkpt><trkpt lat="44.42858711845525" lon="8.748291989228827"><ele>7.0</ele><time>2026-04-12T08:38:36Z</time></trkpt><trkpt lat="44.428586244812735" lon="8.748126190456775"><ele>7.0</ele><time>2026-04-12T08:38:38Z</time></trkpt><trkpt lat="44.428588215425634" lon="8.74794861798964"><ele>7.166666666666667</ele><time>2026-04-12T08:38:40Z</time></trkpt><trkpt lat="44.42859527330268" lon="8.747851881156679"><ele>7.333333333333334</ele><time>2026-04-12T08:38:41Z</time></trkpt><trkpt lat="44.4286016588187" lon="8.747737743035481"><ele>7.5</ele><time>2026-04-12T08:38:42Z</time></trkpt><trkpt lat="44.42860358538051" lon="8.747638777603632"><ele>7.666666666666666</ele><time>2026-04-12T08:38:43Z</time></trkpt><trkpt lat="44.4285907875592" lon="8.747534656044644"><ele>7.833333333333333</ele><time>2026-04-12T08:38:44Z</time></trkpt><trkpt lat="44.42859741631442" lon="8.747428283816653"><ele>8.0</ele><time>2026-04-12T08:38:45Z</time></trkpt><trkpt lat="44.42859727581041" lon="8.747317863520594"><ele>8.0</ele><time>2026-04-12T08:38:46Z</time></trkpt><trkpt lat="44.428610274353076" lon="8.747187595892926"><ele>7.999999999999999</ele><time>2026-04-12T08:38:47Z</time></trkpt><trkpt lat="44.42862837547411" lon="8.747089065806115"><ele>8.0</ele><time>2026-04-12T08:38:48Z</time></trkpt><trkpt lat="44.42862165828855" lon="8.746981330117002"><ele>8.0</ele><time>2026-04-12T08:38:49Z</time></trkpt><trkpt lat="44.4286306266852" lon="8.746885240574494"><ele>7.999999999999999</ele><time>2026-04-12T08:38:50Z</time></trkpt><trkpt lat="44.42863073707719" lon="8.746795347928794"><ele>8.0</ele><time>2026-04-12T08:38:51Z</time></trkpt><trkpt lat="44.428614641109384" lon="8.746698490493493"><ele>8.0</ele><time>2026-04-12T08:38:52Z</time></trkpt><trkpt lat="44.42862007623122" lon="8.74661053562392"><ele>8.0</ele><time>2026-04-12T08:38:53Z</time></trkpt><trkpt lat="44.42862023711192" lon="8.746511718763454"><ele>7.999999999999999</ele><time>2026-04-12T08:38:54Z</time></trkpt><trkpt lat="44.42860323454379" lon="8.746419501980517"><ele>8.0</ele><time>2026-04-12T08:38:58Z</time></trkpt><trkpt lat="44.4285662465007" lon="8.746333951681168"><ele>8.0</ele><time>2026-04-12T08:39:05Z</time></trkpt><trkpt lat="44.42852953486025" lon="8.74621961279146"><ele>7.999999999999999</ele><time>2026-04-12T08:39:07Z</time></trkpt><trkpt lat="44.42849967965904" lon="8.746141040800808"><ele>8.0</ele><time>2026-04-12T08:39:08Z</time></trkpt><trkpt lat="44.42846086008082" lon="8.746058838259193"><ele>8.0</ele><time>2026-04-12T08:39:09Z</time></trkpt><trkpt lat="44.42843226458594" lon="8.745971623297038"><ele>8.333333333333332</ele><time>2026-04-12T08:39:10Z</time></trkpt><trkpt lat="44.428401368296285" lon="8.745893513027736"><ele>8.666666666666666</ele><time>2026-04-12T08:39:11Z</time></trkpt><trkpt lat="44.42834052402343" lon="8.7457274236719"><ele>9.0</ele><time>2026-04-12T08:39:13Z</time></trkpt><trkpt lat="44.428300371885506" lon="8.7456306929654"><ele>9.333333333333334</ele><time>2026-04-12T08:39:14Z</time></trkpt><trkpt lat="44.428263645619204" lon="8.745533029689307"><ele>9.666666666666668</ele><time>2026-04-12T08:39:15Z</time></trkpt><trkpt lat="44.42822658572223" lon="8.745444068745217"><ele>10.0</ele><time>2026-04-12T08:39:16Z</time></trkpt><trkpt lat="44.42819547428869" lon="8.745343931776084"><ele>10.0</ele><time>2026-04-12T08:39:17Z</time></trkpt><trkpt lat="44.428148775586365" lon="8.74524396989277"><ele>10.0</ele><time>2026-04-12T08:39:18Z</time></trkpt><trkpt lat="44.42810396348466" lon="8.745131500002653"><ele>10.0</ele><time>2026-04-12T08:39:19Z</time></trkpt><trkpt lat="44.428060144504535" lon="8.745027931227744"><ele>10.0</ele><time>2026-04-12T08:39:20Z</time></trkpt><trkpt lat="44.428026823084075" lon="8.744917790381992"><ele>10.0</ele><time>2026-04-12T08:39:21Z</time></trkpt><trkpt lat="44.42798234807024" lon="8.744806081150381"><ele>10.0</ele><time>2026-04-12T08:39:22Z</time></trkpt><trkpt lat="44.427938761314536" lon="8.74469787733548"><ele>9.5</ele><time>2026-04-12T08:39:23Z</time></trkpt><trkpt lat="44.42790644593705" lon="8.744610707807787"><ele>9.0</ele><time>2026-04-12T08:39:24Z</time></trkpt><trkpt lat="44.42786190293798" lon="8.744531851772026"><ele>8.5</ele><time>2026-04-12T08:39:25Z</time></trkpt><trkpt lat="44.42783191610474" lon="8.744450678717063"><ele>8.0</ele><time>2026-04-12T08:39:26Z</time></trkpt><trkpt lat="44.4278022300256" lon="8.744364269810145"><ele>7.500000000000001</ele><time>2026-04-12T08:39:27Z</time></trkpt><trkpt lat="44.42774266678983" lon="8.74417961388983"><ele>7.0</ele><time>2026-04-12T08:39:29Z</time></trkpt><trkpt lat="44.42770487423631" lon="8.744082743866805"><ele>7.000000000000001</ele><time>2026-04-12T08:39:30Z</time></trkpt><trkpt lat="44.42766990323438" lon="8.743993106012883"><ele>7.0</ele><time>2026-04-12T08:39:31Z</time></trkpt><trkpt lat="44.42762589034882" lon="8.74388496624257"><ele>7.0</ele><time>2026-04-12T08:39:32Z</time></trkpt><trkpt lat="44.42757127485694" lon="8.743783786922034"><ele>7.0</ele><time>2026-04-12T08:39:33Z</time></trkpt><trkpt lat="44.42753037800957" lon="8.743683140446132"><ele>7.000000000000001</ele><time>2026-04-12T08:39:34Z</time></trkpt><trkpt lat="44.42750110173129" lon="8.743567561839173"><ele>7.0</ele><time>2026-04-12T08:39:35Z</time></trkpt><trkpt lat="44.42745794286492" lon="8.743458260926095"><ele>6.833333333333334</ele><time>2026-04-12T08:39:36Z</time></trkpt><trkpt lat="44.42742404782015" lon="8.743348909437685"><ele>6.666666666666667</ele><time>2026-04-12T08:39:37Z</time></trkpt><trkpt lat="44.42739414956285" lon="8.743227543862805"><ele>6.5</ele><time>2026-04-12T08:39:38Z</time></trkpt><trkpt lat="44.4273738749728" lon="8.74310795004976"><ele>6.333333333333334</ele><time>2026-04-12T08:39:39Z</time></trkpt><trkpt lat="44.427362252585226" lon="8.742991620008047"><ele>6.166666666666667</ele><time>2026-04-12T08:39:40Z</time></trkpt><trkpt lat="44.427353906117446" lon="8.742862309673262"><ele>6.0</ele><time>2026-04-12T08:39:41Z</time></trkpt><trkpt lat="44.42734264835191" lon="8.74273370079393"><ele>5.8</ele><time>2026-04-12T08:39:42Z</time></trkpt><trkpt lat="44.42732635737447" lon="8.742599491106157"><ele>5.6</ele><time>2026-04-12T08:39:43Z</time></trkpt><trkpt lat="44.42730984196862" lon="8.742456558325115"><ele>5.4</ele><time>2026-04-12T08:39:44Z</time></trkpt><trkpt lat="44.42729874487627" lon="8.742323178997449"><ele>5.2</ele><time>2026-04-12T08:39:45Z</time></trkpt><trkpt lat="44.42728109472477" lon="8.742197934574746"><ele>5.0</ele><time>2026-04-12T08:39:46Z</time></trkpt><trkpt lat="44.42726255975153" lon="8.742081012574893"><ele>5.0</ele><time>2026-04-12T08:39:47Z</time></trkpt><trkpt lat="44.4272453931514" lon="8.741979793277036"><ele>5.0</ele><time>2026-04-12T08:39:48Z</time></trkpt><trkpt lat="44.42722054483897" lon="8.741897765250746"><ele>5.0</ele><time>2026-04-12T08:39:49Z</time></trkpt><trkpt lat="44.42719372649804" lon="8.741817580250602"><ele>5.0</ele><time>2026-04-12T08:39:50Z</time></trkpt><trkpt lat="44.427129529813826" lon="8.741744377405217"><ele>5.0</ele><time>2026-04-12T08:39:51Z</time></trkpt><trkpt lat="44.42707196669797" lon="8.74166026361257"><ele>5.0</ele><time>2026-04-12T08:39:52Z</time></trkpt><trkpt lat="44.42701236106709" lon="8.741579390246933"><ele>4.833333333333334</ele><time>2026-04-12T08:39:53Z</time></trkpt><trkpt lat="44.42694711781801" lon="8.74150076664747"><ele>4.666666666666667</ele><time>2026-04-12T08:39:54Z</time></trkpt><trkpt lat="44.42687952895375" lon="8.741404094847052"><ele>4.5</ele><time>2026-04-12T08:39:55Z</time></trkpt><trkpt lat="44.426818328467014" lon="8.741320429806823"><ele>4.333333333333333</ele><time>2026-04-12T08:39:56Z</time></trkpt><trkpt lat="44.426754023085024" lon="8.741236702471651"><ele>4.166666666666666</ele><time>2026-04-12T08:39:57Z</time></trkpt><trkpt lat="44.4266824579224" lon="8.741155996484911"><ele>4.0</ele><time>2026-04-12T08:39:58Z</time></trkpt><trkpt lat="44.42660773719124" lon="8.741088208010892"><ele>6.666666666666666</ele><time>2026-04-12T08:39:59Z</time></trkpt><trkpt lat="44.426535919449606" lon="8.741016100134752"><ele>9.333333333333334</ele><time>2026-04-12T08:40:00Z</time></trkpt><trkpt lat="44.42647159128296" lon="8.740934623804161"><ele>12.0</ele><time>2026-04-12T08:40:01Z</time></trkpt><trkpt lat="44.426416459042066" lon="8.740849044774937"><ele>14.666666666666668</ele><time>2026-04-12T08:40:02Z</time></trkpt><trkpt lat="44.42636996289452" lon="8.740759477148723"><ele>17.333333333333336</ele><time>2026-04-12T08:40:03Z</time></trkpt><trkpt lat="44.42634352136807" lon="8.740662838647204"><ele>20.0</ele><time>2026-04-12T08:40:04Z</time></trkpt><trkpt lat="44.426327256555055" lon="8.740550347253576"><ele>18.666666666666668</ele><time>2026-04-12T08:40:05Z</time></trkpt><trkpt lat="44.426291220905654" lon="8.74044331163879"><ele>17.333333333333336</ele><time>2026-04-12T08:40:06Z</time></trkpt><trkpt lat="44.4262677771609" lon="8.74035814400297"><ele>16.0</ele><time>2026-04-12T08:40:07Z</time></trkpt><trkpt lat="44.4262114988949" lon="8.740286558728746"><ele>14.666666666666668</ele><time>2026-04-12T08:40:08Z</time></trkpt><trkpt lat="44.42615401601334" lon="8.740207206686653"><ele>13.333333333333334</ele><time>2026-04-12T08:40:09Z</time></trkpt><trkpt lat="44.4260899105756" lon="8.740123563047728"><ele>12.0</ele><time>2026-04-12T08:40:10Z</time></trkpt><trkpt lat="44.426017947821485" lon="8.740037574004738"><ele>12.0</ele><time>2026-04-12T08:40:11Z</time></trkpt><trkpt lat="44.425945897637106" lon="8.73994848726702"><ele>12.0</ele><time>2026-04-12T08:40:12Z</time></trkpt><trkpt lat="44.42587931184575" lon="8.739858212356609"><ele>12.0</ele><time>2026-04-12T08:40:13Z</time></trkpt><trkpt lat="44.4258181619861" lon="8.739761429714552"><ele>12.0</ele><time>2026-04-12T08:40:14Z</time></trkpt><trkpt lat="44.42576071256666" lon="8.739647908860462"><ele>12.0</ele><time>2026-04-12T08:40:15Z</time></trkpt><trkpt lat="44.425697548264736" lon="8.73953280332074"><ele>12.0</ele><time>2026-04-12T08:40:16Z</time></trkpt><trkpt lat="44.425642970263524" lon="8.739417106231715"><ele>12.0</ele><time>2026-04-12T08:40:17Z</time></trkpt><trkpt lat="44.425582360559844" lon="8.739309853274214"><ele>12.0</ele><time>2026-04-12T08:40:18Z</time></trkpt><trkpt lat="44.425515022148325" lon="8.73921249937457"><ele>12.0</ele><time>2026-04-12T08:40:19Z</time></trkpt><trkpt lat="44.42544885497645" lon="8.73911448991356"><ele>12.0</ele><time>2026-04-12T08:40:20Z</time></trkpt><trkpt lat="44.42537822995844" lon="8.739027980995056"><ele>11.8</ele><time>2026-04-12T08:40:21Z</time></trkpt><trkpt lat="44.425303853766025" lon="8.738933335479533"><ele>11.6</ele><time>2026-04-12T08:40:22Z</time></trkpt><trkpt lat="44.425218898463406" lon="8.738840352038965"><ele>11.4</ele><time>2026-04-12T08:40:23Z</time></trkpt><trkpt lat="44.4251331781463" lon="8.738749182731098"><ele>11.200000000000001</ele><time>2026-04-12T08:40:24Z</time></trkpt><trkpt lat="44.425056136012394" lon="8.738658412534228"><ele>11.0</ele><time>2026-04-12T08:40:25Z</time></trkpt><trkpt lat="44.42498331065143" lon="8.738556887474113"><ele>13.5</ele><time>2026-04-12T08:40:26Z</time></trkpt><trkpt lat="44.42491130406053" lon="8.738454832804535"><ele>16.0</ele><time>2026-04-12T08:40:27Z</time></trkpt><trkpt lat="44.424855603004765" lon="8.738356457957845"><ele>18.5</ele><time>2026-04-12T08:40:28Z</time></trkpt><trkpt lat="44.424797768551436" lon="8.738268910098332"><ele>21.0</ele><time>2026-04-12T08:40:29Z</time></trkpt><trkpt lat="44.42475339410488" lon="8.738172535715936"><ele>23.499999999999996</ele><time>2026-04-12T08:40:30Z</time></trkpt><trkpt lat="44.42471334634188" lon="8.7380662408221"><ele>26.0</ele><time>2026-04-12T08:40:31Z</time></trkpt><trkpt lat="44.424669036949076" lon="8.737953649403524"><ele>24.999999999999996</ele><time>2026-04-12T08:40:32Z</time></trkpt><trkpt lat="44.42459930069023" lon="8.737799528720005"><ele>24.0</ele><time>2026-04-12T08:40:34Z</time></trkpt><trkpt lat="44.42453777740446" lon="8.737737470441935"><ele>23.0</ele><time>2026-04-12T08:40:35Z</time></trkpt><trkpt lat="44.42447149692813" lon="8.737696858172288"><ele>22.0</ele><time>2026-04-12T08:40:36Z</time></trkpt><trkpt lat="44.42439474650102" lon="8.737675323830825"><ele>21.0</ele><time>2026-04-12T08:40:37Z</time></trkpt><trkpt lat="44.424310806157536" lon="8.737671985415176"><ele>20.0</ele><time>2026-04-12T08:40:38Z</time></trkpt><trkpt lat="44.424228300752574" lon="8.737682163485783"><ele>20.0</ele><time>2026-04-12T08:40:39Z</time></trkpt><trkpt lat="44.424138860439925" lon="8.737699626992102"><ele>20.0</ele><time>2026-04-12T08:40:40Z</time></trkpt><trkpt lat="44.42405293460382" lon="8.737722089878455"><ele>20.0</ele><time>2026-04-12T08:40:41Z</time></trkpt><trkpt lat="44.423976608363475" lon="8.73773866559716"><ele>20.0</ele><time>2026-04-12T08:40:42Z</time></trkpt><trkpt lat="44.42390463568616" lon="8.737722205072027"><ele>20.0</ele><time>2026-04-12T08:40:43Z</time></trkpt><trkpt lat="44.42384012028625" lon="8.73768590277505"><ele>20.0</ele><time>2026-04-12T08:40:44Z</time></trkpt><trkpt lat="44.42377952479137" lon="8.737625008426539"><ele>18.833333333333336</ele><time>2026-04-12T08:40:45Z</time></trkpt><trkpt lat="44.423721012843295" lon="8.737546949442763"><ele>17.666666666666668</ele><time>2026-04-12T08:40:46Z</time></trkpt><trkpt lat="44.42365909285071" lon="8.737470122515356"><ele>16.5</ele><time>2026-04-12T08:40:47Z</time></trkpt><trkpt lat="44.423596332995814" lon="8.737384998822499"><ele>15.333333333333332</ele><time>2026-04-12T08:40:48Z</time></trkpt><trkpt lat="44.42352855931413" lon="8.737299882942533"><ele>14.166666666666666</ele><time>2026-04-12T08:40:49Z</time></trkpt><trkpt lat="44.42346066495813" lon="8.737210677161594"><ele>13.0</ele><time>2026-04-12T08:40:50Z</time></trkpt><trkpt lat="44.423393157679754" lon="8.737125015689255"><ele>13.0</ele><time>2026-04-12T08:40:51Z</time></trkpt><trkpt lat="44.42332388127768" lon="8.737034853421191"><ele>13.0</ele><time>2026-04-12T08:40:52Z</time></trkpt><trkpt lat="44.423255657524614" lon="8.736945050009197"><ele>13.0</ele><time>2026-04-12T08:40:53Z</time></trkpt><trkpt lat="44.42318225954573" lon="8.736848985210289"><ele>13.0</ele><time>2026-04-12T08:40:54Z</time></trkpt><trkpt lat="44.423113210405724" lon="8.736753748538636"><ele>13.0</ele><time>2026-04-12T08:40:55Z</time></trkpt><trkpt lat="44.423048265389866" lon="8.736664256911949"><ele>12.999999999999998</ele><time>2026-04-12T08:40:56Z</time></trkpt><trkpt lat="44.422992616925214" lon="8.736575937445753"><ele>13.0</ele><time>2026-04-12T08:40:57Z</time></trkpt><trkpt lat="44.42295289832797" lon="8.73647779995489"><ele>13.0</ele><time>2026-04-12T08:40:58Z</time></trkpt><trkpt lat="44.422925975140494" lon="8.736367273161466"><ele>13.0</ele><time>2026-04-12T08:40:59Z</time></trkpt><trkpt lat="44.42290353588263" lon="8.736250568703348"><ele>12.999999999999998</ele><time>2026-04-12T08:41:00Z</time></trkpt><trkpt lat="44.42288064499587" lon="8.736148361734527"><ele>13.0</ele><time>2026-04-12T08:41:01Z</time></trkpt><trkpt lat="44.4228520155008" lon="8.736044373221471"><ele>13.0</ele><time>2026-04-12T08:41:02Z</time></trkpt><trkpt lat="44.42281172805068" lon="8.735945539386321"><ele>13.0</ele><time>2026-04-12T08:41:03Z</time></trkpt><trkpt lat="44.42275415975197" lon="8.735849433616576"><ele>13.0</ele><time>2026-04-12T08:41:04Z</time></trkpt><trkpt lat="44.42269286045125" lon="8.735749848889718"><ele>13.0</ele><time>2026-04-12T08:41:05Z</time></trkpt><trkpt lat="44.42262719633597" lon="8.73564886074187"><ele>13.0</ele><time>2026-04-12T08:41:06Z</time></trkpt><trkpt lat="44.422563203219674" lon="8.735540682896838"><ele>13.0</ele><time>2026-04-12T08:41:07Z</time></trkpt><trkpt lat="44.42249788025669" lon="8.735431568020088"><ele>13.0</ele><time>2026-04-12T08:41:08Z</time></trkpt><trkpt lat="44.42243271079709" lon="8.735329422834596"><ele>13.0</ele><time>2026-04-12T08:41:09Z</time></trkpt><trkpt lat="44.42236995845635" lon="8.735225388681242"><ele>13.0</ele><time>2026-04-12T08:41:10Z</time></trkpt><trkpt lat="44.42231715651921" lon="8.735121154809764"><ele>13.0</ele><time>2026-04-12T08:41:11Z</time></trkpt><trkpt lat="44.42227801169803" lon="8.735009390446905"><ele>15.0</ele><time>2026-04-12T08:41:12Z</time></trkpt><trkpt lat="44.422251434853166" lon="8.734896338119226"><ele>17.0</ele><time>2026-04-12T08:41:13Z</time></trkpt><trkpt lat="44.422244477126426" lon="8.734784924723767"><ele>19.0</ele><time>2026-04-12T08:41:14Z</time></trkpt><trkpt lat="44.422249044450474" lon="8.734674690666894"><ele>21.0</ele><time>2026-04-12T08:41:15Z</time></trkpt><trkpt lat="44.4222683902647" lon="8.73455925076929"><ele>23.000000000000004</ele><time>2026-04-12T08:41:16Z</time></trkpt><trkpt lat="44.42229149372932" lon="8.734436445808013"><ele>25.0</ele><time>2026-04-12T08:41:17Z</time></trkpt><trkpt lat="44.422315856461225" lon="8.734317153958063"><ele>27.333333333333336</ele><time>2026-04-12T08:41:18Z</time></trkpt><trkpt lat="44.42232829577349" lon="8.734201238476452"><ele>29.666666666666668</ele><time>2026-04-12T08:41:19Z</time></trkpt><trkpt lat="44.422326891929586" lon="8.734079432173024"><ele>32.0</ele><time>2026-04-12T08:41:20Z</time></trkpt><trkpt lat="44.42231418990135" lon="8.733965295405056"><ele>34.333333333333336</ele><time>2026-04-12T08:41:21Z</time></trkpt><trkpt lat="44.42229406326543" lon="8.73386061181379"><ele>36.666666666666664</ele><time>2026-04-12T08:41:22Z</time></trkpt><trkpt lat="44.42225756407424" lon="8.733759763539707"><ele>39.0</ele><time>2026-04-12T08:41:23Z</time></trkpt><trkpt lat="44.4222083709899" lon="8.73365832010931"><ele>42.4</ele><time>2026-04-12T08:41:24Z</time></trkpt><trkpt lat="44.42215052722111" lon="8.73355282227013"><ele>45.8</ele><time>2026-04-12T08:41:25Z</time></trkpt><trkpt lat="44.42209302378801" lon="8.733443146012679"><ele>49.199999999999996</ele><time>2026-04-12T08:41:26Z</time></trkpt><trkpt lat="44.42204387858239" lon="8.733340880955865"><ele>52.599999999999994</ele><time>2026-04-12T08:41:27Z</time></trkpt><trkpt lat="44.42198635558745" lon="8.733233838563253"><ele>56.0</ele><time>2026-04-12T08:41:28Z</time></trkpt><trkpt lat="44.42194210908136" lon="8.733133948499752"><ele>48.50000000000001</ele><time>2026-04-12T08:41:29Z</time></trkpt><trkpt lat="44.4219053857248" lon="8.733029019698641"><ele>41.0</ele><time>2026-04-12T08:41:30Z</time></trkpt><trkpt lat="44.421882466139614" lon="8.732910707322771"><ele>33.5</ele><time>2026-04-12T08:41:31Z</time></trkpt><trkpt lat="44.421870235151786" lon="8.73278798002639"><ele>26.0</ele><time>2026-04-12T08:41:32Z</time></trkpt><trkpt lat="44.42186804305376" lon="8.732661335039795"><ele>18.5</ele><time>2026-04-12T08:41:33Z</time></trkpt><trkpt lat="44.42188164770792" lon="8.732536768765529"><ele>11.0</ele><time>2026-04-12T08:41:34Z</time></trkpt><trkpt lat="44.42188949542824" lon="8.732425647833072"><ele>11.0</ele><time>2026-04-12T08:41:35Z</time></trkpt><trkpt lat="44.42188624892115" lon="8.732304075538048"><ele>11.0</ele><time>2026-04-12T08:41:36Z</time></trkpt><trkpt lat="44.42187534915479" lon="8.73218176623149"><ele>11.0</ele><time>2026-04-12T08:41:37Z</time></trkpt><trkpt lat="44.421855575242304" lon="8.73207197665763"><ele>11.0</ele><time>2026-04-12T08:41:38Z</time></trkpt><trkpt lat="44.42182326695935" lon="8.73196202021551"><ele>11.0</ele><time>2026-04-12T08:41:39Z</time></trkpt><trkpt lat="44.421780277160835" lon="8.731859146411827"><ele>11.0</ele><time>2026-04-12T08:41:40Z</time></trkpt><trkpt lat="44.42172992090826" lon="8.731754235182912"><ele>11.833333333333332</ele><time>2026-04-12T08:41:41Z</time></trkpt><trkpt lat="44.421676575526924" lon="8.731644841980415"><ele>12.666666666666666</ele><time>2026-04-12T08:41:42Z</time></trkpt><trkpt lat="44.42162677437798" lon="8.731538779928"><ele>13.5</ele><time>2026-04-12T08:41:43Z</time></trkpt><trkpt lat="44.42158729002382" lon="8.731432014191975"><ele>14.333333333333332</ele><time>2026-04-12T08:41:44Z</time></trkpt><trkpt lat="44.421564252190784" lon="8.731317039083336"><ele>15.166666666666666</ele><time>2026-04-12T08:41:45Z</time></trkpt><trkpt lat="44.421553685338466" lon="8.731195897594423"><ele>16.0</ele><time>2026-04-12T08:41:46Z</time></trkpt><trkpt lat="44.421549292778785" lon="8.73106719559935"><ele>17.833333333333332</ele><time>2026-04-12T08:41:47Z</time></trkpt><trkpt lat="44.421548067534104" lon="8.730947927688277"><ele>19.666666666666664</ele><time>2026-04-12T08:41:48Z</time></trkpt><trkpt lat="44.42153834139724" lon="8.730831593860692"><ele>21.5</ele><time>2026-04-12T08:41:49Z</time></trkpt><trkpt lat="44.421521823093386" lon="8.730711723677123"><ele>23.333333333333332</ele><time>2026-04-12T08:41:50Z</time></trkpt><trkpt lat="44.42149149391947" lon="8.730600602945898"><ele>25.166666666666668</ele><time>2026-04-12T08:41:51Z</time></trkpt><trkpt lat="44.42145437921631" lon="8.730491972336788"><ele>27.0</ele><time>2026-04-12T08:41:52Z</time></trkpt><trkpt lat="44.42140595798955" lon="8.730390792093527"><ele>27.0</ele><time>2026-04-12T08:41:53Z</time></trkpt><trkpt lat="44.42134421352787" lon="8.730298135629761"><ele>27.000000000000004</ele><time>2026-04-12T08:41:54Z</time></trkpt><trkpt lat="44.42127501260123" lon="8.730199303619077"><ele>27.000000000000004</ele><time>2026-04-12T08:41:55Z</time></trkpt><trkpt lat="44.421201751335836" lon="8.730099816660593"><ele>27.0</ele><time>2026-04-12T08:41:56Z</time></trkpt><trkpt lat="44.421126718881254" lon="8.729991409911223"><ele>27.0</ele><time>2026-04-12T08:41:57Z</time></trkpt><trkpt lat="44.42104994893668" lon="8.729880995386225"><ele>22.75</ele><time>2026-04-12T08:41:58Z</time></trkpt><trkpt lat="44.420971463465776" lon="8.729763029473606"><ele>18.5</ele><time>2026-04-12T08:41:59Z</time></trkpt><trkpt lat="44.420889420360936" lon="8.729646014027697"><ele>14.25</ele><time>2026-04-12T08:42:00Z</time></trkpt><trkpt lat="44.420808653478076" lon="8.729526006781539"><ele>10.0</ele><time>2026-04-12T08:42:01Z</time></trkpt><trkpt lat="44.420734721313856" lon="8.729412916895592"><ele>9.4</ele><time>2026-04-12T08:42:02Z</time></trkpt><trkpt lat="44.4206479028427" lon="8.729304193138777"><ele>8.8</ele><time>2026-04-12T08:42:03Z</time></trkpt><trkpt lat="44.420569203482785" lon="8.729193873454891"><ele>8.2</ele><time>2026-04-12T08:42:04Z</time></trkpt><trkpt lat="44.420495702492246" lon="8.729084770168505"><ele>7.6</ele><time>2026-04-12T08:42:05Z</time></trkpt><trkpt lat="44.42042127969833" lon="8.728973481619915"><ele>7.0</ele><time>2026-04-12T08:42:06Z</time></trkpt><trkpt lat="44.4203345237553" lon="8.728863765864249"><ele>7.0</ele><time>2026-04-12T08:42:07Z</time></trkpt><trkpt lat="44.42024577410171" lon="8.72875337683973"><ele>7.0</ele><time>2026-04-12T08:42:08Z</time></trkpt><trkpt lat="44.420152275204096" lon="8.728640877164416"><ele>7.0</ele><time>2026-04-12T08:42:09Z</time></trkpt><trkpt lat="44.42006022505478" lon="8.728542864026293"><ele>7.0</ele><time>2026-04-12T08:42:10Z</time></trkpt><trkpt lat="44.419962038110434" lon="8.728440215592308"><ele>6.0</ele><time>2026-04-12T08:42:11Z</time></trkpt><trkpt lat="44.41985960171914" lon="8.728338331910631"><ele>5.0</ele><time>2026-04-12T08:42:12Z</time></trkpt><trkpt lat="44.41976218516904" lon="8.728242911253288"><ele>4.0</ele><time>2026-04-12T08:42:13Z</time></trkpt><trkpt lat="44.419654296369224" lon="8.728137042580615"><ele>3.0</ele><time>2026-04-12T08:42:14Z</time></trkpt><trkpt lat="44.41955221251275" lon="8.72801963863299"><ele>3.0</ele><time>2026-04-12T08:42:15Z</time></trkpt><trkpt lat="44.4194415074273" lon="8.727909573135758"><ele>3.0</ele><time>2026-04-12T08:42:16Z</time></trkpt><trkpt lat="44.419340887016695" lon="8.727803710617556"><ele>3.0</ele><time>2026-04-12T08:42:17Z</time></trkpt><trkpt lat="44.41923680310788" lon="8.727703025136169"><ele>3.0</ele><time>2026-04-12T08:42:18Z</time></trkpt><trkpt lat="44.419134563205446" lon="8.727602005526116"><ele>3.25</ele><time>2026-04-12T08:42:19Z</time></trkpt><trkpt lat="44.41903180899399" lon="8.727500269245239"><ele>3.5</ele><time>2026-04-12T08:42:20Z</time></trkpt><trkpt lat="44.41893321757814" lon="8.727400557889577"><ele>3.75</ele><time>2026-04-12T08:42:21Z</time></trkpt><trkpt lat="44.418840567037826" lon="8.727302186905561"><ele>4.0</ele><time>2026-04-12T08:42:22Z</time></trkpt><trkpt lat="44.418742965525425" lon="8.727203415152625"><ele>4.0</ele><time>2026-04-12T08:42:23Z</time></trkpt><trkpt lat="44.41864670135808" lon="8.727104674112228"><ele>4.0</ele><time>2026-04-12T08:42:24Z</time></trkpt><trkpt lat="44.41855372882952" lon="8.727000063973454"><ele>4.0</ele><time>2026-04-12T08:42:25Z</time></trkpt><trkpt lat="44.418466779281154" lon="8.726894356936949"><ele>4.0</ele><time>2026-04-12T08:42:26Z</time></trkpt><trkpt lat="44.418382731661566" lon="8.72678843109993"><ele>8.2</ele><time>2026-04-12T08:42:27Z</time></trkpt><trkpt lat="44.41830488379391" lon="8.726674198695804"><ele>12.4</ele><time>2026-04-12T08:42:28Z</time></trkpt><trkpt lat="44.41822596537537" lon="8.726557331334192"><ele>16.6</ele><time>2026-04-12T08:42:29Z</time></trkpt><trkpt lat="44.418149714882254" lon="8.726440559017737"><ele>20.8</ele><time>2026-04-12T08:42:30Z</time></trkpt><trkpt lat="44.41807719925575" lon="8.726328757168124"><ele>25.0</ele><time>2026-04-12T08:42:31Z</time></trkpt><trkpt lat="44.41800082640446" lon="8.726215884311395"><ele>23.25</ele><time>2026-04-12T08:42:32Z</time></trkpt><trkpt lat="44.41792180565254" lon="8.726099285284569"><ele>21.5</ele><time>2026-04-12T08:42:33Z</time></trkpt><trkpt lat="44.417841641090035" lon="8.72597334202794"><ele>19.75</ele><time>2026-04-12T08:42:34.016Z</time></trkpt><trkpt lat="44.41776383516378" lon="8.725844873154077"><ele>18.0</ele><time>2026-04-12T08:42:35.02Z</time></trkpt><trkpt lat="44.417689800524144" lon="8.725712854157416"><ele>18.0</ele><time>2026-04-12T08:42:36.017Z</time></trkpt><trkpt lat="44.417619254649004" lon="8.7255733113527"><ele>18.0</ele><time>2026-04-12T08:42:37.021Z</time></trkpt><trkpt lat="44.4175508525833" lon="8.725430147165598"><ele>18.0</ele><time>2026-04-12T08:42:38.018Z</time></trkpt><trkpt lat="44.41748484295409" lon="8.7252968692532"><ele>18.0</ele><time>2026-04-12T08:42:39.019Z</time></trkpt><trkpt lat="44.417252359084266" lon="8.724674328267998"><ele>15.0</ele><time>2026-04-12T08:42:43.264Z</time></trkpt><trkpt lat="44.41720791458986" lon="8.724520693748683"><ele>12.0</ele><time>2026-04-12T08:42:44.264Z</time></trkpt><trkpt lat="44.41714452560066" lon="8.72427471251286"><ele>9.0</ele><time>2026-04-12T08:42:46Z</time></trkpt><trkpt lat="44.41711063128443" lon="8.724120457455047"><ele>6.0</ele><time>2026-04-12T08:42:47Z</time></trkpt><trkpt lat="44.41707865882363" lon="8.723949438326583"><ele>6.0</ele><time>2026-04-12T08:42:48Z</time></trkpt><trkpt lat="44.417054630298566" lon="8.723808665738439"><ele>6.0</ele><time>2026-04-12T08:42:49Z</time></trkpt><trkpt lat="44.41702605460216" lon="8.723647574784376"><ele>6.0</ele><time>2026-04-12T08:42:50Z</time></trkpt><trkpt lat="44.41699226230091" lon="8.723493715861148"><ele>6.0</ele><time>2026-04-12T08:42:51Z</time></trkpt><trkpt lat="44.4169673815373" lon="8.72333493985829"><ele>7.0</ele><time>2026-04-12T08:42:52Z</time></trkpt><trkpt lat="44.41693843630071" lon="8.723181437004923"><ele>8.0</ele><time>2026-04-12T08:42:53Z</time></trkpt><trkpt lat="44.41691161488057" lon="8.723023973692662"><ele>9.0</ele><time>2026-04-12T08:42:54Z</time></trkpt><trkpt lat="44.41688210165262" lon="8.722862044707224"><ele>10.0</ele><time>2026-04-12T08:42:55Z</time></trkpt><trkpt lat="44.41685329964179" lon="8.722702168488823"><ele>11.25</ele><time>2026-04-12T08:42:56Z</time></trkpt><trkpt lat="44.416824191888885" lon="8.722540057998541"><ele>12.5</ele><time>2026-04-12T08:42:57Z</time></trkpt><trkpt lat="44.41679340798318" lon="8.722375353843875"><ele>13.75</ele><time>2026-04-12T08:42:58Z</time></trkpt><trkpt lat="44.41676271847865" lon="8.722210750152266"><ele>15.0</ele><time>2026-04-12T08:42:59Z</time></trkpt><trkpt lat="44.41673290387219" lon="8.722053450023768"><ele>15.25</ele><time>2026-04-12T08:43:00Z</time></trkpt><trkpt lat="44.41670498930054" lon="8.72189441152312"><ele>15.5</ele><time>2026-04-12T08:43:01Z</time></trkpt><trkpt lat="44.41667854514924" lon="8.721737272681583"><ele>15.75</ele><time>2026-04-12T08:43:02Z</time></trkpt><trkpt lat="44.4166490449368" lon="8.721575707264096"><ele>16.0</ele><time>2026-04-12T08:43:03Z</time></trkpt><trkpt lat="44.416620266985575" lon="8.72141134161872"><ele>16.0</ele><time>2026-04-12T08:43:04Z</time></trkpt><trkpt lat="44.41659293054107" lon="8.721243680999775"><ele>16.0</ele><time>2026-04-12T08:43:05Z</time></trkpt><trkpt lat="44.416570987148184" lon="8.721084646899321"><ele>16.0</ele><time>2026-04-12T08:43:06Z</time></trkpt><trkpt lat="44.416551331769654" lon="8.720920297052828"><ele>16.0</ele><time>2026-04-12T08:43:07Z</time></trkpt><trkpt lat="44.4165352828361" lon="8.720752756335369"><ele>18.75</ele><time>2026-04-12T08:43:08Z</time></trkpt><trkpt lat="44.41652330106922" lon="8.720582494113945"><ele>21.5</ele><time>2026-04-12T08:43:09Z</time></trkpt><trkpt lat="44.41651553508739" lon="8.720412412219677"><ele>24.25</ele><time>2026-04-12T08:43:10Z</time></trkpt><trkpt lat="44.41650984101256" lon="8.720246119328245"><ele>27.0</ele><time>2026-04-12T08:43:11Z</time></trkpt><trkpt lat="44.416502353410245" lon="8.72007633765325"><ele>27.25</ele><time>2026-04-12T08:43:12Z</time></trkpt><trkpt lat="44.4164929019752" lon="8.71990675051136"><ele>27.5</ele><time>2026-04-12T08:43:13Z</time></trkpt><trkpt lat="44.41648521494208" lon="8.719731533386922"><ele>27.75</ele><time>2026-04-12T08:43:14Z</time></trkpt><trkpt lat="44.41647854072606" lon="8.719553435407"><ele>28.0</ele><time>2026-04-12T08:43:15Z</time></trkpt><trkpt lat="44.41646940079403" lon="8.71937277928685"><ele>29.25</ele><time>2026-04-12T08:43:16Z</time></trkpt><trkpt lat="44.41646065755357" lon="8.719189530616783"><ele>30.5</ele><time>2026-04-12T08:43:17Z</time></trkpt><trkpt lat="44.41645054546127" lon="8.719009817354276"><ele>31.75</ele><time>2026-04-12T08:43:18Z</time></trkpt><trkpt lat="44.416438643149164" lon="8.718835112116437"><ele>33.0</ele><time>2026-04-12T08:43:19Z</time></trkpt><trkpt lat="44.41642843436255" lon="8.718660408952585"><ele>35.5</ele><time>2026-04-12T08:43:20Z</time></trkpt><trkpt lat="44.416418369331936" lon="8.718478332733026"><ele>38.0</ele><time>2026-04-12T08:43:21Z</time></trkpt><trkpt lat="44.41641003186335" lon="8.718285451415598"><ele>40.5</ele><time>2026-04-12T08:43:22Z</time></trkpt><trkpt lat="44.416397859480085" lon="8.718079131997028"><ele>43.0</ele><time>2026-04-12T08:43:23.014Z</time></trkpt><trkpt lat="44.4163886508027" lon="8.717880973089436"><ele>43.75</ele><time>2026-04-12T08:43:24.018Z</time></trkpt><trkpt lat="44.41638469800855" lon="8.717701994753535"><ele>44.5</ele><time>2026-04-12T08:43:25.02Z</time></trkpt><trkpt lat="44.41637874895464" lon="8.717529372540872"><ele>45.25</ele><time>2026-04-12T08:43:26.017Z</time></trkpt><trkpt lat="44.41637481433641" lon="8.717364275753496"><ele>46.0</ele><time>2026-04-12T08:43:27.023Z</time></trkpt><trkpt lat="44.41636355597937" lon="8.717164462440383"><ele>46.0</ele><time>2026-04-12T08:43:28Z</time></trkpt><trkpt lat="44.41635610055187" lon="8.716995151529686"><ele>46.0</ele><time>2026-04-12T08:43:29Z</time></trkpt><trkpt lat="44.416335323358375" lon="8.716806374412675"><ele>46.0</ele><time>2026-04-12T08:43:30Z</time></trkpt><trkpt lat="44.416329707480784" lon="8.716626582555392"><ele>46.0</ele><time>2026-04-12T08:43:31Z</time></trkpt><trkpt lat="44.41632500678447" lon="8.71646723675806"><ele>37.599999999999994</ele><time>2026-04-12T08:43:32Z</time></trkpt><trkpt lat="44.41631270590148" lon="8.71633218607208"><ele>29.2</ele><time>2026-04-12T08:43:33Z</time></trkpt><trkpt lat="44.41630348525672" lon="8.716174798778795"><ele>20.799999999999997</ele><time>2026-04-12T08:43:34Z</time></trkpt><trkpt lat="44.41629751249289" lon="8.716020520088357"><ele>12.399999999999999</ele><time>2026-04-12T08:43:35Z</time></trkpt><trkpt lat="44.416291413860954" lon="8.71587131461297"><ele>4.0</ele><time>2026-04-12T08:43:36Z</time></trkpt><trkpt lat="44.41628187284213" lon="8.71572178450719"><ele>3.8000000000000003</ele><time>2026-04-12T08:43:37Z</time></trkpt><trkpt lat="44.416271836451706" lon="8.715572012824149"><ele>3.6000000000000005</ele><time>2026-04-12T08:43:38Z</time></trkpt><trkpt lat="44.41625695516938" lon="8.71541459737091"><ele>3.4</ele><time>2026-04-12T08:43:39Z</time></trkpt><trkpt lat="44.41624321437451" lon="8.715255920744285"><ele>3.2</ele><time>2026-04-12T08:43:40Z</time></trkpt><trkpt lat="44.41622856905159" lon="8.715097165955138"><ele>3.0</ele><time>2026-04-12T08:43:41Z</time></trkpt><trkpt lat="44.4162093770553" lon="8.714933978134146"><ele>3.0</ele><time>2026-04-12T08:43:42Z</time></trkpt><trkpt lat="44.41618956258011" lon="8.714784827911956"><ele>3.0</ele><time>2026-04-12T08:43:43Z</time></trkpt><trkpt lat="44.416167431244425" lon="8.714626026070954"><ele>3.0</ele><time>2026-04-12T08:43:44Z</time></trkpt><trkpt lat="44.41614069530245" lon="8.714469882676976"><ele>3.0</ele><time>2026-04-12T08:43:45Z</time></trkpt><trkpt lat="44.41611141488204" lon="8.714310388679783"><ele>3.25</ele><time>2026-04-12T08:43:46Z</time></trkpt><trkpt lat="44.41608073212107" lon="8.714149031257664"><ele>3.5</ele><time>2026-04-12T08:43:47Z</time></trkpt><trkpt lat="44.416045990477336" lon="8.713988961248518"><ele>3.75</ele><time>2026-04-12T08:43:48Z</time></trkpt><trkpt lat="44.41600903494038" lon="8.713828445792714"><ele>4.0</ele><time>2026-04-12T08:43:49Z</time></trkpt><trkpt lat="44.415971120893346" lon="8.713669950791765"><ele>4.25</ele><time>2026-04-12T08:43:50Z</time></trkpt><trkpt lat="44.41592900065302" lon="8.713508327667295"><ele>4.5</ele><time>2026-04-12T08:43:51Z</time></trkpt><trkpt lat="44.41588807987073" lon="8.713344658672122"><ele>4.75</ele><time>2026-04-12T08:43:52Z</time></trkpt><trkpt lat="44.41584410133485" lon="8.713183817441644"><ele>5.0</ele><time>2026-04-12T08:43:53Z</time></trkpt><trkpt lat="44.41579734666523" lon="8.713025400493565"><ele>5.0</ele><time>2026-04-12T08:43:54Z</time></trkpt><trkpt lat="44.41574962848293" lon="8.712865361925228"><ele>5.0</ele><time>2026-04-12T08:43:55Z</time></trkpt><trkpt lat="44.41570088219634" lon="8.712711006563445"><ele>5.0</ele><time>2026-04-12T08:43:56Z</time></trkpt><trkpt lat="44.41565190958255" lon="8.712566765046779"><ele>5.0</ele><time>2026-04-12T08:43:57Z</time></trkpt><trkpt lat="44.41559768739431" lon="8.712424626829579"><ele>4.75</ele><time>2026-04-12T08:43:58Z</time></trkpt><trkpt lat="44.41553971374938" lon="8.712279556694778"><ele>4.5</ele><time>2026-04-12T08:43:59Z</time></trkpt><trkpt lat="44.415481315927536" lon="8.712136445764415"><ele>4.25</ele><time>2026-04-12T08:44:00Z</time></trkpt><trkpt lat="44.41542533445102" lon="8.71199450531541"><ele>4.0</ele><time>2026-04-12T08:44:01Z</time></trkpt><trkpt lat="44.41537239834184" lon="8.711857525067545"><ele>4.0</ele><time>2026-04-12T08:44:02Z</time></trkpt><trkpt lat="44.41532224327447" lon="8.711729734506278"><ele>4.0</ele><time>2026-04-12T08:44:03Z</time></trkpt><trkpt lat="44.41527239638273" lon="8.711599056724914"><ele>4.0</ele><time>2026-04-12T08:44:04Z</time></trkpt><trkpt lat="44.415230157988084" lon="8.71146908141642"><ele>4.0</ele><time>2026-04-12T08:44:05Z</time></trkpt><trkpt lat="44.415192048109894" lon="8.71132472687488"><ele>4.0</ele><time>2026-04-12T08:44:06Z</time></trkpt><trkpt lat="44.41515771396064" lon="8.711180929190611"><ele>5.6</ele><time>2026-04-12T08:44:07Z</time></trkpt><trkpt lat="44.415132121194056" lon="8.711035832914673"><ele>7.2</ele><time>2026-04-12T08:44:08Z</time></trkpt><trkpt lat="44.41510706305792" lon="8.710872785939419"><ele>8.799999999999999</ele><time>2026-04-12T08:44:09Z</time></trkpt><trkpt lat="44.41513948855542" lon="8.710741995265707"><ele>10.4</ele><time>2026-04-12T08:44:10Z</time></trkpt><trkpt lat="44.41509580634121" lon="8.710594420583394"><ele>12.0</ele><time>2026-04-12T08:44:11Z</time></trkpt><trkpt lat="44.41507080993292" lon="8.710446854593977"><ele>12.0</ele><time>2026-04-12T08:44:12Z</time></trkpt><trkpt lat="44.41504047207966" lon="8.710314992908815"><ele>12.0</ele><time>2026-04-12T08:44:13Z</time></trkpt><trkpt lat="44.41500079867465" lon="8.710180737377478"><ele>12.0</ele><time>2026-04-12T08:44:14Z</time></trkpt><trkpt lat="44.414950687186305" lon="8.710046268394962"><ele>12.0</ele><time>2026-04-12T08:44:15Z</time></trkpt><trkpt lat="44.41489520909681" lon="8.709928126930636"><ele>12.0</ele><time>2026-04-12T08:44:16Z</time></trkpt><trkpt lat="44.41483080218286" lon="8.709809719267371"><ele>11.75</ele><time>2026-04-12T08:44:17Z</time></trkpt><trkpt lat="44.41475631282494" lon="8.709690422418499"><ele>11.5</ele><time>2026-04-12T08:44:18Z</time></trkpt><trkpt lat="44.414674575916244" lon="8.709579765188389"><ele>11.25</ele><time>2026-04-12T08:44:19Z</time></trkpt><trkpt lat="44.41459078250731" lon="8.709475991452146"><ele>11.0</ele><time>2026-04-12T08:44:20Z</time></trkpt><trkpt lat="44.41450711051724" lon="8.709367768891251"><ele>11.0</ele><time>2026-04-12T08:44:21Z</time></trkpt><trkpt lat="44.41442768296656" lon="8.709262025157127"><ele>11.0</ele><time>2026-04-12T08:44:22Z</time></trkpt><trkpt lat="44.41435874638529" lon="8.709155104487598"><ele>11.0</ele><time>2026-04-12T08:44:23Z</time></trkpt><trkpt lat="44.414298555623496" lon="8.709043980437485"><ele>11.0</ele><time>2026-04-12T08:44:24Z</time></trkpt><trkpt lat="44.41425332872859" lon="8.708930584544582"><ele>11.0</ele><time>2026-04-12T08:44:25Z</time></trkpt><trkpt lat="44.41422091298904" lon="8.708811667654201"><ele>11.0</ele><time>2026-04-12T08:44:26Z</time></trkpt><trkpt lat="44.414199186005106" lon="8.70868100230594"><ele>11.0</ele><time>2026-04-12T08:44:27Z</time></trkpt><trkpt lat="44.414185712488155" lon="8.708548159087346"><ele>11.0</ele><time>2026-04-12T08:44:28Z</time></trkpt><trkpt lat="44.41418147427675" lon="8.708432905907172"><ele>11.0</ele><time>2026-04-12T08:44:29Z</time></trkpt><trkpt lat="44.41418831537695" lon="8.708319179180208"><ele>11.0</ele><time>2026-04-12T08:44:30Z</time></trkpt><trkpt lat="44.41420510878487" lon="8.708202108476835"><ele>11.0</ele><time>2026-04-12T08:44:31Z</time></trkpt><trkpt lat="44.41423132415107" lon="8.708082015835245"><ele>11.600000000000001</ele><time>2026-04-12T08:44:32Z</time></trkpt><trkpt lat="44.414263673786245" lon="8.707974221930485"><ele>12.2</ele><time>2026-04-12T08:44:33Z</time></trkpt><trkpt lat="44.41430709773101" lon="8.70786660356973"><ele>12.799999999999999</ele><time>2026-04-12T08:44:34Z</time></trkpt><trkpt lat="44.41435454722717" lon="8.707761381553508"><ele>13.399999999999999</ele><time>2026-04-12T08:44:35Z</time></trkpt><trkpt lat="44.41440846416746" lon="8.707652927325801"><ele>14.0</ele><time>2026-04-12T08:44:36Z</time></trkpt><trkpt lat="44.414466146164465" lon="8.707536891231033"><ele>14.0</ele><time>2026-04-12T08:44:37Z</time></trkpt><trkpt lat="44.414524561855366" lon="8.707418981968276"><ele>13.999999999999998</ele><time>2026-04-12T08:44:38Z</time></trkpt><trkpt lat="44.41457846962397" lon="8.70730820354633"><ele>13.999999999999998</ele><time>2026-04-12T08:44:39Z</time></trkpt><trkpt lat="44.41463128923685" lon="8.70719443523031"><ele>14.0</ele><time>2026-04-12T08:44:40Z</time></trkpt><trkpt lat="44.41467404867739" lon="8.707084408012015"><ele>14.0</ele><time>2026-04-12T08:44:41Z</time></trkpt><trkpt lat="44.41471277470051" lon="8.706969355974682"><ele>18.799999999999997</ele><time>2026-04-12T08:44:42Z</time></trkpt><trkpt lat="44.41473902499303" lon="8.706850014709739"><ele>23.599999999999998</ele><time>2026-04-12T08:44:43Z</time></trkpt><trkpt lat="44.414759691627395" lon="8.706724065497152"><ele>28.4</ele><time>2026-04-12T08:44:44Z</time></trkpt><trkpt lat="44.41477391704351" lon="8.70658790472074"><ele>33.199999999999996</ele><time>2026-04-12T08:44:45Z</time></trkpt><trkpt lat="44.414789790131245" lon="8.706440654615081"><ele>38.0</ele><time>2026-04-12T08:44:46Z</time></trkpt><trkpt lat="44.41480367669209" lon="8.706294663727503"><ele>38.0</ele><time>2026-04-12T08:44:47Z</time></trkpt><trkpt lat="44.41481443790785" lon="8.706141048908039"><ele>38.0</ele><time>2026-04-12T08:44:48Z</time></trkpt><trkpt lat="44.414821236890546" lon="8.705996683952577"><ele>38.0</ele><time>2026-04-12T08:44:49Z</time></trkpt><trkpt lat="44.41481865672769" lon="8.705856977605196"><ele>38.0</ele><time>2026-04-12T08:44:50Z</time></trkpt><trkpt lat="44.414805233153956" lon="8.705707278613556"><ele>38.0</ele><time>2026-04-12T08:44:51Z</time></trkpt><trkpt lat="44.414786539389716" lon="8.705563423588533"><ele>37.6</ele><time>2026-04-12T08:44:52Z</time></trkpt><trkpt lat="44.41476028472074" lon="8.705417962373225"><ele>37.199999999999996</ele><time>2026-04-12T08:44:53Z</time></trkpt><trkpt lat="44.41472754271854" lon="8.705283541621197"><ele>36.8</ele><time>2026-04-12T08:44:54Z</time></trkpt><trkpt lat="44.414689891992666" lon="8.705153057726736"><ele>36.4</ele><time>2026-04-12T08:44:55Z</time></trkpt><trkpt lat="44.414646919460345" lon="8.70503163593427"><ele>36.0</ele><time>2026-04-12T08:44:56Z</time></trkpt><trkpt lat="44.41459353410496" lon="8.70490923836266"><ele>32.2</ele><time>2026-04-12T08:44:57Z</time></trkpt><trkpt lat="44.414529467500664" lon="8.704793921303214"><ele>28.400000000000002</ele><time>2026-04-12T08:44:58Z</time></trkpt><trkpt lat="44.414466263114306" lon="8.704674714836605"><ele>24.6</ele><time>2026-04-12T08:44:59Z</time></trkpt><trkpt lat="44.414400090435116" lon="8.704561495460375"><ele>20.8</ele><time>2026-04-12T08:45:00Z</time></trkpt><trkpt lat="44.414335189479615" lon="8.704456330212283"><ele>17.0</ele><time>2026-04-12T08:45:01Z</time></trkpt><trkpt lat="44.414267174710346" lon="8.704347287712784"><ele>17.0</ele><time>2026-04-12T08:45:02Z</time></trkpt><trkpt lat="44.41419632487196" lon="8.704244798361705"><ele>17.0</ele><time>2026-04-12T08:45:03Z</time></trkpt><trkpt lat="44.41412778420098" lon="8.704156231554846"><ele>17.0</ele><time>2026-04-12T08:45:04Z</time></trkpt><trkpt lat="44.41405958774747" lon="8.704077666703506"><ele>17.0</ele><time>2026-04-12T08:45:05Z</time></trkpt><trkpt lat="44.4139876486071" lon="8.704006871092595"><ele>17.0</ele><time>2026-04-12T08:45:06Z</time></trkpt><trkpt lat="44.4139135422113" lon="8.703946406678035"><ele>17.0</ele><time>2026-04-12T08:45:07Z</time></trkpt><trkpt lat="44.41383539262775" lon="8.703891071268645"><ele>17.0</ele><time>2026-04-12T08:45:08Z</time></trkpt><trkpt lat="44.413752178995374" lon="8.703846483377761"><ele>17.0</ele><time>2026-04-12T08:45:09Z</time></trkpt><trkpt lat="44.41367268928287" lon="8.703815014865723"><ele>17.0</ele><time>2026-04-12T08:45:10Z</time></trkpt><trkpt lat="44.413587027027795" lon="8.703793760627958"><ele>17.0</ele><time>2026-04-12T08:45:11Z</time></trkpt><trkpt lat="44.413499561831095" lon="8.70378442938843"><ele>17.0</ele><time>2026-04-12T08:45:12Z</time></trkpt><trkpt lat="44.413404923145166" lon="8.703777370548748"><ele>15.2</ele><time>2026-04-12T08:45:13Z</time></trkpt><trkpt lat="44.41330820853049" lon="8.703769509495592"><ele>13.399999999999999</ele><time>2026-04-12T08:45:14Z</time></trkpt><trkpt lat="44.41320665174624" lon="8.703764879158092"><ele>11.600000000000001</ele><time>2026-04-12T08:45:15Z</time></trkpt><trkpt lat="44.4131046671049" lon="8.703759409424746"><ele>9.8</ele><time>2026-04-12T08:45:16Z</time></trkpt><trkpt lat="44.41300398878705" lon="8.703748187760507"><ele>8.0</ele><time>2026-04-12T08:45:17Z</time></trkpt><trkpt lat="44.41290953539604" lon="8.70373098285358"><ele>6.833333333333333</ele><time>2026-04-12T08:45:18Z</time></trkpt><trkpt lat="44.41283141526594" lon="8.703703178520177"><ele>5.666666666666666</ele><time>2026-04-12T08:45:19Z</time></trkpt><trkpt lat="44.4127563619682" lon="8.703659988297943"><ele>4.5</ele><time>2026-04-12T08:45:20Z</time></trkpt><trkpt lat="44.41268698402417" lon="8.703602221304607"><ele>3.333333333333333</ele><time>2026-04-12T08:45:21Z</time></trkpt><trkpt lat="44.412625205223165" lon="8.703528185969445"><ele>2.1666666666666665</ele><time>2026-04-12T08:45:22Z</time></trkpt><trkpt lat="44.41257284223093" lon="8.703449463777934"><ele>1.0</ele><time>2026-04-12T08:45:23Z</time></trkpt><trkpt lat="44.41253246282256" lon="8.70335346300514"><ele>4.4</ele><time>2026-04-12T08:45:24Z</time></trkpt><trkpt lat="44.412501167637245" lon="8.70324271841466"><ele>7.800000000000001</ele><time>2026-04-12T08:45:25Z</time></trkpt><trkpt lat="44.4124763492353" lon="8.703126394434461"><ele>11.200000000000001</ele><time>2026-04-12T08:45:26Z</time></trkpt><trkpt lat="44.41245634461836" lon="8.70299872815489"><ele>14.6</ele><time>2026-04-12T08:45:27Z</time></trkpt><trkpt lat="44.41242861057224" lon="8.702869739982738"><ele>18.0</ele><time>2026-04-12T08:45:28Z</time></trkpt><trkpt lat="44.41239540686359" lon="8.702743617835244"><ele>15.0</ele><time>2026-04-12T08:45:29Z</time></trkpt><trkpt lat="44.41235557387938" lon="8.702630860288732"><ele>12.0</ele><time>2026-04-12T08:45:30Z</time></trkpt><trkpt lat="44.41230548311385" lon="8.702515612530906"><ele>9.0</ele><time>2026-04-12T08:45:31Z</time></trkpt><trkpt lat="44.41224481474831" lon="8.702396644532433"><ele>6.0</ele><time>2026-04-12T08:45:32Z</time></trkpt><trkpt lat="44.41218225377674" lon="8.702275931489964"><ele>3.0</ele><time>2026-04-12T08:45:33Z</time></trkpt><trkpt lat="44.41211795633936" lon="8.702155670115117"><ele>3.0</ele><time>2026-04-12T08:45:34Z</time></trkpt><trkpt lat="44.41205351242955" lon="8.702033792180218"><ele>3.0</ele><time>2026-04-12T08:45:35Z</time></trkpt><trkpt lat="44.41198437516983" lon="8.701907137705035"><ele>3.0</ele><time>2026-04-12T08:45:36Z</time></trkpt><trkpt lat="44.41191635816993" lon="8.701781164484077"><ele>3.0</ele><time>2026-04-12T08:45:37Z</time></trkpt><trkpt lat="44.411845794701904" lon="8.701652639774412"><ele>5.0</ele><time>2026-04-12T08:45:38Z</time></trkpt><trkpt lat="44.41177579237959" lon="8.701524516377964"><ele>7.0</ele><time>2026-04-12T08:45:39Z</time></trkpt><trkpt lat="44.41170762458569" lon="8.701403401172254"><ele>9.0</ele><time>2026-04-12T08:45:40Z</time></trkpt><trkpt lat="44.411639843685535" lon="8.701285774476027"><ele>11.0</ele><time>2026-04-12T08:45:41Z</time></trkpt><trkpt lat="44.41157274630583" lon="8.701160348003038"><ele>13.0</ele><time>2026-04-12T08:45:42Z</time></trkpt><trkpt lat="44.41150887752645" lon="8.701033776148726"><ele>15.0</ele><time>2026-04-12T08:45:43Z</time></trkpt><trkpt lat="44.41144524244003" lon="8.700905208937924"><ele>17.0</ele><time>2026-04-12T08:45:44Z</time></trkpt><trkpt lat="44.41138410491246" lon="8.70077515264297"><ele>19.0</ele><time>2026-04-12T08:45:45Z</time></trkpt><trkpt lat="44.4113275834964" lon="8.700653216179903"><ele>21.0</ele><time>2026-04-12T08:45:46Z</time></trkpt><trkpt lat="44.41126991967533" lon="8.70052540198969"><ele>23.0</ele><time>2026-04-12T08:45:47Z</time></trkpt><trkpt lat="44.411216187576834" lon="8.700408894660981"><ele>20.4</ele><time>2026-04-12T08:45:48Z</time></trkpt><trkpt lat="44.41116245494738" lon="8.70028697012982"><ele>17.799999999999997</ele><time>2026-04-12T08:45:49Z</time></trkpt><trkpt lat="44.41111050635943" lon="8.700173216955694"><ele>15.2</ele><time>2026-04-12T08:45:50Z</time></trkpt><trkpt lat="44.41105625107323" lon="8.700054223755263"><ele>12.6</ele><time>2026-04-12T08:45:51Z</time></trkpt><trkpt lat="44.41100128910274" lon="8.699931182665317"><ele>10.0</ele><time>2026-04-12T08:45:52Z</time></trkpt><trkpt lat="44.41097024760515" lon="8.69979090808203"><ele>10.0</ele><time>2026-04-12T08:45:53Z</time></trkpt><trkpt lat="44.410926832473706" lon="8.699651711040758"><ele>10.0</ele><time>2026-04-12T08:45:54Z</time></trkpt><trkpt lat="44.41088531546519" lon="8.699509625952693"><ele>10.0</ele><time>2026-04-12T08:45:55Z</time></trkpt><trkpt lat="44.410845037198925" lon="8.699361367646787"><ele>10.0</ele><time>2026-04-12T08:45:56Z</time></trkpt><trkpt lat="44.41080757511488" lon="8.699214843877511"><ele>10.0</ele><time>2026-04-12T08:45:57Z</time></trkpt><trkpt lat="44.410771546352414" lon="8.699066258868424"><ele>14.5</ele><time>2026-04-12T08:45:58Z</time></trkpt><trkpt lat="44.410722395790856" lon="8.698926727684658"><ele>19.0</ele><time>2026-04-12T08:45:59Z</time></trkpt><trkpt lat="44.41070418801258" lon="8.698771973270915"><ele>23.5</ele><time>2026-04-12T08:46:00Z</time></trkpt><trkpt lat="44.41067016790922" lon="8.698615494678437"><ele>28.0</ele><time>2026-04-12T08:46:01Z</time></trkpt><trkpt lat="44.41062404675176" lon="8.698471977091696"><ele>30.599999999999998</ele><time>2026-04-12T08:46:02Z</time></trkpt><trkpt lat="44.41059601303859" lon="8.698328064763405"><ele>33.199999999999996</ele><time>2026-04-12T08:46:03Z</time></trkpt><trkpt lat="44.41058411754112" lon="8.69816908765898"><ele>35.8</ele><time>2026-04-12T08:46:04Z</time></trkpt><trkpt lat="44.41054685751974" lon="8.698027548796842"><ele>38.4</ele><time>2026-04-12T08:46:05Z</time></trkpt><trkpt lat="44.41054030148611" lon="8.697876720654792"><ele>41.0</ele><time>2026-04-12T08:46:06Z</time></trkpt><trkpt lat="44.4105326532224" lon="8.697725083958636"><ele>42.4</ele><time>2026-04-12T08:46:07Z</time></trkpt><trkpt lat="44.410519995351585" lon="8.697580900113937"><ele>43.8</ele><time>2026-04-12T08:46:08Z</time></trkpt><trkpt lat="44.41050482128854" lon="8.697428832871433"><ele>45.199999999999996</ele><time>2026-04-12T08:46:09Z</time></trkpt><trkpt lat="44.41048998345828" lon="8.697270887171912"><ele>46.599999999999994</ele><time>2026-04-12T08:46:10Z</time></trkpt><trkpt lat="44.410467805137436" lon="8.697120514419831"><ele>48.0</ele><time>2026-04-12T08:46:11Z</time></trkpt><trkpt lat="44.41044177373458" lon="8.696965768284912"><ele>42.8</ele><time>2026-04-12T08:46:12Z</time></trkpt><trkpt lat="44.41041426382479" lon="8.696817657681793"><ele>37.599999999999994</ele><time>2026-04-12T08:46:13Z</time></trkpt><trkpt lat="44.41038017998477" lon="8.69667361835827"><ele>32.4</ele><time>2026-04-12T08:46:14Z</time></trkpt><trkpt lat="44.410339288830436" lon="8.696522864280507"><ele>27.200000000000003</ele><time>2026-04-12T08:46:15.02Z</time></trkpt><trkpt lat="44.41029591056464" lon="8.696375446635972"><ele>22.0</ele><time>2026-04-12T08:46:16.017Z</time></trkpt><trkpt lat="44.410249506091326" lon="8.696223308909255"><ele>24.400000000000002</ele><time>2026-04-12T08:46:17.02Z</time></trkpt><trkpt lat="44.41020387665988" lon="8.696083216655172"><ele>26.8</ele><time>2026-04-12T08:46:18.018Z</time></trkpt><trkpt lat="44.41015424269002" lon="8.695944303647332"><ele>29.2</ele><time>2026-04-12T08:46:19.02Z</time></trkpt><trkpt lat="44.41010075692126" lon="8.695808937853315"><ele>31.6</ele><time>2026-04-12T08:46:20.019Z</time></trkpt><trkpt lat="44.410043178148676" lon="8.695680895432064"><ele>34.0</ele><time>2026-04-12T08:46:21.018Z</time></trkpt><trkpt lat="44.40998143654897" lon="8.695559587479831"><ele>34.0</ele><time>2026-04-12T08:46:22.018Z</time></trkpt><trkpt lat="44.40991888182371" lon="8.695432067636322"><ele>34.0</ele><time>2026-04-12T08:46:23.024Z</time></trkpt><trkpt lat="44.409781373147304" lon="8.695148555569999"><ele>34.0</ele><time>2026-04-12T08:46:25Z</time></trkpt><trkpt lat="44.4097164969739" lon="8.695020046081995"><ele>27.0</ele><time>2026-04-12T08:46:26Z</time></trkpt><trkpt lat="44.4096210328949" lon="8.694835409654605"><ele>20.0</ele><time>2026-04-12T08:46:27Z</time></trkpt><trkpt lat="44.409557688669885" lon="8.694711705621513"><ele>13.0</ele><time>2026-04-12T08:46:28Z</time></trkpt><trkpt lat="44.40948448428077" lon="8.694576339184499"><ele>6.0</ele><time>2026-04-12T08:46:29Z</time></trkpt><trkpt lat="44.409416021686944" lon="8.694441314989122"><ele>7.75</ele><time>2026-04-12T08:46:30Z</time></trkpt><trkpt lat="44.40934627536339" lon="8.694315934026223"><ele>9.5</ele><time>2026-04-12T08:46:31Z</time></trkpt><trkpt lat="44.40927905164882" lon="8.69418768907904"><ele>11.25</ele><time>2026-04-12T08:46:32Z</time></trkpt><trkpt lat="44.409211588367725" lon="8.694056639920072"><ele>13.0</ele><time>2026-04-12T08:46:33Z</time></trkpt><trkpt lat="44.409143684317854" lon="8.693924676647793"><ele>13.0</ele><time>2026-04-12T08:46:34Z</time></trkpt><trkpt lat="44.40907375367812" lon="8.693792470533847"><ele>13.0</ele><time>2026-04-12T08:46:35Z</time></trkpt><trkpt lat="44.40900508242705" lon="8.693657005741713"><ele>13.0</ele><time>2026-04-12T08:46:36Z</time></trkpt><trkpt lat="44.40893670895401" lon="8.693523384462376"><ele>13.0</ele><time>2026-04-12T08:46:37Z</time></trkpt><trkpt lat="44.4088703478975" lon="8.693399317587719"><ele>11.75</ele><time>2026-04-12T08:46:38Z</time></trkpt><trkpt lat="44.408803216354954" lon="8.693271250911808"><ele>10.5</ele><time>2026-04-12T08:46:39Z</time></trkpt><trkpt lat="44.408734399428006" lon="8.693139951413045"><ele>9.25</ele><time>2026-04-12T08:46:40Z</time></trkpt><trkpt lat="44.40866784105147" lon="8.693007329782269"><ele>8.0</ele><time>2026-04-12T08:46:41Z</time></trkpt><trkpt lat="44.408600852843385" lon="8.692882824712422"><ele>10.0</ele><time>2026-04-12T08:46:42Z</time></trkpt><trkpt lat="44.4085313404348" lon="8.692750854850772"><ele>12.0</ele><time>2026-04-12T08:46:43Z</time></trkpt><trkpt lat="44.40846046321082" lon="8.692616846317408"><ele>14.0</ele><time>2026-04-12T08:46:44Z</time></trkpt><trkpt lat="44.40839491930042" lon="8.69248772650242"><ele>16.0</ele><time>2026-04-12T08:46:45Z</time></trkpt><trkpt lat="44.408327257343615" lon="8.692352506866563"><ele>16.0</ele><time>2026-04-12T08:46:46Z</time></trkpt><trkpt lat="44.408258406872406" lon="8.692218729747811"><ele>16.0</ele><time>2026-04-12T08:46:47Z</time></trkpt><trkpt lat="44.40819135494515" lon="8.692085128212714"><ele>16.0</ele><time>2026-04-12T08:46:48Z</time></trkpt><trkpt lat="44.408122130311845" lon="8.691956013807841"><ele>16.0</ele><time>2026-04-12T08:46:49Z</time></trkpt><trkpt lat="44.40805082635827" lon="8.691822178969916"><ele>13.25</ele><time>2026-04-12T08:46:50Z</time></trkpt><trkpt lat="44.40798217163148" lon="8.691691347657935"><ele>10.5</ele><time>2026-04-12T08:46:51Z</time></trkpt><trkpt lat="44.40791268741497" lon="8.691554051065966"><ele>7.75</ele><time>2026-04-12T08:46:52Z</time></trkpt><trkpt lat="44.40784286539852" lon="8.69141606729662"><ele>5.0</ele><time>2026-04-12T08:46:53Z</time></trkpt><trkpt lat="44.40777393483477" lon="8.691281378758884"><ele>5.0</ele><time>2026-04-12T08:46:54Z</time></trkpt><trkpt lat="44.40770382376021" lon="8.691148925551817"><ele>5.0</ele><time>2026-04-12T08:46:55Z</time></trkpt><trkpt lat="44.40763261551378" lon="8.69102021569112"><ele>5.0</ele><time>2026-04-12T08:46:56Z</time></trkpt><trkpt lat="44.407565241088676" lon="8.690894423094354"><ele>5.0</ele><time>2026-04-12T08:46:57Z</time></trkpt><trkpt lat="44.40750130743773" lon="8.690771554319268"><ele>5.4</ele><time>2026-04-12T08:46:58Z</time></trkpt><trkpt lat="44.4074374771374" lon="8.690649942414256"><ele>5.8</ele><time>2026-04-12T08:46:59Z</time></trkpt><trkpt lat="44.4073738844344" lon="8.690530775192096"><ele>6.199999999999999</ele><time>2026-04-12T08:47:00Z</time></trkpt><trkpt lat="44.40730895378269" lon="8.690407091583069"><ele>6.6</ele><time>2026-04-12T08:47:01Z</time></trkpt><trkpt lat="44.407243810145204" lon="8.69028081713922"><ele>7.0</ele><time>2026-04-12T08:47:02Z</time></trkpt><trkpt lat="44.40717712017986" lon="8.69015164377775"><ele>6.3999999999999995</ele><time>2026-04-12T08:47:03Z</time></trkpt><trkpt lat="44.407110926491406" lon="8.690023953529705"><ele>5.799999999999999</ele><time>2026-04-12T08:47:04Z</time></trkpt><trkpt lat="44.40704723763268" lon="8.689896611496536"><ele>5.2</ele><time>2026-04-12T08:47:05Z</time></trkpt><trkpt lat="44.406986956514125" lon="8.689777655153458"><ele>4.6</ele><time>2026-04-12T08:47:06Z</time></trkpt><trkpt lat="44.40692297519395" lon="8.68965671963249"><ele>4.0</ele><time>2026-04-12T08:47:07Z</time></trkpt><trkpt lat="44.4068564187037" lon="8.689531196251275"><ele>5.0</ele><time>2026-04-12T08:47:08Z</time></trkpt><trkpt lat="44.406796116912425" lon="8.689418816198073"><ele>6.0</ele><time>2026-04-12T08:47:09Z</time></trkpt><trkpt lat="44.40673333041068" lon="8.689306410743562"><ele>7.0</ele><time>2026-04-12T08:47:10Z</time></trkpt><trkpt lat="44.40667198342517" lon="8.689201215369494"><ele>8.0</ele><time>2026-04-12T08:47:11Z</time></trkpt><trkpt lat="44.406608513038634" lon="8.689113870643318"><ele>9.0</ele><time>2026-04-12T08:47:12Z</time></trkpt><trkpt lat="44.40654298363263" lon="8.689033833390585"><ele>9.0</ele><time>2026-04-12T08:47:13Z</time></trkpt><trkpt lat="44.40646719872267" lon="8.688961291694028"><ele>9.0</ele><time>2026-04-12T08:47:14Z</time></trkpt><trkpt lat="44.406383276806" lon="8.688885404508337"><ele>9.0</ele><time>2026-04-12T08:47:15Z</time></trkpt><trkpt lat="44.40629518884592" lon="8.68881841679553"><ele>9.0</ele><time>2026-04-12T08:47:16Z</time></trkpt><trkpt lat="44.40621389447831" lon="8.688752297995178"><ele>9.0</ele><time>2026-04-12T08:47:17Z</time></trkpt><trkpt lat="44.40613132717513" lon="8.688675477389971"><ele>8.4</ele><time>2026-04-12T08:47:18Z</time></trkpt><trkpt lat="44.40604997677767" lon="8.68859311379883"><ele>7.800000000000001</ele><time>2026-04-12T08:47:19Z</time></trkpt><trkpt lat="44.40597664275542" lon="8.688506357615392"><ele>7.199999999999999</ele><time>2026-04-12T08:47:20Z</time></trkpt><trkpt lat="44.405905557474355" lon="8.688412092823015"><ele>6.6</ele><time>2026-04-12T08:47:21Z</time></trkpt><trkpt lat="44.4058418658065" lon="8.688320360155068"><ele>6.0</ele><time>2026-04-12T08:47:22Z</time></trkpt><trkpt lat="44.40578151180527" lon="8.688223224449821"><ele>6.0</ele><time>2026-04-12T08:47:23Z</time></trkpt><trkpt lat="44.405725931778676" lon="8.688122799098961"><ele>6.0</ele><time>2026-04-12T08:47:24Z</time></trkpt><trkpt lat="44.4056707834961" lon="8.688014783435078"><ele>6.0</ele><time>2026-04-12T08:47:25Z</time></trkpt><trkpt lat="44.40561421522418" lon="8.687908047272161"><ele>6.0</ele><time>2026-04-12T08:47:26Z</time></trkpt><trkpt lat="44.405558270082075" lon="8.687797724170704"><ele>6.0</ele><time>2026-04-12T08:47:27Z</time></trkpt><trkpt lat="44.40550787393115" lon="8.687693170810146"><ele>5.8</ele><time>2026-04-12T08:47:28Z</time></trkpt><trkpt lat="44.40545000274753" lon="8.687586034578983"><ele>5.6</ele><time>2026-04-12T08:47:29Z</time></trkpt><trkpt lat="44.40539340082782" lon="8.687479194310177"><ele>5.4</ele><time>2026-04-12T08:47:30Z</time></trkpt><trkpt lat="44.40533466137076" lon="8.687376919196028"><ele>5.2</ele><time>2026-04-12T08:47:31Z</time></trkpt><trkpt lat="44.405279678215734" lon="8.68729210633721"><ele>5.0</ele><time>2026-04-12T08:47:32Z</time></trkpt><trkpt lat="44.40521083789707" lon="8.687204019064483"><ele>5.0</ele><time>2026-04-12T08:47:33Z</time></trkpt><trkpt lat="44.40513484446188" lon="8.68712080770101"><ele>5.0</ele><time>2026-04-12T08:47:34Z</time></trkpt><trkpt lat="44.40506320821606" lon="8.687053498366875"><ele>5.0</ele><time>2026-04-12T08:47:35Z</time></trkpt><trkpt lat="44.40498850493984" lon="8.686978648740256"><ele>5.0</ele><time>2026-04-12T08:47:36Z</time></trkpt><trkpt lat="44.40491548646146" lon="8.686912686619703"><ele>5.0</ele><time>2026-04-12T08:47:37Z</time></trkpt><trkpt lat="44.40484279742643" lon="8.686850873253686"><ele>5.0</ele><time>2026-04-12T08:47:38Z</time></trkpt><trkpt lat="44.40476402915169" lon="8.686777807455947"><ele>5.0</ele><time>2026-04-12T08:47:39Z</time></trkpt><trkpt lat="44.404685199171375" lon="8.686709823180774"><ele>5.0</ele><time>2026-04-12T08:47:40Z</time></trkpt><trkpt lat="44.40460098111527" lon="8.686625792161058"><ele>5.0</ele><time>2026-04-12T08:47:41.001Z</time></trkpt><trkpt lat="44.404517834378915" lon="8.686541588199713"><ele>5.0</ele><time>2026-04-12T08:47:42.001Z</time></trkpt><trkpt lat="44.40443182630686" lon="8.68646430962388"><ele>5.0</ele><time>2026-04-12T08:47:43.001Z</time></trkpt><trkpt lat="44.404351256110125" lon="8.68636822543276"><ele>5.0</ele><time>2026-04-12T08:47:44.001Z</time></trkpt><trkpt lat="44.404268587449046" lon="8.686291151917873"><ele>5.0</ele><time>2026-04-12T08:47:45.001Z</time></trkpt><trkpt lat="44.404184869052834" lon="8.68621395688868"><ele>5.0</ele><time>2026-04-12T08:47:46.001Z</time></trkpt><trkpt lat="44.40410601694577" lon="8.686130012240755"><ele>5.0</ele><time>2026-04-12T08:47:47.001Z</time></trkpt><trkpt lat="44.40402933944627" lon="8.686053103566111"><ele>5.0</ele><time>2026-04-12T08:47:48.001Z</time></trkpt><trkpt lat="44.40395366366297" lon="8.685980544221655"><ele>5.2</ele><time>2026-04-12T08:47:49.001Z</time></trkpt><trkpt lat="44.40388190505837" lon="8.685914508566338"><ele>5.4</ele><time>2026-04-12T08:47:50.001Z</time></trkpt><trkpt lat="44.40381149747609" lon="8.685853769738271"><ele>5.6</ele><time>2026-04-12T08:47:51Z</time></trkpt><trkpt lat="44.40374621171569" lon="8.685800446522721"><ele>5.8</ele><time>2026-04-12T08:47:52Z</time></trkpt><trkpt lat="44.403636685318155" lon="8.685726737036394"><ele>6.0</ele><time>2026-04-12T08:47:54Z</time></trkpt><trkpt lat="44.40355428722601" lon="8.685682576496117"><ele>6.0</ele><time>2026-04-12T08:47:56Z</time></trkpt><trkpt lat="44.40349214225302" lon="8.685654891198919"><ele>6.0</ele><time>2026-04-12T08:47:58Z</time></trkpt><trkpt lat="44.40341900329975" lon="8.685629047019882"><ele>6.0</ele><time>2026-04-12T08:48:18Z</time></trkpt><trkpt lat="44.40334735932396" lon="8.68560186140317"><ele>6.0</ele><time>2026-04-12T08:48:20Z</time></trkpt><trkpt lat="44.40323817899828" lon="8.68557270864724"><ele>6.0</ele><time>2026-04-12T08:48:22Z</time></trkpt><trkpt lat="44.40317221789968" lon="8.685567079396415"><ele>6.0</ele><time>2026-04-12T08:48:23Z</time></trkpt><trkpt lat="44.40310724055612" lon="8.685568137637189"><ele>6.0</ele><time>2026-04-12T08:48:24Z</time></trkpt><trkpt lat="44.40304066882302" lon="8.685567940362638"><ele>6.0</ele><time>2026-04-12T08:48:25Z</time></trkpt><trkpt lat="44.40296694523731" lon="8.685565436567755"><ele>6.0</ele><time>2026-04-12T08:48:26Z</time></trkpt><trkpt lat="44.40283518964428" lon="8.68555681919778"><ele>6.0</ele><time>2026-04-12T08:48:28Z</time></trkpt><trkpt lat="44.40275434452372" lon="8.68555249934"><ele>6.0</ele><time>2026-04-12T08:48:29Z</time></trkpt><trkpt lat="44.402670149956904" lon="8.68554939369112"><ele>6.0</ele><time>2026-04-12T08:48:30Z</time></trkpt><trkpt lat="44.40258099274287" lon="8.68554804571623"><ele>5.833333333333333</ele><time>2026-04-12T08:48:31Z</time></trkpt><trkpt lat="44.402493500497926" lon="8.685540484509085"><ele>5.666666666666667</ele><time>2026-04-12T08:48:32Z</time></trkpt><trkpt lat="44.402408006578234" lon="8.685537307326001"><ele>5.5</ele><time>2026-04-12T08:48:33Z</time></trkpt><trkpt lat="44.402328921402" lon="8.685529762508885"><ele>5.333333333333334</ele><time>2026-04-12T08:48:34Z</time></trkpt><trkpt lat="44.40224410847782" lon="8.685523466994246"><ele>5.166666666666667</ele><time>2026-04-12T08:48:35Z</time></trkpt><trkpt lat="44.40215747943586" lon="8.68551724130564"><ele>5.0</ele><time>2026-04-12T08:48:36Z</time></trkpt><trkpt lat="44.40207184556851" lon="8.685510297829689"><ele>5.0</ele><time>2026-04-12T08:48:37Z</time></trkpt><trkpt lat="44.40198173897431" lon="8.685506673430986"><ele>5.0</ele><time>2026-04-12T08:48:38Z</time></trkpt><trkpt lat="44.40188651734306" lon="8.685498473921319"><ele>5.0</ele><time>2026-04-12T08:48:39Z</time></trkpt><trkpt lat="44.401789853084395" lon="8.685492525762141"><ele>5.0</ele><time>2026-04-12T08:48:40Z</time></trkpt><trkpt lat="44.40169423736835" lon="8.685485370765981"><ele>5.0</ele><time>2026-04-12T08:48:41Z</time></trkpt><trkpt lat="44.401600983374365" lon="8.685479029262309"><ele>5.0</ele><time>2026-04-12T08:48:42Z</time></trkpt><trkpt lat="44.40150968100348" lon="8.685471917973995"><ele>5.0</ele><time>2026-04-12T08:48:43Z</time></trkpt><trkpt lat="44.40141831653647" lon="8.685465854746356"><ele>5.0</ele><time>2026-04-12T08:48:44Z</time></trkpt><trkpt lat="44.401324900056444" lon="8.685459358271475"><ele>5.0</ele><time>2026-04-12T08:48:45Z</time></trkpt><trkpt lat="44.40123460214907" lon="8.685449961896952"><ele>5.0</ele><time>2026-04-12T08:48:46Z</time></trkpt><trkpt lat="44.4011419614326" lon="8.68544130199041"><ele>5.0</ele><time>2026-04-12T08:48:47Z</time></trkpt><trkpt lat="44.40104798080625" lon="8.685432531707061"><ele>5.0</ele><time>2026-04-12T08:48:48Z</time></trkpt><trkpt lat="44.40096110075746" lon="8.685405929033209"><ele>5.0</ele><time>2026-04-12T08:48:49Z</time></trkpt><trkpt lat="44.400878643284535" lon="8.685376397548179"><ele>5.0</ele><time>2026-04-12T08:48:50Z</time></trkpt><trkpt lat="44.40079358462084" lon="8.685341631760586"><ele>5.0</ele><time>2026-04-12T08:48:51Z</time></trkpt><trkpt lat="44.40070859211874" lon="8.685304404272772"><ele>5.0</ele><time>2026-04-12T08:48:52Z</time></trkpt><trkpt lat="44.40062494406518" lon="8.68526046837742"><ele>5.0</ele><time>2026-04-12T08:48:53Z</time></trkpt><trkpt lat="44.40055076471857" lon="8.685215003129471"><ele>5.0</ele><time>2026-04-12T08:48:54Z</time></trkpt><trkpt lat="44.400489258632966" lon="8.685166207982832"><ele>5.0</ele><time>2026-04-12T08:48:55Z</time></trkpt><trkpt lat="44.400436484202764" lon="8.685108547560226"><ele>5.0</ele><time>2026-04-12T08:48:56Z</time></trkpt><trkpt lat="44.400387739466275" lon="8.685035275615297"><ele>5.0</ele><time>2026-04-12T08:48:57Z</time></trkpt><trkpt lat="44.40034984393768" lon="8.684961202274039"><ele>5.0</ele><time>2026-04-12T08:48:58Z</time></trkpt><trkpt lat="44.40031424967794" lon="8.684776436562204"><ele>5.666666666666667</ele><time>2026-04-12T08:49:00Z</time></trkpt><trkpt lat="44.40031467818533" lon="8.684668615912543"><ele>6.333333333333334</ele><time>2026-04-12T08:49:01Z</time></trkpt><trkpt lat="44.40032981870599" lon="8.684556667454373"><ele>7.0</ele><time>2026-04-12T08:49:02Z</time></trkpt><trkpt lat="44.400349402298815" lon="8.684439551705234"><ele>7.666666666666667</ele><time>2026-04-12T08:49:03Z</time></trkpt><trkpt lat="44.40037657798007" lon="8.684312482766652"><ele>8.333333333333334</ele><time>2026-04-12T08:49:04Z</time></trkpt><trkpt lat="44.40039810491763" lon="8.684188069303936"><ele>9.0</ele><time>2026-04-12T08:49:05Z</time></trkpt><trkpt lat="44.40042176034769" lon="8.684066255231146"><ele>9.2</ele><time>2026-04-12T08:49:06Z</time></trkpt><trkpt lat="44.400444823318566" lon="8.683936385309307"><ele>9.4</ele><time>2026-04-12T08:49:07Z</time></trkpt><trkpt lat="44.40046892643677" lon="8.683799046049039"><ele>9.6</ele><time>2026-04-12T08:49:08Z</time></trkpt><trkpt lat="44.40049150669939" lon="8.683658380659"><ele>9.8</ele><time>2026-04-12T08:49:09Z</time></trkpt><trkpt lat="44.40051313359485" lon="8.6835310035442"><ele>10.0</ele><time>2026-04-12T08:49:10Z</time></trkpt><trkpt lat="44.40053635697878" lon="8.683394041559358"><ele>10.0</ele><time>2026-04-12T08:49:11Z</time></trkpt><trkpt lat="44.40055696665339" lon="8.683267320489485"><ele>10.0</ele><time>2026-04-12T08:49:12Z</time></trkpt><trkpt lat="44.400578332105404" lon="8.683135287430433"><ele>10.0</ele><time>2026-04-12T08:49:13Z</time></trkpt><trkpt lat="44.40059884003348" lon="8.68300290377508"><ele>10.0</ele><time>2026-04-12T08:49:14Z</time></trkpt><trkpt lat="44.40062296246333" lon="8.68287056890871"><ele>10.0</ele><time>2026-04-12T08:49:15Z</time></trkpt><trkpt lat="44.400643674128396" lon="8.682743914681586"><ele>10.0</ele><time>2026-04-12T08:49:16Z</time></trkpt><trkpt lat="44.400665074371766" lon="8.682617799805078"><ele>10.0</ele><time>2026-04-12T08:49:17Z</time></trkpt><trkpt lat="44.400681260239296" lon="8.682499411597952"><ele>10.0</ele><time>2026-04-12T08:49:18Z</time></trkpt><trkpt lat="44.4006950928575" lon="8.68237918302752"><ele>10.0</ele><time>2026-04-12T08:49:19Z</time></trkpt><trkpt lat="44.400703097460024" lon="8.682264236769043"><ele>10.0</ele><time>2026-04-12T08:49:20Z</time></trkpt><trkpt lat="44.400705474896135" lon="8.682158189159516"><ele>10.0</ele><time>2026-04-12T08:49:21Z</time></trkpt><trkpt lat="44.40069296889091" lon="8.682044629934204"><ele>10.0</ele><time>2026-04-12T08:49:22Z</time></trkpt><trkpt lat="44.400670431338234" lon="8.681942405999308"><ele>10.0</ele><time>2026-04-12T08:49:23Z</time></trkpt><trkpt lat="44.40063956774248" lon="8.681832298838609"><ele>10.0</ele><time>2026-04-12T08:49:24Z</time></trkpt><trkpt lat="44.40059972011638" lon="8.681729381459245"><ele>10.0</ele><time>2026-04-12T08:49:25Z</time></trkpt><trkpt lat="44.40055889739692" lon="8.681621299525352"><ele>10.0</ele><time>2026-04-12T08:49:26Z</time></trkpt><trkpt lat="44.40052861102105" lon="8.681503808902374"><ele>10.0</ele><time>2026-04-12T08:49:27Z</time></trkpt><trkpt lat="44.40050528314719" lon="8.68139058485242"><ele>10.0</ele><time>2026-04-12T08:49:28Z</time></trkpt><trkpt lat="44.40050182476449" lon="8.681280887635625"><ele>10.0</ele><time>2026-04-12T08:49:29Z</time></trkpt><trkpt lat="44.400511027480654" lon="8.681169877663905"><ele>10.0</ele><time>2026-04-12T08:49:30Z</time></trkpt><trkpt lat="44.400528411787654" lon="8.681055652944519"><ele>10.0</ele><time>2026-04-12T08:49:31Z</time></trkpt><trkpt lat="44.400549887371895" lon="8.680947817983212"><ele>10.0</ele><time>2026-04-12T08:49:32Z</time></trkpt><trkpt lat="44.40056533956761" lon="8.680852991421965"><ele>10.0</ele><time>2026-04-12T08:49:33Z</time></trkpt><trkpt lat="44.40056870463871" lon="8.6807452107747"><ele>10.333333333333334</ele><time>2026-04-12T08:49:34Z</time></trkpt><trkpt lat="44.400566237224105" lon="8.6806453467823"><ele>10.666666666666668</ele><time>2026-04-12T08:49:35Z</time></trkpt><trkpt lat="44.40056192568426" lon="8.68049524812824"><ele>11.0</ele><time>2026-04-12T08:49:37Z</time></trkpt><trkpt lat="44.4005687146193" lon="8.680321024629"><ele>11.333333333333334</ele><time>2026-04-12T08:49:39Z</time></trkpt><trkpt lat="44.400578228289376" lon="8.680223795271909"><ele>11.666666666666666</ele><time>2026-04-12T08:49:40Z</time></trkpt><trkpt lat="44.40058211855079" lon="8.680121746509595"><ele>12.0</ele><time>2026-04-12T08:49:41Z</time></trkpt><trkpt lat="44.40057924452667" lon="8.680010563459403"><ele>12.285714285714285</ele><time>2026-04-12T08:49:42Z</time></trkpt><trkpt lat="44.40057601701077" lon="8.679909324585621"><ele>12.571428571428571</ele><time>2026-04-12T08:49:43Z</time></trkpt><trkpt lat="44.40058212144978" lon="8.679814831925608"><ele>12.857142857142858</ele><time>2026-04-12T08:49:44Z</time></trkpt><trkpt lat="44.40060088095694" lon="8.679723933733761"><ele>13.142857142857142</ele><time>2026-04-12T08:49:45Z</time></trkpt><trkpt lat="44.400632775239025" lon="8.679632935894704"><ele>13.428571428571429</ele><time>2026-04-12T08:49:46Z</time></trkpt><trkpt lat="44.40067269148013" lon="8.67954013267114"><ele>13.714285714285714</ele><time>2026-04-12T08:49:47Z</time></trkpt><trkpt lat="44.400717015931804" lon="8.679445324629835"><ele>14.0</ele><time>2026-04-12T08:49:48Z</time></trkpt><trkpt lat="44.40076500040164" lon="8.679350315404049"><ele>15.833333333333336</ele><time>2026-04-12T08:49:49Z</time></trkpt><trkpt lat="44.40081646818997" lon="8.679251525775479"><ele>17.666666666666668</ele><time>2026-04-12T08:49:50Z</time></trkpt><trkpt lat="44.40086541520451" lon="8.679158914733815"><ele>19.5</ele><time>2026-04-12T08:49:51Z</time></trkpt><trkpt lat="44.400920183631726" lon="8.67906151501139"><ele>21.333333333333336</ele><time>2026-04-12T08:49:52Z</time></trkpt><trkpt lat="44.400968350683506" lon="8.678957161468261"><ele>23.166666666666668</ele><time>2026-04-12T08:49:53Z</time></trkpt><trkpt lat="44.40101358961398" lon="8.678849269128664"><ele>25.0</ele><time>2026-04-12T08:49:54Z</time></trkpt><trkpt lat="44.4010603984743" lon="8.678732866325486"><ele>25.0</ele><time>2026-04-12T08:49:55Z</time></trkpt><trkpt lat="44.401104749986494" lon="8.678607364947629"><ele>25.0</ele><time>2026-04-12T08:49:56Z</time></trkpt><trkpt lat="44.40115539225067" lon="8.678477914880354"><ele>25.0</ele><time>2026-04-12T08:49:57Z</time></trkpt><trkpt lat="44.4012050876719" lon="8.67835777004994"><ele>25.0</ele><time>2026-04-12T08:49:58Z</time></trkpt><trkpt lat="44.40125253016902" lon="8.678250063033628"><ele>25.0</ele><time>2026-04-12T08:49:59Z</time></trkpt><trkpt lat="44.40131165703705" lon="8.67814957836216"><ele>25.000000000000004</ele><time>2026-04-12T08:50:00Z</time></trkpt><trkpt lat="44.401374411309476" lon="8.67805279784491"><ele>25.0</ele><time>2026-04-12T08:50:01Z</time></trkpt><trkpt lat="44.401421496683305" lon="8.677954256637292"><ele>25.0</ele><time>2026-04-12T08:50:02Z</time></trkpt><trkpt lat="44.40146655877189" lon="8.677856713213945"><ele>25.0</ele><time>2026-04-12T08:50:03Z</time></trkpt><trkpt lat="44.40150549920297" lon="8.677746650098015"><ele>25.000000000000004</ele><time>2026-04-12T08:50:04Z</time></trkpt><trkpt lat="44.40153970967194" lon="8.677629161110941"><ele>25.0</ele><time>2026-04-12T08:50:05Z</time></trkpt><trkpt lat="44.4015646263024" lon="8.677497525143188"><ele>25.0</ele><time>2026-04-12T08:50:06Z</time></trkpt><trkpt lat="44.40158620137856" lon="8.67735632363777"><ele>25.0</ele><time>2026-04-12T08:50:07Z</time></trkpt><trkpt lat="44.40162530954379" lon="8.677212769858086"><ele>25.0</ele><time>2026-04-12T08:50:08Z</time></trkpt><trkpt lat="44.40164480287603" lon="8.677069045092244"><ele>25.0</ele><time>2026-04-12T08:50:09Z</time></trkpt><trkpt lat="44.401663960356075" lon="8.676920609822846"><ele>25.0</ele><time>2026-04-12T08:50:10Z</time></trkpt><trkpt lat="44.4016820503148" lon="8.67677375010405"><ele>26.8</ele><time>2026-04-12T08:50:11Z</time></trkpt><trkpt lat="44.40169331478238" lon="8.676629364699942"><ele>28.6</ele><time>2026-04-12T08:50:12Z</time></trkpt><trkpt lat="44.401697578791094" lon="8.676497524996282"><ele>30.4</ele><time>2026-04-12T08:50:13Z</time></trkpt><trkpt lat="44.4016925970863" lon="8.676373558984688"><ele>32.2</ele><time>2026-04-12T08:50:14Z</time></trkpt><trkpt lat="44.40167847907947" lon="8.676243670425247"><ele>34.0</ele><time>2026-04-12T08:50:15Z</time></trkpt><trkpt lat="44.40165625910906" lon="8.676125982561077"><ele>34.2</ele><time>2026-04-12T08:50:16Z</time></trkpt><trkpt lat="44.40162964195854" lon="8.67600034536619"><ele>34.4</ele><time>2026-04-12T08:50:17Z</time></trkpt><trkpt lat="44.40160261679604" lon="8.67587000471776"><ele>34.6</ele><time>2026-04-12T08:50:18Z</time></trkpt><trkpt lat="44.401579792204934" lon="8.675731539795834"><ele>34.8</ele><time>2026-04-12T08:50:19Z</time></trkpt><trkpt lat="44.40157047866732" lon="8.675623126181788"><ele>35.0</ele><time>2026-04-12T08:50:20Z</time></trkpt><trkpt lat="44.40157237156871" lon="8.675484942012877"><ele>35.0</ele><time>2026-04-12T08:50:21Z</time></trkpt><trkpt lat="44.40158094341459" lon="8.675359901015979"><ele>35.0</ele><time>2026-04-12T08:50:22Z</time></trkpt><trkpt lat="44.40160309965823" lon="8.675237411000694"><ele>35.0</ele><time>2026-04-12T08:50:23Z</time></trkpt><trkpt lat="44.401635568893475" lon="8.675113165141402"><ele>35.0</ele><time>2026-04-12T08:50:24Z</time></trkpt><trkpt lat="44.40167399263771" lon="8.674989771408299"><ele>35.0</ele><time>2026-04-12T08:50:25Z</time></trkpt><trkpt lat="44.401708960351854" lon="8.67487518355454"><ele>35.42857142857143</ele><time>2026-04-12T08:50:26Z</time></trkpt><trkpt lat="44.40173297278409" lon="8.674782833828017"><ele>35.85714285714286</ele><time>2026-04-12T08:50:27Z</time></trkpt><trkpt lat="44.40174740942122" lon="8.674693211993441"><ele>36.285714285714285</ele><time>2026-04-12T08:50:28Z</time></trkpt><trkpt lat="44.40175044749678" lon="8.674592550673562"><ele>36.714285714285715</ele><time>2026-04-12T08:50:29Z</time></trkpt><trkpt lat="44.40174040086382" lon="8.674501726816535"><ele>37.142857142857146</ele><time>2026-04-12T08:50:30Z</time></trkpt><trkpt lat="44.40172342770667" lon="8.674410882241922"><ele>37.57142857142857</ele><time>2026-04-12T08:50:31Z</time></trkpt><trkpt lat="44.40169355273125" lon="8.674323857368373"><ele>38.0</ele><time>2026-04-12T08:50:32Z</time></trkpt><trkpt lat="44.4016537457863" lon="8.674238506071594"><ele>38.33333333333333</ele><time>2026-04-12T08:50:33Z</time></trkpt><trkpt lat="44.4016096611431" lon="8.67415397949712"><ele>38.666666666666664</ele><time>2026-04-12T08:50:34Z</time></trkpt><trkpt lat="44.40157090652866" lon="8.674063925743704"><ele>39.0</ele><time>2026-04-12T08:50:35Z</time></trkpt><trkpt lat="44.40154741202849" lon="8.673957450162968"><ele>39.333333333333336</ele><time>2026-04-12T08:50:36Z</time></trkpt><trkpt lat="44.40153428170832" lon="8.673844141121977"><ele>39.66666666666667</ele><time>2026-04-12T08:50:37Z</time></trkpt><trkpt lat="44.4015193465583" lon="8.6737244783732"><ele>40.0</ele><time>2026-04-12T08:50:38Z</time></trkpt><trkpt lat="44.40150110789582" lon="8.67359946018575"><ele>40.0</ele><time>2026-04-12T08:50:39Z</time></trkpt><trkpt lat="44.401484472294314" lon="8.673468726969318"><ele>40.0</ele><time>2026-04-12T08:50:40Z</time></trkpt><trkpt lat="44.40146912148983" lon="8.673347151588036"><ele>40.0</ele><time>2026-04-12T08:50:41Z</time></trkpt><trkpt lat="44.40145154108046" lon="8.673216562246134"><ele>40.0</ele><time>2026-04-12T08:50:42Z</time></trkpt><trkpt lat="44.401433157318195" lon="8.673086569048872"><ele>40.0</ele><time>2026-04-12T08:50:43Z</time></trkpt><trkpt lat="44.40141784167469" lon="8.672964768176433"><ele>40.0</ele><time>2026-04-12T08:50:44Z</time></trkpt><trkpt lat="44.401397759392175" lon="8.672859823393308"><ele>40.0</ele><time>2026-04-12T08:50:45Z</time></trkpt><trkpt lat="44.40136824943774" lon="8.672758619766773"><ele>40.0</ele><time>2026-04-12T08:50:46Z</time></trkpt><trkpt lat="44.40132729847842" lon="8.67265994161091"><ele>40.0</ele><time>2026-04-12T08:50:47Z</time></trkpt><trkpt lat="44.401276057159144" lon="8.672569911994717"><ele>40.0</ele><time>2026-04-12T08:50:48Z</time></trkpt><trkpt lat="44.401218185226945" lon="8.67249579366597"><ele>40.0</ele><time>2026-04-12T08:50:49Z</time></trkpt><trkpt lat="44.40115248199535" lon="8.67241519829878"><ele>41.6</ele><time>2026-04-12T08:50:50Z</time></trkpt><trkpt lat="44.40108299318151" lon="8.672336316845508"><ele>43.2</ele><time>2026-04-12T08:50:51Z</time></trkpt><trkpt lat="44.40102317342577" lon="8.672245959611821"><ele>44.8</ele><time>2026-04-12T08:50:52Z</time></trkpt><trkpt lat="44.40096819851151" lon="8.672141269622772"><ele>46.4</ele><time>2026-04-12T08:50:53Z</time></trkpt><trkpt lat="44.40092200513415" lon="8.672030981398839"><ele>48.0</ele><time>2026-04-12T08:50:54Z</time></trkpt><trkpt lat="44.4008790328575" lon="8.671923278263629"><ele>48.0</ele><time>2026-04-12T08:50:55Z</time></trkpt><trkpt lat="44.40084520492534" lon="8.671818917263872"><ele>48.0</ele><time>2026-04-12T08:50:56Z</time></trkpt><trkpt lat="44.400822142375404" lon="8.671715741480831"><ele>48.0</ele><time>2026-04-12T08:50:57Z</time></trkpt><trkpt lat="44.40081494819932" lon="8.671601933911303"><ele>48.0</ele><time>2026-04-12T08:50:58Z</time></trkpt><trkpt lat="44.40081203482182" lon="8.671491070573675"><ele>48.0</ele><time>2026-04-12T08:50:59Z</time></trkpt><trkpt lat="44.400803498639405" lon="8.671374426301593"><ele>48.0</ele><time>2026-04-12T08:51:00Z</time></trkpt><trkpt lat="44.400791543600704" lon="8.671252997462119"><ele>48.0</ele><time>2026-04-12T08:51:01Z</time></trkpt><trkpt lat="44.40077534913668" lon="8.671126774191379"><ele>48.0</ele><time>2026-04-12T08:51:02Z</time></trkpt><trkpt lat="44.40075679104914" lon="8.671010105504095"><ele>48.0</ele><time>2026-04-12T08:51:03Z</time></trkpt><trkpt lat="44.400724893442685" lon="8.670880981162696"><ele>48.0</ele><time>2026-04-12T08:51:04Z</time></trkpt><trkpt lat="44.4006879739674" lon="8.670753810935581"><ele>48.0</ele><time>2026-04-12T08:51:05Z</time></trkpt><trkpt lat="44.40064471160946" lon="8.67063141818589"><ele>48.0</ele><time>2026-04-12T08:51:06Z</time></trkpt><trkpt lat="44.40060358924898" lon="8.670505580854863"><ele>48.0</ele><time>2026-04-12T08:51:07Z</time></trkpt><trkpt lat="44.400562529535314" lon="8.670382004621727"><ele>48.0</ele><time>2026-04-12T08:51:08Z</time></trkpt><trkpt lat="44.400522177199115" lon="8.670260917935837"><ele>48.0</ele><time>2026-04-12T08:51:09Z</time></trkpt><trkpt lat="44.40048779419589" lon="8.670143223459172"><ele>48.0</ele><time>2026-04-12T08:51:10Z</time></trkpt><trkpt lat="44.400456642935154" lon="8.670028383944988"><ele>48.57142857142857</ele><time>2026-04-12T08:51:11Z</time></trkpt><trkpt lat="44.40043082098765" lon="8.669920694219153"><ele>49.14285714285714</ele><time>2026-04-12T08:51:12Z</time></trkpt><trkpt lat="44.400418099286426" lon="8.669824276227486"><ele>49.71428571428571</ele><time>2026-04-12T08:51:13Z</time></trkpt><trkpt lat="44.400414628402565" lon="8.669725854071242"><ele>50.285714285714285</ele><time>2026-04-12T08:51:14Z</time></trkpt><trkpt lat="44.400425464137676" lon="8.669629157715807"><ele>50.85714285714286</ele><time>2026-04-12T08:51:15Z</time></trkpt><trkpt lat="44.40044734413649" lon="8.6695353403592"><ele>51.42857142857142</ele><time>2026-04-12T08:51:16Z</time></trkpt><trkpt lat="44.4004758127261" lon="8.669442343677842"><ele>52.0</ele><time>2026-04-12T08:51:17Z</time></trkpt><trkpt lat="44.40050490313074" lon="8.669349992426918"><ele>52.0</ele><time>2026-04-12T08:51:18Z</time></trkpt><trkpt lat="44.40054167494921" lon="8.669203663004115"><ele>52.0</ele><time>2026-04-12T08:51:20Z</time></trkpt><trkpt lat="44.40052893111924" lon="8.66905238247896"><ele>52.0</ele><time>2026-04-12T08:51:22Z</time></trkpt><trkpt lat="44.400451406648635" lon="8.668905574190235"><ele>52.0</ele><time>2026-04-12T08:51:24Z</time></trkpt><trkpt lat="44.40040757777979" lon="8.66882585552386"><ele>52.0</ele><time>2026-04-12T08:51:25Z</time></trkpt><trkpt lat="44.40037531800426" lon="8.668740009648353"><ele>53.99999999999999</ele><time>2026-04-12T08:51:26Z</time></trkpt><trkpt lat="44.400359123728926" lon="8.668644936589565"><ele>56.0</ele><time>2026-04-12T08:51:27Z</time></trkpt><trkpt lat="44.40036284267052" lon="8.66854496274481"><ele>58.0</ele><time>2026-04-12T08:51:28Z</time></trkpt><trkpt lat="44.400367525902716" lon="8.66843068618665"><ele>60.0</ele><time>2026-04-12T08:51:29Z</time></trkpt><trkpt lat="44.40036926338674" lon="8.668309061102223"><ele>61.99999999999999</ele><time>2026-04-12T08:51:30Z</time></trkpt><trkpt lat="44.400369179229" lon="8.668179442463586"><ele>64.0</ele><time>2026-04-12T08:51:31Z</time></trkpt><trkpt lat="44.40036825451711" lon="8.668051318351065"><ele>65.8</ele><time>2026-04-12T08:51:32Z</time></trkpt><trkpt lat="44.40036427162938" lon="8.667916787764781"><ele>67.60000000000001</ele><time>2026-04-12T08:51:33Z</time></trkpt><trkpt lat="44.400357324233674" lon="8.6677915482579"><ele>69.4</ele><time>2026-04-12T08:51:34Z</time></trkpt><trkpt lat="44.40033988627645" lon="8.667659740837173"><ele>71.2</ele><time>2026-04-12T08:51:35Z</time></trkpt><trkpt lat="44.400313828210415" lon="8.667527960566725"><ele>73.0</ele><time>2026-04-12T08:51:36Z</time></trkpt><trkpt lat="44.400282093360595" lon="8.667397369841652"><ele>73.0</ele><time>2026-04-12T08:51:37Z</time></trkpt><trkpt lat="44.40024401110695" lon="8.667266837287052"><ele>73.0</ele><time>2026-04-12T08:51:38Z</time></trkpt><trkpt lat="44.4002007325263" lon="8.667142790604103"><ele>73.0</ele><time>2026-04-12T08:51:39Z</time></trkpt><trkpt lat="44.400153926147915" lon="8.667013991196512"><ele>73.0</ele><time>2026-04-12T08:51:40Z</time></trkpt><trkpt lat="44.40010274186499" lon="8.666884726570562"><ele>73.0</ele><time>2026-04-12T08:51:41Z</time></trkpt><trkpt lat="44.400055009924635" lon="8.666755042872355"><ele>71.6</ele><time>2026-04-12T08:51:42Z</time></trkpt><trkpt lat="44.40000472688046" lon="8.666624594640872"><ele>70.19999999999999</ele><time>2026-04-12T08:51:43Z</time></trkpt><trkpt lat="44.39995212450201" lon="8.666488116369077"><ele>68.8</ele><time>2026-04-12T08:51:44Z</time></trkpt><trkpt lat="44.39990007922602" lon="8.666351145562096"><ele>67.39999999999999</ele><time>2026-04-12T08:51:45Z</time></trkpt><trkpt lat="44.3998502186644" lon="8.666220566927988"><ele>66.0</ele><time>2026-04-12T08:51:46Z</time></trkpt><trkpt lat="44.399799665208384" lon="8.666091962696358"><ele>65.39999999999999</ele><time>2026-04-12T08:51:47Z</time></trkpt><trkpt lat="44.399747349684255" lon="8.665965753738027"><ele>64.8</ele><time>2026-04-12T08:51:48Z</time></trkpt><trkpt lat="44.399697353781335" lon="8.665833311681284"><ele>64.19999999999999</ele><time>2026-04-12T08:51:49Z</time></trkpt><trkpt lat="44.399645506896505" lon="8.665698748296808"><ele>63.599999999999994</ele><time>2026-04-12T08:51:50Z</time></trkpt><trkpt lat="44.39959347728973" lon="8.665563673817536"><ele>63.0</ele><time>2026-04-12T08:51:51Z</time></trkpt><trkpt lat="44.399549435489625" lon="8.665439849129365"><ele>64.8</ele><time>2026-04-12T08:51:52Z</time></trkpt><trkpt lat="44.39949869645175" lon="8.665307872244282"><ele>66.6</ele><time>2026-04-12T08:51:53Z</time></trkpt><trkpt lat="44.39944651235816" lon="8.665169993285307"><ele>68.4</ele><time>2026-04-12T08:51:54Z</time></trkpt><trkpt lat="44.39939554028723" lon="8.665032141147666"><ele>70.2</ele><time>2026-04-12T08:51:55Z</time></trkpt><trkpt lat="44.39934721853436" lon="8.664897272783142"><ele>72.0</ele><time>2026-04-12T08:51:56Z</time></trkpt><trkpt lat="44.399295396348954" lon="8.664773317026155"><ele>72.6</ele><time>2026-04-12T08:51:57Z</time></trkpt><trkpt lat="44.3992446567993" lon="8.66464192315293"><ele>73.2</ele><time>2026-04-12T08:51:58.001Z</time></trkpt><trkpt lat="44.399192391259334" lon="8.664501144832895"><ele>73.8</ele><time>2026-04-12T08:51:59.001Z</time></trkpt><trkpt lat="44.39914663740415" lon="8.66437900572622"><ele>74.4</ele><time>2026-04-12T08:52:00.001Z</time></trkpt><trkpt lat="44.39909783691523" lon="8.664246732019159"><ele>75.0</ele><time>2026-04-12T08:52:01.001Z</time></trkpt><trkpt lat="44.399052376837815" lon="8.664124760548347"><ele>74.66666666666667</ele><time>2026-04-12T08:52:02.001Z</time></trkpt><trkpt lat="44.39900541324284" lon="8.664003814772698"><ele>74.33333333333333</ele><time>2026-04-12T08:52:03Z</time></trkpt><trkpt lat="44.39896196949018" lon="8.663891953661038"><ele>74.0</ele><time>2026-04-12T08:52:04Z</time></trkpt><trkpt lat="44.398922778893294" lon="8.663794439180998"><ele>73.66666666666666</ele><time>2026-04-12T08:52:05Z</time></trkpt><trkpt lat="44.39888014747251" lon="8.6637075998797"><ele>73.33333333333333</ele><time>2026-04-12T08:52:06Z</time></trkpt><trkpt lat="44.398832966579825" lon="8.663614747595545"><ele>73.0</ele><time>2026-04-12T08:52:07Z</time></trkpt><trkpt lat="44.39878697435123" lon="8.663534895657868"><ele>73.0</ele><time>2026-04-12T08:52:08Z</time></trkpt><trkpt lat="44.39873406064198" lon="8.663465020584567"><ele>73.0</ele><time>2026-04-12T08:52:09Z</time></trkpt><trkpt lat="44.39867283614132" lon="8.66339379321236"><ele>73.0</ele><time>2026-04-12T08:52:10Z</time></trkpt><trkpt lat="44.39861753371806" lon="8.663319333783013"><ele>73.0</ele><time>2026-04-12T08:52:11Z</time></trkpt><trkpt lat="44.39854640711193" lon="8.663278711507981"><ele>73.0</ele><time>2026-04-12T08:52:12Z</time></trkpt><trkpt lat="44.398461631372776" lon="8.663274947174148"><ele>73.0</ele><time>2026-04-12T08:52:13Z</time></trkpt><trkpt lat="44.39837566762263" lon="8.663255912872941"><ele>73.0</ele><time>2026-04-12T08:52:14Z</time></trkpt><trkpt lat="44.39828914398107" lon="8.663232443356051"><ele>73.0</ele><time>2026-04-12T08:52:15Z</time></trkpt><trkpt lat="44.398210956973465" lon="8.663213595946551"><ele>73.0</ele><time>2026-04-12T08:52:16Z</time></trkpt><trkpt lat="44.398139898713" lon="8.66320763553759"><ele>73.0</ele><time>2026-04-12T08:52:17Z</time></trkpt><trkpt lat="44.39807210342277" lon="8.663221953193998"><ele>73.0</ele><time>2026-04-12T08:52:18Z</time></trkpt><trkpt lat="44.3980020158056" lon="8.663244106202635"><ele>73.0</ele><time>2026-04-12T08:52:19Z</time></trkpt><trkpt lat="44.39793321734482" lon="8.66329633821722"><ele>71.33333333333333</ele><time>2026-04-12T08:52:20Z</time></trkpt><trkpt lat="44.39785735922705" lon="8.663349222370329"><ele>69.66666666666666</ele><time>2026-04-12T08:52:21Z</time></trkpt><trkpt lat="44.39778446685222" lon="8.66339091758122"><ele>68.0</ele><time>2026-04-12T08:52:22Z</time></trkpt><trkpt lat="44.39770271005065" lon="8.663398703202057"><ele>66.33333333333333</ele><time>2026-04-12T08:52:23Z</time></trkpt><trkpt lat="44.397615152323496" lon="8.66339254087607"><ele>64.66666666666667</ele><time>2026-04-12T08:52:24Z</time></trkpt><trkpt lat="44.3975357328231" lon="8.66336617124263"><ele>63.0</ele><time>2026-04-12T08:52:25Z</time></trkpt><trkpt lat="44.39745207737667" lon="8.663326845406479"><ele>63.0</ele><time>2026-04-12T08:52:26Z</time></trkpt><trkpt lat="44.397369573575105" lon="8.663290780041619"><ele>63.0</ele><time>2026-04-12T08:52:27Z</time></trkpt><trkpt lat="44.39728625294057" lon="8.663267046772019"><ele>63.0</ele><time>2026-04-12T08:52:28Z</time></trkpt><trkpt lat="44.397203267235966" lon="8.663249517308452"><ele>63.0</ele><time>2026-04-12T08:52:29Z</time></trkpt><trkpt lat="44.39712678122806" lon="8.66324454615296"><ele>63.0</ele><time>2026-04-12T08:52:30Z</time></trkpt><trkpt lat="44.39705795842146" lon="8.663257729883078"><ele>63.0</ele><time>2026-04-12T08:52:31Z</time></trkpt><trkpt lat="44.396997384191955" lon="8.663289466980128"><ele>62.166666666666664</ele><time>2026-04-12T08:52:32Z</time></trkpt><trkpt lat="44.39693820609638" lon="8.663338568299897"><ele>61.33333333333333</ele><time>2026-04-12T08:52:33Z</time></trkpt><trkpt lat="44.39689168258874" lon="8.66341050018477"><ele>60.5</ele><time>2026-04-12T08:52:34Z</time></trkpt><trkpt lat="44.39685537617053" lon="8.663495925751803"><ele>59.666666666666664</ele><time>2026-04-12T08:52:35Z</time></trkpt><trkpt lat="44.39683164508881" lon="8.663603248009618"><ele>58.83333333333333</ele><time>2026-04-12T08:52:36Z</time></trkpt><trkpt lat="44.39681517568912" lon="8.663717222681276"><ele>58.0</ele><time>2026-04-12T08:52:37Z</time></trkpt><trkpt lat="44.39681015027152" lon="8.663839623057827"><ele>57.99999999999999</ele><time>2026-04-12T08:52:38Z</time></trkpt><trkpt lat="44.396803326977405" lon="8.663960003952292"><ele>58.0</ele><time>2026-04-12T08:52:39Z</time></trkpt><trkpt lat="44.396785004842165" lon="8.664069585794103"><ele>58.0</ele><time>2026-04-12T08:52:40Z</time></trkpt><trkpt lat="44.396748374158655" lon="8.664167614035605"><ele>58.0</ele><time>2026-04-12T08:52:41Z</time></trkpt><trkpt lat="44.39668963236331" lon="8.664249599192301"><ele>57.99999999999999</ele><time>2026-04-12T08:52:42Z</time></trkpt><trkpt lat="44.39662226336937" lon="8.664306865549554"><ele>58.0</ele><time>2026-04-12T08:52:43Z</time></trkpt><trkpt lat="44.396541697092914" lon="8.664340833455537"><ele>58.0</ele><time>2026-04-12T08:52:44Z</time></trkpt><trkpt lat="44.396457310806596" lon="8.664371508439817"><ele>58.0</ele><time>2026-04-12T08:52:45Z</time></trkpt><trkpt lat="44.39636600258661" lon="8.664393522379976"><ele>58.0</ele><time>2026-04-12T08:52:46Z</time></trkpt><trkpt lat="44.396276262746625" lon="8.66441836538309"><ele>58.0</ele><time>2026-04-12T08:52:47Z</time></trkpt><trkpt lat="44.39617769982212" lon="8.664448450029747"><ele>58.0</ele><time>2026-04-12T08:52:48Z</time></trkpt><trkpt lat="44.39607754319616" lon="8.664485327324575"><ele>58.75</ele><time>2026-04-12T08:52:49Z</time></trkpt><trkpt lat="44.39597379420734" lon="8.66452468440626"><ele>59.5</ele><time>2026-04-12T08:52:50Z</time></trkpt><trkpt lat="44.39585874584338" lon="8.664560599134116"><ele>60.25</ele><time>2026-04-12T08:52:51Z</time></trkpt><trkpt lat="44.39574457688685" lon="8.66459815040189"><ele>61.0</ele><time>2026-04-12T08:52:52Z</time></trkpt><trkpt lat="44.395633807987146" lon="8.664641145456581"><ele>61.0</ele><time>2026-04-12T08:52:53Z</time></trkpt><trkpt lat="44.395521052034475" lon="8.664682369270249"><ele>61.0</ele><time>2026-04-12T08:52:54Z</time></trkpt><trkpt lat="44.395402962293666" lon="8.664718980805612"><ele>61.0</ele><time>2026-04-12T08:52:55Z</time></trkpt><trkpt lat="44.395276562942605" lon="8.664742759313443"><ele>61.0</ele><time>2026-04-12T08:52:56Z</time></trkpt><trkpt lat="44.39516253952276" lon="8.664782061867509"><ele>57.0</ele><time>2026-04-12T08:52:57Z</time></trkpt><trkpt lat="44.39504301570993" lon="8.664826153882872"><ele>53.0</ele><time>2026-04-12T08:52:58Z</time></trkpt><trkpt lat="44.3949264351268" lon="8.664860153216665"><ele>49.0</ele><time>2026-04-12T08:52:59Z</time></trkpt><trkpt lat="44.394807918466356" lon="8.664896953513944"><ele>45.0</ele><time>2026-04-12T08:53:00Z</time></trkpt><trkpt lat="44.394697039924054" lon="8.664936924892674"><ele>43.0</ele><time>2026-04-12T08:53:01Z</time></trkpt><trkpt lat="44.39458682735221" lon="8.66496975019922"><ele>41.0</ele><time>2026-04-12T08:53:02Z</time></trkpt><trkpt lat="44.39447180797096" lon="8.665000219166135"><ele>39.0</ele><time>2026-04-12T08:53:03Z</time></trkpt><trkpt lat="44.39436245893079" lon="8.665017366023763"><ele>37.0</ele><time>2026-04-12T08:53:04Z</time></trkpt><trkpt lat="44.394249111317976" lon="8.66502930883185"><ele>37.0</ele><time>2026-04-12T08:53:05Z</time></trkpt><trkpt lat="44.394139127074254" lon="8.665035864288328"><ele>37.0</ele><time>2026-04-12T08:53:06Z</time></trkpt><trkpt lat="44.394030722791825" lon="8.66503693984914"><ele>37.0</ele><time>2026-04-12T08:53:07Z</time></trkpt><trkpt lat="44.39391891801549" lon="8.665035210252475"><ele>37.0</ele><time>2026-04-12T08:53:08Z</time></trkpt><trkpt lat="44.39380766167114" lon="8.665032043303315"><ele>37.0</ele><time>2026-04-12T08:53:09Z</time></trkpt><trkpt lat="44.393700181288764" lon="8.665031194059233"><ele>34.800000000000004</ele><time>2026-04-12T08:53:10Z</time></trkpt><trkpt lat="44.39358964679928" lon="8.66503371253872"><ele>32.6</ele><time>2026-04-12T08:53:11Z</time></trkpt><trkpt lat="44.39347387539146" lon="8.665030214642382"><ele>30.400000000000002</ele><time>2026-04-12T08:53:12Z</time></trkpt><trkpt lat="44.393370258815935" lon="8.665033164939569"><ele>28.200000000000003</ele><time>2026-04-12T08:53:13Z</time></trkpt><trkpt lat="44.39326445156605" lon="8.66503509976465"><ele>26.0</ele><time>2026-04-12T08:53:14Z</time></trkpt><trkpt lat="44.39315962310006" lon="8.665041685861164"><ele>26.0</ele><time>2026-04-12T08:53:15Z</time></trkpt><trkpt lat="44.39305839606557" lon="8.665047526438645"><ele>26.0</ele><time>2026-04-12T08:53:16Z</time></trkpt><trkpt lat="44.3929612381382" lon="8.66505615219518"><ele>26.0</ele><time>2026-04-12T08:53:17Z</time></trkpt><trkpt lat="44.39286974062692" lon="8.66507164154189"><ele>26.0</ele><time>2026-04-12T08:53:18Z</time></trkpt><trkpt lat="44.39277873314078" lon="8.665085961240518"><ele>26.0</ele><time>2026-04-12T08:53:19Z</time></trkpt><trkpt lat="44.392686198164725" lon="8.66511020571619"><ele>24.0</ele><time>2026-04-12T08:53:20Z</time></trkpt><trkpt lat="44.39260747840509" lon="8.665145103150898"><ele>22.0</ele><time>2026-04-12T08:53:21Z</time></trkpt><trkpt lat="44.392523401199085" lon="8.66519194457641"><ele>20.0</ele><time>2026-04-12T08:53:22Z</time></trkpt><trkpt lat="44.39244342293271" lon="8.665249443254073"><ele>18.0</ele><time>2026-04-12T08:53:23Z</time></trkpt><trkpt lat="44.392357105622345" lon="8.665312886855828"><ele>16.0</ele><time>2026-04-12T08:53:24Z</time></trkpt><trkpt lat="44.392274119618186" lon="8.665381080949206"><ele>15.499999999999998</ele><time>2026-04-12T08:53:25Z</time></trkpt><trkpt lat="44.39218443941009" lon="8.665451693212985"><ele>15.0</ele><time>2026-04-12T08:53:26Z</time></trkpt><trkpt lat="44.39210248160576" lon="8.665510966606343"><ele>14.5</ele><time>2026-04-12T08:53:27Z</time></trkpt><trkpt lat="44.39202357331043" lon="8.665561356565624"><ele>14.0</ele><time>2026-04-12T08:53:28Z</time></trkpt><trkpt lat="44.391943341516736" lon="8.665603698014351"><ele>13.499999999999998</ele><time>2026-04-12T08:53:29Z</time></trkpt><trkpt lat="44.3918661819735" lon="8.665623104356177"><ele>13.0</ele><time>2026-04-12T08:53:30Z</time></trkpt><trkpt lat="44.39178181344584" lon="8.665636517113334"><ele>12.999999999999998</ele><time>2026-04-12T08:53:31Z</time></trkpt><trkpt lat="44.39170271986606" lon="8.66562808473769"><ele>13.0</ele><time>2026-04-12T08:53:32Z</time></trkpt><trkpt lat="44.391617689830476" lon="8.665608285432812"><ele>13.0</ele><time>2026-04-12T08:53:33Z</time></trkpt><trkpt lat="44.39153733344415" lon="8.665572170685893"><ele>13.0</ele><time>2026-04-12T08:53:34Z</time></trkpt><trkpt lat="44.39145872098919" lon="8.66552530938331"><ele>12.999999999999998</ele><time>2026-04-12T08:53:35Z</time></trkpt><trkpt lat="44.39138332458145" lon="8.665460801214286"><ele>13.0</ele><time>2026-04-12T08:53:36Z</time></trkpt><trkpt lat="44.391314933384486" lon="8.665393292171595"><ele>11.999999999999998</ele><time>2026-04-12T08:53:37Z</time></trkpt><trkpt lat="44.39125115847181" lon="8.665314902438185"><ele>11.0</ele><time>2026-04-12T08:53:38Z</time></trkpt><trkpt lat="44.39120021726264" lon="8.665226255976792"><ele>10.0</ele><time>2026-04-12T08:53:39Z</time></trkpt><trkpt lat="44.39116151503362" lon="8.665145185486136"><ele>9.0</ele><time>2026-04-12T08:53:40Z</time></trkpt><trkpt lat="44.39112812075541" lon="8.665050914729632"><ele>8.0</ele><time>2026-04-12T08:53:41Z</time></trkpt><trkpt lat="44.391099571300586" lon="8.664947485662385"><ele>7.0</ele><time>2026-04-12T08:53:42Z</time></trkpt><trkpt lat="44.391078523572304" lon="8.66483253490026"><ele>6.666666666666667</ele><time>2026-04-12T08:53:43Z</time></trkpt><trkpt lat="44.391066447883254" lon="8.66472424530005"><ele>6.333333333333334</ele><time>2026-04-12T08:53:44Z</time></trkpt><trkpt lat="44.391064859413" lon="8.664593633664266"><ele>6.0</ele><time>2026-04-12T08:53:45Z</time></trkpt><trkpt lat="44.39106273116965" lon="8.66446783400684"><ele>5.666666666666667</ele><time>2026-04-12T08:53:46Z</time></trkpt><trkpt lat="44.39106358466454" lon="8.66434853630389"><ele>5.333333333333334</ele><time>2026-04-12T08:53:47Z</time></trkpt><trkpt lat="44.391057165724234" lon="8.664221387968468"><ele>5.0</ele><time>2026-04-12T08:53:48Z</time></trkpt><trkpt lat="44.3910505429589" lon="8.66408664560374"><ele>5.0</ele><time>2026-04-12T08:53:49Z</time></trkpt><trkpt lat="44.391048374909765" lon="8.663955107995495"><ele>5.0</ele><time>2026-04-12T08:53:50Z</time></trkpt><trkpt lat="44.39104263188747" lon="8.663818711474079"><ele>5.0</ele><time>2026-04-12T08:53:51Z</time></trkpt><trkpt lat="44.39103589820295" lon="8.66368022153235"><ele>5.0</ele><time>2026-04-12T08:53:52Z</time></trkpt><trkpt lat="44.39103469276891" lon="8.66354125836061"><ele>5.0</ele><time>2026-04-12T08:53:53Z</time></trkpt><trkpt lat="44.391029280838225" lon="8.663397651920521"><ele>5.6</ele><time>2026-04-12T08:53:54Z</time></trkpt><trkpt lat="44.39102329824431" lon="8.663258907966592"><ele>6.2</ele><time>2026-04-12T08:53:55Z</time></trkpt><trkpt lat="44.39102027406374" lon="8.663117657654913"><ele>6.800000000000001</ele><time>2026-04-12T08:53:56Z</time></trkpt><trkpt lat="44.39101921948755" lon="8.662972121102692"><ele>7.4</ele><time>2026-04-12T08:53:57Z</time></trkpt><trkpt lat="44.39101420777671" lon="8.662827198942269"><ele>8.0</ele><time>2026-04-12T08:53:58Z</time></trkpt><trkpt lat="44.39101206046954" lon="8.66268452973163"><ele>8.4</ele><time>2026-04-12T08:53:59Z</time></trkpt><trkpt lat="44.391005099646115" lon="8.662539124116703"><ele>8.8</ele><time>2026-04-12T08:54:00Z</time></trkpt><trkpt lat="44.39100083890101" lon="8.662393757171037"><ele>9.2</ele><time>2026-04-12T08:54:01Z</time></trkpt><trkpt lat="44.3909962416927" lon="8.662246832542127"><ele>9.6</ele><time>2026-04-12T08:54:02Z</time></trkpt><trkpt lat="44.39099274046929" lon="8.662107978498367"><ele>10.0</ele><time>2026-04-12T08:54:03Z</time></trkpt><trkpt lat="44.390988770788226" lon="8.661962559110195"><ele>9.8</ele><time>2026-04-12T08:54:04Z</time></trkpt><trkpt lat="44.390984804480155" lon="8.661832151556665"><ele>9.6</ele><time>2026-04-12T08:54:05Z</time></trkpt><trkpt lat="44.39098064808887" lon="8.661685064023647"><ele>9.4</ele><time>2026-04-12T08:54:06Z</time></trkpt><trkpt lat="44.39098232222063" lon="8.66153909908625"><ele>9.2</ele><time>2026-04-12T08:54:07Z</time></trkpt><trkpt lat="44.39097795271671" lon="8.66139695440655"><ele>9.0</ele><time>2026-04-12T08:54:08Z</time></trkpt><trkpt lat="44.390972900215615" lon="8.66125795395628"><ele>8.8</ele><time>2026-04-12T08:54:09Z</time></trkpt><trkpt lat="44.39096670994095" lon="8.661112640746754"><ele>8.600000000000001</ele><time>2026-04-12T08:54:10Z</time></trkpt><trkpt lat="44.3909632418622" lon="8.660961234907663"><ele>8.4</ele><time>2026-04-12T08:54:11Z</time></trkpt><trkpt lat="44.39096100838131" lon="8.66082012771459"><ele>8.200000000000001</ele><time>2026-04-12T08:54:12Z</time></trkpt><trkpt lat="44.39095645800896" lon="8.660686915450583"><ele>8.0</ele><time>2026-04-12T08:54:13Z</time></trkpt><trkpt lat="44.390951117622144" lon="8.66054649756947"><ele>8.0</ele><time>2026-04-12T08:54:14Z</time></trkpt><trkpt lat="44.390945831934786" lon="8.660412930760534"><ele>8.0</ele><time>2026-04-12T08:54:15Z</time></trkpt><trkpt lat="44.39094275835244" lon="8.660285153405592"><ele>8.0</ele><time>2026-04-12T08:54:16Z</time></trkpt><trkpt lat="44.390941064986976" lon="8.660160137768173"><ele>8.0</ele><time>2026-04-12T08:54:17Z</time></trkpt><trkpt lat="44.39093601813925" lon="8.660031185183863"><ele>8.0</ele><time>2026-04-12T08:54:18Z</time></trkpt><trkpt lat="44.390932198157344" lon="8.65989262793733"><ele>8.0</ele><time>2026-04-12T08:54:19Z</time></trkpt><trkpt lat="44.39092899048212" lon="8.65975414726921"><ele>8.0</ele><time>2026-04-12T08:54:20Z</time></trkpt><trkpt lat="44.390924195495856" lon="8.659607733216285"><ele>8.0</ele><time>2026-04-12T08:54:21Z</time></trkpt><trkpt lat="44.39092000529735" lon="8.65947132277191"><ele>8.0</ele><time>2026-04-12T08:54:22Z</time></trkpt><trkpt lat="44.390915943079136" lon="8.659330851315156"><ele>8.0</ele><time>2026-04-12T08:54:23Z</time></trkpt><trkpt lat="44.390911396918895" lon="8.65918698830267"><ele>7.6000000000000005</ele><time>2026-04-12T08:54:24Z</time></trkpt><trkpt lat="44.39090552102677" lon="8.65903803464147"><ele>7.200000000000001</ele><time>2026-04-12T08:54:25Z</time></trkpt><trkpt lat="44.39090214498174" lon="8.658890756576536"><ele>6.8</ele><time>2026-04-12T08:54:26Z</time></trkpt><trkpt lat="44.39089860496144" lon="8.658750842375442"><ele>6.4</ele><time>2026-04-12T08:54:27Z</time></trkpt><trkpt lat="44.39089296559368" lon="8.65859482628484"><ele>6.0</ele><time>2026-04-12T08:54:28Z</time></trkpt><trkpt lat="44.39089037034827" lon="8.658446814369917"><ele>6.0</ele><time>2026-04-12T08:54:29Z</time></trkpt><trkpt lat="44.3908846143523" lon="8.65830130042563"><ele>6.0</ele><time>2026-04-12T08:54:30Z</time></trkpt><trkpt lat="44.3908812395965" lon="8.658151204660903"><ele>6.0</ele><time>2026-04-12T08:54:31Z</time></trkpt><trkpt lat="44.390877699965785" lon="8.657997858353667"><ele>6.0</ele><time>2026-04-12T08:54:32Z</time></trkpt><trkpt lat="44.39087499855717" lon="8.657838396779836"><ele>6.0</ele><time>2026-04-12T08:54:33Z</time></trkpt><trkpt lat="44.39087045360787" lon="8.657683690585605"><ele>6.199999999999999</ele><time>2026-04-12T08:54:34Z</time></trkpt><trkpt lat="44.39086224813016" lon="8.657526550562313"><ele>6.3999999999999995</ele><time>2026-04-12T08:54:35Z</time></trkpt><trkpt lat="44.39085743971274" lon="8.657375803572403"><ele>6.6</ele><time>2026-04-12T08:54:36Z</time></trkpt><trkpt lat="44.39085215360932" lon="8.657224414806713"><ele>6.8</ele><time>2026-04-12T08:54:37Z</time></trkpt><trkpt lat="44.39084608442381" lon="8.657067264105557"><ele>7.0</ele><time>2026-04-12T08:54:38Z</time></trkpt><trkpt lat="44.39084141088523" lon="8.65690657463998"><ele>7.6</ele><time>2026-04-12T08:54:39Z</time></trkpt><trkpt lat="44.39083650205694" lon="8.656746010763595"><ele>8.2</ele><time>2026-04-12T08:54:40Z</time></trkpt><trkpt lat="44.3908340793458" lon="8.656597333303504"><ele>8.8</ele><time>2026-04-12T08:54:41Z</time></trkpt><trkpt lat="44.390826440126524" lon="8.656442780760528"><ele>9.4</ele><time>2026-04-12T08:54:42Z</time></trkpt><trkpt lat="44.39081867786841" lon="8.656286642457058"><ele>10.0</ele><time>2026-04-12T08:54:43Z</time></trkpt><trkpt lat="44.390814656286636" lon="8.656125193105307"><ele>10.5</ele><time>2026-04-12T08:54:44Z</time></trkpt><trkpt lat="44.39080985293735" lon="8.655970258039194"><ele>11.0</ele><time>2026-04-12T08:54:45Z</time></trkpt><trkpt lat="44.390800908930835" lon="8.655811836871628"><ele>11.5</ele><time>2026-04-12T08:54:46Z</time></trkpt><trkpt lat="44.39079642299751" lon="8.655650504578938"><ele>12.0</ele><time>2026-04-12T08:54:47Z</time></trkpt><trkpt lat="44.39079048765025" lon="8.655493356780362"><ele>12.0</ele><time>2026-04-12T08:54:48Z</time></trkpt><trkpt lat="44.390782605041174" lon="8.655331670726364"><ele>12.0</ele><time>2026-04-12T08:54:49Z</time></trkpt><trkpt lat="44.3907724376055" lon="8.655177029038148"><ele>12.0</ele><time>2026-04-12T08:54:50Z</time></trkpt><trkpt lat="44.39076650885716" lon="8.65500848072824"><ele>12.0</ele><time>2026-04-12T08:54:51Z</time></trkpt><trkpt lat="44.39075758780946" lon="8.654857896026785"><ele>12.0</ele><time>2026-04-12T08:54:52Z</time></trkpt><trkpt lat="44.390748033633635" lon="8.654714504817822"><ele>12.0</ele><time>2026-04-12T08:54:53Z</time></trkpt><trkpt lat="44.39073724333945" lon="8.654563487231282"><ele>12.0</ele><time>2026-04-12T08:54:54Z</time></trkpt><trkpt lat="44.39072834804196" lon="8.654419667778582"><ele>12.0</ele><time>2026-04-12T08:54:55Z</time></trkpt><trkpt lat="44.39071829025464" lon="8.65427521093353"><ele>12.0</ele><time>2026-04-12T08:54:56Z</time></trkpt><trkpt lat="44.39070474122667" lon="8.654123123895811"><ele>12.0</ele><time>2026-04-12T08:54:57Z</time></trkpt><trkpt lat="44.39069291128208" lon="8.653969692856021"><ele>12.0</ele><time>2026-04-12T08:54:58Z</time></trkpt><trkpt lat="44.39067861250939" lon="8.653817483656205"><ele>12.0</ele><time>2026-04-12T08:54:59Z</time></trkpt><trkpt lat="44.39066383561186" lon="8.65367219941555"><ele>12.0</ele><time>2026-04-12T08:55:00Z</time></trkpt><trkpt lat="44.39064744675441" lon="8.653524969240678"><ele>12.0</ele><time>2026-04-12T08:55:01Z</time></trkpt><trkpt lat="44.39063189612332" lon="8.653384991670372"><ele>12.0</ele><time>2026-04-12T08:55:02Z</time></trkpt><trkpt lat="44.39061614472228" lon="8.653239614995849"><ele>12.0</ele><time>2026-04-12T08:55:03Z</time></trkpt><trkpt lat="44.39059772304055" lon="8.653097068581747"><ele>12.0</ele><time>2026-04-12T08:55:04Z</time></trkpt><trkpt lat="44.390581363474716" lon="8.652951006297071"><ele>12.0</ele><time>2026-04-12T08:55:05Z</time></trkpt><trkpt lat="44.39056433410235" lon="8.652802589570806"><ele>12.0</ele><time>2026-04-12T08:55:06Z</time></trkpt><trkpt lat="44.39054405002977" lon="8.652655179502448"><ele>12.6</ele><time>2026-04-12T08:55:07Z</time></trkpt><trkpt lat="44.39052426825657" lon="8.652507404710585"><ele>13.2</ele><time>2026-04-12T08:55:08Z</time></trkpt><trkpt lat="44.390500526797844" lon="8.652357029823989"><ele>13.8</ele><time>2026-04-12T08:55:09Z</time></trkpt><trkpt lat="44.39047829412683" lon="8.652205355148592"><ele>14.4</ele><time>2026-04-12T08:55:10Z</time></trkpt><trkpt lat="44.390458729629245" lon="8.65205485090524"><ele>15.0</ele><time>2026-04-12T08:55:11Z</time></trkpt><trkpt lat="44.39043581872536" lon="8.651902117211215"><ele>12.4</ele><time>2026-04-12T08:55:12Z</time></trkpt><trkpt lat="44.390411769278934" lon="8.651744321191057"><ele>9.8</ele><time>2026-04-12T08:55:13Z</time></trkpt><trkpt lat="44.39038950596409" lon="8.651586251031883"><ele>7.2</ele><time>2026-04-12T08:55:14Z</time></trkpt><trkpt lat="44.390366935705195" lon="8.651443385792446"><ele>4.6</ele><time>2026-04-12T08:55:15Z</time></trkpt><trkpt lat="44.39034647488711" lon="8.65128630242267"><ele>2.0</ele><time>2026-04-12T08:55:16Z</time></trkpt><trkpt lat="44.39032542083829" lon="8.651142905935739"><ele>2.8</ele><time>2026-04-12T08:55:17Z</time></trkpt><trkpt lat="44.39030478795833" lon="8.650999867507625"><ele>3.6</ele><time>2026-04-12T08:55:18Z</time></trkpt><trkpt lat="44.39028502437143" lon="8.65086246181301"><ele>4.3999999999999995</ele><time>2026-04-12T08:55:19Z</time></trkpt><trkpt lat="44.390266669953434" lon="8.650737435913255"><ele>5.2</ele><time>2026-04-12T08:55:20Z</time></trkpt><trkpt lat="44.39024631219322" lon="8.650606604219687"><ele>6.0</ele><time>2026-04-12T08:55:21Z</time></trkpt><trkpt lat="44.39022398709336" lon="8.650464977736991"><ele>6.0</ele><time>2026-04-12T08:55:22Z</time></trkpt><trkpt lat="44.3902037837822" lon="8.650327788831301"><ele>6.0</ele><time>2026-04-12T08:55:23Z</time></trkpt><trkpt lat="44.39018284708393" lon="8.650184409907016"><ele>6.0</ele><time>2026-04-12T08:55:24Z</time></trkpt><trkpt lat="44.39016370243699" lon="8.650048374134329"><ele>6.0</ele><time>2026-04-12T08:55:25Z</time></trkpt><trkpt lat="44.390142110096505" lon="8.649897330559496"><ele>6.0</ele><time>2026-04-12T08:55:26Z</time></trkpt><trkpt lat="44.39012243383725" lon="8.64975335807371"><ele>6.0</ele><time>2026-04-12T08:55:27Z</time></trkpt><trkpt lat="44.39010076503569" lon="8.649609230282495"><ele>6.0</ele><time>2026-04-12T08:55:28Z</time></trkpt><trkpt lat="44.39007918747711" lon="8.649473260503562"><ele>6.0</ele><time>2026-04-12T08:55:29Z</time></trkpt><trkpt lat="44.39005607603706" lon="8.64933249381196"><ele>6.0</ele><time>2026-04-12T08:55:30Z</time></trkpt><trkpt lat="44.39003094729905" lon="8.649184922012058"><ele>6.0</ele><time>2026-04-12T08:55:31Z</time></trkpt><trkpt lat="44.39000563960544" lon="8.64905488220931"><ele>6.4</ele><time>2026-04-12T08:55:32Z</time></trkpt><trkpt lat="44.389977291861946" lon="8.648920255140375"><ele>6.8</ele><time>2026-04-12T08:55:33Z</time></trkpt><trkpt lat="44.3899428019004" lon="8.648772760971418"><ele>7.200000000000001</ele><time>2026-04-12T08:55:34Z</time></trkpt><trkpt lat="44.389911379848876" lon="8.648646230704681"><ele>7.6000000000000005</ele><time>2026-04-12T08:55:35Z</time></trkpt><trkpt lat="44.389879467795616" lon="8.648526157064161"><ele>8.0</ele><time>2026-04-12T08:55:36Z</time></trkpt><trkpt lat="44.38985122129015" lon="8.648414204609578"><ele>8.285714285714285</ele><time>2026-04-12T08:55:37Z</time></trkpt><trkpt lat="44.38982317123627" lon="8.648316094099668"><ele>8.571428571428571</ele><time>2026-04-12T08:55:38Z</time></trkpt><trkpt lat="44.389799336806476" lon="8.648218146205513"><ele>8.857142857142858</ele><time>2026-04-12T08:55:39Z</time></trkpt><trkpt lat="44.38977282451426" lon="8.648118697324012"><ele>9.142857142857142</ele><time>2026-04-12T08:55:40Z</time></trkpt><trkpt lat="44.389749789328455" lon="8.648020526088501"><ele>9.428571428571429</ele><time>2026-04-12T08:55:41Z</time></trkpt><trkpt lat="44.3897255401946" lon="8.647923306690332"><ele>9.714285714285714</ele><time>2026-04-12T08:55:42Z</time></trkpt><trkpt lat="44.38970080973856" lon="8.647827310159217"><ele>10.0</ele><time>2026-04-12T08:55:43Z</time></trkpt><trkpt lat="44.38967113294041" lon="8.647714811782567"><ele>9.0</ele><time>2026-04-12T08:55:44Z</time></trkpt><trkpt lat="44.38964500393885" lon="8.647605449151316"><ele>8.0</ele><time>2026-04-12T08:55:45Z</time></trkpt><trkpt lat="44.38961817736801" lon="8.647506157874506"><ele>7.0</ele><time>2026-04-12T08:55:46Z</time></trkpt><trkpt lat="44.389593753779394" lon="8.647402728041762"><ele>6.0</ele><time>2026-04-12T08:55:47Z</time></trkpt><trkpt lat="44.38956825937905" lon="8.647302636021696"><ele>5.0</ele><time>2026-04-12T08:55:48Z</time></trkpt><trkpt lat="44.38953926055086" lon="8.647202985531708"><ele>4.0</ele><time>2026-04-12T08:55:49Z</time></trkpt><trkpt lat="44.38951289054579" lon="8.64711524755584"><ele>4.0</ele><time>2026-04-12T08:55:50Z</time></trkpt><trkpt lat="44.38948394662257" lon="8.647013517109967"><ele>4.0</ele><time>2026-04-12T08:55:51Z</time></trkpt><trkpt lat="44.38945582022047" lon="8.646908817321314"><ele>4.0</ele><time>2026-04-12T08:55:52Z</time></trkpt><trkpt lat="44.38943127055887" lon="8.646809587643338"><ele>4.0</ele><time>2026-04-12T08:55:53Z</time></trkpt><trkpt lat="44.38939168351025" lon="8.646651525269478"><ele>4.0</ele><time>2026-04-12T08:55:55Z</time></trkpt><trkpt lat="44.38935731113775" lon="8.646523568797637"><ele>4.142857142857142</ele><time>2026-04-12T08:55:57Z</time></trkpt><trkpt lat="44.389329418291354" lon="8.646425424013412"><ele>4.285714285714286</ele><time>2026-04-12T08:55:59Z</time></trkpt><trkpt lat="44.38930625415395" lon="8.646330666713862"><ele>4.428571428571429</ele><time>2026-04-12T08:56:01Z</time></trkpt><trkpt lat="44.38927616553486" lon="8.6462207474782"><ele>4.571428571428571</ele><time>2026-04-12T08:56:03Z</time></trkpt><trkpt lat="44.38924632398049" lon="8.64613517569775"><ele>4.714285714285714</ele><time>2026-04-12T08:56:07Z</time></trkpt><trkpt lat="44.389213366069654" lon="8.646054358985412"><ele>4.857142857142857</ele><time>2026-04-12T08:56:19Z</time></trkpt><trkpt lat="44.389187883223656" lon="8.645964354423548"><ele>5.0</ele><time>2026-04-12T08:56:21Z</time></trkpt><trkpt lat="44.38914772574074" lon="8.645831916459935"><ele>5.4</ele><time>2026-04-12T08:56:23Z</time></trkpt><trkpt lat="44.389109666003776" lon="8.645690078316518"><ele>5.8</ele><time>2026-04-12T08:56:25Z</time></trkpt><trkpt lat="44.38906554075198" lon="8.645556995819442"><ele>6.199999999999999</ele><time>2026-04-12T08:56:27Z</time></trkpt><trkpt lat="44.38901258473555" lon="8.645419467688837"><ele>6.6</ele><time>2026-04-12T08:56:29Z</time></trkpt><trkpt lat="44.38896726960399" lon="8.645292047348303"><ele>7.0</ele><time>2026-04-12T08:56:31Z</time></trkpt><trkpt lat="44.388929128487845" lon="8.645193540339108"><ele>6.833333333333334</ele><time>2026-04-12T08:56:33Z</time></trkpt><trkpt lat="44.38888007274489" lon="8.645058517647831"><ele>6.666666666666667</ele><time>2026-04-12T08:56:35Z</time></trkpt><trkpt lat="44.38882111896803" lon="8.644913861028845"><ele>6.5</ele><time>2026-04-12T08:56:37Z</time></trkpt><trkpt lat="44.38878431760025" lon="8.644841983474985"><ele>6.333333333333334</ele><time>2026-04-12T08:56:38Z</time></trkpt><trkpt lat="44.38875267226464" lon="8.64476035370743"><ele>6.166666666666667</ele><time>2026-04-12T08:56:39Z</time></trkpt><trkpt lat="44.388718979596725" lon="8.644677429447803"><ele>6.0</ele><time>2026-04-12T08:56:40Z</time></trkpt><trkpt lat="44.38868383305499" lon="8.644601904409111"><ele>6.0</ele><time>2026-04-12T08:56:41Z</time></trkpt><trkpt lat="44.38864880131707" lon="8.644524294632776"><ele>6.0</ele><time>2026-04-12T08:56:42Z</time></trkpt><trkpt lat="44.388610638535724" lon="8.644447101848742"><ele>6.0</ele><time>2026-04-12T08:56:43Z</time></trkpt><trkpt lat="44.38856947563186" lon="8.644372377932267"><ele>6.0</ele><time>2026-04-12T08:56:44Z</time></trkpt><trkpt lat="44.388521874215186" lon="8.644296170743406"><ele>6.0</ele><time>2026-04-12T08:56:45Z</time></trkpt><trkpt lat="44.3884832719949" lon="8.644226375578985"><ele>6.0</ele><time>2026-04-12T08:56:46Z</time></trkpt><trkpt lat="44.3883957198151" lon="8.644091598356622"><ele>6.0</ele><time>2026-04-12T08:56:48Z</time></trkpt><trkpt lat="44.388318448656825" lon="8.643961747063532"><ele>6.0</ele><time>2026-04-12T08:56:50Z</time></trkpt><trkpt lat="44.38826569350277" lon="8.643894422163466"><ele>6.0</ele><time>2026-04-12T08:56:51Z</time></trkpt><trkpt lat="44.38821876995408" lon="8.643835037807955"><ele>6.0</ele><time>2026-04-12T08:56:52Z</time></trkpt><trkpt lat="44.388167394286015" lon="8.643773602424835"><ele>6.0</ele><time>2026-04-12T08:56:53Z</time></trkpt><trkpt lat="44.38811275035469" lon="8.643707250913515"><ele>6.0</ele><time>2026-04-12T08:56:54Z</time></trkpt><trkpt lat="44.38806567423289" lon="8.643644869741346"><ele>6.166666666666667</ele><time>2026-04-12T08:56:55Z</time></trkpt><trkpt lat="44.38801994712166" lon="8.643570412017874"><ele>6.333333333333334</ele><time>2026-04-12T08:56:56Z</time></trkpt><trkpt lat="44.387974712008884" lon="8.64348425521524"><ele>6.5</ele><time>2026-04-12T08:56:57Z</time></trkpt><trkpt lat="44.38790306616306" lon="8.643325076791536"><ele>6.666666666666667</ele><time>2026-04-12T08:56:59Z</time></trkpt><trkpt lat="44.387862886368595" lon="8.643237147956354"><ele>6.833333333333334</ele><time>2026-04-12T08:57:00Z</time></trkpt><trkpt lat="44.387828917319375" lon="8.643159668588957"><ele>7.0</ele><time>2026-04-12T08:57:01Z</time></trkpt><trkpt lat="44.38779750105082" lon="8.643080132232258"><ele>6.666666666666667</ele><time>2026-04-12T08:57:02Z</time></trkpt><trkpt lat="44.38776416555709" lon="8.642999962865119"><ele>6.333333333333334</ele><time>2026-04-12T08:57:03Z</time></trkpt><trkpt lat="44.38773377021214" lon="8.642919781720776"><ele>6.0</ele><time>2026-04-12T08:57:04Z</time></trkpt><trkpt lat="44.38770257913941" lon="8.64283408528456"><ele>5.666666666666667</ele><time>2026-04-12T08:57:05Z</time></trkpt><trkpt lat="44.3876707500102" lon="8.64274673001624"><ele>5.333333333333334</ele><time>2026-04-12T08:57:06Z</time></trkpt><trkpt lat="44.38761487078485" lon="8.642584469283843"><ele>5.0</ele><time>2026-04-12T08:57:08Z</time></trkpt><trkpt lat="44.387583779094776" lon="8.642492179921751"><ele>5.0</ele><time>2026-04-12T08:57:09Z</time></trkpt><trkpt lat="44.387553811843816" lon="8.642392956563937"><ele>5.0</ele><time>2026-04-12T08:57:10Z</time></trkpt><trkpt lat="44.38752243824577" lon="8.64229528462502"><ele>5.0</ele><time>2026-04-12T08:57:11Z</time></trkpt><trkpt lat="44.38748905181624" lon="8.642191690412794"><ele>5.0</ele><time>2026-04-12T08:57:12Z</time></trkpt><trkpt lat="44.387462760842475" lon="8.642103222402211"><ele>5.0</ele><time>2026-04-12T08:57:13Z</time></trkpt><trkpt lat="44.3874097619628" lon="8.641929818542689"><ele>5.0</ele><time>2026-04-12T08:57:15Z</time></trkpt><trkpt lat="44.3873691131715" lon="8.64179569204555"><ele>5.8</ele><time>2026-04-12T08:57:17Z</time></trkpt><trkpt lat="44.387327634242666" lon="8.64166913785779"><ele>6.6</ele><time>2026-04-12T08:57:19Z</time></trkpt><trkpt lat="44.38728640500348" lon="8.641523689109997"><ele>7.4</ele><time>2026-04-12T08:57:21Z</time></trkpt><trkpt lat="44.38726157077763" lon="8.64143906638375"><ele>8.2</ele><time>2026-04-12T08:57:22Z</time></trkpt><trkpt lat="44.38722256204396" lon="8.641293496241481"><ele>9.0</ele><time>2026-04-12T08:57:24Z</time></trkpt><trkpt lat="44.38717598524446" lon="8.641136873274041"><ele>7.833333333333333</ele><time>2026-04-12T08:57:26Z</time></trkpt><trkpt lat="44.387126091055585" lon="8.640975719609116"><ele>6.666666666666667</ele><time>2026-04-12T08:57:28Z</time></trkpt><trkpt lat="44.38709494399392" lon="8.640884773343416"><ele>5.5</ele><time>2026-04-12T08:57:29Z</time></trkpt><trkpt lat="44.38706126228346" lon="8.640781975435864"><ele>4.333333333333333</ele><time>2026-04-12T08:57:30Z</time></trkpt><trkpt lat="44.38702987892878" lon="8.64068775288294"><ele>3.1666666666666665</ele><time>2026-04-12T08:57:31Z</time></trkpt><trkpt lat="44.38700230355854" lon="8.64060213545905"><ele>2.0</ele><time>2026-04-12T08:57:32Z</time></trkpt><trkpt lat="44.38696766881758" lon="8.640510686135103"><ele>1.9999999999999998</ele><time>2026-04-12T08:57:33Z</time></trkpt><trkpt lat="44.386929694892075" lon="8.640404743408313"><ele>2.0</ele><time>2026-04-12T08:57:34Z</time></trkpt><trkpt lat="44.386892585643835" lon="8.64031423806468"><ele>2.0</ele><time>2026-04-12T08:57:35Z</time></trkpt><trkpt lat="44.386856613479644" lon="8.64022619181228"><ele>2.0</ele><time>2026-04-12T08:57:36Z</time></trkpt><trkpt lat="44.38681523507756" lon="8.640134057080784"><ele>1.9999999999999998</ele><time>2026-04-12T08:57:37Z</time></trkpt><trkpt lat="44.3867741916877" lon="8.640042081512556"><ele>2.0</ele><time>2026-04-12T08:57:38Z</time></trkpt><trkpt lat="44.3867351770185" lon="8.639943076462465"><ele>2.333333333333333</ele><time>2026-04-12T08:57:39Z</time></trkpt><trkpt lat="44.386692681995335" lon="8.63983722092608"><ele>2.6666666666666665</ele><time>2026-04-12T08:57:40Z</time></trkpt><trkpt lat="44.38665036265345" lon="8.63974159887413"><ele>3.0</ele><time>2026-04-12T08:57:41Z</time></trkpt><trkpt lat="44.386609603469964" lon="8.639642508591317"><ele>3.333333333333333</ele><time>2026-04-12T08:57:42Z</time></trkpt><trkpt lat="44.38656313196474" lon="8.639547251012232"><ele>3.6666666666666665</ele><time>2026-04-12T08:57:43Z</time></trkpt><trkpt lat="44.38651606956404" lon="8.639447596953255"><ele>4.0</ele><time>2026-04-12T08:57:44Z</time></trkpt><trkpt lat="44.386466911627735" lon="8.639360267876501"><ele>3.9999999999999996</ele><time>2026-04-12T08:57:45Z</time></trkpt><trkpt lat="44.38642303377205" lon="8.63928987389456"><ele>4.0</ele><time>2026-04-12T08:57:46Z</time></trkpt><trkpt lat="44.38637512880975" lon="8.639213701338528"><ele>4.0</ele><time>2026-04-12T08:57:47Z</time></trkpt><trkpt lat="44.38632408025202" lon="8.639138281625845"><ele>4.0</ele><time>2026-04-12T08:57:48Z</time></trkpt><trkpt lat="44.386267372767136" lon="8.639054375385298"><ele>3.9999999999999996</ele><time>2026-04-12T08:57:49Z</time></trkpt><trkpt lat="44.38620523353519" lon="8.63896339253745"><ele>4.0</ele><time>2026-04-12T08:57:50Z</time></trkpt><trkpt lat="44.38613930410876" lon="8.638876614753286"><ele>4.2</ele><time>2026-04-12T08:57:51Z</time></trkpt><trkpt lat="44.38607746875272" lon="8.638795008812883"><ele>4.4</ele><time>2026-04-12T08:57:52Z</time></trkpt><trkpt lat="44.38600800288394" lon="8.638718284118587"><ele>4.6</ele><time>2026-04-12T08:57:53Z</time></trkpt><trkpt lat="44.38593096918488" lon="8.638644696124791"><ele>4.8</ele><time>2026-04-12T08:57:54Z</time></trkpt><trkpt lat="44.38585673667669" lon="8.638572465018113"><ele>5.0</ele><time>2026-04-12T08:57:55Z</time></trkpt><trkpt lat="44.38577603075258" lon="8.638497270569282"><ele>5.0</ele><time>2026-04-12T08:57:56Z</time></trkpt><trkpt lat="44.38568945230573" lon="8.63842477849926"><ele>5.0</ele><time>2026-04-12T08:57:57Z</time></trkpt><trkpt lat="44.385599472107714" lon="8.63836232723702"><ele>5.0</ele><time>2026-04-12T08:57:58Z</time></trkpt><trkpt lat="44.38550926438351" lon="8.638296621766962"><ele>5.0</ele><time>2026-04-12T08:57:59Z</time></trkpt><trkpt lat="44.3854167890031" lon="8.63823393021658"><ele>5.0</ele><time>2026-04-12T08:58:00Z</time></trkpt><trkpt lat="44.38532579111279" lon="8.638170796327515"><ele>4.8</ele><time>2026-04-12T08:58:01Z</time></trkpt><trkpt lat="44.38523481419718" lon="8.63810567375609"><ele>4.6</ele><time>2026-04-12T08:58:02Z</time></trkpt><trkpt lat="44.38514272918564" lon="8.638039880712396"><ele>4.4</ele><time>2026-04-12T08:58:03Z</time></trkpt><trkpt lat="44.38505442875391" lon="8.63797579288294"><ele>4.2</ele><time>2026-04-12T08:58:04Z</time></trkpt><trkpt lat="44.384964899913996" lon="8.637917987342608"><ele>4.0</ele><time>2026-04-12T08:58:05Z</time></trkpt><trkpt lat="44.38487645490634" lon="8.637855398677186"><ele>4.6</ele><time>2026-04-12T08:58:06Z</time></trkpt><trkpt lat="44.38478627764547" lon="8.63779664176281"><ele>5.2</ele><time>2026-04-12T08:58:07Z</time></trkpt><trkpt lat="44.38469409690109" lon="8.637738898280842"><ele>5.799999999999999</ele><time>2026-04-12T08:58:08Z</time></trkpt><trkpt lat="44.384607923687426" lon="8.63768282545701"><ele>6.3999999999999995</ele><time>2026-04-12T08:58:09Z</time></trkpt><trkpt lat="44.38452239985966" lon="8.637628191066453"><ele>7.0</ele><time>2026-04-12T08:58:10Z</time></trkpt><trkpt lat="44.384433726959465" lon="8.637580176966624"><ele>7.199999999999999</ele><time>2026-04-12T08:58:11Z</time></trkpt><trkpt lat="44.38434480073464" lon="8.637531448848048"><ele>7.3999999999999995</ele><time>2026-04-12T08:58:12Z</time></trkpt><trkpt lat="44.384254591696966" lon="8.637478666226777"><ele>7.6000000000000005</ele><time>2026-04-12T08:58:13Z</time></trkpt><trkpt lat="44.38415988578296" lon="8.637427647588106"><ele>7.800000000000001</ele><time>2026-04-12T08:58:14Z</time></trkpt><trkpt lat="44.38406240145155" lon="8.637377482517621"><ele>8.0</ele><time>2026-04-12T08:58:15Z</time></trkpt><trkpt lat="44.383964322879265" lon="8.637326695016858"><ele>8.0</ele><time>2026-04-12T08:58:16Z</time></trkpt><trkpt lat="44.383866770888865" lon="8.637271968526768"><ele>8.0</ele><time>2026-04-12T08:58:17Z</time></trkpt><trkpt lat="44.383774853202084" lon="8.637221745979843"><ele>8.0</ele><time>2026-04-12T08:58:18Z</time></trkpt><trkpt lat="44.3836830319978" lon="8.637174069585694"><ele>8.0</ele><time>2026-04-12T08:58:19Z</time></trkpt><trkpt lat="44.38358834725258" lon="8.63712726055138"><ele>8.0</ele><time>2026-04-12T08:58:20Z</time></trkpt><trkpt lat="44.38349723570225" lon="8.637076487499266"><ele>7.2</ele><time>2026-04-12T08:58:21Z</time></trkpt><trkpt lat="44.383403535056075" lon="8.637029354693754"><ele>6.4</ele><time>2026-04-12T08:58:22Z</time></trkpt><trkpt lat="44.383308825917226" lon="8.636982626711676"><ele>5.6000000000000005</ele><time>2026-04-12T08:58:23Z</time></trkpt><trkpt lat="44.38321447303079" lon="8.636932655743035"><ele>4.800000000000001</ele><time>2026-04-12T08:58:24Z</time></trkpt><trkpt lat="44.383121553472165" lon="8.63688380229134"><ele>4.0</ele><time>2026-04-12T08:58:25Z</time></trkpt><trkpt lat="44.383026392788" lon="8.636834047327595"><ele>4.0</ele><time>2026-04-12T08:58:26Z</time></trkpt><trkpt lat="44.38292917050309" lon="8.636789647299674"><ele>4.0</ele><time>2026-04-12T08:58:27Z</time></trkpt><trkpt lat="44.38283597054997" lon="8.636737263488882"><ele>4.0</ele><time>2026-04-12T08:58:28Z</time></trkpt><trkpt lat="44.38273893062672" lon="8.63668522219492"><ele>4.0</ele><time>2026-04-12T08:58:29Z</time></trkpt><trkpt lat="44.38263958461561" lon="8.636633904517131"><ele>4.0</ele><time>2026-04-12T08:58:30Z</time></trkpt><trkpt lat="44.382543526509316" lon="8.636574747927002"><ele>4.0</ele><time>2026-04-12T08:58:31Z</time></trkpt><trkpt lat="44.3824467097268" lon="8.636515568374945"><ele>4.0</ele><time>2026-04-12T08:58:32Z</time></trkpt><trkpt lat="44.382350487059085" lon="8.63646045892004"><ele>4.0</ele><time>2026-04-12T08:58:33Z</time></trkpt><trkpt lat="44.38225641179263" lon="8.636406426417427"><ele>4.0</ele><time>2026-04-12T08:58:34Z</time></trkpt><trkpt lat="44.38215812259624" lon="8.636348592171373"><ele>4.0</ele><time>2026-04-12T08:58:35Z</time></trkpt><trkpt lat="44.38206542357784" lon="8.636290089096224"><ele>4.0</ele><time>2026-04-12T08:58:36Z</time></trkpt><trkpt lat="44.38197051791354" lon="8.636231268699516"><ele>4.0</ele><time>2026-04-12T08:58:37Z</time></trkpt><trkpt lat="44.38187502830454" lon="8.636170249017606"><ele>4.0</ele><time>2026-04-12T08:58:38Z</time></trkpt><trkpt lat="44.38177565406937" lon="8.636106379583602"><ele>4.0</ele><time>2026-04-12T08:58:39Z</time></trkpt><trkpt lat="44.38168480949282" lon="8.636047859894935"><ele>4.0</ele><time>2026-04-12T08:58:40Z</time></trkpt><trkpt lat="44.381591082343036" lon="8.635987316671576"><ele>4.0</ele><time>2026-04-12T08:58:41Z</time></trkpt><trkpt lat="44.38149384612029" lon="8.635919861244037"><ele>4.0</ele><time>2026-04-12T08:58:42Z</time></trkpt><trkpt lat="44.381414300370785" lon="8.635844693276635"><ele>4.0</ele><time>2026-04-12T08:58:43Z</time></trkpt><trkpt lat="44.38133916194112" lon="8.635761264638914"><ele>4.0</ele><time>2026-04-12T08:58:44Z</time></trkpt><trkpt lat="44.381277695733715" lon="8.635667010016343"><ele>4.0</ele><time>2026-04-12T08:58:45Z</time></trkpt><trkpt lat="44.381225777950675" lon="8.63555908180891"><ele>4.0</ele><time>2026-04-12T08:58:46Z</time></trkpt><trkpt lat="44.381184087127984" lon="8.63543536494734"><ele>4.0</ele><time>2026-04-12T08:58:47Z</time></trkpt><trkpt lat="44.381150801424155" lon="8.635311229924675"><ele>4.0</ele><time>2026-04-12T08:58:48Z</time></trkpt><trkpt lat="44.38113137285082" lon="8.63518398984088"><ele>4.0</ele><time>2026-04-12T08:58:49Z</time></trkpt><trkpt lat="44.381127247055005" lon="8.635054358467158"><ele>4.0</ele><time>2026-04-12T08:58:50Z</time></trkpt><trkpt lat="44.381127278781356" lon="8.634921145711433"><ele>4.0</ele><time>2026-04-12T08:58:51Z</time></trkpt><trkpt lat="44.38113454144499" lon="8.634787035242773"><ele>4.0</ele><time>2026-04-12T08:58:52Z</time></trkpt><trkpt lat="44.38114164386121" lon="8.634647645001449"><ele>4.0</ele><time>2026-04-12T08:58:53Z</time></trkpt><trkpt lat="44.38114611618868" lon="8.634499135539903"><ele>4.0</ele><time>2026-04-12T08:58:54Z</time></trkpt><trkpt lat="44.38115595790663" lon="8.634367853583832"><ele>4.0</ele><time>2026-04-12T08:58:55Z</time></trkpt><trkpt lat="44.381171641432566" lon="8.634230336666088"><ele>4.0</ele><time>2026-04-12T08:58:56Z</time></trkpt><trkpt lat="44.381185200097846" lon="8.634080711506956"><ele>4.0</ele><time>2026-04-12T08:58:57Z</time></trkpt><trkpt lat="44.38119739042009" lon="8.633936826484884"><ele>4.0</ele><time>2026-04-12T08:58:58Z</time></trkpt><trkpt lat="44.381210522558554" lon="8.633796531488509"><ele>4.0</ele><time>2026-04-12T08:58:59Z</time></trkpt><trkpt lat="44.381222057973055" lon="8.63365447353029"><ele>4.0</ele><time>2026-04-12T08:59:00Z</time></trkpt><trkpt lat="44.38123281488029" lon="8.633515940605202"><ele>4.4</ele><time>2026-04-12T08:59:01Z</time></trkpt><trkpt lat="44.381245998226355" lon="8.633376981374555"><ele>4.800000000000001</ele><time>2026-04-12T08:59:02Z</time></trkpt><trkpt lat="44.38125640156928" lon="8.633239551829826"><ele>5.199999999999999</ele><time>2026-04-12T08:59:03Z</time></trkpt><trkpt lat="44.381265956452395" lon="8.633097769526751"><ele>5.6</ele><time>2026-04-12T08:59:04Z</time></trkpt><trkpt lat="44.38127275702143" lon="8.632970404995278"><ele>6.0</ele><time>2026-04-12T08:59:05Z</time></trkpt><trkpt lat="44.38127720774455" lon="8.63284545723262"><ele>6.0</ele><time>2026-04-12T08:59:06Z</time></trkpt><trkpt lat="44.38127468500872" lon="8.632731330955021"><ele>6.0</ele><time>2026-04-12T08:59:07Z</time></trkpt><trkpt lat="44.381259819611074" lon="8.632625632784004"><ele>6.0</ele><time>2026-04-12T08:59:08Z</time></trkpt><trkpt lat="44.381237785352276" lon="8.63252896876798"><ele>6.0</ele><time>2026-04-12T08:59:09Z</time></trkpt><trkpt lat="44.38120257906067" lon="8.632431990542722"><ele>6.0</ele><time>2026-04-12T08:59:10Z</time></trkpt><trkpt lat="44.38115536668477" lon="8.632336179078326"><ele>6.0</ele><time>2026-04-12T08:59:11Z</time></trkpt><trkpt lat="44.38110093128657" lon="8.632245113750074"><ele>6.0</ele><time>2026-04-12T08:59:12Z</time></trkpt><trkpt lat="44.3810406751553" lon="8.632163881163848"><ele>6.0</ele><time>2026-04-12T08:59:13Z</time></trkpt><trkpt lat="44.38097557045237" lon="8.632092852291452"><ele>6.0</ele><time>2026-04-12T08:59:14Z</time></trkpt><trkpt lat="44.38090678134351" lon="8.63201389804964"><ele>6.0</ele><time>2026-04-12T08:59:15Z</time></trkpt><trkpt lat="44.38083703409961" lon="8.631935042665411"><ele>6.0</ele><time>2026-04-12T08:59:16Z</time></trkpt><trkpt lat="44.38077269798328" lon="8.631844440456623"><ele>6.0</ele><time>2026-04-12T08:59:17Z</time></trkpt><trkpt lat="44.3807095855968" lon="8.631756718362102"><ele>6.0</ele><time>2026-04-12T08:59:18Z</time></trkpt><trkpt lat="44.380655112849844" lon="8.631648688776846"><ele>6.0</ele><time>2026-04-12T08:59:19Z</time></trkpt><trkpt lat="44.380610206217646" lon="8.631534514696597"><ele>6.0</ele><time>2026-04-12T08:59:20Z</time></trkpt><trkpt lat="44.380565090093626" lon="8.631416694694474"><ele>6.0</ele><time>2026-04-12T08:59:21Z</time></trkpt><trkpt lat="44.38052004261783" lon="8.63129522553455"><ele>6.0</ele><time>2026-04-12T08:59:22Z</time></trkpt><trkpt lat="44.38046767879483" lon="8.631175874766006"><ele>7.199999999999999</ele><time>2026-04-12T08:59:23Z</time></trkpt><trkpt lat="44.38041431220174" lon="8.631057426709285"><ele>8.399999999999999</ele><time>2026-04-12T08:59:24Z</time></trkpt><trkpt lat="44.380357834642425" lon="8.630942030729148"><ele>9.6</ele><time>2026-04-12T08:59:25Z</time></trkpt><trkpt lat="44.38029740206992" lon="8.63082913119885"><ele>10.799999999999999</ele><time>2026-04-12T08:59:26Z</time></trkpt><trkpt lat="44.380239527283976" lon="8.6307103905564"><ele>12.0</ele><time>2026-04-12T08:59:27Z</time></trkpt><trkpt lat="44.380177286598546" lon="8.630600348486881"><ele>12.0</ele><time>2026-04-12T08:59:28Z</time></trkpt><trkpt lat="44.380118161806436" lon="8.630488459063177"><ele>12.0</ele><time>2026-04-12T08:59:29Z</time></trkpt><trkpt lat="44.38005502269741" lon="8.63037458415357"><ele>12.0</ele><time>2026-04-12T08:59:30Z</time></trkpt><trkpt lat="44.37999261802259" lon="8.630279881154834"><ele>12.0</ele><time>2026-04-12T08:59:31Z</time></trkpt><trkpt lat="44.37992783653153" lon="8.630183755349812"><ele>12.0</ele><time>2026-04-12T08:59:32Z</time></trkpt><trkpt lat="44.37985966798562" lon="8.630095725070285"><ele>11.8</ele><time>2026-04-12T08:59:33Z</time></trkpt><trkpt lat="44.3797812415428" lon="8.630019977815559"><ele>11.6</ele><time>2026-04-12T08:59:34Z</time></trkpt><trkpt lat="44.379700972838776" lon="8.629952225924638"><ele>11.4</ele><time>2026-04-12T08:59:35Z</time></trkpt><trkpt lat="44.37961542203685" lon="8.62988344296553"><ele>11.200000000000001</ele><time>2026-04-12T08:59:36Z</time></trkpt><trkpt lat="44.3795285639083" lon="8.629815052464535"><ele>11.0</ele><time>2026-04-12T08:59:37Z</time></trkpt><trkpt lat="44.379439583427526" lon="8.629750600952024"><ele>11.0</ele><time>2026-04-12T08:59:38Z</time></trkpt><trkpt lat="44.37934727455096" lon="8.629688482411416"><ele>11.0</ele><time>2026-04-12T08:59:39Z</time></trkpt><trkpt lat="44.37925427712778" lon="8.62962726542806"><ele>11.0</ele><time>2026-04-12T08:59:40Z</time></trkpt><trkpt lat="44.37916070353609" lon="8.629557695318638"><ele>11.0</ele><time>2026-04-12T08:59:41Z</time></trkpt><trkpt lat="44.37906346661902" lon="8.629490569176452"><ele>11.0</ele><time>2026-04-12T08:59:42Z</time></trkpt><trkpt lat="44.378969625202416" lon="8.6294170987656"><ele>12.4</ele><time>2026-04-12T08:59:43Z</time></trkpt><trkpt lat="44.37887919428532" lon="8.629345368780397"><ele>13.8</ele><time>2026-04-12T08:59:44Z</time></trkpt><trkpt lat="44.37879553208854" lon="8.629275067916602"><ele>15.200000000000001</ele><time>2026-04-12T08:59:45Z</time></trkpt><trkpt lat="44.378711559272546" lon="8.629203799499981"><ele>16.6</ele><time>2026-04-12T08:59:46Z</time></trkpt><trkpt lat="44.37862381997031" lon="8.629132565099342"><ele>18.0</ele><time>2026-04-12T08:59:47Z</time></trkpt><trkpt lat="44.378535889498075" lon="8.62905678414792"><ele>18.0</ele><time>2026-04-12T08:59:48Z</time></trkpt><trkpt lat="44.378447073626425" lon="8.628983548429137"><ele>18.0</ele><time>2026-04-12T08:59:49Z</time></trkpt><trkpt lat="44.378356337938186" lon="8.62891081961668"><ele>18.0</ele><time>2026-04-12T08:59:50Z</time></trkpt><trkpt lat="44.37826818781466" lon="8.62884429251728"><ele>18.0</ele><time>2026-04-12T08:59:51Z</time></trkpt><trkpt lat="44.37818228487192" lon="8.628790089750915"><ele>18.0</ele><time>2026-04-12T08:59:52Z</time></trkpt><trkpt lat="44.37810025709199" lon="8.628744379947186"><ele>16.2</ele><time>2026-04-12T08:59:53Z</time></trkpt><trkpt lat="44.37801018141514" lon="8.628713188027762"><ele>14.4</ele><time>2026-04-12T08:59:54Z</time></trkpt><trkpt lat="44.377913168539585" lon="8.628689276999419"><ele>12.600000000000001</ele><time>2026-04-12T08:59:55Z</time></trkpt><trkpt lat="44.3778093280405" lon="8.628669920516643"><ele>10.8</ele><time>2026-04-12T08:59:56Z</time></trkpt><trkpt lat="44.3777023971263" lon="8.628653498765297"><ele>9.0</ele><time>2026-04-12T08:59:57Z</time></trkpt><trkpt lat="44.377593493309405" lon="8.628638692083628"><ele>11.666666666666668</ele><time>2026-04-12T08:59:58Z</time></trkpt><trkpt lat="44.3774918039689" lon="8.628622520111385"><ele>14.333333333333334</ele><time>2026-04-12T08:59:59Z</time></trkpt><trkpt lat="44.37740138649997" lon="8.62859944452989"><ele>17.0</ele><time>2026-04-12T09:00:00Z</time></trkpt><trkpt lat="44.37731731769675" lon="8.628563415083338"><ele>19.666666666666668</ele><time>2026-04-12T09:00:01Z</time></trkpt><trkpt lat="44.377238018747555" lon="8.62850679979537"><ele>22.333333333333336</ele><time>2026-04-12T09:00:02Z</time></trkpt><trkpt lat="44.37717742348541" lon="8.62843816414291"><ele>25.0</ele><time>2026-04-12T09:00:03Z</time></trkpt><trkpt lat="44.377123819570244" lon="8.628359276361463"><ele>25.000000000000004</ele><time>2026-04-12T09:00:04Z</time></trkpt><trkpt lat="44.37708875914264" lon="8.628267958022281"><ele>25.0</ele><time>2026-04-12T09:00:05Z</time></trkpt><trkpt lat="44.37707374735712" lon="8.628164547564959"><ele>25.0</ele><time>2026-04-12T09:00:06Z</time></trkpt><trkpt lat="44.37706122723545" lon="8.628042595857858"><ele>25.0</ele><time>2026-04-12T09:00:07Z</time></trkpt><trkpt lat="44.37705179089728" lon="8.627920019182424"><ele>25.000000000000004</ele><time>2026-04-12T09:00:08Z</time></trkpt><trkpt lat="44.37703819992105" lon="8.627787135801375"><ele>25.0</ele><time>2026-04-12T09:00:09Z</time></trkpt><trkpt lat="44.3770232999488" lon="8.627661563662377"><ele>27.333333333333336</ele><time>2026-04-12T09:00:10Z</time></trkpt><trkpt lat="44.37700398512132" lon="8.627551031090881"><ele>29.666666666666668</ele><time>2026-04-12T09:00:11Z</time></trkpt><trkpt lat="44.376976626709705" lon="8.627457506194173"><ele>32.0</ele><time>2026-04-12T09:00:12Z</time></trkpt><trkpt lat="44.376938022867" lon="8.627386309090783"><ele>34.333333333333336</ele><time>2026-04-12T09:00:13Z</time></trkpt><trkpt lat="44.3768758156845" lon="8.62732382920839"><ele>36.666666666666664</ele><time>2026-04-12T09:00:14Z</time></trkpt><trkpt lat="44.3768042139214" lon="8.627285114547206"><ele>39.0</ele><time>2026-04-12T09:00:15Z</time></trkpt><trkpt lat="44.37672392353235" lon="8.627273449769824"><ele>39.0</ele><time>2026-04-12T09:00:16Z</time></trkpt><trkpt lat="44.376641692843236" lon="8.627277669630441"><ele>39.0</ele><time>2026-04-12T09:00:17Z</time></trkpt><trkpt lat="44.37655440110768" lon="8.627282995434582"><ele>39.0</ele><time>2026-04-12T09:00:18Z</time></trkpt><trkpt lat="44.376460352117356" lon="8.627286154945988"><ele>39.0</ele><time>2026-04-12T09:00:19Z</time></trkpt><trkpt lat="44.3763683190576" lon="8.627305595065883"><ele>39.0</ele><time>2026-04-12T09:00:20Z</time></trkpt><trkpt lat="44.37627484760926" lon="8.627328074276827"><ele>38.0</ele><time>2026-04-12T09:00:21Z</time></trkpt><trkpt lat="44.37618382407194" lon="8.627361123668496"><ele>37.0</ele><time>2026-04-12T09:00:22Z</time></trkpt><trkpt lat="44.37608774901923" lon="8.627386024000154"><ele>36.0</ele><time>2026-04-12T09:00:23Z</time></trkpt><trkpt lat="44.375991710546785" lon="8.627403862257815"><ele>35.0</ele><time>2026-04-12T09:00:24Z</time></trkpt><trkpt lat="44.37589906852957" lon="8.627415715716483"><ele>34.0</ele><time>2026-04-12T09:00:25Z</time></trkpt><trkpt lat="44.3758086734175" lon="8.627409179600031"><ele>34.0</ele><time>2026-04-12T09:00:26Z</time></trkpt><trkpt lat="44.37571927444641" lon="8.6273871461546"><ele>34.0</ele><time>2026-04-12T09:00:27Z</time></trkpt><trkpt lat="44.37562999259563" lon="8.627349426993412"><ele>34.0</ele><time>2026-04-12T09:00:28Z</time></trkpt><trkpt lat="44.375541084033436" lon="8.62730246277058"><ele>34.0</ele><time>2026-04-12T09:00:29Z</time></trkpt><trkpt lat="44.375462748528086" lon="8.627253218528226"><ele>34.0</ele><time>2026-04-12T09:00:30Z</time></trkpt><trkpt lat="44.3753841123735" lon="8.627212126347102"><ele>34.0</ele><time>2026-04-12T09:00:31Z</time></trkpt><trkpt lat="44.37530235830478" lon="8.62718093843012"><ele>33.333333333333336</ele><time>2026-04-12T09:00:32Z</time></trkpt><trkpt lat="44.37521612018604" lon="8.627148521954666"><ele>32.66666666666667</ele><time>2026-04-12T09:00:33Z</time></trkpt><trkpt lat="44.375131009546365" lon="8.627120956497034"><ele>32.0</ele><time>2026-04-12T09:00:34Z</time></trkpt><trkpt lat="44.37505523914804" lon="8.627088736521523"><ele>31.333333333333336</ele><time>2026-04-12T09:00:35Z</time></trkpt><trkpt lat="44.37498893477332" lon="8.627046914884126"><ele>30.666666666666668</ele><time>2026-04-12T09:00:36Z</time></trkpt><trkpt lat="44.37493170631574" lon="8.626988407973071"><ele>30.0</ele><time>2026-04-12T09:00:37Z</time></trkpt><trkpt lat="44.37488682723423" lon="8.62691418355456"><ele>30.0</ele><time>2026-04-12T09:00:38Z</time></trkpt><trkpt lat="44.37484913299401" lon="8.62681728276855"><ele>30.0</ele><time>2026-04-12T09:00:39Z</time></trkpt><trkpt lat="44.37482135088133" lon="8.626711014918836"><ele>30.0</ele><time>2026-04-12T09:00:40Z</time></trkpt><trkpt lat="44.37480666330938" lon="8.626619404278168"><ele>30.0</ele><time>2026-04-12T09:00:41Z</time></trkpt><trkpt lat="44.374822737045854" lon="8.626468332333287"><ele>30.0</ele><time>2026-04-12T09:00:43Z</time></trkpt><trkpt lat="44.374864285943566" lon="8.62640186132136"><ele>30.0</ele><time>2026-04-12T09:00:44Z</time></trkpt><trkpt lat="44.37492145501085" lon="8.626348654062378"><ele>30.0</ele><time>2026-04-12T09:00:45Z</time></trkpt><trkpt lat="44.374989703042544" lon="8.626291138011878"><ele>30.0</ele><time>2026-04-12T09:00:46Z</time></trkpt><trkpt lat="44.375053660053325" lon="8.626229947958686"><ele>30.0</ele><time>2026-04-12T09:00:47Z</time></trkpt><trkpt lat="44.37511015584572" lon="8.626161582883327"><ele>30.0</ele><time>2026-04-12T09:00:48Z</time></trkpt><trkpt lat="44.375167761156895" lon="8.626083549890744"><ele>30.0</ele><time>2026-04-12T09:00:49Z</time></trkpt><trkpt lat="44.37522583745694" lon="8.62598973786787"><ele>30.0</ele><time>2026-04-12T09:00:50Z</time></trkpt><trkpt lat="44.37528382633997" lon="8.625897227341419"><ele>28.666666666666668</ele><time>2026-04-12T09:00:51Z</time></trkpt><trkpt lat="44.37534520031119" lon="8.62580633344822"><ele>27.333333333333332</ele><time>2026-04-12T09:00:52Z</time></trkpt><trkpt lat="44.37540953370716" lon="8.625723965508667"><ele>26.0</ele><time>2026-04-12T09:00:53Z</time></trkpt><trkpt lat="44.375468816428295" lon="8.625653375123655"><ele>24.666666666666664</ele><time>2026-04-12T09:00:54Z</time></trkpt><trkpt lat="44.37551850763813" lon="8.625575869585989"><ele>23.333333333333332</ele><time>2026-04-12T09:00:55Z</time></trkpt><trkpt lat="44.37556977484949" lon="8.62548468753772"><ele>22.0</ele><time>2026-04-12T09:00:56Z</time></trkpt><trkpt lat="44.375619767706404" lon="8.625380517905036"><ele>24.166666666666664</ele><time>2026-04-12T09:00:57Z</time></trkpt><trkpt lat="44.37566517282206" lon="8.62528964011164"><ele>26.333333333333332</ele><time>2026-04-12T09:00:58Z</time></trkpt><trkpt lat="44.37570884342822" lon="8.625185777236233"><ele>28.5</ele><time>2026-04-12T09:00:59Z</time></trkpt><trkpt lat="44.37574554239026" lon="8.625090066408967"><ele>30.666666666666664</ele><time>2026-04-12T09:01:00Z</time></trkpt><trkpt lat="44.37577609047181" lon="8.624983320691525"><ele>32.83333333333333</ele><time>2026-04-12T09:01:01Z</time></trkpt><trkpt lat="44.3758004560152" lon="8.624876001601786"><ele>35.0</ele><time>2026-04-12T09:01:02Z</time></trkpt><trkpt lat="44.37581602229868" lon="8.62475740320613"><ele>35.0</ele><time>2026-04-12T09:01:03Z</time></trkpt><trkpt lat="44.37582694796805" lon="8.624631184332584"><ele>35.0</ele><time>2026-04-12T09:01:04Z</time></trkpt><trkpt lat="44.37583844657162" lon="8.62449109821313"><ele>35.0</ele><time>2026-04-12T09:01:05Z</time></trkpt><trkpt lat="44.37584630542827" lon="8.624363055804166"><ele>35.0</ele><time>2026-04-12T09:01:06Z</time></trkpt><trkpt lat="44.37585140139301" lon="8.624243264756924"><ele>35.0</ele><time>2026-04-12T09:01:07Z</time></trkpt><trkpt lat="44.375848733230164" lon="8.624122604184919"><ele>35.5</ele><time>2026-04-12T09:01:08Z</time></trkpt><trkpt lat="44.37583535816512" lon="8.624022806586286"><ele>36.0</ele><time>2026-04-12T09:01:09Z</time></trkpt><trkpt lat="44.37581038845858" lon="8.623927589216896"><ele>36.5</ele><time>2026-04-12T09:01:10Z</time></trkpt><trkpt lat="44.37577030140649" lon="8.623831530474767"><ele>37.0</ele><time>2026-04-12T09:01:11Z</time></trkpt><trkpt lat="44.37572433060301" lon="8.623761075194217"><ele>37.5</ele><time>2026-04-12T09:01:12Z</time></trkpt><trkpt lat="44.37566785646357" lon="8.62371674700199"><ele>38.0</ele><time>2026-04-12T09:01:13Z</time></trkpt><trkpt lat="44.37556871979319" lon="8.62366040941958"><ele>38.5</ele><time>2026-04-12T09:01:15Z</time></trkpt><trkpt lat="44.37549848799146" lon="8.623627556607039"><ele>39.0</ele><time>2026-04-12T09:01:33Z</time></trkpt><trkpt lat="44.37543297668055" lon="8.623686081122376"><ele>39.5</ele><time>2026-04-12T09:01:45Z</time></trkpt><trkpt lat="44.37533343717051" lon="8.623745457318284"><ele>40.0</ele><time>2026-04-12T09:01:47Z</time></trkpt><trkpt lat="44.375273579548484" lon="8.623784125405631"><ele>40.5</ele><time>2026-04-12T09:01:48Z</time></trkpt><trkpt lat="44.37521512798154" lon="8.623836900891945"><ele>41.0</ele><time>2026-04-12T09:01:49Z</time></trkpt><trkpt lat="44.3751652361207" lon="8.623893616211692"><ele>41.0</ele><time>2026-04-12T09:01:50Z</time></trkpt><trkpt lat="44.37511296273615" lon="8.623948894493433"><ele>41.0</ele><time>2026-04-12T09:01:51Z</time></trkpt><trkpt lat="44.375051790678484" lon="8.624063080852787"><ele>41.0</ele><time>2026-04-12T09:01:53Z</time></trkpt><trkpt lat="44.3750157639649" lon="8.624227381779956"><ele>41.0</ele><time>2026-04-12T09:01:55Z</time></trkpt><trkpt lat="44.3750134554268" lon="8.624346295841212"><ele>41.0</ele><time>2026-04-12T09:01:56Z</time></trkpt><trkpt lat="44.374984222898036" lon="8.624455927955752"><ele>40.199999999999996</ele><time>2026-04-12T09:01:57Z</time></trkpt><trkpt lat="44.374949846991385" lon="8.624567114049217"><ele>39.4</ele><time>2026-04-12T09:01:58Z</time></trkpt><trkpt lat="44.37484486265411" lon="8.62468550059617"><ele>38.6</ele><time>2026-04-12T09:02:00Z</time></trkpt><trkpt lat="44.37477566319762" lon="8.624741595953557"><ele>37.8</ele><time>2026-04-12T09:02:01Z</time></trkpt><trkpt lat="44.374703708576924" lon="8.624788347350018"><ele>37.0</ele><time>2026-04-12T09:02:02Z</time></trkpt><trkpt lat="44.37462852598049" lon="8.624833003218036"><ele>37.0</ele><time>2026-04-12T09:02:03Z</time></trkpt><trkpt lat="44.37454707945181" lon="8.624857937864213"><ele>37.0</ele><time>2026-04-12T09:02:04Z</time></trkpt><trkpt lat="44.374464277876605" lon="8.624865298325647"><ele>37.0</ele><time>2026-04-12T09:02:05Z</time></trkpt><trkpt lat="44.374367609116646" lon="8.624872808915846"><ele>37.0</ele><time>2026-04-12T09:02:06Z</time></trkpt><trkpt lat="44.37426723301806" lon="8.62487787925642"><ele>37.0</ele><time>2026-04-12T09:02:07Z</time></trkpt><trkpt lat="44.374161145273284" lon="8.624885531987333"><ele>37.0</ele><time>2026-04-12T09:02:08Z</time></trkpt><trkpt lat="44.37404933733652" lon="8.624888190800572"><ele>37.0</ele><time>2026-04-12T09:02:09Z</time></trkpt><trkpt lat="44.37395813445947" lon="8.624883791872072"><ele>37.0</ele><time>2026-04-12T09:02:10Z</time></trkpt><trkpt lat="44.37386166565226" lon="8.624879492566494"><ele>37.0</ele><time>2026-04-12T09:02:11Z</time></trkpt><trkpt lat="44.373760870671305" lon="8.624878395834422"><ele>37.0</ele><time>2026-04-12T09:02:12Z</time></trkpt><trkpt lat="44.373689334253086" lon="8.624875844293085"><ele>35.66666666666667</ele><time>2026-04-12T09:02:13Z</time></trkpt><trkpt lat="44.373607154100426" lon="8.624851851666538"><ele>34.333333333333336</ele><time>2026-04-12T09:02:14Z</time></trkpt><trkpt lat="44.37351670853941" lon="8.62485533270922"><ele>33.0</ele><time>2026-04-12T09:02:15Z</time></trkpt><trkpt lat="44.373437911399684" lon="8.624828468615608"><ele>31.666666666666664</ele><time>2026-04-12T09:02:16Z</time></trkpt><trkpt lat="44.373374666560466" lon="8.62477699674116"><ele>30.333333333333332</ele><time>2026-04-12T09:02:17Z</time></trkpt><trkpt lat="44.37330877736599" lon="8.624723238887714"><ele>29.0</ele><time>2026-04-12T09:02:18Z</time></trkpt><trkpt lat="44.373245992183804" lon="8.62466629173779"><ele>28.999999999999996</ele><time>2026-04-12T09:02:19Z</time></trkpt><trkpt lat="44.37319560960597" lon="8.624592724026364"><ele>29.0</ele><time>2026-04-12T09:02:20Z</time></trkpt><trkpt lat="44.373151971321256" lon="8.624507790618333"><ele>29.0</ele><time>2026-04-12T09:02:21Z</time></trkpt><trkpt lat="44.373106592178324" lon="8.624420985881407"><ele>29.0</ele><time>2026-04-12T09:02:22Z</time></trkpt><trkpt lat="44.373053260121154" lon="8.62433410681034"><ele>28.999999999999996</ele><time>2026-04-12T09:02:23Z</time></trkpt><trkpt lat="44.372994940448166" lon="8.624239046891605"><ele>29.0</ele><time>2026-04-12T09:02:24Z</time></trkpt><trkpt lat="44.372932629852855" lon="8.624140635180954"><ele>29.999999999999996</ele><time>2026-04-12T09:02:25Z</time></trkpt><trkpt lat="44.37287205650214" lon="8.624048814410605"><ele>31.0</ele><time>2026-04-12T09:02:26Z</time></trkpt><trkpt lat="44.37281295236359" lon="8.6239731593988"><ele>32.0</ele><time>2026-04-12T09:02:27Z</time></trkpt><trkpt lat="44.3727589450061" lon="8.623914126947328"><ele>33.0</ele><time>2026-04-12T09:02:28Z</time></trkpt><trkpt lat="44.37269469549106" lon="8.623864721935295"><ele>34.0</ele><time>2026-04-12T09:02:29Z</time></trkpt><trkpt lat="44.37262024121735" lon="8.623839823789528"><ele>35.0</ele><time>2026-04-12T09:02:30Z</time></trkpt><trkpt lat="44.37254104132625" lon="8.623826739225256"><ele>35.0</ele><time>2026-04-12T09:02:31Z</time></trkpt><trkpt lat="44.37246261243001" lon="8.623821284621453"><ele>35.0</ele><time>2026-04-12T09:02:32Z</time></trkpt><trkpt lat="44.372387856355324" lon="8.623812876028893"><ele>35.0</ele><time>2026-04-12T09:02:33Z</time></trkpt><trkpt lat="44.372330104859294" lon="8.623776288252278"><ele>35.0</ele><time>2026-04-12T09:02:34Z</time></trkpt><trkpt lat="44.37226184259148" lon="8.623643906456975"><ele>35.0</ele><time>2026-04-12T09:02:36Z</time></trkpt><trkpt lat="44.372259136105534" lon="8.623553803230255"><ele>35.0</ele><time>2026-04-12T09:02:37Z</time></trkpt><trkpt lat="44.37226815578848" lon="8.623453363376502"><ele>36.83333333333333</ele><time>2026-04-12T09:02:38Z</time></trkpt><trkpt lat="44.372280975998535" lon="8.623348210325958"><ele>38.666666666666664</ele><time>2026-04-12T09:02:39Z</time></trkpt><trkpt lat="44.37230228371317" lon="8.623235596445285"><ele>40.5</ele><time>2026-04-12T09:02:40Z</time></trkpt><trkpt lat="44.37233579461152" lon="8.6231241568675"><ele>42.333333333333336</ele><time>2026-04-12T09:02:41Z</time></trkpt><trkpt lat="44.3723717565922" lon="8.623009285829225"><ele>44.16666666666667</ele><time>2026-04-12T09:02:42Z</time></trkpt><trkpt lat="44.37240629040483" lon="8.622892817518675"><ele>46.0</ele><time>2026-04-12T09:02:43Z</time></trkpt><trkpt lat="44.37243991346604" lon="8.6227829575525"><ele>46.0</ele><time>2026-04-12T09:02:44Z</time></trkpt><trkpt lat="44.372483587980646" lon="8.622673348467629"><ele>46.0</ele><time>2026-04-12T09:02:45Z</time></trkpt><trkpt lat="44.372527995881846" lon="8.622565525104694"><ele>46.0</ele><time>2026-04-12T09:02:46Z</time></trkpt><trkpt lat="44.372578922320294" lon="8.62244701009119"><ele>46.0</ele><time>2026-04-12T09:02:47Z</time></trkpt><trkpt lat="44.37262302279726" lon="8.622327897103682"><ele>46.0</ele><time>2026-04-12T09:02:48Z</time></trkpt><trkpt lat="44.372669335074725" lon="8.622221287191662"><ele>46.0</ele><time>2026-04-12T09:02:49Z</time></trkpt><trkpt lat="44.37271682816337" lon="8.622102125575397"><ele>46.0</ele><time>2026-04-12T09:02:50Z</time></trkpt><trkpt lat="44.372759397600255" lon="8.621987590842219"><ele>46.0</ele><time>2026-04-12T09:02:51Z</time></trkpt><trkpt lat="44.37279873989756" lon="8.621882527446775"><ele>46.0</ele><time>2026-04-12T09:02:52Z</time></trkpt><trkpt lat="44.372829373907685" lon="8.621783700345265"><ele>46.0</ele><time>2026-04-12T09:02:53Z</time></trkpt><trkpt lat="44.37284935168959" lon="8.621694867072236"><ele>46.0</ele><time>2026-04-12T09:02:54Z</time></trkpt><trkpt lat="44.37286127921147" lon="8.621582400298132"><ele>45.599999999999994</ele><time>2026-04-12T09:02:55Z</time></trkpt><trkpt lat="44.37287132449589" lon="8.621459644840035"><ele>45.2</ele><time>2026-04-12T09:02:56Z</time></trkpt><trkpt lat="44.372886298568226" lon="8.62133637520937"><ele>44.8</ele><time>2026-04-12T09:02:57Z</time></trkpt><trkpt lat="44.37290437502194" lon="8.62121112303578"><ele>44.400000000000006</ele><time>2026-04-12T09:02:58Z</time></trkpt><trkpt lat="44.372925373629165" lon="8.621089261544062"><ele>44.0</ele><time>2026-04-12T09:02:59Z</time></trkpt><trkpt lat="44.37294358890811" lon="8.620960474824097"><ele>45.166666666666664</ele><time>2026-04-12T09:03:00Z</time></trkpt><trkpt lat="44.372963188065796" lon="8.620832018779614"><ele>46.33333333333333</ele><time>2026-04-12T09:03:01Z</time></trkpt><trkpt lat="44.37297874600363" lon="8.620716506914398"><ele>47.5</ele><time>2026-04-12T09:03:02Z</time></trkpt><trkpt lat="44.372994287316104" lon="8.620597682994864"><ele>48.666666666666664</ele><time>2026-04-12T09:03:03Z</time></trkpt><trkpt lat="44.37300531950822" lon="8.620484449798031"><ele>49.833333333333336</ele><time>2026-04-12T09:03:04Z</time></trkpt><trkpt lat="44.373008184336115" lon="8.62038393030554"><ele>51.0</ele><time>2026-04-12T09:03:05Z</time></trkpt><trkpt lat="44.37300096047217" lon="8.62028965451255"><ele>53.5</ele><time>2026-04-12T09:03:06Z</time></trkpt><trkpt lat="44.37298328947649" lon="8.620190791728255"><ele>56.0</ele><time>2026-04-12T09:03:07Z</time></trkpt><trkpt lat="44.37297257346009" lon="8.620082518380865"><ele>58.5</ele><time>2026-04-12T09:03:08Z</time></trkpt><trkpt lat="44.372909880198115" lon="8.620003655625412"><ele>61.0</ele><time>2026-04-12T09:03:09Z</time></trkpt><trkpt lat="44.37285807720424" lon="8.619926799657504"><ele>63.5</ele><time>2026-04-12T09:03:10Z</time></trkpt><trkpt lat="44.37279509479533" lon="8.619867045695873"><ele>66.0</ele><time>2026-04-12T09:03:11Z</time></trkpt><trkpt lat="44.37272272114896" lon="8.619815459540112"><ele>66.0</ele><time>2026-04-12T09:03:12Z</time></trkpt><trkpt lat="44.37264567804076" lon="8.619769180584196"><ele>66.0</ele><time>2026-04-12T09:03:13Z</time></trkpt><trkpt lat="44.37256109247759" lon="8.619726075856166"><ele>66.0</ele><time>2026-04-12T09:03:14Z</time></trkpt><trkpt lat="44.37247511154246" lon="8.61968482064266"><ele>66.0</ele><time>2026-04-12T09:03:15Z</time></trkpt><trkpt lat="44.3723904573848" lon="8.619642037915401"><ele>66.0</ele><time>2026-04-12T09:03:16Z</time></trkpt><trkpt lat="44.372302545458226" lon="8.619596146815821"><ele>66.0</ele><time>2026-04-12T09:03:17Z</time></trkpt><trkpt lat="44.372216466326776" lon="8.619526489846688"><ele>65.83333333333333</ele><time>2026-04-12T09:03:18Z</time></trkpt><trkpt lat="44.372138881927334" lon="8.61944797586174"><ele>65.66666666666667</ele><time>2026-04-12T09:03:19Z</time></trkpt><trkpt lat="44.3720791348443" lon="8.619376071813672"><ele>65.5</ele><time>2026-04-12T09:03:20Z</time></trkpt><trkpt lat="44.37202260852739" lon="8.619290444704001"><ele>65.33333333333334</ele><time>2026-04-12T09:03:21Z</time></trkpt><trkpt lat="44.37197007759851" lon="8.619196463848235"><ele>65.16666666666667</ele><time>2026-04-12T09:03:22Z</time></trkpt><trkpt lat="44.37192651550491" lon="8.61908894559146"><ele>65.0</ele><time>2026-04-12T09:03:23Z</time></trkpt><trkpt lat="44.37187950275719" lon="8.618971607887893"><ele>65.0</ele><time>2026-04-12T09:03:24Z</time></trkpt><trkpt lat="44.37183608275433" lon="8.618851684388598"><ele>65.0</ele><time>2026-04-12T09:03:25Z</time></trkpt><trkpt lat="44.37179803316838" lon="8.618732229082298"><ele>65.0</ele><time>2026-04-12T09:03:26Z</time></trkpt><trkpt lat="44.371751310720065" lon="8.618607981797537"><ele>65.0</ele><time>2026-04-12T09:03:27Z</time></trkpt><trkpt lat="44.37170496420563" lon="8.618468300804414"><ele>65.0</ele><time>2026-04-12T09:03:28Z</time></trkpt><trkpt lat="44.37165663128535" lon="8.618324886329871"><ele>66.25</ele><time>2026-04-12T09:03:29Z</time></trkpt><trkpt lat="44.371606840162094" lon="8.618182090201703"><ele>67.5</ele><time>2026-04-12T09:03:30Z</time></trkpt><trkpt lat="44.371559306083334" lon="8.618030850162098"><ele>68.75</ele><time>2026-04-12T09:03:31Z</time></trkpt><trkpt lat="44.37151320316886" lon="8.617885432152203"><ele>70.0</ele><time>2026-04-12T09:03:32Z</time></trkpt><trkpt lat="44.37146532375407" lon="8.617734585556267"><ele>71.5</ele><time>2026-04-12T09:03:33Z</time></trkpt><trkpt lat="44.371415621389204" lon="8.617591628848155"><ele>73.0</ele><time>2026-04-12T09:03:34Z</time></trkpt><trkpt lat="44.37137172199766" lon="8.617448355854947"><ele>74.5</ele><time>2026-04-12T09:03:35Z</time></trkpt><trkpt lat="44.371324928484874" lon="8.617297050852125"><ele>76.0</ele><time>2026-04-12T09:03:36Z</time></trkpt><trkpt lat="44.37128157301424" lon="8.617160117986163"><ele>74.2</ele><time>2026-04-12T09:03:37Z</time></trkpt><trkpt lat="44.37123425850456" lon="8.617034257249788"><ele>72.39999999999999</ele><time>2026-04-12T09:03:38Z</time></trkpt><trkpt lat="44.37119743077078" lon="8.616908982086068"><ele>70.6</ele><time>2026-04-12T09:03:39Z</time></trkpt><trkpt lat="44.371135993105625" lon="8.616796453647426"><ele>68.8</ele><time>2026-04-12T09:03:40Z</time></trkpt><trkpt lat="44.371056356025115" lon="8.616707581978133"><ele>67.0</ele><time>2026-04-12T09:03:41Z</time></trkpt><trkpt lat="44.37098683261541" lon="8.616603698704045"><ele>67.0</ele><time>2026-04-12T09:03:42Z</time></trkpt><trkpt lat="44.370924808357124" lon="8.61649884828996"><ele>67.0</ele><time>2026-04-12T09:03:43Z</time></trkpt><trkpt lat="44.3708699949457" lon="8.616404716660284"><ele>67.0</ele><time>2026-04-12T09:03:44Z</time></trkpt><trkpt lat="44.370831982004745" lon="8.616300947146511"><ele>67.0</ele><time>2026-04-12T09:03:45Z</time></trkpt><trkpt lat="44.37081131380849" lon="8.616196277609633"><ele>67.0</ele><time>2026-04-12T09:03:46Z</time></trkpt><trkpt lat="44.37080079493001" lon="8.61607967345071"><ele>67.0</ele><time>2026-04-12T09:03:47Z</time></trkpt><trkpt lat="44.3707950174858" lon="8.615957741774444"><ele>68.2</ele><time>2026-04-12T09:03:48Z</time></trkpt><trkpt lat="44.37078955180568" lon="8.61583079758924"><ele>69.4</ele><time>2026-04-12T09:03:49Z</time></trkpt><trkpt lat="44.37078727445279" lon="8.615689012386554"><ele>70.6</ele><time>2026-04-12T09:03:50Z</time></trkpt><trkpt lat="44.37078259320616" lon="8.615551354986035"><ele>71.8</ele><time>2026-04-12T09:03:51Z</time></trkpt><trkpt lat="44.37077819517444" lon="8.61541299818848"><ele>73.0</ele><time>2026-04-12T09:03:52Z</time></trkpt><trkpt lat="44.37076803189379" lon="8.615297256080675"><ele>73.83333333333333</ele><time>2026-04-12T09:03:53Z</time></trkpt><trkpt lat="44.370745029229944" lon="8.615194454451132"><ele>74.66666666666666</ele><time>2026-04-12T09:03:54Z</time></trkpt><trkpt lat="44.370716189463685" lon="8.61510124744343"><ele>75.5</ele><time>2026-04-12T09:03:55Z</time></trkpt><trkpt lat="44.370670571581485" lon="8.615004999408491"><ele>76.33333333333333</ele><time>2026-04-12T09:03:56Z</time></trkpt><trkpt lat="44.370612519579446" lon="8.614917419536134"><ele>77.16666666666667</ele><time>2026-04-12T09:03:57Z</time></trkpt><trkpt lat="44.370542256093074" lon="8.614845891078662"><ele>78.0</ele><time>2026-04-12T09:03:58Z</time></trkpt><trkpt lat="44.37046230029328" lon="8.614780653270133"><ele>77.6</ele><time>2026-04-12T09:03:59Z</time></trkpt><trkpt lat="44.37038282047596" lon="8.61472514558755"><ele>77.19999999999999</ele><time>2026-04-12T09:04:00Z</time></trkpt><trkpt lat="44.37029672220923" lon="8.614655480167674"><ele>76.8</ele><time>2026-04-12T09:04:01Z</time></trkpt><trkpt lat="44.370210434725564" lon="8.614582890098815"><ele>76.39999999999999</ele><time>2026-04-12T09:04:02Z</time></trkpt><trkpt lat="44.37012575658107" lon="8.61450292895551"><ele>76.0</ele><time>2026-04-12T09:04:03Z</time></trkpt><trkpt lat="44.37004906945101" lon="8.614415731029748"><ele>76.0</ele><time>2026-04-12T09:04:04Z</time></trkpt><trkpt lat="44.369971397069044" lon="8.614322590668362"><ele>76.0</ele><time>2026-04-12T09:04:05Z</time></trkpt><trkpt lat="44.3698951117769" lon="8.614220063902485"><ele>76.0</ele><time>2026-04-12T09:04:06Z</time></trkpt><trkpt lat="44.36981018801056" lon="8.614115215891879"><ele>76.0</ele><time>2026-04-12T09:04:07Z</time></trkpt><trkpt lat="44.36974547939262" lon="8.614019340715984"><ele>76.0</ele><time>2026-04-12T09:04:08Z</time></trkpt><trkpt lat="44.36967209704274" lon="8.61392063777738"><ele>75.39999999999999</ele><time>2026-04-12T09:04:09Z</time></trkpt><trkpt lat="44.36960358026218" lon="8.61382236498941"><ele>74.8</ele><time>2026-04-12T09:04:10Z</time></trkpt><trkpt lat="44.36953963974088" lon="8.613732688178354"><ele>74.19999999999999</ele><time>2026-04-12T09:04:11Z</time></trkpt><trkpt lat="44.36947785490618" lon="8.613637123517602"><ele>73.6</ele><time>2026-04-12T09:04:12Z</time></trkpt><trkpt lat="44.36942689423012" lon="8.613536182445404"><ele>73.0</ele><time>2026-04-12T09:04:13Z</time></trkpt><trkpt lat="44.36938345970778" lon="8.61342977150372"><ele>73.0</ele><time>2026-04-12T09:04:14Z</time></trkpt><trkpt lat="44.36934357419453" lon="8.613310917540074"><ele>73.0</ele><time>2026-04-12T09:04:15Z</time></trkpt><trkpt lat="44.36930546399654" lon="8.61318988628765"><ele>73.0</ele><time>2026-04-12T09:04:16Z</time></trkpt><trkpt lat="44.369264575333055" lon="8.613063020296513"><ele>73.0</ele><time>2026-04-12T09:04:17Z</time></trkpt><trkpt lat="44.36922766933105" lon="8.612919532144357"><ele>73.0</ele><time>2026-04-12T09:04:18Z</time></trkpt><trkpt lat="44.369188704355906" lon="8.612791868597025"><ele>73.4</ele><time>2026-04-12T09:04:19Z</time></trkpt><trkpt lat="44.369147731419275" lon="8.612656874989984"><ele>73.8</ele><time>2026-04-12T09:04:20Z</time></trkpt><trkpt lat="44.36910738944501" lon="8.612519370877223"><ele>74.2</ele><time>2026-04-12T09:04:21Z</time></trkpt><trkpt lat="44.36906804642182" lon="8.612378413664295"><ele>74.6</ele><time>2026-04-12T09:04:22Z</time></trkpt><trkpt lat="44.369033938183435" lon="8.612246608673981"><ele>75.0</ele><time>2026-04-12T09:04:23Z</time></trkpt><trkpt lat="44.36899790805722" lon="8.6121089204325"><ele>75.8</ele><time>2026-04-12T09:04:24Z</time></trkpt><trkpt lat="44.36896780879365" lon="8.611973175697853"><ele>76.6</ele><time>2026-04-12T09:04:25Z</time></trkpt><trkpt lat="44.3689417148288" lon="8.611834100591782"><ele>77.4</ele><time>2026-04-12T09:04:26Z</time></trkpt><trkpt lat="44.368922315303585" lon="8.611708025761187"><ele>78.2</ele><time>2026-04-12T09:04:27Z</time></trkpt><trkpt lat="44.36891003120811" lon="8.611569039032753"><ele>79.0</ele><time>2026-04-12T09:04:28Z</time></trkpt><trkpt lat="44.36890388725402" lon="8.611423111931046"><ele>79.0</ele><time>2026-04-12T09:04:29Z</time></trkpt><trkpt lat="44.368903185664344" lon="8.611280083869147"><ele>79.0</ele><time>2026-04-12T09:04:30Z</time></trkpt><trkpt lat="44.368903301357356" lon="8.611138966517906"><ele>79.0</ele><time>2026-04-12T09:04:31Z</time></trkpt><trkpt lat="44.36890318635418" lon="8.61099225331941"><ele>79.0</ele><time>2026-04-12T09:04:32Z</time></trkpt><trkpt lat="44.36890759765645" lon="8.610847492428217"><ele>79.0</ele><time>2026-04-12T09:04:33Z</time></trkpt><trkpt lat="44.368913718277724" lon="8.610697489225585"><ele>79.2</ele><time>2026-04-12T09:04:34Z</time></trkpt><trkpt lat="44.36892216755344" lon="8.610547021221924"><ele>79.4</ele><time>2026-04-12T09:04:35Z</time></trkpt><trkpt lat="44.368926831934445" lon="8.610396707451356"><ele>79.6</ele><time>2026-04-12T09:04:36Z</time></trkpt><trkpt lat="44.3689358590602" lon="8.610249749517685"><ele>79.8</ele><time>2026-04-12T09:04:37Z</time></trkpt><trkpt lat="44.36894327192418" lon="8.6101056171558"><ele>80.0</ele><time>2026-04-12T09:04:38Z</time></trkpt><trkpt lat="44.36895055570906" lon="8.609967934546056"><ele>80.4</ele><time>2026-04-12T09:04:39Z</time></trkpt><trkpt lat="44.36895832365411" lon="8.60983774985513"><ele>80.8</ele><time>2026-04-12T09:04:40Z</time></trkpt><trkpt lat="44.36896097241617" lon="8.609697102503826"><ele>81.19999999999999</ele><time>2026-04-12T09:04:41Z</time></trkpt><trkpt lat="44.368966248165094" lon="8.609561622229135"><ele>81.6</ele><time>2026-04-12T09:04:42Z</time></trkpt><trkpt lat="44.368962701233336" lon="8.60943290857467"><ele>82.0</ele><time>2026-04-12T09:04:43Z</time></trkpt><trkpt lat="44.368947899402194" lon="8.609300094404544"><ele>82.19999999999999</ele><time>2026-04-12T09:04:44Z</time></trkpt><trkpt lat="44.36893486063381" lon="8.609162992662265"><ele>82.4</ele><time>2026-04-12T09:04:45Z</time></trkpt><trkpt lat="44.36890594588987" lon="8.609017342234932"><ele>82.6</ele><time>2026-04-12T09:04:46Z</time></trkpt><trkpt lat="44.36887928865885" lon="8.608868552911368"><ele>82.80000000000001</ele><time>2026-04-12T09:04:47Z</time></trkpt><trkpt lat="44.36885419613835" lon="8.608721611616978"><ele>83.0</ele><time>2026-04-12T09:04:48Z</time></trkpt><trkpt lat="44.36883249660075" lon="8.608570775490236"><ele>79.80000000000001</ele><time>2026-04-12T09:04:49Z</time></trkpt><trkpt lat="44.36881116851353" lon="8.608417715133639"><ele>76.60000000000001</ele><time>2026-04-12T09:04:50Z</time></trkpt><trkpt lat="44.368789109176745" lon="8.608273893021783"><ele>73.4</ele><time>2026-04-12T09:04:51Z</time></trkpt><trkpt lat="44.36877082885991" lon="8.608130584672598"><ele>70.2</ele><time>2026-04-12T09:04:52Z</time></trkpt><trkpt lat="44.368751371302544" lon="8.607988104783457"><ele>67.0</ele><time>2026-04-12T09:04:53Z</time></trkpt><trkpt lat="44.36873130427305" lon="8.607840984168192"><ele>68.0</ele><time>2026-04-12T09:04:54Z</time></trkpt><trkpt lat="44.36871056446871" lon="8.607693101331007"><ele>69.0</ele><time>2026-04-12T09:04:55Z</time></trkpt><trkpt lat="44.3686913696402" lon="8.607556470569309"><ele>70.0</ele><time>2026-04-12T09:04:56Z</time></trkpt><trkpt lat="44.36867173816702" lon="8.607422552472075"><ele>71.0</ele><time>2026-04-12T09:04:57Z</time></trkpt><trkpt lat="44.368648912831084" lon="8.607298648530824"><ele>72.0</ele><time>2026-04-12T09:04:58Z</time></trkpt><trkpt lat="44.368620389938165" lon="8.607173031320933"><ele>72.0</ele><time>2026-04-12T09:04:59Z</time></trkpt><trkpt lat="44.36858359797282" lon="8.607062812380335"><ele>72.0</ele><time>2026-04-12T09:05:00Z</time></trkpt><trkpt lat="44.36853949259925" lon="8.606957034131504"><ele>72.0</ele><time>2026-04-12T09:05:01Z</time></trkpt><trkpt lat="44.36849305996472" lon="8.606852482494734"><ele>72.0</ele><time>2026-04-12T09:05:02Z</time></trkpt><trkpt lat="44.36843859542509" lon="8.606760327820439"><ele>72.0</ele><time>2026-04-12T09:05:03Z</time></trkpt><trkpt lat="44.368383053229024" lon="8.606675108159406"><ele>72.0</ele><time>2026-04-12T09:05:04Z</time></trkpt><trkpt lat="44.36831225688409" lon="8.606594293523363"><ele>72.8</ele><time>2026-04-12T09:05:05Z</time></trkpt><trkpt lat="44.36823563321926" lon="8.606522588139223"><ele>73.6</ele><time>2026-04-12T09:05:06Z</time></trkpt><trkpt lat="44.368152812172625" lon="8.606446984955387"><ele>74.39999999999999</ele><time>2026-04-12T09:05:07Z</time></trkpt><trkpt lat="44.36807134826304" lon="8.606367851612466"><ele>75.2</ele><time>2026-04-12T09:05:08Z</time></trkpt><trkpt lat="44.36799112266756" lon="8.606284185593868"><ele>76.0</ele><time>2026-04-12T09:05:09Z</time></trkpt><trkpt lat="44.36790566072722" lon="8.606194776692469"><ele>75.0</ele><time>2026-04-12T09:05:10Z</time></trkpt><trkpt lat="44.367822227733846" lon="8.606097703931125"><ele>74.0</ele><time>2026-04-12T09:05:11Z</time></trkpt><trkpt lat="44.367744493214225" lon="8.605999674162316"><ele>73.0</ele><time>2026-04-12T09:05:12Z</time></trkpt><trkpt lat="44.36768095774243" lon="8.605895142854873"><ele>72.0</ele><time>2026-04-12T09:05:13Z</time></trkpt><trkpt lat="44.367617260213706" lon="8.605781859294847"><ele>71.0</ele><time>2026-04-12T09:05:14Z</time></trkpt><trkpt lat="44.36755502800658" lon="8.605667258586477"><ele>71.0</ele><time>2026-04-12T09:05:15Z</time></trkpt><trkpt lat="44.367490865527685" lon="8.605551560171152"><ele>71.0</ele><time>2026-04-12T09:05:16Z</time></trkpt><trkpt lat="44.36742894342432" lon="8.605442326287687"><ele>71.0</ele><time>2026-04-12T09:05:17Z</time></trkpt><trkpt lat="44.36736872469537" lon="8.60532949192477"><ele>71.0</ele><time>2026-04-12T09:05:18Z</time></trkpt><trkpt lat="44.36730874378137" lon="8.605215156686457"><ele>71.0</ele><time>2026-04-12T09:05:19Z</time></trkpt><trkpt lat="44.367252352421325" lon="8.605097100615213"><ele>72.2</ele><time>2026-04-12T09:05:20Z</time></trkpt><trkpt lat="44.36720124192702" lon="8.604979158427657"><ele>73.39999999999999</ele><time>2026-04-12T09:05:21Z</time></trkpt><trkpt lat="44.367149333382855" lon="8.604863326723057"><ele>74.6</ele><time>2026-04-12T09:05:22Z</time></trkpt><trkpt lat="44.36709695034617" lon="8.60474687695839"><ele>75.8</ele><time>2026-04-12T09:05:23Z</time></trkpt><trkpt lat="44.36704726539348" lon="8.604633143744245"><ele>77.0</ele><time>2026-04-12T09:05:24Z</time></trkpt><trkpt lat="44.36699955673521" lon="8.604520916666452"><ele>76.0</ele><time>2026-04-12T09:05:25Z</time></trkpt><trkpt lat="44.36695153751775" lon="8.604423104895671"><ele>75.0</ele><time>2026-04-12T09:05:26Z</time></trkpt><trkpt lat="44.36689743602459" lon="8.604324796586166"><ele>74.0</ele><time>2026-04-12T09:05:27Z</time></trkpt><trkpt lat="44.36683490949851" lon="8.60423303612932"><ele>73.0</ele><time>2026-04-12T09:05:28Z</time></trkpt><trkpt lat="44.366769469891295" lon="8.604143325921513"><ele>72.0</ele><time>2026-04-12T09:05:29Z</time></trkpt><trkpt lat="44.36669834534928" lon="8.604049334288414"><ele>72.0</ele><time>2026-04-12T09:05:30Z</time></trkpt><trkpt lat="44.36662068681484" lon="8.603951376480655"><ele>72.0</ele><time>2026-04-12T09:05:31Z</time></trkpt><trkpt lat="44.36654550613746" lon="8.603854498431682"><ele>72.0</ele><time>2026-04-12T09:05:32Z</time></trkpt><trkpt lat="44.36646957394053" lon="8.603761789066862"><ele>72.0</ele><time>2026-04-12T09:05:33Z</time></trkpt><trkpt lat="44.36639670508768" lon="8.603665469564172"><ele>72.0</ele><time>2026-04-12T09:05:34Z</time></trkpt><trkpt lat="44.366321559932686" lon="8.603563136339913"><ele>69.83333333333333</ele><time>2026-04-12T09:05:35Z</time></trkpt><trkpt lat="44.366250735236896" lon="8.603471912792665"><ele>67.66666666666667</ele><time>2026-04-12T09:05:36Z</time></trkpt><trkpt lat="44.36618598685757" lon="8.603382087790152"><ele>65.5</ele><time>2026-04-12T09:05:37Z</time></trkpt><trkpt lat="44.366126959153306" lon="8.603295752214878"><ele>63.333333333333336</ele><time>2026-04-12T09:05:38Z</time></trkpt><trkpt lat="44.36607534525988" lon="8.60320977635922"><ele>61.16666666666667</ele><time>2026-04-12T09:05:39Z</time></trkpt><trkpt lat="44.36602928829863" lon="8.603121279839081"><ele>59.0</ele><time>2026-04-12T09:05:40Z</time></trkpt><trkpt lat="44.36599121152086" lon="8.60302990211555"><ele>59.00000000000001</ele><time>2026-04-12T09:05:41Z</time></trkpt><trkpt lat="44.365958046289194" lon="8.602922655042201"><ele>59.0</ele><time>2026-04-12T09:05:42Z</time></trkpt><trkpt lat="44.365938605464244" lon="8.602810189690436"><ele>59.0</ele><time>2026-04-12T09:05:43Z</time></trkpt><trkpt lat="44.36592607567054" lon="8.602687043405215"><ele>59.0</ele><time>2026-04-12T09:05:44Z</time></trkpt><trkpt lat="44.365918295603095" lon="8.602561251442646"><ele>59.00000000000001</ele><time>2026-04-12T09:05:45Z</time></trkpt><trkpt lat="44.365908545623405" lon="8.602453630382808"><ele>59.0</ele><time>2026-04-12T09:05:46Z</time></trkpt><trkpt lat="44.365894412569226" lon="8.602332666393936"><ele>60.333333333333336</ele><time>2026-04-12T09:05:47Z</time></trkpt><trkpt lat="44.36587095220054" lon="8.60222023504159"><ele>61.66666666666667</ele><time>2026-04-12T09:05:48Z</time></trkpt><trkpt lat="44.36583824696911" lon="8.602108252159672"><ele>63.0</ele><time>2026-04-12T09:05:49Z</time></trkpt><trkpt lat="44.36579977304637" lon="8.601993273422304"><ele>64.33333333333333</ele><time>2026-04-12T09:05:50Z</time></trkpt><trkpt lat="44.36575556397664" lon="8.601882742261102"><ele>65.66666666666666</ele><time>2026-04-12T09:05:51Z</time></trkpt><trkpt lat="44.36571472155466" lon="8.601780505221997"><ele>67.0</ele><time>2026-04-12T09:05:52Z</time></trkpt><trkpt lat="44.36566935133848" lon="8.601670044704967"><ele>68.5</ele><time>2026-04-12T09:05:53Z</time></trkpt><trkpt lat="44.365627308454826" lon="8.601568316958772"><ele>70.0</ele><time>2026-04-12T09:05:54Z</time></trkpt><trkpt lat="44.36558363586592" lon="8.60147266513277"><ele>71.5</ele><time>2026-04-12T09:05:55Z</time></trkpt><trkpt lat="44.36554424620865" lon="8.601375738583567"><ele>73.0</ele><time>2026-04-12T09:05:56Z</time></trkpt><trkpt lat="44.365508263288724" lon="8.601283931418884"><ele>74.5</ele><time>2026-04-12T09:05:57Z</time></trkpt><trkpt lat="44.36548549250386" lon="8.601195992626153"><ele>76.0</ele><time>2026-04-12T09:05:58Z</time></trkpt><trkpt lat="44.36548015313965" lon="8.601103191875106"><ele>75.57142857142857</ele><time>2026-04-12T09:05:59Z</time></trkpt><trkpt lat="44.36549753150296" lon="8.601015655105265"><ele>75.14285714285715</ele><time>2026-04-12T09:06:00Z</time></trkpt><trkpt lat="44.36552467642286" lon="8.600933151563451"><ele>74.71428571428572</ele><time>2026-04-12T09:06:01Z</time></trkpt><trkpt lat="44.365572143140945" lon="8.60086039865443"><ele>74.28571428571428</ele><time>2026-04-12T09:06:02Z</time></trkpt><trkpt lat="44.365636313609514" lon="8.600800083309048"><ele>73.85714285714286</ele><time>2026-04-12T09:06:03Z</time></trkpt><trkpt lat="44.36570899872751" lon="8.600754427128"><ele>73.42857142857143</ele><time>2026-04-12T09:06:04Z</time></trkpt><trkpt lat="44.365774338442826" lon="8.600716468982192"><ele>73.0</ele><time>2026-04-12T09:06:05Z</time></trkpt><trkpt lat="44.365831581795284" lon="8.600672055711504"><ele>73.0</ele><time>2026-04-12T09:06:06Z</time></trkpt><trkpt lat="44.3659019522556" lon="8.600536053604214"><ele>73.0</ele><time>2026-04-12T09:06:08Z</time></trkpt><trkpt lat="44.3659135612614" lon="8.600446125610988"><ele>73.0</ele><time>2026-04-12T09:06:09Z</time></trkpt><trkpt lat="44.36587194726422" lon="8.600280851251979"><ele>73.0</ele><time>2026-04-12T09:06:11Z</time></trkpt><trkpt lat="44.36577541847061" lon="8.600166028577199"><ele>73.0</ele><time>2026-04-12T09:06:13Z</time></trkpt><trkpt lat="44.3657103758456" lon="8.600115196123864"><ele>73.16666666666666</ele><time>2026-04-12T09:06:14Z</time></trkpt><trkpt lat="44.36563704352293" lon="8.600067512245555"><ele>73.33333333333333</ele><time>2026-04-12T09:06:15Z</time></trkpt><trkpt lat="44.36556097071911" lon="8.600016016569283"><ele>73.5</ele><time>2026-04-12T09:06:16Z</time></trkpt><trkpt lat="44.365485725716056" lon="8.599968442134955"><ele>73.66666666666667</ele><time>2026-04-12T09:06:17Z</time></trkpt><trkpt lat="44.36541533083985" lon="8.599925377513502"><ele>73.83333333333334</ele><time>2026-04-12T09:06:18Z</time></trkpt><trkpt lat="44.365349264802845" lon="8.599891638674405"><ele>74.0</ele><time>2026-04-12T09:06:19Z</time></trkpt><trkpt lat="44.36528398154766" lon="8.599872632945516"><ele>71.66666666666667</ele><time>2026-04-12T09:06:20Z</time></trkpt><trkpt lat="44.365204897825336" lon="8.599867148355177"><ele>69.33333333333334</ele><time>2026-04-12T09:06:21Z</time></trkpt><trkpt lat="44.36512244434653" lon="8.599873491967928"><ele>67.0</ele><time>2026-04-12T09:06:22Z</time></trkpt><trkpt lat="44.36503854633979" lon="8.599877555615228"><ele>64.66666666666667</ele><time>2026-04-12T09:06:23Z</time></trkpt><trkpt lat="44.364959159486716" lon="8.599869229939308"><ele>62.333333333333336</ele><time>2026-04-12T09:06:24Z</time></trkpt><trkpt lat="44.36488821315932" lon="8.599850902337813"><ele>60.0</ele><time>2026-04-12T09:06:25Z</time></trkpt><trkpt lat="44.3647799598931" lon="8.59974778748034"><ele>60.0</ele><time>2026-04-12T09:06:27Z</time></trkpt><trkpt lat="44.36472983997552" lon="8.599558719137832"><ele>60.0</ele><time>2026-04-12T09:06:29Z</time></trkpt><trkpt lat="44.364706707733646" lon="8.599437807308414"><ele>60.0</ele><time>2026-04-12T09:06:30Z</time></trkpt><trkpt lat="44.36467139660017" lon="8.599316814439158"><ele>60.0</ele><time>2026-04-12T09:06:31Z</time></trkpt><trkpt lat="44.36464518371896" lon="8.599212666383773"><ele>60.0</ele><time>2026-04-12T09:06:32Z</time></trkpt><trkpt lat="44.364615339791285" lon="8.59911938880593"><ele>57.0</ele><time>2026-04-12T09:06:33Z</time></trkpt><trkpt lat="44.36457228211382" lon="8.599025073634834"><ele>54.0</ele><time>2026-04-12T09:06:34Z</time></trkpt><trkpt lat="44.36451666414354" lon="8.598949080890423"><ele>51.0</ele><time>2026-04-12T09:06:35Z</time></trkpt><trkpt lat="44.36444871707476" lon="8.598879340056794"><ele>48.0</ele><time>2026-04-12T09:06:36Z</time></trkpt><trkpt lat="44.36437675032031" lon="8.598826326111386"><ele>45.0</ele><time>2026-04-12T09:06:37Z</time></trkpt><trkpt lat="44.364295462199514" lon="8.598773047717009"><ele>42.0</ele><time>2026-04-12T09:06:38Z</time></trkpt><trkpt lat="44.36420952689368" lon="8.598704909034586"><ele>45.2</ele><time>2026-04-12T09:06:39Z</time></trkpt><trkpt lat="44.36413379288604" lon="8.598631589451355"><ele>48.400000000000006</ele><time>2026-04-12T09:06:40Z</time></trkpt><trkpt lat="44.36406321727415" lon="8.59854386365621"><ele>51.599999999999994</ele><time>2026-04-12T09:06:41Z</time></trkpt><trkpt lat="44.36399805570819" lon="8.598447099076555"><ele>54.8</ele><time>2026-04-12T09:06:42Z</time></trkpt><trkpt lat="44.36393324285099" lon="8.598354411133666"><ele>58.0</ele><time>2026-04-12T09:06:43Z</time></trkpt><trkpt lat="44.363868207772065" lon="8.598255424539476"><ele>54.166666666666664</ele><time>2026-04-12T09:06:44Z</time></trkpt><trkpt lat="44.3638105963671" lon="8.59817247778513"><ele>50.33333333333333</ele><time>2026-04-12T09:06:45Z</time></trkpt><trkpt lat="44.36375573763085" lon="8.598100535541576"><ele>46.5</ele><time>2026-04-12T09:06:46Z</time></trkpt><trkpt lat="44.363693442824186" lon="8.598048199645834"><ele>42.666666666666664</ele><time>2026-04-12T09:06:47Z</time></trkpt><trkpt lat="44.363628974123195" lon="8.59801230868983"><ele>38.83333333333333</ele><time>2026-04-12T09:06:48Z</time></trkpt><trkpt lat="44.363552312244806" lon="8.597983850729287"><ele>35.0</ele><time>2026-04-12T09:06:49Z</time></trkpt><trkpt lat="44.36347208912422" lon="8.597962307051699"><ele>35.0</ele><time>2026-04-12T09:06:50Z</time></trkpt><trkpt lat="44.36337953804047" lon="8.597937970050207"><ele>35.0</ele><time>2026-04-12T09:06:51Z</time></trkpt><trkpt lat="44.36329312548016" lon="8.597911599363357"><ele>35.0</ele><time>2026-04-12T09:06:52Z</time></trkpt><trkpt lat="44.36321726259268" lon="8.59787711358735"><ele>35.0</ele><time>2026-04-12T09:06:53Z</time></trkpt><trkpt lat="44.36314693665953" lon="8.597841086911947"><ele>35.0</ele><time>2026-04-12T09:06:54Z</time></trkpt><trkpt lat="44.36305648093746" lon="8.597732538041205"><ele>32.166666666666664</ele><time>2026-04-12T09:06:56Z</time></trkpt><trkpt lat="44.36302924271427" lon="8.597638374631732"><ele>29.333333333333332</ele><time>2026-04-12T09:06:57Z</time></trkpt><trkpt lat="44.36301494587101" lon="8.597529293029732"><ele>26.5</ele><time>2026-04-12T09:06:58Z</time></trkpt><trkpt lat="44.36300396358542" lon="8.597413370772331"><ele>23.666666666666664</ele><time>2026-04-12T09:06:59Z</time></trkpt><trkpt lat="44.362989223450626" lon="8.597313233242282"><ele>20.833333333333332</ele><time>2026-04-12T09:07:00Z</time></trkpt><trkpt lat="44.36297727027398" lon="8.59721192805184"><ele>18.0</ele><time>2026-04-12T09:07:01Z</time></trkpt><trkpt lat="44.362961128025" lon="8.597106809117157"><ele>19.6</ele><time>2026-04-12T09:07:02Z</time></trkpt><trkpt lat="44.36291582358376" lon="8.596999452672048"><ele>21.200000000000003</ele><time>2026-04-12T09:07:03Z</time></trkpt><trkpt lat="44.36287127774974" lon="8.59688259653487"><ele>22.8</ele><time>2026-04-12T09:07:04Z</time></trkpt><trkpt lat="44.362823118482694" lon="8.596772324930551"><ele>24.400000000000002</ele><time>2026-04-12T09:07:05Z</time></trkpt><trkpt lat="44.36277620347174" lon="8.596662774251795"><ele>26.0</ele><time>2026-04-12T09:07:06Z</time></trkpt><trkpt lat="44.36272783907622" lon="8.596553668247052"><ele>26.0</ele><time>2026-04-12T09:07:07Z</time></trkpt><trkpt lat="44.36267732556775" lon="8.596434531157088"><ele>26.0</ele><time>2026-04-12T09:07:08Z</time></trkpt><trkpt lat="44.36262691285948" lon="8.59631083609993"><ele>26.0</ele><time>2026-04-12T09:07:09Z</time></trkpt><trkpt lat="44.362580244043876" lon="8.59619194515179"><ele>26.0</ele><time>2026-04-12T09:07:10Z</time></trkpt><trkpt lat="44.362531713320735" lon="8.596071530359467"><ele>26.0</ele><time>2026-04-12T09:07:11Z</time></trkpt><trkpt lat="44.36248147136595" lon="8.595947987067484"><ele>28.4</ele><time>2026-04-12T09:07:12Z</time></trkpt><trkpt lat="44.36243155352143" lon="8.595824533687582"><ele>30.8</ele><time>2026-04-12T09:07:13Z</time></trkpt><trkpt lat="44.362382203827735" lon="8.595704968922112"><ele>33.199999999999996</ele><time>2026-04-12T09:07:14Z</time></trkpt><trkpt lat="44.362330490730805" lon="8.595587681392379"><ele>35.6</ele><time>2026-04-12T09:07:15Z</time></trkpt><trkpt lat="44.36228012314595" lon="8.595474386281845"><ele>38.0</ele><time>2026-04-12T09:07:16Z</time></trkpt><trkpt lat="44.36222486972097" lon="8.59535956080969"><ele>35.0</ele><time>2026-04-12T09:07:17Z</time></trkpt><trkpt lat="44.36216925079695" lon="8.595251511176382"><ele>31.999999999999996</ele><time>2026-04-12T09:07:18Z</time></trkpt><trkpt lat="44.362107881899796" lon="8.595139644914717"><ele>29.0</ele><time>2026-04-12T09:07:19Z</time></trkpt><trkpt lat="44.36204628813658" lon="8.59503464623542"><ele>26.0</ele><time>2026-04-12T09:07:20Z</time></trkpt><trkpt lat="44.3619874528328" lon="8.594935645137273"><ele>23.0</ele><time>2026-04-12T09:07:21Z</time></trkpt><trkpt lat="44.36192536049269" lon="8.594833746941758"><ele>23.0</ele><time>2026-04-12T09:07:22Z</time></trkpt><trkpt lat="44.361860932925744" lon="8.594725982353609"><ele>23.0</ele><time>2026-04-12T09:07:23Z</time></trkpt><trkpt lat="44.36179948064883" lon="8.5946160109749"><ele>23.0</ele><time>2026-04-12T09:07:24Z</time></trkpt><trkpt lat="44.36174325549278" lon="8.594519448040764"><ele>23.0</ele><time>2026-04-12T09:07:25Z</time></trkpt><trkpt lat="44.361689465253164" lon="8.594417337306469"><ele>23.0</ele><time>2026-04-12T09:07:26Z</time></trkpt><trkpt lat="44.3616380262841" lon="8.594325597034903"><ele>25.5</ele><time>2026-04-12T09:07:27Z</time></trkpt><trkpt lat="44.36158888551246" lon="8.594225083481868"><ele>28.0</ele><time>2026-04-12T09:07:28Z</time></trkpt><trkpt lat="44.36155015625008" lon="8.594117957638622"><ele>30.5</ele><time>2026-04-12T09:07:29Z</time></trkpt><trkpt lat="44.361521612085895" lon="8.59400690990284"><ele>33.0</ele><time>2026-04-12T09:07:30Z</time></trkpt><trkpt lat="44.36150208508661" lon="8.593883270876164"><ele>35.5</ele><time>2026-04-12T09:07:31Z</time></trkpt><trkpt lat="44.3614841013107" lon="8.59375221626862"><ele>38.0</ele><time>2026-04-12T09:07:32Z</time></trkpt><trkpt lat="44.36147247003901" lon="8.593617673710348"><ele>38.5</ele><time>2026-04-12T09:07:33Z</time></trkpt><trkpt lat="44.36146034100116" lon="8.593484075466524"><ele>39.0</ele><time>2026-04-12T09:07:34Z</time></trkpt><trkpt lat="44.36144717094553" lon="8.593358666804443"><ele>39.5</ele><time>2026-04-12T09:07:35Z</time></trkpt><trkpt lat="44.361432593146205" lon="8.593246513864274"><ele>40.0</ele><time>2026-04-12T09:07:36Z</time></trkpt><trkpt lat="44.36141142933479" lon="8.593143404395859"><ele>40.5</ele><time>2026-04-12T09:07:37Z</time></trkpt><trkpt lat="44.361377332739195" lon="8.593041241427402"><ele>41.0</ele><time>2026-04-12T09:07:38Z</time></trkpt><trkpt lat="44.361330652042945" lon="8.592932664784168"><ele>35.599999999999994</ele><time>2026-04-12T09:07:39Z</time></trkpt><trkpt lat="44.36127507324922" lon="8.592815636442525"><ele>30.199999999999996</ele><time>2026-04-12T09:07:40Z</time></trkpt><trkpt lat="44.36121968437031" lon="8.592705671282557"><ele>24.799999999999997</ele><time>2026-04-12T09:07:41Z</time></trkpt><trkpt lat="44.36116999109751" lon="8.592580352268264"><ele>19.4</ele><time>2026-04-12T09:07:42Z</time></trkpt><trkpt lat="44.361124218925326" lon="8.592456969524665"><ele>14.0</ele><time>2026-04-12T09:07:43Z</time></trkpt><trkpt lat="44.3610808444088" lon="8.59232917003069"><ele>14.000000000000002</ele><time>2026-04-12T09:07:44Z</time></trkpt><trkpt lat="44.36104444038425" lon="8.592222390586558"><ele>14.0</ele><time>2026-04-12T09:07:45Z</time></trkpt><trkpt lat="44.361007005662984" lon="8.592110856464592"><ele>14.0</ele><time>2026-04-12T09:07:46Z</time></trkpt><trkpt lat="44.360977026723134" lon="8.592002256060637"><ele>14.0</ele><time>2026-04-12T09:07:47Z</time></trkpt><trkpt lat="44.36095302217892" lon="8.591879223087114"><ele>14.000000000000002</ele><time>2026-04-12T09:07:48Z</time></trkpt><trkpt lat="44.360943121077774" lon="8.59175709807801"><ele>14.0</ele><time>2026-04-12T09:07:49Z</time></trkpt><trkpt lat="44.36093888711152" lon="8.591625959116787"><ele>13.799999999999999</ele><time>2026-04-12T09:07:50Z</time></trkpt><trkpt lat="44.36093182428436" lon="8.59149876229484"><ele>13.599999999999998</ele><time>2026-04-12T09:07:51Z</time></trkpt><trkpt lat="44.36091924717674" lon="8.591367638161444"><ele>13.4</ele><time>2026-04-12T09:07:52Z</time></trkpt><trkpt lat="44.36090274561828" lon="8.59123865687902"><ele>13.2</ele><time>2026-04-12T09:07:53Z</time></trkpt><trkpt lat="44.360880476108825" lon="8.59110619761634"><ele>13.0</ele><time>2026-04-12T09:07:54Z</time></trkpt><trkpt lat="44.3608612896496" lon="8.59097912867642"><ele>13.0</ele><time>2026-04-12T09:07:55Z</time></trkpt><trkpt lat="44.36084241378541" lon="8.59085252812657"><ele>13.0</ele><time>2026-04-12T09:07:56Z</time></trkpt><trkpt lat="44.3608271463772" lon="8.590729683815443"><ele>13.0</ele><time>2026-04-12T09:07:57Z</time></trkpt><trkpt lat="44.36081754060955" lon="8.590605360719815"><ele>13.0</ele><time>2026-04-12T09:07:58Z</time></trkpt><trkpt lat="44.360815720043945" lon="8.590474108285742"><ele>13.0</ele><time>2026-04-12T09:07:59Z</time></trkpt><trkpt lat="44.360817939989" lon="8.59033054448602"><ele>12.0</ele><time>2026-04-12T09:08:00Z</time></trkpt><trkpt lat="44.36082626523701" lon="8.590184060713439"><ele>11.0</ele><time>2026-04-12T09:08:01Z</time></trkpt><trkpt lat="44.36083784684331" lon="8.590043979854945"><ele>10.0</ele><time>2026-04-12T09:08:02Z</time></trkpt><trkpt lat="44.36084862341162" lon="8.589898322658296"><ele>9.0</ele><time>2026-04-12T09:08:03Z</time></trkpt><trkpt lat="44.36086139013819" lon="8.589749340946184"><ele>8.0</ele><time>2026-04-12T09:08:04Z</time></trkpt><trkpt lat="44.36087835909524" lon="8.589604243254557"><ele>8.200000000000001</ele><time>2026-04-12T09:08:05Z</time></trkpt><trkpt lat="44.36089038017856" lon="8.589461000381469"><ele>8.4</ele><time>2026-04-12T09:08:06Z</time></trkpt><trkpt lat="44.36090447432996" lon="8.589315652330987"><ele>8.600000000000001</ele><time>2026-04-12T09:08:07Z</time></trkpt><trkpt lat="44.36091789519608" lon="8.58917497460769"><ele>8.8</ele><time>2026-04-12T09:08:08Z</time></trkpt><trkpt lat="44.36092546174972" lon="8.589025683403962"><ele>9.0</ele><time>2026-04-12T09:08:09Z</time></trkpt><trkpt lat="44.36093203847603" lon="8.588892875316594"><ele>9.0</ele><time>2026-04-12T09:08:10Z</time></trkpt><trkpt lat="44.36093285476844" lon="8.588762125716224"><ele>9.0</ele><time>2026-04-12T09:08:11Z</time></trkpt><trkpt lat="44.360926652499046" lon="8.588629805230976"><ele>9.0</ele><time>2026-04-12T09:08:12Z</time></trkpt><trkpt lat="44.36091263564332" lon="8.588507025971582"><ele>9.0</ele><time>2026-04-12T09:08:13Z</time></trkpt><trkpt lat="44.36089547341392" lon="8.588385539186785"><ele>9.0</ele><time>2026-04-12T09:08:14Z</time></trkpt><trkpt lat="44.360869243172395" lon="8.588259508179958"><ele>9.6</ele><time>2026-04-12T09:08:15Z</time></trkpt><trkpt lat="44.36083721404386" lon="8.588136616637616"><ele>10.2</ele><time>2026-04-12T09:08:16Z</time></trkpt><trkpt lat="44.360817587161755" lon="8.588006759474572"><ele>10.799999999999999</ele><time>2026-04-12T09:08:17Z</time></trkpt><trkpt lat="44.360760806802716" lon="8.587878196327273"><ele>11.4</ele><time>2026-04-12T09:08:18Z</time></trkpt><trkpt lat="44.36072071015911" lon="8.587745324273527"><ele>12.0</ele><time>2026-04-12T09:08:19Z</time></trkpt><trkpt lat="44.36068046121726" lon="8.587618002580587"><ele>12.0</ele><time>2026-04-12T09:08:20Z</time></trkpt><trkpt lat="44.36063752865268" lon="8.587480933702833"><ele>12.0</ele><time>2026-04-12T09:08:21Z</time></trkpt><trkpt lat="44.36059364137484" lon="8.58735114997262"><ele>12.0</ele><time>2026-04-12T09:08:22Z</time></trkpt><trkpt lat="44.360551252723724" lon="8.5872189200889"><ele>12.0</ele><time>2026-04-12T09:08:23Z</time></trkpt><trkpt lat="44.360504168443924" lon="8.587089405032513"><ele>12.0</ele><time>2026-04-12T09:08:24Z</time></trkpt><trkpt lat="44.360463503197735" lon="8.586957488279701"><ele>10.6</ele><time>2026-04-12T09:08:25Z</time></trkpt><trkpt lat="44.36042560408397" lon="8.586816946359969"><ele>9.2</ele><time>2026-04-12T09:08:26Z</time></trkpt><trkpt lat="44.360412562818446" lon="8.58666766816391"><ele>7.8</ele><time>2026-04-12T09:08:27Z</time></trkpt><trkpt lat="44.36038746844416" lon="8.586522479367499"><ele>6.4</ele><time>2026-04-12T09:08:28Z</time></trkpt><trkpt lat="44.360363616962736" lon="8.586376447819141"><ele>5.0</ele><time>2026-04-12T09:08:29Z</time></trkpt><trkpt lat="44.360341824915764" lon="8.586238458324953"><ele>5.0</ele><time>2026-04-12T09:08:30Z</time></trkpt><trkpt lat="44.36031972652783" lon="8.586096749844062"><ele>5.0</ele><time>2026-04-12T09:08:31Z</time></trkpt><trkpt lat="44.360298445504135" lon="8.585951668835635"><ele>5.0</ele><time>2026-04-12T09:08:32Z</time></trkpt><trkpt lat="44.36027855501828" lon="8.585805870861304"><ele>5.0</ele><time>2026-04-12T09:08:33Z</time></trkpt><trkpt lat="44.360252927109144" lon="8.58566325504556"><ele>5.0</ele><time>2026-04-12T09:08:34Z</time></trkpt><trkpt lat="44.36024028290075" lon="8.585524628384704"><ele>5.0</ele><time>2026-04-12T09:08:35Z</time></trkpt><trkpt lat="44.36022725475056" lon="8.585386207039091"><ele>5.0</ele><time>2026-04-12T09:08:36Z</time></trkpt><trkpt lat="44.360214349800295" lon="8.585243368718173"><ele>5.0</ele><time>2026-04-12T09:08:37Z</time></trkpt><trkpt lat="44.36020315851363" lon="8.585101927615685"><ele>5.0</ele><time>2026-04-12T09:08:38Z</time></trkpt><trkpt lat="44.360190914775245" lon="8.584958304447948"><ele>5.0</ele><time>2026-04-12T09:08:39Z</time></trkpt><trkpt lat="44.360177689684605" lon="8.584808765533975"><ele>5.0</ele><time>2026-04-12T09:08:40Z</time></trkpt><trkpt lat="44.36016051860433" lon="8.58466379516863"><ele>5.0</ele><time>2026-04-12T09:08:41Z</time></trkpt><trkpt lat="44.36014822059801" lon="8.584519798557189"><ele>5.0</ele><time>2026-04-12T09:08:42Z</time></trkpt><trkpt lat="44.360134978015566" lon="8.58437723156425"><ele>5.0</ele><time>2026-04-12T09:08:43Z</time></trkpt><trkpt lat="44.36011960215899" lon="8.584230387348798"><ele>5.0</ele><time>2026-04-12T09:08:44Z</time></trkpt><trkpt lat="44.36010712504048" lon="8.584093366478472"><ele>5.6</ele><time>2026-04-12T09:08:45Z</time></trkpt><trkpt lat="44.36011064830402" lon="8.583950957640187"><ele>6.2</ele><time>2026-04-12T09:08:46Z</time></trkpt><trkpt lat="44.36009034039042" lon="8.583808365413324"><ele>6.800000000000001</ele><time>2026-04-12T09:08:47Z</time></trkpt><trkpt lat="44.36007922759257" lon="8.583666756794296"><ele>7.4</ele><time>2026-04-12T09:08:48Z</time></trkpt><trkpt lat="44.360067560560985" lon="8.583521478036012"><ele>8.0</ele><time>2026-04-12T09:08:49Z</time></trkpt><trkpt lat="44.36005446008013" lon="8.583387168419149"><ele>7.999999999999999</ele><time>2026-04-12T09:08:50Z</time></trkpt><trkpt lat="44.36003683158142" lon="8.583248037756288"><ele>8.0</ele><time>2026-04-12T09:08:51Z</time></trkpt><trkpt lat="44.36002504981718" lon="8.58312060724499"><ele>8.0</ele><time>2026-04-12T09:08:52Z</time></trkpt><trkpt lat="44.36002768913423" lon="8.5830077207131"><ele>8.0</ele><time>2026-04-12T09:08:53Z</time></trkpt><trkpt lat="44.3600164112227" lon="8.582898045416929"><ele>7.999999999999999</ele><time>2026-04-12T09:08:54Z</time></trkpt><trkpt lat="44.360008742960446" lon="8.582796220078928"><ele>8.0</ele><time>2026-04-12T09:08:55Z</time></trkpt><trkpt lat="44.35999817083197" lon="8.58268190332807"><ele>7.800000000000001</ele><time>2026-04-12T09:08:56Z</time></trkpt><trkpt lat="44.3599879616696" lon="8.582576228265557"><ele>7.6000000000000005</ele><time>2026-04-12T09:08:57Z</time></trkpt><trkpt lat="44.3599709798745" lon="8.582455261724162"><ele>7.3999999999999995</ele><time>2026-04-12T09:08:58Z</time></trkpt><trkpt lat="44.359957689125885" lon="8.582323350302804"><ele>7.199999999999999</ele><time>2026-04-12T09:08:59Z</time></trkpt><trkpt lat="44.35994776870833" lon="8.58218106561173"><ele>7.0</ele><time>2026-04-12T09:09:00Z</time></trkpt><trkpt lat="44.35993338379232" lon="8.582045039044937"><ele>7.199999999999999</ele><time>2026-04-12T09:09:01Z</time></trkpt><trkpt lat="44.359919009825944" lon="8.581918451847992"><ele>7.3999999999999995</ele><time>2026-04-12T09:09:02Z</time></trkpt><trkpt lat="44.359906634091594" lon="8.581800842264096"><ele>7.6000000000000005</ele><time>2026-04-12T09:09:03Z</time></trkpt><trkpt lat="44.359891644198285" lon="8.58167590052968"><ele>7.800000000000001</ele><time>2026-04-12T09:09:04Z</time></trkpt><trkpt lat="44.359877442286525" lon="8.581543661968777"><ele>8.0</ele><time>2026-04-12T09:09:05Z</time></trkpt><trkpt lat="44.35986065197707" lon="8.581409009966269"><ele>8.0</ele><time>2026-04-12T09:09:06Z</time></trkpt><trkpt lat="44.35984546735559" lon="8.581290954455278"><ele>8.0</ele><time>2026-04-12T09:09:07Z</time></trkpt><trkpt lat="44.359828159047325" lon="8.581165126274383"><ele>8.0</ele><time>2026-04-12T09:09:08Z</time></trkpt><trkpt lat="44.35981111791643" lon="8.581034159104625"><ele>8.0</ele><time>2026-04-12T09:09:09Z</time></trkpt><trkpt lat="44.35979861335553" lon="8.58090370280457"><ele>8.0</ele><time>2026-04-12T09:09:10Z</time></trkpt><trkpt lat="44.359781876731354" lon="8.580774111735547"><ele>8.5</ele><time>2026-04-12T09:09:11Z</time></trkpt><trkpt lat="44.35976501944965" lon="8.580650651597955"><ele>9.0</ele><time>2026-04-12T09:09:12Z</time></trkpt><trkpt lat="44.35974861492792" lon="8.580542072675245"><ele>9.5</ele><time>2026-04-12T09:09:13Z</time></trkpt><trkpt lat="44.35974661188808" lon="8.580448031737438"><ele>10.0</ele><time>2026-04-12T09:09:14Z</time></trkpt><trkpt lat="44.359715319400216" lon="8.580270307023252"><ele>10.5</ele><time>2026-04-12T09:09:16Z</time></trkpt><trkpt lat="44.359695135569055" lon="8.58018507268242"><ele>11.0</ele><time>2026-04-12T09:09:17Z</time></trkpt><trkpt lat="44.359678310031526" lon="8.580076108560908"><ele>10.666666666666666</ele><time>2026-04-12T09:09:19Z</time></trkpt><trkpt lat="44.35965572538499" lon="8.579977064590734"><ele>10.333333333333332</ele><time>2026-04-12T09:09:21Z</time></trkpt><trkpt lat="44.35961642777375" lon="8.579810420299442"><ele>10.0</ele><time>2026-04-12T09:09:23Z</time></trkpt><trkpt lat="44.35959484011372" lon="8.57971628854964"><ele>9.666666666666666</ele><time>2026-04-12T09:09:24Z</time></trkpt><trkpt lat="44.359568381313466" lon="8.57960751015738"><ele>9.333333333333334</ele><time>2026-04-12T09:09:25Z</time></trkpt><trkpt lat="44.359540618442566" lon="8.579488672020052"><ele>9.0</ele><time>2026-04-12T09:09:26Z</time></trkpt><trkpt lat="44.35951139048497" lon="8.57936534602578"><ele>9.0</ele><time>2026-04-12T09:09:27Z</time></trkpt><trkpt lat="44.359481801468704" lon="8.579237454765265"><ele>9.0</ele><time>2026-04-12T09:09:28Z</time></trkpt><trkpt lat="44.35945641330806" lon="8.579113300912711"><ele>9.0</ele><time>2026-04-12T09:09:29Z</time></trkpt><trkpt lat="44.35943170559883" lon="8.578990947904984"><ele>9.0</ele><time>2026-04-12T09:09:30Z</time></trkpt><trkpt lat="44.359411419122765" lon="8.578874457210174"><ele>9.0</ele><time>2026-04-12T09:09:31Z</time></trkpt><trkpt lat="44.35939855455529" lon="8.578757146918615"><ele>8.5</ele><time>2026-04-12T09:09:32Z</time></trkpt><trkpt lat="44.35939269128913" lon="8.578640919549734"><ele>8.0</ele><time>2026-04-12T09:09:33Z</time></trkpt><trkpt lat="44.359389534949806" lon="8.57852409780653"><ele>7.5</ele><time>2026-04-12T09:09:34Z</time></trkpt><trkpt lat="44.35938973469009" lon="8.578409330573624"><ele>7.0</ele><time>2026-04-12T09:09:35Z</time></trkpt><trkpt lat="44.35939323941099" lon="8.578289971634312"><ele>6.5</ele><time>2026-04-12T09:09:36Z</time></trkpt><trkpt lat="44.35939547764467" lon="8.578172457027119"><ele>6.0</ele><time>2026-04-12T09:09:37Z</time></trkpt><trkpt lat="44.3593923383578" lon="8.578051645372115"><ele>6.0</ele><time>2026-04-12T09:09:38Z</time></trkpt><trkpt lat="44.35940021091431" lon="8.577950437139036"><ele>6.0</ele><time>2026-04-12T09:09:39Z</time></trkpt><trkpt lat="44.3593934887307" lon="8.577842325779717"><ele>6.0</ele><time>2026-04-12T09:09:40Z</time></trkpt><trkpt lat="44.35938973855263" lon="8.577748151809615"><ele>6.0</ele><time>2026-04-12T09:09:41Z</time></trkpt><trkpt lat="44.3594006716247" lon="8.577596641621119"><ele>6.0</ele><time>2026-04-12T09:09:43Z</time></trkpt><trkpt lat="44.35944656742646" lon="8.5774613606452"><ele>6.0</ele><time>2026-04-12T09:09:45Z</time></trkpt><trkpt lat="44.35948654858425" lon="8.577378251147627"><ele>5.666666666666667</ele><time>2026-04-12T09:09:47Z</time></trkpt><trkpt lat="44.35953379822907" lon="8.577296410332805"><ele>5.333333333333333</ele><time>2026-04-12T09:09:49Z</time></trkpt><trkpt lat="44.3595993599279" lon="8.57720826853249"><ele>5.0</ele><time>2026-04-12T09:09:51Z</time></trkpt><trkpt lat="44.35966017692427" lon="8.577133900424515"><ele>4.666666666666666</ele><time>2026-04-12T09:09:53Z</time></trkpt><trkpt lat="44.35971460630635" lon="8.577075148629827"><ele>4.333333333333333</ele><time>2026-04-12T09:09:55Z</time></trkpt><trkpt lat="44.35976628616578" lon="8.577011799668243"><ele>4.0</ele><time>2026-04-12T09:09:57Z</time></trkpt><trkpt lat="44.35983628334758" lon="8.57691884730901"><ele>5.0</ele><time>2026-04-12T09:09:59Z</time></trkpt><trkpt lat="44.35991866392463" lon="8.576817172388674"><ele>6.0</ele><time>2026-04-12T09:10:01Z</time></trkpt><trkpt lat="44.35998821865594" lon="8.57672360538866"><ele>7.0</ele><time>2026-04-12T09:10:03Z</time></trkpt><trkpt lat="44.36005891703313" lon="8.576631416977117"><ele>8.0</ele><time>2026-04-12T09:10:05Z</time></trkpt><trkpt lat="44.36011988737527" lon="8.576541128364521"><ele>9.0</ele><time>2026-04-12T09:10:07Z</time></trkpt><trkpt lat="44.36016923820599" lon="8.576458257680152"><ele>9.0</ele><time>2026-04-12T09:10:12Z</time></trkpt><trkpt lat="44.36022158642021" lon="8.576378514533245"><ele>9.0</ele><time>2026-04-12T09:10:14Z</time></trkpt><trkpt lat="44.36029849973429" lon="8.576276104910786"><ele>9.0</ele><time>2026-04-12T09:10:16Z</time></trkpt><trkpt lat="44.360360151357234" lon="8.576201893375345"><ele>9.0</ele><time>2026-04-12T09:10:18Z</time></trkpt><trkpt lat="44.36042945577659" lon="8.576133292874028"><ele>9.0</ele><time>2026-04-12T09:10:21Z</time></trkpt><trkpt lat="44.360519470641016" lon="8.576080411128672"><ele>9.0</ele><time>2026-04-12T09:10:25Z</time></trkpt><trkpt lat="44.36059260032179" lon="8.576031306779585"><ele>9.0</ele><time>2026-04-12T09:10:27Z</time></trkpt><trkpt lat="44.360677807028274" lon="8.575961135775106"><ele>9.0</ele><time>2026-04-12T09:10:29Z</time></trkpt><trkpt lat="44.360761524837784" lon="8.575883022374581"><ele>9.0</ele><time>2026-04-12T09:10:31Z</time></trkpt><trkpt lat="44.360857202023496" lon="8.575790668545338"><ele>9.0</ele><time>2026-04-12T09:10:33Z</time></trkpt><trkpt lat="44.36091872338832" lon="8.575741558969336"><ele>9.0</ele><time>2026-04-12T09:10:34Z</time></trkpt><trkpt lat="44.36098363916671" lon="8.57569001757579"><ele>9.000000000000002</ele><time>2026-04-12T09:10:35Z</time></trkpt><trkpt lat="44.361042789167385" lon="8.575641402265813"><ele>9.0</ele><time>2026-04-12T09:10:36Z</time></trkpt><trkpt lat="44.361104197821355" lon="8.575590339640852"><ele>9.0</ele><time>2026-04-12T09:10:37Z</time></trkpt><trkpt lat="44.36116564250743" lon="8.575533633052496"><ele>9.0</ele><time>2026-04-12T09:10:38Z</time></trkpt><trkpt lat="44.36122892386299" lon="8.575481027994641"><ele>9.0</ele><time>2026-04-12T09:10:39Z</time></trkpt><trkpt lat="44.361292103672504" lon="8.57543301513751"><ele>9.000000000000002</ele><time>2026-04-12T09:10:40Z</time></trkpt><trkpt lat="44.36135977318503" lon="8.575391277203837"><ele>9.0</ele><time>2026-04-12T09:10:41Z</time></trkpt><trkpt lat="44.36143185489217" lon="8.575354690970551"><ele>9.333333333333334</ele><time>2026-04-12T09:10:42Z</time></trkpt><trkpt lat="44.36150909473972" lon="8.57532294849189"><ele>9.666666666666666</ele><time>2026-04-12T09:10:43Z</time></trkpt><trkpt lat="44.36158698923818" lon="8.575296728534974"><ele>10.0</ele><time>2026-04-12T09:10:44Z</time></trkpt><trkpt lat="44.36166518549908" lon="8.575271375179835"><ele>10.333333333333332</ele><time>2026-04-12T09:10:45Z</time></trkpt><trkpt lat="44.36173733870991" lon="8.575244774136246"><ele>10.666666666666666</ele><time>2026-04-12T09:10:46Z</time></trkpt><trkpt lat="44.36181051330224" lon="8.575209926728515"><ele>11.0</ele><time>2026-04-12T09:10:47Z</time></trkpt><trkpt lat="44.36188905996335" lon="8.575185927112686"><ele>11.0</ele><time>2026-04-12T09:10:48Z</time></trkpt><trkpt lat="44.361968078258414" lon="8.575155411186621"><ele>11.0</ele><time>2026-04-12T09:10:49Z</time></trkpt><trkpt lat="44.36203743254909" lon="8.575135331466575"><ele>11.0</ele><time>2026-04-12T09:10:50Z</time></trkpt><trkpt lat="44.36211346013247" lon="8.575112782424952"><ele>11.0</ele><time>2026-04-12T09:10:51Z</time></trkpt><trkpt lat="44.36218431390434" lon="8.575093945308378"><ele>11.0</ele><time>2026-04-12T09:10:52Z</time></trkpt><trkpt lat="44.362257179351" lon="8.575077673238777"><ele>11.0</ele><time>2026-04-12T09:10:53Z</time></trkpt><trkpt lat="44.3623352000034" lon="8.575070034787744"><ele>10.5</ele><time>2026-04-12T09:10:54Z</time></trkpt><trkpt lat="44.36241078300055" lon="8.575068040900238"><ele>10.0</ele><time>2026-04-12T09:10:55Z</time></trkpt><trkpt lat="44.3624897589329" lon="8.575064602627217"><ele>9.5</ele><time>2026-04-12T09:10:56Z</time></trkpt><trkpt lat="44.36256754467437" lon="8.575056380338376"><ele>9.0</ele><time>2026-04-12T09:10:57Z</time></trkpt><trkpt lat="44.36264326631696" lon="8.575065138047247"><ele>8.5</ele><time>2026-04-12T09:10:58Z</time></trkpt><trkpt lat="44.36272024998217" lon="8.575068013232233"><ele>8.0</ele><time>2026-04-12T09:10:59Z</time></trkpt><trkpt lat="44.362794848385896" lon="8.575069697991866"><ele>7.999999999999999</ele><time>2026-04-12T09:11:00Z</time></trkpt><trkpt lat="44.36287120183854" lon="8.575074335750102"><ele>8.0</ele><time>2026-04-12T09:11:01Z</time></trkpt><trkpt lat="44.36294586059276" lon="8.575074253154819"><ele>8.0</ele><time>2026-04-12T09:11:02Z</time></trkpt><trkpt lat="44.36301440675018" lon="8.575083505418"><ele>8.0</ele><time>2026-04-12T09:11:03Z</time></trkpt><trkpt lat="44.363090863588965" lon="8.575087936056057"><ele>7.999999999999999</ele><time>2026-04-12T09:11:04Z</time></trkpt><trkpt lat="44.3631704421714" lon="8.57509343673911"><ele>8.0</ele><time>2026-04-12T09:11:05Z</time></trkpt><trkpt lat="44.36324409335317" lon="8.575098448176576"><ele>9.166666666666666</ele><time>2026-04-12T09:11:06Z</time></trkpt><trkpt lat="44.36331840155757" lon="8.575098203640554"><ele>10.333333333333332</ele><time>2026-04-12T09:11:07Z</time></trkpt><trkpt lat="44.36339026485328" lon="8.575097399160368"><ele>11.5</ele><time>2026-04-12T09:11:08Z</time></trkpt><trkpt lat="44.36346422708416" lon="8.575092683439639"><ele>12.666666666666666</ele><time>2026-04-12T09:11:09Z</time></trkpt><trkpt lat="44.36354133771552" lon="8.575101860295293"><ele>13.833333333333334</ele><time>2026-04-12T09:11:10Z</time></trkpt><trkpt lat="44.36363265799633" lon="8.57511145814691"><ele>15.0</ele><time>2026-04-12T09:11:11Z</time></trkpt><trkpt lat="44.36371173528686" lon="8.575095912532362"><ele>15.0</ele><time>2026-04-12T09:11:12Z</time></trkpt><trkpt lat="44.3637797690611" lon="8.575098192432865"><ele>15.0</ele><time>2026-04-12T09:11:13Z</time></trkpt><trkpt lat="44.36385900543108" lon="8.57510400979752"><ele>15.0</ele><time>2026-04-12T09:11:14Z</time></trkpt><trkpt lat="44.36399479396381" lon="8.5751026692929"><ele>15.0</ele><time>2026-04-12T09:11:16Z</time></trkpt><trkpt lat="44.36406951935519" lon="8.575089268415327"><ele>15.0</ele><time>2026-04-12T09:11:17Z</time></trkpt><trkpt lat="44.36415281589689" lon="8.575077836755847"><ele>15.0</ele><time>2026-04-12T09:11:18Z</time></trkpt><trkpt lat="44.36423135835544" lon="8.575066802462992"><ele>14.833333333333334</ele><time>2026-04-12T09:11:19Z</time></trkpt><trkpt lat="44.364310848743806" lon="8.575058649140761"><ele>14.666666666666668</ele><time>2026-04-12T09:11:20Z</time></trkpt><trkpt lat="44.3643980517189" lon="8.575046618537081"><ele>14.5</ele><time>2026-04-12T09:11:21Z</time></trkpt><trkpt lat="44.36447536709877" lon="8.575038668347128"><ele>14.333333333333334</ele><time>2026-04-12T09:11:22Z</time></trkpt><trkpt lat="44.364559363686126" lon="8.575031439969036"><ele>14.166666666666668</ele><time>2026-04-12T09:11:23Z</time></trkpt><trkpt lat="44.36464446318475" lon="8.5750237626991"><ele>14.0</ele><time>2026-04-12T09:11:24Z</time></trkpt><trkpt lat="44.364723816420884" lon="8.575025494000592"><ele>14.000000000000002</ele><time>2026-04-12T09:11:25Z</time></trkpt><trkpt lat="44.36480217995021" lon="8.575027196806793"><ele>14.0</ele><time>2026-04-12T09:11:26Z</time></trkpt><trkpt lat="44.36486722506382" lon="8.575031613035392"><ele>14.0</ele><time>2026-04-12T09:11:27Z</time></trkpt><trkpt lat="44.364944292548664" lon="8.57503176328364"><ele>14.0</ele><time>2026-04-12T09:11:28Z</time></trkpt><trkpt lat="44.36502284085714" lon="8.575034118936731"><ele>14.000000000000002</ele><time>2026-04-12T09:11:29Z</time></trkpt><trkpt lat="44.36509480661863" lon="8.57502599895547"><ele>14.0</ele><time>2026-04-12T09:11:30Z</time></trkpt><trkpt lat="44.36517928537456" lon="8.575017708303964"><ele>14.000000000000002</ele><time>2026-04-12T09:11:31Z</time></trkpt><trkpt lat="44.36526259662029" lon="8.575013554783542"><ele>14.0</ele><time>2026-04-12T09:11:32Z</time></trkpt><trkpt lat="44.36534263445785" lon="8.57500720467687"><ele>14.0</ele><time>2026-04-12T09:11:33Z</time></trkpt><trkpt lat="44.36543072134258" lon="8.574989960133651"><ele>14.0</ele><time>2026-04-12T09:11:34Z</time></trkpt><trkpt lat="44.36551533351997" lon="8.574972463088525"><ele>14.000000000000002</ele><time>2026-04-12T09:11:35Z</time></trkpt><trkpt lat="44.36559387516155" lon="8.57496498419081"><ele>14.0</ele><time>2026-04-12T09:11:36Z</time></trkpt><trkpt lat="44.36567480101492" lon="8.574953106489774"><ele>14.833333333333334</ele><time>2026-04-12T09:11:37Z</time></trkpt><trkpt lat="44.3657586280204" lon="8.57494094045526"><ele>15.666666666666668</ele><time>2026-04-12T09:11:38Z</time></trkpt><trkpt lat="44.36583895232775" lon="8.57493236368179"><ele>16.5</ele><time>2026-04-12T09:11:39Z</time></trkpt><trkpt lat="44.3659230248032" lon="8.574920858612101"><ele>17.333333333333332</ele><time>2026-04-12T09:11:40Z</time></trkpt><trkpt lat="44.36600149922531" lon="8.574903824753758"><ele>18.166666666666664</ele><time>2026-04-12T09:11:41Z</time></trkpt><trkpt lat="44.366074610918936" lon="8.574886318348579"><ele>19.0</ele><time>2026-04-12T09:11:42Z</time></trkpt><trkpt lat="44.366137613105174" lon="8.57485222663859"><ele>19.0</ele><time>2026-04-12T09:11:43Z</time></trkpt><trkpt lat="44.36620202161918" lon="8.574805159660666"><ele>19.0</ele><time>2026-04-12T09:11:44Z</time></trkpt><trkpt lat="44.36626408855334" lon="8.574741917987856"><ele>19.0</ele><time>2026-04-12T09:11:45Z</time></trkpt><trkpt lat="44.36632535036657" lon="8.574661534898079"><ele>19.0</ele><time>2026-04-12T09:11:46Z</time></trkpt><trkpt lat="44.36637168416982" lon="8.574580876063816"><ele>19.0</ele><time>2026-04-12T09:11:47Z</time></trkpt><trkpt lat="44.3664237013825" lon="8.574489095146498"><ele>19.0</ele><time>2026-04-12T09:11:48Z</time></trkpt><trkpt lat="44.366472696097844" lon="8.5744001949625"><ele>19.5</ele><time>2026-04-12T09:11:49Z</time></trkpt><trkpt lat="44.3665169140175" lon="8.574300508915385"><ele>20.0</ele><time>2026-04-12T09:11:50Z</time></trkpt><trkpt lat="44.36655128901337" lon="8.574201117955864"><ele>20.5</ele><time>2026-04-12T09:11:51Z</time></trkpt><trkpt lat="44.36658120491859" lon="8.574085176141766"><ele>21.0</ele><time>2026-04-12T09:11:52Z</time></trkpt><trkpt lat="44.36660940794033" lon="8.573976802338702"><ele>21.5</ele><time>2026-04-12T09:11:53Z</time></trkpt><trkpt lat="44.36663915765994" lon="8.57386687581477"><ele>22.0</ele><time>2026-04-12T09:11:54Z</time></trkpt><trkpt lat="44.36666758618416" lon="8.573759087560083"><ele>21.166666666666664</ele><time>2026-04-12T09:11:55Z</time></trkpt><trkpt lat="44.366691451980934" lon="8.573657002658912"><ele>20.333333333333332</ele><time>2026-04-12T09:11:56Z</time></trkpt><trkpt lat="44.366717643117106" lon="8.57354305246079"><ele>19.5</ele><time>2026-04-12T09:11:57Z</time></trkpt><trkpt lat="44.36674397433273" lon="8.573435598108667"><ele>18.666666666666668</ele><time>2026-04-12T09:11:58Z</time></trkpt><trkpt lat="44.36677105752087" lon="8.57332477758531"><ele>17.833333333333336</ele><time>2026-04-12T09:11:59Z</time></trkpt><trkpt lat="44.366795162214245" lon="8.573210871121251"><ele>17.0</ele><time>2026-04-12T09:12:00Z</time></trkpt><trkpt lat="44.366820443093125" lon="8.57311139374295"><ele>17.0</ele><time>2026-04-12T09:12:01Z</time></trkpt><trkpt lat="44.36684524586858" lon="8.573003532486602"><ele>17.0</ele><time>2026-04-12T09:12:02Z</time></trkpt><trkpt lat="44.366871916998775" lon="8.572896987190465"><ele>17.0</ele><time>2026-04-12T09:12:03Z</time></trkpt><trkpt lat="44.366877720664796" lon="8.572799976240034"><ele>17.0</ele><time>2026-04-12T09:12:04Z</time></trkpt><trkpt lat="44.36690778191496" lon="8.57267598116693"><ele>17.0</ele><time>2026-04-12T09:12:06Z</time></trkpt><trkpt lat="44.366933373348935" lon="8.572565354572928"><ele>17.0</ele><time>2026-04-12T09:12:08Z</time></trkpt><trkpt lat="44.367022887785275" lon="8.572549312202993"><ele>17.0</ele><time>2026-04-12T09:12:09Z</time></trkpt><trkpt lat="44.36714418619999" lon="8.572505151085261"><ele>17.0</ele><time>2026-04-12T09:12:11Z</time></trkpt><trkpt lat="44.367218622889766" lon="8.572481697039635"><ele>17.0</ele><time>2026-04-12T09:12:12Z</time></trkpt><trkpt lat="44.367292313066514" lon="8.572454634501147"><ele>17.0</ele><time>2026-04-12T09:12:13Z</time></trkpt><trkpt lat="44.36736311891128" lon="8.572442355475415"><ele>17.0</ele><time>2026-04-12T09:12:14Z</time></trkpt><trkpt lat="44.36743745007161" lon="8.572445377163117"><ele>17.0</ele><time>2026-04-12T09:12:15Z</time></trkpt><trkpt lat="44.367511021732426" lon="8.572462682024682"><ele>18.333333333333336</ele><time>2026-04-12T09:12:16Z</time></trkpt><trkpt lat="44.36758908133412" lon="8.572480270736975"><ele>19.666666666666668</ele><time>2026-04-12T09:12:17Z</time></trkpt><trkpt lat="44.36766452936417" lon="8.5725047519012"><ele>21.0</ele><time>2026-04-12T09:12:18Z</time></trkpt><trkpt lat="44.367740367619966" lon="8.572541717380465"><ele>22.333333333333336</ele><time>2026-04-12T09:12:19Z</time></trkpt><trkpt lat="44.36781577676956" lon="8.5725746634254"><ele>23.666666666666668</ele><time>2026-04-12T09:12:20Z</time></trkpt><trkpt lat="44.36788909937398" lon="8.572616220809254"><ele>25.0</ele><time>2026-04-12T09:12:21Z</time></trkpt><trkpt lat="44.36795504011958" lon="8.572653824713452"><ele>25.166666666666668</ele><time>2026-04-12T09:12:22Z</time></trkpt><trkpt lat="44.36802824838632" lon="8.572675889337383"><ele>25.333333333333336</ele><time>2026-04-12T09:12:23Z</time></trkpt><trkpt lat="44.368098444594" lon="8.572721209812242"><ele>25.5</ele><time>2026-04-12T09:12:24Z</time></trkpt><trkpt lat="44.36817176271117" lon="8.57276172111819"><ele>25.666666666666664</ele><time>2026-04-12T09:12:25Z</time></trkpt><trkpt lat="44.36824172216023" lon="8.572804006089573"><ele>25.833333333333332</ele><time>2026-04-12T09:12:26Z</time></trkpt><trkpt lat="44.36831232461466" lon="8.57283658426642"><ele>26.0</ele><time>2026-04-12T09:12:27Z</time></trkpt><trkpt lat="44.36839256230505" lon="8.57287070584865"><ele>26.0</ele><time>2026-04-12T09:12:28Z</time></trkpt><trkpt lat="44.368460020878786" lon="8.572891348494169"><ele>26.0</ele><time>2026-04-12T09:12:29Z</time></trkpt><trkpt lat="44.368528019336935" lon="8.572914792338636"><ele>26.0</ele><time>2026-04-12T09:12:30Z</time></trkpt><trkpt lat="44.36859259413013" lon="8.572944794755449"><ele>26.0</ele><time>2026-04-12T09:12:31Z</time></trkpt><trkpt lat="44.368648812860165" lon="8.573006367948745"><ele>26.0</ele><time>2026-04-12T09:12:32Z</time></trkpt><trkpt lat="44.368700667891886" lon="8.573077030320333"><ele>26.0</ele><time>2026-04-12T09:12:33Z</time></trkpt><trkpt lat="44.36874125528138" lon="8.573169087299528"><ele>26.0</ele><time>2026-04-12T09:12:34Z</time></trkpt><trkpt lat="44.368786373853574" lon="8.573270017824308"><ele>25.999999999999996</ele><time>2026-04-12T09:12:35Z</time></trkpt><trkpt lat="44.368833591078705" lon="8.573369243451465"><ele>26.0</ele><time>2026-04-12T09:12:36Z</time></trkpt><trkpt lat="44.368880226175364" lon="8.573462301669107"><ele>26.0</ele><time>2026-04-12T09:12:37Z</time></trkpt><trkpt lat="44.36892970279015" lon="8.573557802880172"><ele>26.0</ele><time>2026-04-12T09:12:38Z</time></trkpt><trkpt lat="44.36898164326775" lon="8.57364970706219"><ele>25.999999999999996</ele><time>2026-04-12T09:12:39Z</time></trkpt><trkpt lat="44.369039474407806" lon="8.573740512101649"><ele>26.0</ele><time>2026-04-12T09:12:40Z</time></trkpt><trkpt lat="44.36909650462836" lon="8.573825844399956"><ele>25.833333333333332</ele><time>2026-04-12T09:12:41Z</time></trkpt><trkpt lat="44.36915617346196" lon="8.573905534721739"><ele>25.666666666666664</ele><time>2026-04-12T09:12:42Z</time></trkpt><trkpt lat="44.369209909036414" lon="8.573977036774204"><ele>25.5</ele><time>2026-04-12T09:12:43Z</time></trkpt><trkpt lat="44.36927621016789" lon="8.574046698614861"><ele>25.333333333333336</ele><time>2026-04-12T09:12:44Z</time></trkpt><trkpt lat="44.369351348067" lon="8.574111312320152"><ele>25.166666666666668</ele><time>2026-04-12T09:12:45Z</time></trkpt><trkpt lat="44.36942968850772" lon="8.574162747538388"><ele>25.0</ele><time>2026-04-12T09:12:46Z</time></trkpt><trkpt lat="44.369510646419855" lon="8.574209130594662"><ele>25.000000000000004</ele><time>2026-04-12T09:12:47Z</time></trkpt><trkpt lat="44.36958272843485" lon="8.574249847620893"><ele>25.0</ele><time>2026-04-12T09:12:48Z</time></trkpt><trkpt lat="44.36966327796434" lon="8.57429047171245"><ele>25.0</ele><time>2026-04-12T09:12:49Z</time></trkpt><trkpt lat="44.369744589818914" lon="8.57433193992452"><ele>25.0</ele><time>2026-04-12T09:12:50Z</time></trkpt><trkpt lat="44.369820874829394" lon="8.574359355830511"><ele>25.000000000000004</ele><time>2026-04-12T09:12:51Z</time></trkpt><trkpt lat="44.36990735838442" lon="8.574382047720725"><ele>25.0</ele><time>2026-04-12T09:12:52Z</time></trkpt><trkpt lat="44.36999534350931" lon="8.574394599981643"><ele>25.4</ele><time>2026-04-12T09:12:53Z</time></trkpt><trkpt lat="44.370078693116646" lon="8.574407404276492"><ele>25.8</ele><time>2026-04-12T09:12:54Z</time></trkpt><trkpt lat="44.370171244191624" lon="8.5744208789332"><ele>26.200000000000003</ele><time>2026-04-12T09:12:55Z</time></trkpt><trkpt lat="44.37027265476261" lon="8.574431948795652"><ele>26.6</ele><time>2026-04-12T09:12:56Z</time></trkpt><trkpt lat="44.37036916283082" lon="8.57444478843206"><ele>27.0</ele><time>2026-04-12T09:12:57Z</time></trkpt><trkpt lat="44.370466488070335" lon="8.574456022832248"><ele>27.200000000000003</ele><time>2026-04-12T09:12:58Z</time></trkpt><trkpt lat="44.37055305672053" lon="8.574464357396268"><ele>27.400000000000002</ele><time>2026-04-12T09:12:59Z</time></trkpt><trkpt lat="44.37064224814628" lon="8.574462234088415"><ele>27.599999999999998</ele><time>2026-04-12T09:13:00Z</time></trkpt><trkpt lat="44.37073128079518" lon="8.574451599065483"><ele>27.799999999999997</ele><time>2026-04-12T09:13:01Z</time></trkpt><trkpt lat="44.37082184610114" lon="8.57443154632683"><ele>28.0</ele><time>2026-04-12T09:13:02Z</time></trkpt><trkpt lat="44.370913211770365" lon="8.574406491776742"><ele>28.0</ele><time>2026-04-12T09:13:03Z</time></trkpt><trkpt lat="44.371004076775144" lon="8.574375346303176"><ele>27.999999999999996</ele><time>2026-04-12T09:13:04Z</time></trkpt><trkpt lat="44.3710984388877" lon="8.574347110171942"><ele>27.999999999999996</ele><time>2026-04-12T09:13:05Z</time></trkpt><trkpt lat="44.37118497219964" lon="8.574320341483569"><ele>28.0</ele><time>2026-04-12T09:13:06Z</time></trkpt><trkpt lat="44.371274891333876" lon="8.574284964507438"><ele>28.0</ele><time>2026-04-12T09:13:07Z</time></trkpt><trkpt lat="44.37136582006309" lon="8.574242568118283"><ele>28.833333333333336</ele><time>2026-04-12T09:13:08Z</time></trkpt><trkpt lat="44.37145519150211" lon="8.574200532114672"><ele>29.666666666666668</ele><time>2026-04-12T09:13:09Z</time></trkpt><trkpt lat="44.37153139428177" lon="8.57416301759115"><ele>30.5</ele><time>2026-04-12T09:13:10Z</time></trkpt><trkpt lat="44.37161299361683" lon="8.574120526048203"><ele>31.333333333333336</ele><time>2026-04-12T09:13:11Z</time></trkpt><trkpt lat="44.371692592700555" lon="8.574079826656336"><ele>32.166666666666664</ele><time>2026-04-12T09:13:12Z</time></trkpt><trkpt lat="44.37177312562306" lon="8.574035492306345"><ele>33.0</ele><time>2026-04-12T09:13:13Z</time></trkpt><trkpt lat="44.37185593620209" lon="8.57398958557273"><ele>33.0</ele><time>2026-04-12T09:13:14Z</time></trkpt><trkpt lat="44.37192762333169" lon="8.57394695765803"><ele>33.0</ele><time>2026-04-12T09:13:15Z</time></trkpt><trkpt lat="44.37199936822638" lon="8.573905865890083"><ele>33.0</ele><time>2026-04-12T09:13:16Z</time></trkpt><trkpt lat="44.37206717990386" lon="8.573853786610789"><ele>33.0</ele><time>2026-04-12T09:13:17Z</time></trkpt><trkpt lat="44.372123872156685" lon="8.573791849172098"><ele>33.0</ele><time>2026-04-12T09:13:18Z</time></trkpt><trkpt lat="44.3721818856496" lon="8.57371222918064"><ele>33.0</ele><time>2026-04-12T09:13:19Z</time></trkpt><trkpt lat="44.37223713006411" lon="8.573634636915"><ele>33.6</ele><time>2026-04-12T09:13:20Z</time></trkpt><trkpt lat="44.37229711617048" lon="8.573540908662237"><ele>34.199999999999996</ele><time>2026-04-12T09:13:21Z</time></trkpt><trkpt lat="44.372350975712706" lon="8.573448861419777"><ele>34.8</ele><time>2026-04-12T09:13:22Z</time></trkpt><trkpt lat="44.37240755895889" lon="8.573351519834405"><ele>35.4</ele><time>2026-04-12T09:13:23Z</time></trkpt><trkpt lat="44.372463418554894" lon="8.573244262422492"><ele>36.0</ele><time>2026-04-12T09:13:24Z</time></trkpt><trkpt lat="44.372519174485305" lon="8.573139488695709"><ele>36.0</ele><time>2026-04-12T09:13:25Z</time></trkpt><trkpt lat="44.372575287030834" lon="8.573035412205321"><ele>36.0</ele><time>2026-04-12T09:13:26Z</time></trkpt><trkpt lat="44.372629794155515" lon="8.572926555797325"><ele>36.0</ele><time>2026-04-12T09:13:27Z</time></trkpt><trkpt lat="44.37268615286058" lon="8.572817588616779"><ele>36.0</ele><time>2026-04-12T09:13:28Z</time></trkpt><trkpt lat="44.37274096360417" lon="8.572707258331628"><ele>36.0</ele><time>2026-04-12T09:13:29Z</time></trkpt><trkpt lat="44.37279092977763" lon="8.572588424309957"><ele>36.6</ele><time>2026-04-12T09:13:30Z</time></trkpt><trkpt lat="44.372839567398955" lon="8.572474531122179"><ele>37.2</ele><time>2026-04-12T09:13:31Z</time></trkpt><trkpt lat="44.372885752784626" lon="8.57236491615669"><ele>37.8</ele><time>2026-04-12T09:13:32Z</time></trkpt><trkpt lat="44.37293408180247" lon="8.572256631114367"><ele>38.4</ele><time>2026-04-12T09:13:33Z</time></trkpt><trkpt lat="44.372986860501385" lon="8.572138415981776"><ele>39.0</ele><time>2026-04-12T09:13:34Z</time></trkpt><trkpt lat="44.373039037408766" lon="8.57202028666571"><ele>40.333333333333336</ele><time>2026-04-12T09:13:35Z</time></trkpt><trkpt lat="44.37308333634158" lon="8.571900799490162"><ele>41.666666666666664</ele><time>2026-04-12T09:13:36Z</time></trkpt><trkpt lat="44.373126864307096" lon="8.571788508739168"><ele>43.0</ele><time>2026-04-12T09:13:37Z</time></trkpt><trkpt lat="44.37316538099198" lon="8.571679035266053"><ele>44.33333333333333</ele><time>2026-04-12T09:13:38Z</time></trkpt><trkpt lat="44.373201194650825" lon="8.571574332571997"><ele>45.666666666666664</ele><time>2026-04-12T09:13:39Z</time></trkpt><trkpt lat="44.37323017375773" lon="8.571465526140043"><ele>47.0</ele><time>2026-04-12T09:13:40Z</time></trkpt><trkpt lat="44.37325763829518" lon="8.571352301244763"><ele>47.0</ele><time>2026-04-12T09:13:41Z</time></trkpt><trkpt lat="44.37327822456209" lon="8.57123471797782"><ele>47.0</ele><time>2026-04-12T09:13:42Z</time></trkpt><trkpt lat="44.37329555678604" lon="8.571107321089121"><ele>47.0</ele><time>2026-04-12T09:13:43Z</time></trkpt><trkpt lat="44.37330462008274" lon="8.570989745779379"><ele>47.0</ele><time>2026-04-12T09:13:44Z</time></trkpt><trkpt lat="44.373312724031955" lon="8.570858863774165"><ele>47.0</ele><time>2026-04-12T09:13:45Z</time></trkpt><trkpt lat="44.37331874482837" lon="8.570729330294824"><ele>47.5</ele><time>2026-04-12T09:13:46Z</time></trkpt><trkpt lat="44.37332321290314" lon="8.570601101016434"><ele>48.0</ele><time>2026-04-12T09:13:47Z</time></trkpt><trkpt lat="44.37332408158607" lon="8.57048843566553"><ele>48.5</ele><time>2026-04-12T09:13:48Z</time></trkpt><trkpt lat="44.3733220142222" lon="8.57036118211979"><ele>49.0</ele><time>2026-04-12T09:13:49Z</time></trkpt><trkpt lat="44.37331576823056" lon="8.570240646169479"><ele>49.50000000000001</ele><time>2026-04-12T09:13:50Z</time></trkpt><trkpt lat="44.37331111134944" lon="8.57010509119062"><ele>50.0</ele><time>2026-04-12T09:13:51Z</time></trkpt><trkpt lat="44.373308975536155" lon="8.569957002699889"><ele>50.0</ele><time>2026-04-12T09:13:52Z</time></trkpt><trkpt lat="44.37330731258555" lon="8.569815978215845"><ele>50.0</ele><time>2026-04-12T09:13:53Z</time></trkpt><trkpt lat="44.373307981084686" lon="8.569685636402983"><ele>50.0</ele><time>2026-04-12T09:13:54Z</time></trkpt><trkpt lat="44.373318651221574" lon="8.569556471999302"><ele>50.0</ele><time>2026-04-12T09:13:55Z</time></trkpt><trkpt lat="44.37333745804185" lon="8.569424338337157"><ele>50.0</ele><time>2026-04-12T09:13:56Z</time></trkpt><trkpt lat="44.373356102611915" lon="8.56930116693705"><ele>50.0</ele><time>2026-04-12T09:13:57Z</time></trkpt><trkpt lat="44.37337078399255" lon="8.569172094143637"><ele>50.0</ele><time>2026-04-12T09:13:58Z</time></trkpt><trkpt lat="44.37339023978625" lon="8.569047642929966"><ele>50.0</ele><time>2026-04-12T09:13:59Z</time></trkpt><trkpt lat="44.37341509429249" lon="8.568919724471431"><ele>50.0</ele><time>2026-04-12T09:14:00Z</time></trkpt><trkpt lat="44.37343837594243" lon="8.568798224576625"><ele>50.0</ele><time>2026-04-12T09:14:01Z</time></trkpt><trkpt lat="44.37346641241814" lon="8.568675738060186"><ele>50.66666666666667</ele><time>2026-04-12T09:14:02Z</time></trkpt><trkpt lat="44.373497040424226" lon="8.568558423171302"><ele>51.333333333333336</ele><time>2026-04-12T09:14:03Z</time></trkpt><trkpt lat="44.37353691752976" lon="8.568442055699995"><ele>52.0</ele><time>2026-04-12T09:14:04Z</time></trkpt><trkpt lat="44.37357957366805" lon="8.568342689243373"><ele>52.66666666666667</ele><time>2026-04-12T09:14:05Z</time></trkpt><trkpt lat="44.373618573934394" lon="8.568255324397724"><ele>53.333333333333336</ele><time>2026-04-12T09:14:06Z</time></trkpt><trkpt lat="44.373669238255054" lon="8.568179243688222"><ele>54.0</ele><time>2026-04-12T09:14:07Z</time></trkpt><trkpt lat="44.373730184722426" lon="8.568109994890545"><ele>54.0</ele><time>2026-04-12T09:14:08Z</time></trkpt><trkpt lat="44.37379374327152" lon="8.56805263908006"><ele>54.0</ele><time>2026-04-12T09:14:09Z</time></trkpt><trkpt lat="44.37386195099157" lon="8.56802411862061"><ele>54.0</ele><time>2026-04-12T09:14:10Z</time></trkpt><trkpt lat="44.373937143797875" lon="8.567997121591135"><ele>54.0</ele><time>2026-04-12T09:14:11Z</time></trkpt><trkpt lat="44.37402423856792" lon="8.56798186357719"><ele>54.0</ele><time>2026-04-12T09:14:12Z</time></trkpt><trkpt lat="44.374104484776296" lon="8.567971690052312"><ele>54.0</ele><time>2026-04-12T09:14:13Z</time></trkpt><trkpt lat="44.37419575467166" lon="8.567969206350575"><ele>54.400000000000006</ele><time>2026-04-12T09:14:14Z</time></trkpt><trkpt lat="44.37428060170962" lon="8.56798033143837"><ele>54.800000000000004</ele><time>2026-04-12T09:14:15Z</time></trkpt><trkpt lat="44.37437224037592" lon="8.568006419009393"><ele>55.199999999999996</ele><time>2026-04-12T09:14:16Z</time></trkpt><trkpt lat="44.374472106870954" lon="8.56801186848177"><ele>55.599999999999994</ele><time>2026-04-12T09:14:17Z</time></trkpt><trkpt lat="44.37455907423404" lon="8.56801792092997"><ele>56.0</ele><time>2026-04-12T09:14:18Z</time></trkpt><trkpt lat="44.374655732123244" lon="8.568032816706605"><ele>58.50000000000001</ele><time>2026-04-12T09:14:19Z</time></trkpt><trkpt lat="44.37475049782892" lon="8.568047737714936"><ele>61.0</ele><time>2026-04-12T09:14:20Z</time></trkpt><trkpt lat="44.37483661965899" lon="8.568057716339672"><ele>63.5</ele><time>2026-04-12T09:14:21Z</time></trkpt><trkpt lat="44.374925440717725" lon="8.568069184973805"><ele>66.0</ele><time>2026-04-12T09:14:22Z</time></trkpt><trkpt lat="44.374993127584595" lon="8.568072293051044"><ele>68.5</ele><time>2026-04-12T09:14:23Z</time></trkpt><trkpt lat="44.375063458385384" lon="8.568067116407812"><ele>71.0</ele><time>2026-04-12T09:14:24Z</time></trkpt><trkpt lat="44.37513621106755" lon="8.568057041560262"><ele>71.0</ele><time>2026-04-12T09:14:25Z</time></trkpt><trkpt lat="44.37520382914532" lon="8.568027521325597"><ele>71.0</ele><time>2026-04-12T09:14:26Z</time></trkpt><trkpt lat="44.37527129010908" lon="8.567982717666062"><ele>71.0</ele><time>2026-04-12T09:14:27Z</time></trkpt><trkpt lat="44.37533456185683" lon="8.567926122048926"><ele>71.0</ele><time>2026-04-12T09:14:28Z</time></trkpt><trkpt lat="44.37539137900419" lon="8.567874251972029"><ele>71.0</ele><time>2026-04-12T09:14:29Z</time></trkpt><trkpt lat="44.37544157961834" lon="8.567797120241126"><ele>71.0</ele><time>2026-04-12T09:14:30Z</time></trkpt><trkpt lat="44.37550920441101" lon="8.567627874805115"><ele>69.66666666666667</ele><time>2026-04-12T09:14:32Z</time></trkpt><trkpt lat="44.375530677682676" lon="8.567523950322693"><ele>68.33333333333334</ele><time>2026-04-12T09:14:33Z</time></trkpt><trkpt lat="44.375554170535445" lon="8.567407289871438"><ele>67.0</ele><time>2026-04-12T09:14:34Z</time></trkpt><trkpt lat="44.37557337948313" lon="8.567292545658434"><ele>65.66666666666667</ele><time>2026-04-12T09:14:35Z</time></trkpt><trkpt lat="44.37559246981392" lon="8.567176846317631"><ele>64.33333333333333</ele><time>2026-04-12T09:14:36Z</time></trkpt><trkpt lat="44.37560985924957" lon="8.567058155988988"><ele>63.0</ele><time>2026-04-12T09:14:37Z</time></trkpt><trkpt lat="44.3756294082753" lon="8.56694582053683"><ele>62.0</ele><time>2026-04-12T09:14:38Z</time></trkpt><trkpt lat="44.37564831396323" lon="8.56683564994974"><ele>61.0</ele><time>2026-04-12T09:14:39Z</time></trkpt><trkpt lat="44.37566222833595" lon="8.566748952757182"><ele>60.0</ele><time>2026-04-12T09:14:40Z</time></trkpt><trkpt lat="44.375680794818614" lon="8.566620785148633"><ele>59.0</ele><time>2026-04-12T09:14:42Z</time></trkpt><trkpt lat="44.375695295040316" lon="8.566483478203645"><ele>58.0</ele><time>2026-04-12T09:14:44Z</time></trkpt><trkpt lat="44.37572802127345" lon="8.566318001369208"><ele>57.99999999999999</ele><time>2026-04-12T09:14:46Z</time></trkpt><trkpt lat="44.37574664299633" lon="8.566228771386749"><ele>58.0</ele><time>2026-04-12T09:14:47Z</time></trkpt><trkpt lat="44.37576910796599" lon="8.566138540174922"><ele>58.0</ele><time>2026-04-12T09:14:48Z</time></trkpt><trkpt lat="44.375792566777335" lon="8.566044681301944"><ele>58.0</ele><time>2026-04-12T09:14:49Z</time></trkpt><trkpt lat="44.375831514379776" lon="8.565879070277722"><ele>57.99999999999999</ele><time>2026-04-12T09:14:51Z</time></trkpt><trkpt lat="44.37585644602432" lon="8.565790862008996"><ele>58.0</ele><time>2026-04-12T09:14:52Z</time></trkpt><trkpt lat="44.37588369841405" lon="8.565705078538437"><ele>57.71428571428572</ele><time>2026-04-12T09:14:53Z</time></trkpt><trkpt lat="44.37591529342438" lon="8.565619364263346"><ele>57.42857142857143</ele><time>2026-04-12T09:14:54Z</time></trkpt><trkpt lat="44.37595803294975" lon="8.565544336664631"><ele>57.142857142857146</ele><time>2026-04-12T09:14:55Z</time></trkpt><trkpt lat="44.376002526047486" lon="8.56548159136964"><ele>56.85714285714286</ele><time>2026-04-12T09:14:56Z</time></trkpt><trkpt lat="44.376056467628686" lon="8.565425613167298"><ele>56.57142857142857</ele><time>2026-04-12T09:14:57Z</time></trkpt><trkpt lat="44.37611417446191" lon="8.565386262839532"><ele>56.285714285714285</ele><time>2026-04-12T09:14:58Z</time></trkpt><trkpt lat="44.37618447027061" lon="8.565359797728307"><ele>56.0</ele><time>2026-04-12T09:14:59Z</time></trkpt><trkpt lat="44.37625699214233" lon="8.565347395927033"><ele>57.00000000000001</ele><time>2026-04-12T09:15:00Z</time></trkpt><trkpt lat="44.37633801440949" lon="8.565339420273322"><ele>58.0</ele><time>2026-04-12T09:15:01Z</time></trkpt><trkpt lat="44.376423334343606" lon="8.565347605742476"><ele>59.0</ele><time>2026-04-12T09:15:02Z</time></trkpt><trkpt lat="44.37651068672952" lon="8.565354177342249"><ele>60.0</ele><time>2026-04-12T09:15:03Z</time></trkpt><trkpt lat="44.37659665075472" lon="8.565351897649252"><ele>61.00000000000001</ele><time>2026-04-12T09:15:04Z</time></trkpt><trkpt lat="44.37668690386375" lon="8.565353341342936"><ele>62.0</ele><time>2026-04-12T09:15:05Z</time></trkpt><trkpt lat="44.37677343660081" lon="8.565353073712606"><ele>62.00000000000001</ele><time>2026-04-12T09:15:06Z</time></trkpt><trkpt lat="44.37685415519107" lon="8.565350751864107"><ele>62.0</ele><time>2026-04-12T09:15:07Z</time></trkpt><trkpt lat="44.3769314153626" lon="8.565330637971678"><ele>62.0</ele><time>2026-04-12T09:15:08Z</time></trkpt><trkpt lat="44.37700934627657" lon="8.565301293985204"><ele>62.0</ele><time>2026-04-12T09:15:09Z</time></trkpt><trkpt lat="44.37708840144921" lon="8.565259378451714"><ele>62.00000000000001</ele><time>2026-04-12T09:15:10Z</time></trkpt><trkpt lat="44.37717026745877" lon="8.565207217466135"><ele>62.0</ele><time>2026-04-12T09:15:11Z</time></trkpt><trkpt lat="44.37725015575652" lon="8.565147288581212"><ele>64.33333333333334</ele><time>2026-04-12T09:15:12Z</time></trkpt><trkpt lat="44.377327171892844" lon="8.56508831858253"><ele>66.66666666666667</ele><time>2026-04-12T09:15:13Z</time></trkpt><trkpt lat="44.377408982849495" lon="8.565022677376366"><ele>69.0</ele><time>2026-04-12T09:15:14Z</time></trkpt><trkpt lat="44.377484855007566" lon="8.564961394656995"><ele>71.33333333333333</ele><time>2026-04-12T09:15:15Z</time></trkpt><trkpt lat="44.37754951108862" lon="8.564905039183975"><ele>73.66666666666666</ele><time>2026-04-12T09:15:16Z</time></trkpt><trkpt lat="44.37761860559879" lon="8.56484455713886"><ele>76.0</ele><time>2026-04-12T09:15:17Z</time></trkpt><trkpt lat="44.37768672419689" lon="8.56478058551667"><ele>76.0</ele><time>2026-04-12T09:15:18Z</time></trkpt><trkpt lat="44.377760753460166" lon="8.564704050298264"><ele>76.0</ele><time>2026-04-12T09:15:19Z</time></trkpt><trkpt lat="44.377828247644395" lon="8.564628031567661"><ele>76.0</ele><time>2026-04-12T09:15:20Z</time></trkpt><trkpt lat="44.37790090854938" lon="8.564544686348048"><ele>76.0</ele><time>2026-04-12T09:15:21Z</time></trkpt><trkpt lat="44.37796597941833" lon="8.564471968914656"><ele>76.0</ele><time>2026-04-12T09:15:22Z</time></trkpt><trkpt lat="44.37803355259459" lon="8.564394103121577"><ele>76.0</ele><time>2026-04-12T09:15:23Z</time></trkpt><trkpt lat="44.378100812068745" lon="8.564326468921628"><ele>76.16666666666666</ele><time>2026-04-12T09:15:24Z</time></trkpt><trkpt lat="44.378166996783634" lon="8.564270909708648"><ele>76.33333333333333</ele><time>2026-04-12T09:15:25Z</time></trkpt><trkpt lat="44.3782349791184" lon="8.564224425526985"><ele>76.5</ele><time>2026-04-12T09:15:26Z</time></trkpt><trkpt lat="44.37830942068361" lon="8.564197367914995"><ele>76.66666666666667</ele><time>2026-04-12T09:15:27Z</time></trkpt><trkpt lat="44.37839858433122" lon="8.564172078445505"><ele>76.83333333333334</ele><time>2026-04-12T09:15:28Z</time></trkpt><trkpt lat="44.37848792575488" lon="8.564151232295744"><ele>77.0</ele><time>2026-04-12T09:15:29Z</time></trkpt><trkpt lat="44.37857377943822" lon="8.564127192253903"><ele>77.0</ele><time>2026-04-12T09:15:30Z</time></trkpt><trkpt lat="44.378663787105694" lon="8.564102807417509"><ele>77.0</ele><time>2026-04-12T09:15:31Z</time></trkpt><trkpt lat="44.378738450163475" lon="8.564062889425044"><ele>77.0</ele><time>2026-04-12T09:15:32Z</time></trkpt><trkpt lat="44.37881577640138" lon="8.564017185025058"><ele>77.0</ele><time>2026-04-12T09:15:33Z</time></trkpt><trkpt lat="44.378879482526635" lon="8.56395888827112"><ele>77.0</ele><time>2026-04-12T09:15:34Z</time></trkpt><trkpt lat="44.3789381638162" lon="8.563894241722341"><ele>77.0</ele><time>2026-04-12T09:15:35Z</time></trkpt><trkpt lat="44.37899196754172" lon="8.563817583810172"><ele>76.42857142857143</ele><time>2026-04-12T09:15:36Z</time></trkpt><trkpt lat="44.37904379887796" lon="8.563727401311166"><ele>75.85714285714286</ele><time>2026-04-12T09:15:37Z</time></trkpt><trkpt lat="44.37908886473339" lon="8.563648910736076"><ele>75.28571428571428</ele><time>2026-04-12T09:15:38Z</time></trkpt><trkpt lat="44.37913455126953" lon="8.563553088601488"><ele>74.71428571428572</ele><time>2026-04-12T09:15:39Z</time></trkpt><trkpt lat="44.379174114506064" lon="8.563467286956154"><ele>74.14285714285714</ele><time>2026-04-12T09:15:40Z</time></trkpt><trkpt lat="44.379213078975496" lon="8.563384506394309"><ele>73.57142857142857</ele><time>2026-04-12T09:15:41Z</time></trkpt><trkpt lat="44.3792487464503" lon="8.563311854977512"><ele>73.0</ele><time>2026-04-12T09:15:42Z</time></trkpt><trkpt lat="44.37928261828618" lon="8.563218446253028"><ele>73.0</ele><time>2026-04-12T09:15:43Z</time></trkpt><trkpt lat="44.379308857793305" lon="8.563116024678273"><ele>73.0</ele><time>2026-04-12T09:15:44Z</time></trkpt><trkpt lat="44.379328766861384" lon="8.563013398292592"><ele>73.0</ele><time>2026-04-12T09:15:45Z</time></trkpt><trkpt lat="44.37934308438065" lon="8.56290357764644"><ele>73.0</ele><time>2026-04-12T09:15:46Z</time></trkpt><trkpt lat="44.37935990174816" lon="8.562794769453172"><ele>73.0</ele><time>2026-04-12T09:15:47Z</time></trkpt><trkpt lat="44.379373693967366" lon="8.562688667980643"><ele>73.0</ele><time>2026-04-12T09:15:48Z</time></trkpt><trkpt lat="44.37939886260067" lon="8.562583178674696"><ele>73.33333333333333</ele><time>2026-04-12T09:15:49Z</time></trkpt><trkpt lat="44.37943307599505" lon="8.562499077570614"><ele>73.66666666666666</ele><time>2026-04-12T09:15:50Z</time></trkpt><trkpt lat="44.379479669894415" lon="8.562426660394804"><ele>74.0</ele><time>2026-04-12T09:15:51Z</time></trkpt><trkpt lat="44.379536513487245" lon="8.562352459084947"><ele>74.33333333333333</ele><time>2026-04-12T09:15:52Z</time></trkpt><trkpt lat="44.37959421241675" lon="8.562274022594817"><ele>74.66666666666667</ele><time>2026-04-12T09:15:53Z</time></trkpt><trkpt lat="44.37965899441724" lon="8.562194530184202"><ele>75.0</ele><time>2026-04-12T09:15:54Z</time></trkpt><trkpt lat="44.37972350973139" lon="8.56211298195447"><ele>75.83333333333333</ele><time>2026-04-12T09:15:55Z</time></trkpt><trkpt lat="44.379786232038654" lon="8.562021107882412"><ele>76.66666666666667</ele><time>2026-04-12T09:15:56Z</time></trkpt><trkpt lat="44.37984388248917" lon="8.561941754270999"><ele>77.5</ele><time>2026-04-12T09:15:57Z</time></trkpt><trkpt lat="44.37990643665779" lon="8.561868950804417"><ele>78.33333333333334</ele><time>2026-04-12T09:15:58Z</time></trkpt><trkpt lat="44.37997685864608" lon="8.561807731517444"><ele>79.16666666666667</ele><time>2026-04-12T09:15:59Z</time></trkpt><trkpt lat="44.38005676340527" lon="8.561762426457332"><ele>80.0</ele><time>2026-04-12T09:16:00Z</time></trkpt><trkpt lat="44.380130843797446" lon="8.561713305165787"><ele>80.0</ele><time>2026-04-12T09:16:01Z</time></trkpt><trkpt lat="44.38020790581833" lon="8.561656955025569"><ele>80.0</ele><time>2026-04-12T09:16:02Z</time></trkpt><trkpt lat="44.38029102116453" lon="8.561605892431343"><ele>80.0</ele><time>2026-04-12T09:16:03Z</time></trkpt><trkpt lat="44.38036855318097" lon="8.56155027542699"><ele>80.0</ele><time>2026-04-12T09:16:04Z</time></trkpt><trkpt lat="44.380443237288134" lon="8.56149404438662"><ele>80.0</ele><time>2026-04-12T09:16:05Z</time></trkpt><trkpt lat="44.38052160690524" lon="8.561421472066638"><ele>80.0</ele><time>2026-04-12T09:16:06Z</time></trkpt><trkpt lat="44.38058397280186" lon="8.561364885597484"><ele>80.0</ele><time>2026-04-12T09:16:07Z</time></trkpt><trkpt lat="44.38064739106387" lon="8.561283300670526"><ele>80.0</ele><time>2026-04-12T09:16:08Z</time></trkpt><trkpt lat="44.38070435276644" lon="8.561199407840592"><ele>80.0</ele><time>2026-04-12T09:16:09Z</time></trkpt><trkpt lat="44.380756214807676" lon="8.561101582180417"><ele>80.0</ele><time>2026-04-12T09:16:10Z</time></trkpt><trkpt lat="44.380805699089635" lon="8.561003988933715"><ele>80.0</ele><time>2026-04-12T09:16:11Z</time></trkpt><trkpt lat="44.38085020020161" lon="8.560902408107124"><ele>80.0</ele><time>2026-04-12T09:16:12Z</time></trkpt><trkpt lat="44.38089411593601" lon="8.560792382239445"><ele>80.0</ele><time>2026-04-12T09:16:13Z</time></trkpt><trkpt lat="44.38093318282505" lon="8.560691223124074"><ele>80.0</ele><time>2026-04-12T09:16:14Z</time></trkpt><trkpt lat="44.380977265519434" lon="8.56058761770811"><ele>80.0</ele><time>2026-04-12T09:16:15Z</time></trkpt><trkpt lat="44.38102347986577" lon="8.560494109495846"><ele>80.0</ele><time>2026-04-12T09:16:16Z</time></trkpt><trkpt lat="44.38107841758009" lon="8.56040790598835"><ele>80.0</ele><time>2026-04-12T09:16:17Z</time></trkpt><trkpt lat="44.381140479814995" lon="8.560314472747804"><ele>80.0</ele><time>2026-04-12T09:16:18Z</time></trkpt><trkpt lat="44.38120261610218" lon="8.560234817471203"><ele>79.83333333333334</ele><time>2026-04-12T09:16:19Z</time></trkpt><trkpt lat="44.38126558651516" lon="8.560155671651463"><ele>79.66666666666667</ele><time>2026-04-12T09:16:20Z</time></trkpt><trkpt lat="44.38132817489892" lon="8.560074411762178"><ele>79.5</ele><time>2026-04-12T09:16:21Z</time></trkpt><trkpt lat="44.38138996592788" lon="8.559987368447743"><ele>79.33333333333333</ele><time>2026-04-12T09:16:22Z</time></trkpt><trkpt lat="44.38145623406586" lon="8.559907915540991"><ele>79.16666666666666</ele><time>2026-04-12T09:16:23Z</time></trkpt><trkpt lat="44.38151912450331" lon="8.559823999733448"><ele>79.0</ele><time>2026-04-12T09:16:24Z</time></trkpt><trkpt lat="44.381571404450696" lon="8.559741205666423"><ele>79.33333333333333</ele><time>2026-04-12T09:16:25Z</time></trkpt><trkpt lat="44.38163398495409" lon="8.559652462412892"><ele>79.66666666666666</ele><time>2026-04-12T09:16:26Z</time></trkpt><trkpt lat="44.381694988974274" lon="8.559566847480719"><ele>80.0</ele><time>2026-04-12T09:16:27Z</time></trkpt><trkpt lat="44.381756870711754" lon="8.559481775301904"><ele>80.33333333333333</ele><time>2026-04-12T09:16:28Z</time></trkpt><trkpt lat="44.381815630140295" lon="8.55939435325008"><ele>80.66666666666667</ele><time>2026-04-12T09:16:29Z</time></trkpt><trkpt lat="44.38187467736688" lon="8.55931107439709"><ele>81.0</ele><time>2026-04-12T09:16:30Z</time></trkpt><trkpt lat="44.38193031379942" lon="8.55923050637657"><ele>81.0</ele><time>2026-04-12T09:16:31Z</time></trkpt><trkpt lat="44.38198704789193" lon="8.559145156067634"><ele>81.0</ele><time>2026-04-12T09:16:32Z</time></trkpt><trkpt lat="44.382035861977975" lon="8.55907757052236"><ele>81.0</ele><time>2026-04-12T09:16:33Z</time></trkpt><trkpt lat="44.38208463215594" lon="8.558999858827544"><ele>81.0</ele><time>2026-04-12T09:16:34Z</time></trkpt><trkpt lat="44.38213444321326" lon="8.55891458857472"><ele>81.0</ele><time>2026-04-12T09:16:35Z</time></trkpt><trkpt lat="44.38217264114631" lon="8.558839312841032"><ele>81.0</ele><time>2026-04-12T09:16:36Z</time></trkpt><trkpt lat="44.38219946753218" lon="8.558751167964502"><ele>81.0</ele><time>2026-04-12T09:16:37Z</time></trkpt><trkpt lat="44.38223015507084" lon="8.558642083409925"><ele>82.33333333333333</ele><time>2026-04-12T09:16:38Z</time></trkpt><trkpt lat="44.38225818954098" lon="8.558521415567686"><ele>83.66666666666667</ele><time>2026-04-12T09:16:39Z</time></trkpt><trkpt lat="44.38228329659383" lon="8.55840949353101"><ele>85.0</ele><time>2026-04-12T09:16:40Z</time></trkpt><trkpt lat="44.382309046801176" lon="8.55830193113155"><ele>86.33333333333334</ele><time>2026-04-12T09:16:41Z</time></trkpt><trkpt lat="44.38233176669126" lon="8.558204001995868"><ele>87.66666666666667</ele><time>2026-04-12T09:16:42Z</time></trkpt><trkpt lat="44.38235321788126" lon="8.55809155530012"><ele>89.0</ele><time>2026-04-12T09:16:43Z</time></trkpt><trkpt lat="44.38237482768625" lon="8.557981197797277"><ele>88.0</ele><time>2026-04-12T09:16:44Z</time></trkpt><trkpt lat="44.38239821006073" lon="8.55786466245654"><ele>87.0</ele><time>2026-04-12T09:16:45Z</time></trkpt><trkpt lat="44.38242256114852" lon="8.557760957003715"><ele>86.0</ele><time>2026-04-12T09:16:46Z</time></trkpt><trkpt lat="44.38244348576949" lon="8.557649115578734"><ele>85.0</ele><time>2026-04-12T09:16:47Z</time></trkpt><trkpt lat="44.38246822089439" lon="8.55753428863145"><ele>84.0</ele><time>2026-04-12T09:16:48Z</time></trkpt><trkpt lat="44.382493642528274" lon="8.557425801147469"><ele>83.0</ele><time>2026-04-12T09:16:49Z</time></trkpt><trkpt lat="44.3825169276383" lon="8.557316827796067"><ele>83.0</ele><time>2026-04-12T09:16:50Z</time></trkpt><trkpt lat="44.382542770256705" lon="8.557199543650018"><ele>83.0</ele><time>2026-04-12T09:16:51Z</time></trkpt><trkpt lat="44.3825655241165" lon="8.557088624283168"><ele>83.0</ele><time>2026-04-12T09:16:52Z</time></trkpt><trkpt lat="44.382588888975945" lon="8.556983492066927"><ele>83.0</ele><time>2026-04-12T09:16:53Z</time></trkpt><trkpt lat="44.38261465661449" lon="8.556872172049538"><ele>83.0</ele><time>2026-04-12T09:16:54Z</time></trkpt><trkpt lat="44.382637785636966" lon="8.556772073203161"><ele>83.0</ele><time>2026-04-12T09:16:55Z</time></trkpt><trkpt lat="44.382659546595065" lon="8.556668018778744"><ele>83.33333333333334</ele><time>2026-04-12T09:16:56Z</time></trkpt><trkpt lat="44.382690143005675" lon="8.556563148084738"><ele>83.66666666666667</ele><time>2026-04-12T09:16:57Z</time></trkpt><trkpt lat="44.3827258055788" lon="8.556457076883543"><ele>84.0</ele><time>2026-04-12T09:16:58Z</time></trkpt><trkpt lat="44.38276256450216" lon="8.556351736717163"><ele>84.33333333333333</ele><time>2026-04-12T09:16:59Z</time></trkpt><trkpt lat="44.38279858020645" lon="8.556249330448642"><ele>84.66666666666666</ele><time>2026-04-12T09:17:00Z</time></trkpt><trkpt lat="44.382841200128546" lon="8.556152856637024"><ele>85.0</ele><time>2026-04-12T09:17:01Z</time></trkpt><trkpt lat="44.38288800322328" lon="8.556053564186627"><ele>85.33333333333333</ele><time>2026-04-12T09:17:02Z</time></trkpt><trkpt lat="44.38293657166387" lon="8.55595465827149"><ele>85.66666666666666</ele><time>2026-04-12T09:17:03Z</time></trkpt><trkpt lat="44.38298432862993" lon="8.555858498764037"><ele>86.0</ele><time>2026-04-12T09:17:04Z</time></trkpt><trkpt lat="44.38303420544034" lon="8.555762139635041"><ele>86.33333333333333</ele><time>2026-04-12T09:17:05Z</time></trkpt><trkpt lat="44.38308136835045" lon="8.55567582092439"><ele>86.66666666666667</ele><time>2026-04-12T09:17:06Z</time></trkpt><trkpt lat="44.383138624279695" lon="8.55557956824332"><ele>87.0</ele><time>2026-04-12T09:17:07Z</time></trkpt><trkpt lat="44.383188249923656" lon="8.555493578384533"><ele>87.39999999999999</ele><time>2026-04-12T09:17:08Z</time></trkpt><trkpt lat="44.38324364954945" lon="8.555404598210256"><ele>87.8</ele><time>2026-04-12T09:17:09Z</time></trkpt><trkpt lat="44.383305347595346" lon="8.555311868807657"><ele>88.2</ele><time>2026-04-12T09:17:10Z</time></trkpt><trkpt lat="44.383366445729074" lon="8.555218510692603"><ele>88.6</ele><time>2026-04-12T09:17:11Z</time></trkpt><trkpt lat="44.38343126850624" lon="8.555123438697866"><ele>89.0</ele><time>2026-04-12T09:17:12Z</time></trkpt><trkpt lat="44.3834940021326" lon="8.55503107541968"><ele>89.0</ele><time>2026-04-12T09:17:13.001Z</time></trkpt><trkpt lat="44.383558573437426" lon="8.554934867550925"><ele>89.0</ele><time>2026-04-12T09:17:14.001Z</time></trkpt><trkpt lat="44.383622989534814" lon="8.5548458402129"><ele>89.0</ele><time>2026-04-12T09:17:15Z</time></trkpt><trkpt lat="44.38369352367507" lon="8.554747196684929"><ele>89.0</ele><time>2026-04-12T09:17:16Z</time></trkpt><trkpt lat="44.383754015425914" lon="8.554657962284123"><ele>89.0</ele><time>2026-04-12T09:17:17Z</time></trkpt><trkpt lat="44.383814741188914" lon="8.55455350550094"><ele>89.33333333333334</ele><time>2026-04-12T09:17:18Z</time></trkpt><trkpt lat="44.383875149302504" lon="8.55446818069506"><ele>89.66666666666667</ele><time>2026-04-12T09:17:19Z</time></trkpt><trkpt lat="44.3839338929488" lon="8.55437359384797"><ele>90.0</ele><time>2026-04-12T09:17:20Z</time></trkpt><trkpt lat="44.38398665061871" lon="8.554277541690746"><ele>90.33333333333333</ele><time>2026-04-12T09:17:21Z</time></trkpt><trkpt lat="44.384034535290304" lon="8.554182065027856"><ele>90.66666666666666</ele><time>2026-04-12T09:17:22Z</time></trkpt><trkpt lat="44.384076219042264" lon="8.55407339018729"><ele>91.0</ele><time>2026-04-12T09:17:23Z</time></trkpt><trkpt lat="44.38412109449277" lon="8.553953478982526"><ele>91.0</ele><time>2026-04-12T09:17:24Z</time></trkpt><trkpt lat="44.38416476560932" lon="8.553835612831342"><ele>91.0</ele><time>2026-04-12T09:17:25Z</time></trkpt><trkpt lat="44.38421319404293" lon="8.553714198987198"><ele>91.0</ele><time>2026-04-12T09:17:26Z</time></trkpt><trkpt lat="44.38425826097067" lon="8.553585447417271"><ele>91.0</ele><time>2026-04-12T09:17:27Z</time></trkpt><trkpt lat="44.38430461199389" lon="8.55345681041465"><ele>91.0</ele><time>2026-04-12T09:17:28Z</time></trkpt><trkpt lat="44.384353272870364" lon="8.553314369849947"><ele>91.25</ele><time>2026-04-12T09:17:29Z</time></trkpt><trkpt lat="44.38440526242375" lon="8.55316361084614"><ele>91.5</ele><time>2026-04-12T09:17:30Z</time></trkpt><trkpt lat="44.38445415098939" lon="8.553009753583167"><ele>91.75</ele><time>2026-04-12T09:17:31Z</time></trkpt><trkpt lat="44.38450756272484" lon="8.552849726108825"><ele>92.0</ele><time>2026-04-12T09:17:32Z</time></trkpt><trkpt lat="44.384557019688174" lon="8.552697280266523"><ele>92.75</ele><time>2026-04-12T09:17:33Z</time></trkpt><trkpt lat="44.384603647834176" lon="8.552545134034338"><ele>93.5</ele><time>2026-04-12T09:17:34Z</time></trkpt><trkpt lat="44.384652180761165" lon="8.552399033358892"><ele>94.25</ele><time>2026-04-12T09:17:35Z</time></trkpt><trkpt lat="44.38470123384872" lon="8.552250681801391"><ele>95.0</ele><time>2026-04-12T09:17:36Z</time></trkpt><trkpt lat="44.38474655574019" lon="8.55209881615329"><ele>96.5</ele><time>2026-04-12T09:17:37Z</time></trkpt><trkpt lat="44.38479472229501" lon="8.551950786144756"><ele>98.0</ele><time>2026-04-12T09:17:38Z</time></trkpt><trkpt lat="44.384846912607095" lon="8.551800303362986"><ele>99.5</ele><time>2026-04-12T09:17:39Z</time></trkpt><trkpt lat="44.38489793895273" lon="8.551650811180851"><ele>101.0</ele><time>2026-04-12T09:17:40Z</time></trkpt><trkpt lat="44.38494585517685" lon="8.551508048225504"><ele>101.0</ele><time>2026-04-12T09:17:41Z</time></trkpt><trkpt lat="44.38499659587694" lon="8.55136420673239"><ele>101.0</ele><time>2026-04-12T09:17:42Z</time></trkpt><trkpt lat="44.38504416315274" lon="8.55121755728507"><ele>101.0</ele><time>2026-04-12T09:17:43Z</time></trkpt><trkpt lat="44.38509164320059" lon="8.55107509319488"><ele>101.0</ele><time>2026-04-12T09:17:44Z</time></trkpt><trkpt lat="44.38513908338316" lon="8.550932393646097"><ele>100.8</ele><time>2026-04-12T09:17:45Z</time></trkpt><trkpt lat="44.385185905735796" lon="8.550793946847838"><ele>100.6</ele><time>2026-04-12T09:17:46Z</time></trkpt><trkpt lat="44.385226934228136" lon="8.550663321569887"><ele>100.4</ele><time>2026-04-12T09:17:47Z</time></trkpt><trkpt lat="44.38526981539144" lon="8.550537095515155"><ele>100.2</ele><time>2026-04-12T09:17:48Z</time></trkpt><trkpt lat="44.385316485932506" lon="8.550413690520433"><ele>100.0</ele><time>2026-04-12T09:17:49Z</time></trkpt><trkpt lat="44.38535910235315" lon="8.55029782484102"><ele>99.83333333333334</ele><time>2026-04-12T09:17:50Z</time></trkpt><trkpt lat="44.38540812824305" lon="8.550186882050639"><ele>99.66666666666667</ele><time>2026-04-12T09:17:51Z</time></trkpt><trkpt lat="44.38546365787483" lon="8.550082946301675"><ele>99.5</ele><time>2026-04-12T09:17:52Z</time></trkpt><trkpt lat="44.385521154429945" lon="8.549989579671173"><ele>99.33333333333334</ele><time>2026-04-12T09:17:53Z</time></trkpt><trkpt lat="44.385571734719996" lon="8.549909688222924"><ele>99.16666666666667</ele><time>2026-04-12T09:17:54Z</time></trkpt><trkpt lat="44.38562510804509" lon="8.54984222390332"><ele>99.0</ele><time>2026-04-12T09:17:55Z</time></trkpt><trkpt lat="44.38567743239354" lon="8.549777420281442"><ele>101.5</ele><time>2026-04-12T09:17:56Z</time></trkpt><trkpt lat="44.385738437623125" lon="8.549735603912916"><ele>104.0</ele><time>2026-04-12T09:17:57Z</time></trkpt><trkpt lat="44.38585948600572" lon="8.549713335374175"><ele>106.5</ele><time>2026-04-12T09:17:59Z</time></trkpt><trkpt lat="44.3859281007825" lon="8.549729353013705"><ele>109.0</ele><time>2026-04-12T09:18:00Z</time></trkpt><trkpt lat="44.38599644250029" lon="8.549760672473644"><ele>111.5</ele><time>2026-04-12T09:18:01Z</time></trkpt><trkpt lat="44.38607101370236" lon="8.54979604486443"><ele>114.0</ele><time>2026-04-12T09:18:02Z</time></trkpt><trkpt lat="44.38614812263043" lon="8.549811935124872"><ele>114.0</ele><time>2026-04-12T09:18:03Z</time></trkpt><trkpt lat="44.386227851225016" lon="8.54982229935951"><ele>114.0</ele><time>2026-04-12T09:18:04Z</time></trkpt><trkpt lat="44.38631119003755" lon="8.549831033492785"><ele>114.0</ele><time>2026-04-12T09:18:05Z</time></trkpt><trkpt lat="44.386393619308315" lon="8.549828763193988"><ele>114.0</ele><time>2026-04-12T09:18:06Z</time></trkpt><trkpt lat="44.38648335089972" lon="8.549818761040996"><ele>114.0</ele><time>2026-04-12T09:18:07Z</time></trkpt><trkpt lat="44.3865736041891" lon="8.549806648124028"><ele>114.0</ele><time>2026-04-12T09:18:08Z</time></trkpt><trkpt lat="44.3866585995199" lon="8.54978801601361"><ele>115.5</ele><time>2026-04-12T09:18:09Z</time></trkpt><trkpt lat="44.3867408548009" lon="8.549772689155597"><ele>117.0</ele><time>2026-04-12T09:18:10Z</time></trkpt><trkpt lat="44.38682267262915" lon="8.549750228459473"><ele>118.5</ele><time>2026-04-12T09:18:11Z</time></trkpt><trkpt lat="44.3869087330847" lon="8.549729986171851"><ele>120.0</ele><time>2026-04-12T09:18:12Z</time></trkpt><trkpt lat="44.38699055087555" lon="8.549709548845229"><ele>121.5</ele><time>2026-04-12T09:18:13Z</time></trkpt><trkpt lat="44.38707842169269" lon="8.54967980714706"><ele>123.0</ele><time>2026-04-12T09:18:14Z</time></trkpt><trkpt lat="44.38715784690835" lon="8.549651169977036"><ele>123.85714285714288</ele><time>2026-04-12T09:18:15Z</time></trkpt><trkpt lat="44.38723680434471" lon="8.549627040535999"><ele>124.71428571428572</ele><time>2026-04-12T09:18:16Z</time></trkpt><trkpt lat="44.387309689966415" lon="8.54960585519256"><ele>125.57142857142857</ele><time>2026-04-12T09:18:17Z</time></trkpt><trkpt lat="44.38738475004238" lon="8.549583274421533"><ele>126.42857142857143</ele><time>2026-04-12T09:18:18Z</time></trkpt><trkpt lat="44.387453123503626" lon="8.549567793723305"><ele>127.28571428571428</ele><time>2026-04-12T09:18:19Z</time></trkpt><trkpt lat="44.38751989526638" lon="8.549544079894845"><ele>128.14285714285714</ele><time>2026-04-12T09:18:20Z</time></trkpt><trkpt lat="44.38759216750853" lon="8.549518427695217"><ele>129.0</ele><time>2026-04-12T09:18:21Z</time></trkpt><trkpt lat="44.38765022818838" lon="8.549481112197084"><ele>126.66666666666667</ele><time>2026-04-12T09:18:22Z</time></trkpt><trkpt lat="44.38770230872436" lon="8.549429660683169"><ele>124.33333333333334</ele><time>2026-04-12T09:18:23Z</time></trkpt><trkpt lat="44.387788149782935" lon="8.549291330230144"><ele>122.0</ele><time>2026-04-12T09:18:25Z</time></trkpt><trkpt lat="44.38784305040709" lon="8.549139828596443"><ele>119.66666666666667</ele><time>2026-04-12T09:18:27Z</time></trkpt><trkpt lat="44.38785394557801" lon="8.549047385301321"><ele>117.33333333333334</ele><time>2026-04-12T09:18:28Z</time></trkpt><trkpt lat="44.38785504868906" lon="8.548955360174704"><ele>115.0</ele><time>2026-04-12T09:18:29Z</time></trkpt><trkpt lat="44.38784238836323" lon="8.548858534080555"><ele>115.00000000000001</ele><time>2026-04-12T09:18:30Z</time></trkpt><trkpt lat="44.38781717219606" lon="8.548764308683422"><ele>115.0</ele><time>2026-04-12T09:18:31Z</time></trkpt><trkpt lat="44.387785041316405" lon="8.548669844238395"><ele>115.0</ele><time>2026-04-12T09:18:32Z</time></trkpt><trkpt lat="44.38775192042944" lon="8.548569289727217"><ele>115.0</ele><time>2026-04-12T09:18:33Z</time></trkpt><trkpt lat="44.38773326168442" lon="8.548465770194904"><ele>115.00000000000001</ele><time>2026-04-12T09:18:34Z</time></trkpt><trkpt lat="44.38772787836843" lon="8.548362059008163"><ele>115.0</ele><time>2026-04-12T09:18:35Z</time></trkpt><trkpt lat="44.38770915509322" lon="8.548250638200008"><ele>116.00000000000001</ele><time>2026-04-12T09:18:36Z</time></trkpt><trkpt lat="44.387692814698795" lon="8.548131597845385"><ele>117.0</ele><time>2026-04-12T09:18:37Z</time></trkpt><trkpt lat="44.38767980830758" lon="8.548031236134298"><ele>118.0</ele><time>2026-04-12T09:18:38Z</time></trkpt><trkpt lat="44.38766222923883" lon="8.547916324526668"><ele>119.0</ele><time>2026-04-12T09:18:39Z</time></trkpt><trkpt lat="44.38764554184927" lon="8.54779586269221"><ele>120.00000000000001</ele><time>2026-04-12T09:18:40Z</time></trkpt><trkpt lat="44.387630522058586" lon="8.547688660581539"><ele>121.0</ele><time>2026-04-12T09:18:41Z</time></trkpt><trkpt lat="44.38761152366496" lon="8.547580069843622"><ele>123.66666666666667</ele><time>2026-04-12T09:18:42Z</time></trkpt><trkpt lat="44.38758906150449" lon="8.547492187854145"><ele>126.33333333333334</ele><time>2026-04-12T09:18:43Z</time></trkpt><trkpt lat="44.387556154831934" lon="8.54741240253855"><ele>129.0</ele><time>2026-04-12T09:18:44Z</time></trkpt><trkpt lat="44.38746479688018" lon="8.547299548323965"><ele>131.66666666666666</ele><time>2026-04-12T09:18:46Z</time></trkpt><trkpt lat="44.387397974766394" lon="8.547253602028366"><ele>134.33333333333331</ele><time>2026-04-12T09:18:47Z</time></trkpt><trkpt lat="44.38728295954838" lon="8.54720912261661"><ele>137.0</ele><time>2026-04-12T09:18:49Z</time></trkpt><trkpt lat="44.38721892609926" lon="8.547214090563084"><ele>136.0</ele><time>2026-04-12T09:18:50Z</time></trkpt><trkpt lat="44.38715391054971" lon="8.547239507111774"><ele>135.0</ele><time>2026-04-12T09:18:51Z</time></trkpt><trkpt lat="44.38708733244317" lon="8.547264862415371"><ele>134.0</ele><time>2026-04-12T09:18:52Z</time></trkpt><trkpt lat="44.38698147380222" lon="8.547238082213571"><ele>133.0</ele><time>2026-04-12T09:18:54Z</time></trkpt><trkpt lat="44.386930550452085" lon="8.547141511695232"><ele>132.0</ele><time>2026-04-12T09:18:56Z</time></trkpt><trkpt lat="44.386960820866406" lon="8.547019926709646"><ele>131.0</ele><time>2026-04-12T09:18:58Z</time></trkpt><trkpt lat="44.38705338808044" lon="8.546974837506538"><ele>132.85714285714286</ele><time>2026-04-12T09:19:00Z</time></trkpt><trkpt lat="44.38711961468222" lon="8.546979325082297"><ele>134.71428571428572</ele><time>2026-04-12T09:19:01Z</time></trkpt><trkpt lat="44.387191009340285" lon="8.546984826456564"><ele>136.57142857142858</ele><time>2026-04-12T09:19:02Z</time></trkpt><trkpt lat="44.38726618718742" lon="8.546984814496817"><ele>138.42857142857144</ele><time>2026-04-12T09:19:03Z</time></trkpt><trkpt lat="44.387353991786256" lon="8.546977271582596"><ele>140.28571428571428</ele><time>2026-04-12T09:19:04Z</time></trkpt><trkpt lat="44.38742663889876" lon="8.546973287422615"><ele>142.14285714285717</ele><time>2026-04-12T09:19:05Z</time></trkpt><trkpt lat="44.38749866528661" lon="8.546950041736997"><ele>144.0</ele><time>2026-04-12T09:19:06Z</time></trkpt><trkpt lat="44.387596062562366" lon="8.546875784319973"><ele>144.83333333333334</ele><time>2026-04-12T09:19:08Z</time></trkpt><trkpt lat="44.38764201399867" lon="8.54674850240987"><ele>145.66666666666666</ele><time>2026-04-12T09:19:10Z</time></trkpt><trkpt lat="44.38761737604912" lon="8.54662815963851"><ele>146.5</ele><time>2026-04-12T09:19:12Z</time></trkpt><trkpt lat="44.38753845233888" lon="8.546536064364032"><ele>147.33333333333331</ele><time>2026-04-12T09:19:14Z</time></trkpt><trkpt lat="44.38748027596192" lon="8.546501604437927"><ele>148.16666666666666</ele><time>2026-04-12T09:19:15Z</time></trkpt><trkpt lat="44.387412683263854" lon="8.546469719149124"><ele>149.0</ele><time>2026-04-12T09:19:16Z</time></trkpt><trkpt lat="44.38734260261016" lon="8.546442451878"><ele>149.0</ele><time>2026-04-12T09:19:17Z</time></trkpt><trkpt lat="44.38726859002786" lon="8.54640827046868"><ele>149.0</ele><time>2026-04-12T09:19:18Z</time></trkpt><trkpt lat="44.38719112075317" lon="8.546369072810414"><ele>149.0</ele><time>2026-04-12T09:19:19Z</time></trkpt><trkpt lat="44.387108608421386" lon="8.546329969124988"><ele>149.0</ele><time>2026-04-12T09:19:20Z</time></trkpt><trkpt lat="44.38702723272999" lon="8.546286453453035"><ele>149.0</ele><time>2026-04-12T09:19:21Z</time></trkpt><trkpt lat="44.386939939601746" lon="8.546242012170092"><ele>149.0</ele><time>2026-04-12T09:19:22Z</time></trkpt><trkpt lat="44.38685678237375" lon="8.546195320086484"><ele>149.33333333333331</ele><time>2026-04-12T09:19:23Z</time></trkpt><trkpt lat="44.38677198434333" lon="8.546158095700148"><ele>149.66666666666666</ele><time>2026-04-12T09:19:24Z</time></trkpt><trkpt lat="44.386692823807095" lon="8.54612120892982"><ele>150.0</ele><time>2026-04-12T09:19:25Z</time></trkpt><trkpt lat="44.386609054339644" lon="8.546083110225847"><ele>150.33333333333334</ele><time>2026-04-12T09:19:26Z</time></trkpt><trkpt lat="44.38652427421148" lon="8.54604690671303"><ele>150.66666666666669</ele><time>2026-04-12T09:19:27Z</time></trkpt><trkpt lat="44.38644259125371" lon="8.546014493759419"><ele>151.0</ele><time>2026-04-12T09:19:28Z</time></trkpt><trkpt lat="44.38635473180746" lon="8.545983073285452"><ele>151.5</ele><time>2026-04-12T09:19:29Z</time></trkpt><trkpt lat="44.38626375262754" lon="8.54594948018223"><ele>152.0</ele><time>2026-04-12T09:19:30Z</time></trkpt><trkpt lat="44.38618201334839" lon="8.54591538961766"><ele>152.5</ele><time>2026-04-12T09:19:31Z</time></trkpt><trkpt lat="44.38610235609458" lon="8.545878216485713"><ele>153.0</ele><time>2026-04-12T09:19:32Z</time></trkpt><trkpt lat="44.386036260038914" lon="8.545839399657043"><ele>153.5</ele><time>2026-04-12T09:19:33Z</time></trkpt><trkpt lat="44.3859714885505" lon="8.545782558347309"><ele>154.0</ele><time>2026-04-12T09:19:34Z</time></trkpt><trkpt lat="44.38592188389515" lon="8.545708695197014"><ele>154.0</ele><time>2026-04-12T09:19:35Z</time></trkpt><trkpt lat="44.385883425714454" lon="8.545625578291144"><ele>154.0</ele><time>2026-04-12T09:19:36Z</time></trkpt><trkpt lat="44.3858637482221" lon="8.54552867814877"><ele>154.0</ele><time>2026-04-12T09:19:37Z</time></trkpt><trkpt lat="44.38585286746526" lon="8.545425021156788"><ele>154.0</ele><time>2026-04-12T09:19:38Z</time></trkpt><trkpt lat="44.385856412242774" lon="8.54533134071277"><ele>154.0</ele><time>2026-04-12T09:19:39Z</time></trkpt><trkpt lat="44.38586748699877" lon="8.545231620848146"><ele>154.0</ele><time>2026-04-12T09:19:40Z</time></trkpt><trkpt lat="44.38589538390622" lon="8.545135977398036"><ele>154.0</ele><time>2026-04-12T09:19:41Z</time></trkpt><trkpt lat="44.38594353463272" lon="8.545050589396512"><ele>155.66666666666669</ele><time>2026-04-12T09:19:42Z</time></trkpt><trkpt lat="44.38600020604557" lon="8.54497334751571"><ele>157.33333333333334</ele><time>2026-04-12T09:19:43Z</time></trkpt><trkpt lat="44.38606974898942" lon="8.544912382316578"><ele>159.0</ele><time>2026-04-12T09:19:44Z</time></trkpt><trkpt lat="44.38613345458816" lon="8.544839527292567"><ele>160.66666666666666</ele><time>2026-04-12T09:19:45Z</time></trkpt><trkpt lat="44.386193493184805" lon="8.544779233808002"><ele>162.33333333333331</ele><time>2026-04-12T09:19:46Z</time></trkpt><trkpt lat="44.386253472268294" lon="8.54465832045787"><ele>164.0</ele><time>2026-04-12T09:19:48Z</time></trkpt><trkpt lat="44.38624759795068" lon="8.544540928904432"><ele>164.0</ele><time>2026-04-12T09:19:50Z</time></trkpt><trkpt lat="44.386177173963446" lon="8.544466787598326"><ele>164.0</ele><time>2026-04-12T09:19:52Z</time></trkpt><trkpt lat="44.38606817965184" lon="8.544496114332109"><ele>164.0</ele><time>2026-04-12T09:19:54Z</time></trkpt><trkpt lat="44.38596728605652" lon="8.544606697030012"><ele>164.0</ele><time>2026-04-12T09:19:56Z</time></trkpt><trkpt lat="44.38591113137535" lon="8.544667991369069"><ele>164.0</ele><time>2026-04-12T09:19:57Z</time></trkpt><trkpt lat="44.38584804020808" lon="8.54473968973554"><ele>164.0</ele><time>2026-04-12T09:19:58Z</time></trkpt><trkpt lat="44.385799368014474" lon="8.544800254793426"><ele>164.0</ele><time>2026-04-12T09:19:59Z</time></trkpt><trkpt lat="44.38574418068491" lon="8.544871209295613"><ele>164.0</ele><time>2026-04-12T09:20:00Z</time></trkpt><trkpt lat="44.38569775818331" lon="8.54495947032842"><ele>164.0</ele><time>2026-04-12T09:20:01Z</time></trkpt><trkpt lat="44.385650077879816" lon="8.545051324188533"><ele>164.0</ele><time>2026-04-12T09:20:02Z</time></trkpt><trkpt lat="44.385610340358525" lon="8.545137134247549"><ele>164.0</ele><time>2026-04-12T09:20:03Z</time></trkpt><trkpt lat="44.385513468551125" lon="8.545223468141419"><ele>164.83333333333331</ele><time>2026-04-12T09:20:05Z</time></trkpt><trkpt lat="44.38539558784915" lon="8.545213763720179"><ele>165.66666666666666</ele><time>2026-04-12T09:20:07Z</time></trkpt><trkpt lat="44.385325765510395" lon="8.545189867946194"><ele>166.5</ele><time>2026-04-12T09:20:08Z</time></trkpt><trkpt lat="44.38524774052392" lon="8.545161370738544"><ele>167.33333333333334</ele><time>2026-04-12T09:20:09Z</time></trkpt><trkpt lat="44.385162128189826" lon="8.545131371749704"><ele>168.16666666666669</ele><time>2026-04-12T09:20:10Z</time></trkpt><trkpt lat="44.38508324359641" lon="8.54509508419529"><ele>169.0</ele><time>2026-04-12T09:20:11Z</time></trkpt><trkpt lat="44.38500523033475" lon="8.545050947140293"><ele>169.0</ele><time>2026-04-12T09:20:12Z</time></trkpt><trkpt lat="44.384926668144274" lon="8.54499581101913"><ele>169.0</ele><time>2026-04-12T09:20:13Z</time></trkpt><trkpt lat="44.3848598816368" lon="8.544927809052034"><ele>169.0</ele><time>2026-04-12T09:20:14Z</time></trkpt><trkpt lat="44.38479325513812" lon="8.544849083796809"><ele>169.0</ele><time>2026-04-12T09:20:15Z</time></trkpt><trkpt lat="44.38472323954754" lon="8.544769918290411"><ele>169.0</ele><time>2026-04-12T09:20:16Z</time></trkpt><trkpt lat="44.38465057761326" lon="8.544678510973592"><ele>169.0</ele><time>2026-04-12T09:20:17Z</time></trkpt><trkpt lat="44.38458693345442" lon="8.544604070862205"><ele>168.33333333333334</ele><time>2026-04-12T09:20:18Z</time></trkpt><trkpt lat="44.38452006656934" lon="8.54452810421485"><ele>167.66666666666669</ele><time>2026-04-12T09:20:19Z</time></trkpt><trkpt lat="44.38447105824562" lon="8.544445816814086"><ele>167.0</ele><time>2026-04-12T09:20:20Z</time></trkpt><trkpt lat="44.38442711139995" lon="8.544351720895131"><ele>166.33333333333334</ele><time>2026-04-12T09:20:21Z</time></trkpt><trkpt lat="44.38438902677802" lon="8.544251880716002"><ele>165.66666666666666</ele><time>2026-04-12T09:20:22Z</time></trkpt><trkpt lat="44.38435409395666" lon="8.544150239065281"><ele>165.0</ele><time>2026-04-12T09:20:23Z</time></trkpt><trkpt lat="44.38433096594926" lon="8.544040919578451"><ele>165.00000000000003</ele><time>2026-04-12T09:20:24Z</time></trkpt><trkpt lat="44.38431634014024" lon="8.543951129588278"><ele>165.0</ele><time>2026-04-12T09:20:25Z</time></trkpt><trkpt lat="44.384319664768746" lon="8.543852936646713"><ele>165.0</ele><time>2026-04-12T09:20:26Z</time></trkpt><trkpt lat="44.38433424136764" lon="8.543754530247353"><ele>165.0</ele><time>2026-04-12T09:20:27Z</time></trkpt><trkpt lat="44.384353873257695" lon="8.543654145799767"><ele>165.0</ele><time>2026-04-12T09:20:28Z</time></trkpt><trkpt lat="44.384375050652636" lon="8.543554153545143"><ele>165.00000000000003</ele><time>2026-04-12T09:20:29Z</time></trkpt><trkpt lat="44.384391951447164" lon="8.543444810236455"><ele>165.0</ele><time>2026-04-12T09:20:30Z</time></trkpt><trkpt lat="44.38440830347071" lon="8.543331853923583"><ele>164.16666666666666</ele><time>2026-04-12T09:20:31Z</time></trkpt><trkpt lat="44.384423971440285" lon="8.543229566437763"><ele>163.33333333333334</ele><time>2026-04-12T09:20:32Z</time></trkpt><trkpt lat="44.3844596435565" lon="8.543129097154084"><ele>162.5</ele><time>2026-04-12T09:20:33Z</time></trkpt><trkpt lat="44.384504081610636" lon="8.54303395878333"><ele>161.66666666666669</ele><time>2026-04-12T09:20:34Z</time></trkpt><trkpt lat="44.38454760395766" lon="8.54293691749534"><ele>160.83333333333334</ele><time>2026-04-12T09:20:35Z</time></trkpt><trkpt lat="44.38458869669797" lon="8.542852872736628"><ele>160.0</ele><time>2026-04-12T09:20:36Z</time></trkpt><trkpt lat="44.38463447698764" lon="8.542754548242051"><ele>163.16666666666669</ele><time>2026-04-12T09:20:37Z</time></trkpt><trkpt lat="44.384680726860296" lon="8.542678314393466"><ele>166.33333333333334</ele><time>2026-04-12T09:20:38Z</time></trkpt><trkpt lat="44.38474122932278" lon="8.54261676993287"><ele>169.5</ele><time>2026-04-12T09:20:39Z</time></trkpt><trkpt lat="44.384811785245454" lon="8.542578659117664"><ele>172.66666666666666</ele><time>2026-04-12T09:20:40Z</time></trkpt><trkpt lat="44.384896971455746" lon="8.542554237840955"><ele>175.83333333333331</ele><time>2026-04-12T09:20:41Z</time></trkpt><trkpt lat="44.38497321177583" lon="8.542507630935502"><ele>179.0</ele><time>2026-04-12T09:20:42Z</time></trkpt><trkpt lat="44.38505490089906" lon="8.542488292305622"><ele>179.0</ele><time>2026-04-12T09:20:43Z</time></trkpt><trkpt lat="44.38513127105793" lon="8.542439862549376"><ele>179.0</ele><time>2026-04-12T09:20:44Z</time></trkpt><trkpt lat="44.38520294203188" lon="8.542370729445375"><ele>179.0</ele><time>2026-04-12T09:20:45Z</time></trkpt><trkpt lat="44.385264437237126" lon="8.542290439072547"><ele>179.0</ele><time>2026-04-12T09:20:46Z</time></trkpt><trkpt lat="44.385311713401634" lon="8.542223184983584"><ele>179.0</ele><time>2026-04-12T09:20:47Z</time></trkpt><trkpt lat="44.385350681580064" lon="8.542140928455014"><ele>179.0</ele><time>2026-04-12T09:20:48Z</time></trkpt><trkpt lat="44.385373387308555" lon="8.54205138227138"><ele>176.83333333333331</ele><time>2026-04-12T09:20:49Z</time></trkpt><trkpt lat="44.38538528099184" lon="8.541958153391557"><ele>174.66666666666666</ele><time>2026-04-12T09:20:50Z</time></trkpt><trkpt lat="44.385383571467116" lon="8.541857806610956"><ele>172.5</ele><time>2026-04-12T09:20:51Z</time></trkpt><trkpt lat="44.38536413817497" lon="8.5417488920816"><ele>170.33333333333334</ele><time>2026-04-12T09:20:52Z</time></trkpt><trkpt lat="44.38534072344147" lon="8.541651691587138"><ele>168.16666666666669</ele><time>2026-04-12T09:20:53Z</time></trkpt><trkpt lat="44.385329316141245" lon="8.541554490059971"><ele>166.0</ele><time>2026-04-12T09:20:54Z</time></trkpt><trkpt lat="44.38536919402828" lon="8.541373523818608"><ele>166.0</ele><time>2026-04-12T09:20:56Z</time></trkpt><trkpt lat="44.385474461961046" lon="8.541257058571055"><ele>166.0</ele><time>2026-04-12T09:20:58Z</time></trkpt><trkpt lat="44.38560628876624" lon="8.541224736667175"><ele>166.0</ele><time>2026-04-12T09:21:00Z</time></trkpt><trkpt lat="44.385685979100366" lon="8.541214759592066"><ele>166.0</ele><time>2026-04-12T09:21:01Z</time></trkpt><trkpt lat="44.385767621666915" lon="8.541215383493912"><ele>166.0</ele><time>2026-04-12T09:21:02Z</time></trkpt><trkpt lat="44.38585142594622" lon="8.541216183089187"><ele>168.4</ele><time>2026-04-12T09:21:03Z</time></trkpt><trkpt lat="44.38593850042399" lon="8.54122090964628"><ele>170.8</ele><time>2026-04-12T09:21:04Z</time></trkpt><trkpt lat="44.386012907232335" lon="8.541208372713488"><ele>173.20000000000002</ele><time>2026-04-12T09:21:05Z</time></trkpt><trkpt lat="44.38615086382995" lon="8.54114269534486"><ele>175.60000000000002</ele><time>2026-04-12T09:21:07Z</time></trkpt><trkpt lat="44.3862303232214" lon="8.541099364303152"><ele>178.0</ele><time>2026-04-12T09:21:08Z</time></trkpt><trkpt lat="44.38630433720812" lon="8.541039385695486"><ele>179.66666666666669</ele><time>2026-04-12T09:21:09Z</time></trkpt><trkpt lat="44.38637629520264" lon="8.541015579516113"><ele>181.33333333333334</ele><time>2026-04-12T09:21:10Z</time></trkpt><trkpt lat="44.38644894555222" lon="8.541040139004442"><ele>183.0</ele><time>2026-04-12T09:21:11Z</time></trkpt><trkpt lat="44.38652364624718" lon="8.541041555450962"><ele>184.66666666666666</ele><time>2026-04-12T09:21:12Z</time></trkpt><trkpt lat="44.38665515936164" lon="8.541016989978285"><ele>186.33333333333331</ele><time>2026-04-12T09:21:14Z</time></trkpt><trkpt lat="44.38671771883858" lon="8.54096361478679"><ele>188.0</ele><time>2026-04-12T09:21:15Z</time></trkpt><trkpt lat="44.38675663965102" lon="8.540890749136137"><ele>188.0</ele><time>2026-04-12T09:21:16Z</time></trkpt><trkpt lat="44.38677819894307" lon="8.540719556021369"><ele>188.0</ele><time>2026-04-12T09:21:18Z</time></trkpt><trkpt lat="44.386746685980725" lon="8.540565900787293"><ele>188.0</ele><time>2026-04-12T09:21:20Z</time></trkpt><trkpt lat="44.38664027741768" lon="8.540459707603496"><ele>188.0</ele><time>2026-04-12T09:21:22Z</time></trkpt><trkpt lat="44.386570286626544" lon="8.540432666461818"><ele>188.0</ele><time>2026-04-12T09:21:23Z</time></trkpt><trkpt lat="44.38650689142715" lon="8.540412519374184"><ele>188.0</ele><time>2026-04-12T09:21:24Z</time></trkpt><trkpt lat="44.38642763912995" lon="8.540390773120512"><ele>188.0</ele><time>2026-04-12T09:21:25Z</time></trkpt><trkpt lat="44.386340666014654" lon="8.540378175537823"><ele>188.0</ele><time>2026-04-12T09:21:26Z</time></trkpt><trkpt lat="44.38626201772124" lon="8.540376333776008"><ele>188.0</ele><time>2026-04-12T09:21:27Z</time></trkpt><trkpt lat="44.38618088942075" lon="8.540405218687816"><ele>188.0</ele><time>2026-04-12T09:21:28Z</time></trkpt><trkpt lat="44.386103491542194" lon="8.540395908037949"><ele>188.0</ele><time>2026-04-12T09:21:29Z</time></trkpt><trkpt lat="44.38599036450427" lon="8.540346806433968"><ele>189.5</ele><time>2026-04-12T09:21:31Z</time></trkpt><trkpt lat="44.385909876792496" lon="8.540235292508317"><ele>191.0</ele><time>2026-04-12T09:21:33Z</time></trkpt><trkpt lat="44.38587337005157" lon="8.540157576564056"><ele>192.5</ele><time>2026-04-12T09:21:34Z</time></trkpt><trkpt lat="44.3857799411422" lon="8.540062017588669"><ele>194.0</ele><time>2026-04-12T09:21:36Z</time></trkpt><trkpt lat="44.385716316606505" lon="8.540032910470176"><ele>195.50000000000003</ele><time>2026-04-12T09:21:37Z</time></trkpt><trkpt lat="44.385648046896364" lon="8.540012618600992"><ele>197.0</ele><time>2026-04-12T09:21:38Z</time></trkpt><trkpt lat="44.38558279064762" lon="8.54000149915845"><ele>197.0</ele><time>2026-04-12T09:21:39Z</time></trkpt><trkpt lat="44.385513592994926" lon="8.539977033500023"><ele>197.0</ele><time>2026-04-12T09:21:40Z</time></trkpt><trkpt lat="44.38544278138991" lon="8.539951478866048"><ele>197.0</ele><time>2026-04-12T09:21:41Z</time></trkpt><trkpt lat="44.38535456330692" lon="8.539881305840671"><ele>197.0</ele><time>2026-04-12T09:21:43Z</time></trkpt><trkpt lat="44.3853245235546" lon="8.539732568622046"><ele>197.0</ele><time>2026-04-12T09:21:45Z</time></trkpt><trkpt lat="44.385309431557936" lon="8.539557928793352"><ele>195.50000000000003</ele><time>2026-04-12T09:21:47Z</time></trkpt><trkpt lat="44.385240019126485" lon="8.539428641353341"><ele>194.0</ele><time>2026-04-12T09:21:49Z</time></trkpt><trkpt lat="44.38518182752951" lon="8.539376539079527"><ele>192.5</ele><time>2026-04-12T09:21:50Z</time></trkpt><trkpt lat="44.38512022559049" lon="8.539334697838834"><ele>191.0</ele><time>2026-04-12T09:21:51Z</time></trkpt><trkpt lat="44.385056547886435" lon="8.53928601178178"><ele>189.5</ele><time>2026-04-12T09:21:52Z</time></trkpt><trkpt lat="44.38499576350486" lon="8.539236237433537"><ele>188.0</ele><time>2026-04-12T09:21:53Z</time></trkpt><trkpt lat="44.384926300154675" lon="8.53911531588207"><ele>188.0</ele><time>2026-04-12T09:21:55Z</time></trkpt><trkpt lat="44.384913532833465" lon="8.53894733847"><ele>188.0</ele><time>2026-04-12T09:21:57Z</time></trkpt><trkpt lat="44.38492088155938" lon="8.538854475352393"><ele>188.0</ele><time>2026-04-12T09:21:58Z</time></trkpt><trkpt lat="44.3849393241598" lon="8.538751026858444"><ele>188.0</ele><time>2026-04-12T09:21:59Z</time></trkpt><trkpt lat="44.384973608798234" lon="8.538643749764859"><ele>188.0</ele><time>2026-04-12T09:22:00Z</time></trkpt><trkpt lat="44.38500872993505" lon="8.538529825828956"><ele>188.0</ele><time>2026-04-12T09:22:01Z</time></trkpt><trkpt lat="44.38504506822001" lon="8.538430813781536"><ele>189.33333333333331</ele><time>2026-04-12T09:22:02Z</time></trkpt><trkpt lat="44.385082563994374" lon="8.538343859633096"><ele>190.66666666666666</ele><time>2026-04-12T09:22:03Z</time></trkpt><trkpt lat="44.38513149862949" lon="8.538263136298369"><ele>192.0</ele><time>2026-04-12T09:22:04Z</time></trkpt><trkpt lat="44.38516480390032" lon="8.538186004766217"><ele>193.33333333333331</ele><time>2026-04-12T09:22:05Z</time></trkpt><trkpt lat="44.385183771986185" lon="8.538029934917317"><ele>194.66666666666666</ele><time>2026-04-12T09:22:07Z</time></trkpt><trkpt lat="44.38518276288613" lon="8.537934558827256"><ele>196.0</ele><time>2026-04-12T09:22:08Z</time></trkpt><trkpt lat="44.38517772809464" lon="8.537829931217724"><ele>196.0</ele><time>2026-04-12T09:22:09Z</time></trkpt><trkpt lat="44.385154619083075" lon="8.537638145185289"><ele>196.0</ele><time>2026-04-12T09:22:11Z</time></trkpt><trkpt lat="44.385153363741026" lon="8.537549068156174"><ele>196.0</ele><time>2026-04-12T09:22:12Z</time></trkpt><trkpt lat="44.38519740320765" lon="8.537422993752818"><ele>196.0</ele><time>2026-04-12T09:22:14Z</time></trkpt><trkpt lat="44.38530971338906" lon="8.537363555810167"><ele>196.0</ele><time>2026-04-12T09:22:16Z</time></trkpt><trkpt lat="44.38537048442839" lon="8.537335208120556"><ele>196.0</ele><time>2026-04-12T09:22:17Z</time></trkpt><trkpt lat="44.38545110330104" lon="8.537237368017438"><ele>196.0</ele><time>2026-04-12T09:22:19Z</time></trkpt><trkpt lat="44.385479250600525" lon="8.537097466475936"><ele>196.0</ele><time>2026-04-12T09:22:21Z</time></trkpt><trkpt lat="44.38541835359003" lon="8.536943758025906"><ele>196.0</ele><time>2026-04-12T09:22:23Z</time></trkpt><trkpt lat="44.385382635738" lon="8.536858323370318"><ele>196.0</ele><time>2026-04-12T09:22:24Z</time></trkpt><trkpt lat="44.38535297420786" lon="8.536695579345226"><ele>195.99999999999997</ele><time>2026-04-12T09:22:26Z</time></trkpt><trkpt lat="44.38538742966674" lon="8.53653743716714"><ele>196.0</ele><time>2026-04-12T09:22:28Z</time></trkpt><trkpt lat="44.385431880252746" lon="8.536474178380868"><ele>196.0</ele><time>2026-04-12T09:22:29Z</time></trkpt><trkpt lat="44.38548333755089" lon="8.536422739823216"><ele>196.0</ele><time>2026-04-12T09:22:30Z</time></trkpt><trkpt lat="44.3855419511816" lon="8.536370920789649"><ele>195.99999999999997</ele><time>2026-04-12T09:22:31Z</time></trkpt><trkpt lat="44.38560456980979" lon="8.536323323594702"><ele>196.0</ele><time>2026-04-12T09:22:32Z</time></trkpt><trkpt lat="44.385674517623904" lon="8.536270731804573"><ele>197.49999999999997</ele><time>2026-04-12T09:22:33Z</time></trkpt><trkpt lat="44.38574726741937" lon="8.53622139411218"><ele>199.0</ele><time>2026-04-12T09:22:34Z</time></trkpt><trkpt lat="44.38581966206558" lon="8.536176048365416"><ele>200.5</ele><time>2026-04-12T09:22:35Z</time></trkpt><trkpt lat="44.38589218222316" lon="8.536146553394698"><ele>202.0</ele><time>2026-04-12T09:22:36Z</time></trkpt><trkpt lat="44.385953747124454" lon="8.536124104882505"><ele>203.49999999999997</ele><time>2026-04-12T09:22:37Z</time></trkpt><trkpt lat="44.38605534310652" lon="8.536116964303774"><ele>205.0</ele><time>2026-04-12T09:22:39Z</time></trkpt><trkpt lat="44.386132117028026" lon="8.53609824397096"><ele>205.0</ele><time>2026-04-12T09:22:42Z</time></trkpt><trkpt lat="44.38619237008585" lon="8.535996297654334"><ele>205.0</ele><time>2026-04-12T09:24:22Z</time></trkpt><trkpt lat="44.38624311059051" lon="8.535865789065083"><ele>205.0</ele><time>2026-04-12T09:24:24Z</time></trkpt><trkpt lat="44.38629830807637" lon="8.535708789814333"><ele>205.0</ele><time>2026-04-12T09:24:26Z</time></trkpt><trkpt lat="44.3863299679424" lon="8.535620339537742"><ele>205.0</ele><time>2026-04-12T09:24:27Z</time></trkpt><trkpt lat="44.38635944035508" lon="8.535540980343043"><ele>207.49999999999997</ele><time>2026-04-12T09:24:28Z</time></trkpt><trkpt lat="44.386390175280276" lon="8.535436971989315"><ele>210.0</ele><time>2026-04-12T09:24:29Z</time></trkpt><trkpt lat="44.38642571675137" lon="8.535357810748847"><ele>212.5</ele><time>2026-04-12T09:24:30Z</time></trkpt><trkpt lat="44.38642726838885" lon="8.535244511719668"><ele>215.0</ele><time>2026-04-12T09:24:31Z</time></trkpt><trkpt lat="44.38643586958078" lon="8.535130977485316"><ele>217.49999999999997</ele><time>2026-04-12T09:24:32Z</time></trkpt><trkpt lat="44.38644336405892" lon="8.535016235402948"><ele>220.0</ele><time>2026-04-12T09:24:33Z</time></trkpt><trkpt lat="44.38644914843483" lon="8.534893568844625"><ele>219.99999999999997</ele><time>2026-04-12T09:24:34Z</time></trkpt><trkpt lat="44.386455772184114" lon="8.5347998598329"><ele>220.0</ele><time>2026-04-12T09:24:35Z</time></trkpt><trkpt lat="44.386466477546506" lon="8.534698639744292"><ele>220.0</ele><time>2026-04-12T09:24:36Z</time></trkpt><trkpt lat="44.38647606404316" lon="8.534587859831475"><ele>220.0</ele><time>2026-04-12T09:24:37Z</time></trkpt><trkpt lat="44.38649165402919" lon="8.534488249136974"><ele>220.0</ele><time>2026-04-12T09:24:38Z</time></trkpt><trkpt lat="44.38650181649384" lon="8.534385676136647"><ele>219.99999999999997</ele><time>2026-04-12T09:24:39Z</time></trkpt><trkpt lat="44.38650688626448" lon="8.534293389836535"><ele>220.0</ele><time>2026-04-12T09:24:40Z</time></trkpt><trkpt lat="44.38649981864179" lon="8.534198148907125"><ele>219.99999999999997</ele><time>2026-04-12T09:24:41Z</time></trkpt><trkpt lat="44.38649637154535" lon="8.534105774477396"><ele>220.0</ele><time>2026-04-12T09:24:42Z</time></trkpt><trkpt lat="44.38650254409495" lon="8.533957472860788"><ele>220.0</ele><time>2026-04-12T09:24:44Z</time></trkpt><trkpt lat="44.38655197575388" lon="8.533818870955518"><ele>220.0</ele><time>2026-04-12T09:24:46Z</time></trkpt><trkpt lat="44.38660414846484" lon="8.533757705059692"><ele>219.99999999999997</ele><time>2026-04-12T09:24:47Z</time></trkpt><trkpt lat="44.38666284577815" lon="8.533697303612184"><ele>220.0</ele><time>2026-04-12T09:24:48Z</time></trkpt><trkpt lat="44.3867258712392" lon="8.53363920935032"><ele>219.16666666666666</ele><time>2026-04-12T09:24:49Z</time></trkpt><trkpt lat="44.3867978575494" lon="8.533573634386688"><ele>218.33333333333331</ele><time>2026-04-12T09:24:50Z</time></trkpt><trkpt lat="44.386864384564376" lon="8.533504470273478"><ele>217.5</ele><time>2026-04-12T09:24:51Z</time></trkpt><trkpt lat="44.38693306151434" lon="8.53344191406414"><ele>216.66666666666669</ele><time>2026-04-12T09:24:52Z</time></trkpt><trkpt lat="44.38700298048268" lon="8.533370779687335"><ele>215.83333333333334</ele><time>2026-04-12T09:24:53Z</time></trkpt><trkpt lat="44.38707886303741" lon="8.53330340099164"><ele>215.0</ele><time>2026-04-12T09:24:54Z</time></trkpt><trkpt lat="44.38714433619649" lon="8.533235888248413"><ele>217.33333333333334</ele><time>2026-04-12T09:24:55Z</time></trkpt><trkpt lat="44.38721128180478" lon="8.533181679562066"><ele>219.66666666666669</ele><time>2026-04-12T09:24:56Z</time></trkpt><trkpt lat="44.387282310219135" lon="8.533136103485814"><ele>222.0</ele><time>2026-04-12T09:24:57Z</time></trkpt><trkpt lat="44.387348290653314" lon="8.533103930641355"><ele>224.33333333333331</ele><time>2026-04-12T09:24:58Z</time></trkpt><trkpt lat="44.38742909798897" lon="8.533038764549909"><ele>226.66666666666666</ele><time>2026-04-12T09:25:00Z</time></trkpt><trkpt lat="44.38747406543886" lon="8.532922137996373"><ele>229.0</ele><time>2026-04-12T09:25:02Z</time></trkpt><trkpt lat="44.387467952760204" lon="8.53277945169677"><ele>228.16666666666666</ele><time>2026-04-12T09:25:04Z</time></trkpt><trkpt lat="44.3873963863792" lon="8.532651660622726"><ele>227.33333333333331</ele><time>2026-04-12T09:25:06Z</time></trkpt><trkpt lat="44.387340260446656" lon="8.532597619762598"><ele>226.5</ele><time>2026-04-12T09:25:07Z</time></trkpt><trkpt lat="44.38727760355297" lon="8.532563682212988"><ele>225.66666666666669</ele><time>2026-04-12T09:25:08Z</time></trkpt><trkpt lat="44.38720896717086" lon="8.532532868023395"><ele>224.83333333333334</ele><time>2026-04-12T09:25:09Z</time></trkpt><trkpt lat="44.38714185773574" lon="8.532500548103108"><ele>224.0</ele><time>2026-04-12T09:25:10Z</time></trkpt><trkpt lat="44.38705088548621" lon="8.532471775977974"><ele>224.00000000000003</ele><time>2026-04-12T09:25:11Z</time></trkpt><trkpt lat="44.386957991812594" lon="8.532429088559258"><ele>224.0</ele><time>2026-04-12T09:25:12Z</time></trkpt><trkpt lat="44.38687352524708" lon="8.53238449398439"><ele>224.0</ele><time>2026-04-12T09:25:13Z</time></trkpt><trkpt lat="44.3867986323751" lon="8.532344851332843"><ele>224.0</ele><time>2026-04-12T09:25:14Z</time></trkpt><trkpt lat="44.386727037284075" lon="8.53231297136013"><ele>224.00000000000003</ele><time>2026-04-12T09:25:15Z</time></trkpt><trkpt lat="44.38665035055541" lon="8.53228170259909"><ele>224.0</ele><time>2026-04-12T09:25:16Z</time></trkpt><trkpt lat="44.38656604124035" lon="8.532252256040097"><ele>224.0</ele><time>2026-04-12T09:25:17Z</time></trkpt><trkpt lat="44.386496787266005" lon="8.532231116429976"><ele>224.0</ele><time>2026-04-12T09:25:18Z</time></trkpt><trkpt lat="44.38643453271512" lon="8.532204060615793"><ele>224.0</ele><time>2026-04-12T09:25:19Z</time></trkpt><trkpt lat="44.38637593774331" lon="8.53214830889007"><ele>224.0</ele><time>2026-04-12T09:25:20Z</time></trkpt><trkpt lat="44.386314076028974" lon="8.532079159324958"><ele>224.0</ele><time>2026-04-12T09:25:21Z</time></trkpt><trkpt lat="44.38625256370643" lon="8.532012775860188"><ele>224.0</ele><time>2026-04-12T09:25:22Z</time></trkpt><trkpt lat="44.38618272569421" lon="8.531948302123691"><ele>224.0</ele><time>2026-04-12T09:25:23Z</time></trkpt><trkpt lat="44.38611905905588" lon="8.531881877126892"><ele>225.66666666666669</ele><time>2026-04-12T09:25:24Z</time></trkpt><trkpt lat="44.38605153474225" lon="8.531814151274807"><ele>227.33333333333334</ele><time>2026-04-12T09:25:25Z</time></trkpt><trkpt lat="44.38598323909328" lon="8.53173966451825"><ele>229.0</ele><time>2026-04-12T09:25:26Z</time></trkpt><trkpt lat="44.38591764262896" lon="8.531672154182306"><ele>230.66666666666669</ele><time>2026-04-12T09:25:27Z</time></trkpt><trkpt lat="44.38585579862967" lon="8.531608167839304"><ele>232.33333333333334</ele><time>2026-04-12T09:25:28Z</time></trkpt><trkpt lat="44.3857931394046" lon="8.531542019156166"><ele>234.0</ele><time>2026-04-12T09:25:29Z</time></trkpt><trkpt lat="44.38573086289396" lon="8.531470016070706"><ele>234.0</ele><time>2026-04-12T09:25:30Z</time></trkpt><trkpt lat="44.385671375362406" lon="8.531393918028982"><ele>233.99999999999997</ele><time>2026-04-12T09:25:31Z</time></trkpt><trkpt lat="44.38561507089799" lon="8.531309800161319"><ele>233.99999999999997</ele><time>2026-04-12T09:25:32Z</time></trkpt><trkpt lat="44.38556680523632" lon="8.531225413629896"><ele>234.0</ele><time>2026-04-12T09:25:33Z</time></trkpt><trkpt lat="44.38551560632074" lon="8.531090495959988"><ele>234.0</ele><time>2026-04-12T09:25:35Z</time></trkpt><trkpt lat="44.38553364708708" lon="8.530947842295083"><ele>236.0</ele><time>2026-04-12T09:25:37Z</time></trkpt><trkpt lat="44.38558869998003" lon="8.530781506233783"><ele>237.99999999999997</ele><time>2026-04-12T09:25:38.999Z</time></trkpt><trkpt lat="44.385619474727136" lon="8.530690199681537"><ele>239.99999999999997</ele><time>2026-04-12T09:25:39.999Z</time></trkpt><trkpt lat="44.3856480274135" lon="8.530589979327479"><ele>242.0</ele><time>2026-04-12T09:25:40.999Z</time></trkpt><trkpt lat="44.3856655783136" lon="8.530482318757018"><ele>244.0</ele><time>2026-04-12T09:25:41.999Z</time></trkpt><trkpt lat="44.38566493015206" lon="8.530295886886558"><ele>244.0</ele><time>2026-04-12T09:25:43.999Z</time></trkpt><trkpt lat="44.385658716399504" lon="8.530189185395308"><ele>243.99999999999997</ele><time>2026-04-12T09:25:44.999Z</time></trkpt><trkpt lat="44.38565750981429" lon="8.53008234068791"><ele>243.99999999999997</ele><time>2026-04-12T09:25:45.999Z</time></trkpt><trkpt lat="44.38569067306096" lon="8.529931229592247"><ele>244.0</ele><time>2026-04-12T09:25:47.999Z</time></trkpt><trkpt lat="44.385795722253995" lon="8.529836120285724"><ele>244.0</ele><time>2026-04-12T09:25:49.999Z</time></trkpt><trkpt lat="44.385862785909815" lon="8.529790299793246"><ele>243.99999999999997</ele><time>2026-04-12T09:25:50.999Z</time></trkpt><trkpt lat="44.385932786511056" lon="8.529736735663757"><ele>244.0</ele><time>2026-04-12T09:25:51.999Z</time></trkpt><trkpt lat="44.386000413765274" lon="8.529711277112687"><ele>243.99999999999997</ele><time>2026-04-12T09:25:52.999Z</time></trkpt><trkpt lat="44.386059623879106" lon="8.529663825215565"><ele>243.99999999999997</ele><time>2026-04-12T09:25:53.999Z</time></trkpt><trkpt lat="44.38611434066932" lon="8.529597506416106"><ele>244.0</ele><time>2026-04-12T09:25:54.999Z</time></trkpt><trkpt lat="44.38613914282699" lon="8.529509870548099"><ele>243.99999999999997</ele><time>2026-04-12T09:25:55.999Z</time></trkpt><trkpt lat="44.38617761522581" lon="8.52941888609814"><ele>243.99999999999997</ele><time>2026-04-12T09:25:56.999Z</time></trkpt><trkpt lat="44.386195985386436" lon="8.529299483796509"><ele>242.16666666666666</ele><time>2026-04-12T09:25:57.999Z</time></trkpt><trkpt lat="44.386235709596605" lon="8.529186095755417"><ele>240.33333333333331</ele><time>2026-04-12T09:25:59Z</time></trkpt><trkpt lat="44.38625278941737" lon="8.52907008419006"><ele>238.5</ele><time>2026-04-12T09:26:00Z</time></trkpt><trkpt lat="44.38626387964484" lon="8.528952123298335"><ele>236.66666666666669</ele><time>2026-04-12T09:26:01Z</time></trkpt><trkpt lat="44.38626934214113" lon="8.528843183652647"><ele>234.83333333333334</ele><time>2026-04-12T09:26:02Z</time></trkpt><trkpt lat="44.386269578718775" lon="8.52872521979441"><ele>233.0</ele><time>2026-04-12T09:26:03Z</time></trkpt><trkpt lat="44.386255433146964" lon="8.52861160794682"><ele>232.0</ele><time>2026-04-12T09:26:04Z</time></trkpt><trkpt lat="44.38627157049158" lon="8.528510342953712"><ele>231.0</ele><time>2026-04-12T09:26:05Z</time></trkpt><trkpt lat="44.386304734981806" lon="8.52841313749398"><ele>230.0</ele><time>2026-04-12T09:26:06Z</time></trkpt><trkpt lat="44.38634791667929" lon="8.528330835018911"><ele>229.0</ele><time>2026-04-12T09:26:07Z</time></trkpt><trkpt lat="44.38639721437714" lon="8.528251751374489"><ele>228.0</ele><time>2026-04-12T09:26:08Z</time></trkpt><trkpt lat="44.38645867297833" lon="8.528191150332248"><ele>227.0</ele><time>2026-04-12T09:26:09Z</time></trkpt><trkpt lat="44.38651922188566" lon="8.528142071391994"><ele>226.0</ele><time>2026-04-12T09:26:10Z</time></trkpt><trkpt lat="44.38658564616306" lon="8.52810618289381"><ele>230.66666666666666</ele><time>2026-04-12T09:26:11Z</time></trkpt><trkpt lat="44.386661087804015" lon="8.528102419251228"><ele>235.33333333333331</ele><time>2026-04-12T09:26:12Z</time></trkpt><trkpt lat="44.386728584983885" lon="8.528119127966235"><ele>240.0</ele><time>2026-04-12T09:26:13Z</time></trkpt><trkpt lat="44.386796187598534" lon="8.528141520634529"><ele>244.66666666666669</ele><time>2026-04-12T09:26:14Z</time></trkpt><trkpt lat="44.38691170059245" lon="8.528153581688542"><ele>249.33333333333334</ele><time>2026-04-12T09:26:16Z</time></trkpt><trkpt lat="44.386971977393515" lon="8.52812810129114"><ele>254.0</ele><time>2026-04-12T09:26:17Z</time></trkpt><trkpt lat="44.38703771255018" lon="8.528140520365236"><ele>254.0</ele><time>2026-04-12T09:26:18Z</time></trkpt><trkpt lat="44.387104070338026" lon="8.528034854576358"><ele>253.99999999999997</ele><time>2026-04-12T09:26:19Z</time></trkpt><trkpt lat="44.38717151054878" lon="8.527947787590941"><ele>253.99999999999997</ele><time>2026-04-12T09:26:20Z</time></trkpt><trkpt lat="44.38724233693227" lon="8.527861956941242"><ele>254.0</ele><time>2026-04-12T09:26:21Z</time></trkpt><trkpt lat="44.38728909544504" lon="8.527761474343624"><ele>254.0</ele><time>2026-04-12T09:26:22Z</time></trkpt><trkpt lat="44.387360189546996" lon="8.527698695049462"><ele>253.66666666666669</ele><time>2026-04-12T09:26:23Z</time></trkpt><trkpt lat="44.38744284895173" lon="8.527645874378374"><ele>253.33333333333334</ele><time>2026-04-12T09:26:24Z</time></trkpt><trkpt lat="44.38752529508236" lon="8.52759009888885"><ele>253.0</ele><time>2026-04-12T09:26:25Z</time></trkpt><trkpt lat="44.387607452122765" lon="8.527540507625686"><ele>252.66666666666669</ele><time>2026-04-12T09:26:26Z</time></trkpt><trkpt lat="44.38766827176243" lon="8.527500197033525"><ele>252.33333333333334</ele><time>2026-04-12T09:26:27Z</time></trkpt><trkpt lat="44.38773967668462" lon="8.527472743693716"><ele>252.0</ele><time>2026-04-12T09:26:28Z</time></trkpt><trkpt lat="44.387835082202585" lon="8.527424578614193"><ele>252.0</ele><time>2026-04-12T09:26:29Z</time></trkpt><trkpt lat="44.38792197756555" lon="8.527374948163484"><ele>252.0</ele><time>2026-04-12T09:26:30Z</time></trkpt><trkpt lat="44.38799326469334" lon="8.527319130757615"><ele>252.0</ele><time>2026-04-12T09:26:31Z</time></trkpt><trkpt lat="44.38807347580638" lon="8.527271261746586"><ele>252.0</ele><time>2026-04-12T09:26:32Z</time></trkpt><trkpt lat="44.38814140875228" lon="8.527208873296013"><ele>252.0</ele><time>2026-04-12T09:26:33Z</time></trkpt><trkpt lat="44.3882293865569" lon="8.527153974649304"><ele>252.0</ele><time>2026-04-12T09:26:34Z</time></trkpt><trkpt lat="44.38831889953293" lon="8.527095226125404"><ele>252.0</ele><time>2026-04-12T09:26:35Z</time></trkpt><trkpt lat="44.388393858036736" lon="8.527048902415999"><ele>252.0</ele><time>2026-04-12T09:26:36Z</time></trkpt><trkpt lat="44.38846670710784" lon="8.527006640829528"><ele>252.0</ele><time>2026-04-12T09:26:37Z</time></trkpt><trkpt lat="44.388526841002566" lon="8.52697260371199"><ele>252.0</ele><time>2026-04-12T09:26:38Z</time></trkpt><trkpt lat="44.3886401693354" lon="8.52686819059655"><ele>252.0</ele><time>2026-04-12T09:26:40Z</time></trkpt><trkpt lat="44.388714062133374" lon="8.52681812143558"><ele>252.0</ele><time>2026-04-12T09:26:41Z</time></trkpt><trkpt lat="44.38879294845157" lon="8.526765767031915"><ele>254.0</ele><time>2026-04-12T09:26:42Z</time></trkpt><trkpt lat="44.38887768982431" lon="8.52670626975221"><ele>256.0</ele><time>2026-04-12T09:26:43Z</time></trkpt><trkpt lat="44.38895893637454" lon="8.526665385137393"><ele>258.0</ele><time>2026-04-12T09:26:44Z</time></trkpt><trkpt lat="44.38903382545125" lon="8.526619166878003"><ele>260.0</ele><time>2026-04-12T09:26:45Z</time></trkpt><trkpt lat="44.389124194280114" lon="8.526563659804618"><ele>262.0</ele><time>2026-04-12T09:26:46Z</time></trkpt><trkpt lat="44.38920400417998" lon="8.526506319615999"><ele>262.0</ele><time>2026-04-12T09:26:47Z</time></trkpt><trkpt lat="44.38927896404718" lon="8.52645508373635"><ele>262.0</ele><time>2026-04-12T09:26:48Z</time></trkpt><trkpt lat="44.3893600601152" lon="8.52640571776054"><ele>262.0</ele><time>2026-04-12T09:26:49Z</time></trkpt><trkpt lat="44.38943602702902" lon="8.526347100819484"><ele>262.0</ele><time>2026-04-12T09:26:50Z</time></trkpt><trkpt lat="44.38952025639048" lon="8.526286502666135"><ele>262.0</ele><time>2026-04-12T09:26:51Z</time></trkpt><trkpt lat="44.3896015550836" lon="8.526226604351132"><ele>262.0</ele><time>2026-04-12T09:26:52Z</time></trkpt><trkpt lat="44.38968916190001" lon="8.526174213794977"><ele>262.16666666666663</ele><time>2026-04-12T09:26:53Z</time></trkpt><trkpt lat="44.389762340074284" lon="8.526122201876035"><ele>262.3333333333333</ele><time>2026-04-12T09:26:54Z</time></trkpt><trkpt lat="44.389839455208765" lon="8.526072959314957"><ele>262.5</ele><time>2026-04-12T09:26:55Z</time></trkpt><trkpt lat="44.389915202568716" lon="8.526023752911593"><ele>262.6666666666667</ele><time>2026-04-12T09:26:56Z</time></trkpt><trkpt lat="44.389979404620625" lon="8.525984935665415"><ele>262.83333333333337</ele><time>2026-04-12T09:26:57Z</time></trkpt><trkpt lat="44.39007162908321" lon="8.525900434956254"><ele>263.0</ele><time>2026-04-12T09:26:59Z</time></trkpt><trkpt lat="44.39010732755211" lon="8.525768901151393"><ele>263.0</ele><time>2026-04-12T09:27:01Z</time></trkpt><trkpt lat="44.39013467126899" lon="8.525876389104702"><ele>263.0</ele><time>2026-04-12T09:27:48Z</time></trkpt><trkpt lat="44.39007919106501" lon="8.52581875154985"><ele>263.0</ele><time>2026-04-12T09:27:52Z</time></trkpt><trkpt lat="44.39010283046558" lon="8.525706823242885"><ele>263.0</ele><time>2026-04-12T09:27:54Z</time></trkpt><trkpt lat="44.390138219112245" lon="8.525546253587045"><ele>263.0</ele><time>2026-04-12T09:27:56Z</time></trkpt><trkpt lat="44.39016668715977" lon="8.525459946783483"><ele>263.0</ele><time>2026-04-12T09:27:57Z</time></trkpt><trkpt lat="44.390204436505826" lon="8.525373991185702"><ele>263.6666666666667</ele><time>2026-04-12T09:27:58Z</time></trkpt><trkpt lat="44.39024878092567" lon="8.525302365397147"><ele>264.33333333333337</ele><time>2026-04-12T09:27:59Z</time></trkpt><trkpt lat="44.39029842673558" lon="8.525239783613959"><ele>265.0</ele><time>2026-04-12T09:28:00Z</time></trkpt><trkpt lat="44.3903637186709" lon="8.525191772486968"><ele>265.6666666666667</ele><time>2026-04-12T09:28:01Z</time></trkpt><trkpt lat="44.39043648708612" lon="8.525154021885207"><ele>266.3333333333333</ele><time>2026-04-12T09:28:02Z</time></trkpt><trkpt lat="44.390513396720316" lon="8.525120542361936"><ele>267.0</ele><time>2026-04-12T09:28:03Z</time></trkpt><trkpt lat="44.390596325814144" lon="8.525087145109431"><ele>267.0</ele><time>2026-04-12T09:28:04Z</time></trkpt><trkpt lat="44.39068029182354" lon="8.525053821981734"><ele>267.0</ele><time>2026-04-12T09:28:05Z</time></trkpt><trkpt lat="44.39075405266664" lon="8.525011442271932"><ele>267.0</ele><time>2026-04-12T09:28:06Z</time></trkpt><trkpt lat="44.39083914703982" lon="8.524992453578477"><ele>267.0</ele><time>2026-04-12T09:28:07Z</time></trkpt><trkpt lat="44.390914318291976" lon="8.524954223743112"><ele>267.0</ele><time>2026-04-12T09:28:08Z</time></trkpt><trkpt lat="44.39098772141024" lon="8.524917467376044"><ele>267.0</ele><time>2026-04-12T09:28:09Z</time></trkpt><trkpt lat="44.39106685648515" lon="8.524881912128834"><ele>267.0</ele><time>2026-04-12T09:28:10Z</time></trkpt><trkpt lat="44.391152481054654" lon="8.524836470914922"><ele>267.0</ele><time>2026-04-12T09:28:11Z</time></trkpt><trkpt lat="44.391230551283655" lon="8.52480980463822"><ele>267.0</ele><time>2026-04-12T09:28:12Z</time></trkpt><trkpt lat="44.39130792000226" lon="8.524789583778777"><ele>267.0</ele><time>2026-04-12T09:28:13Z</time></trkpt><trkpt lat="44.39138059912954" lon="8.52478155997456"><ele>267.0</ele><time>2026-04-12T09:28:14Z</time></trkpt><trkpt lat="44.39145030677059" lon="8.524758254253223"><ele>267.0</ele><time>2026-04-12T09:28:15Z</time></trkpt><trkpt lat="44.39155107136181" lon="8.524687371657556"><ele>268.1666666666667</ele><time>2026-04-12T09:28:17Z</time></trkpt><trkpt lat="44.391625993643906" lon="8.524582626850105"><ele>269.3333333333333</ele><time>2026-04-12T09:28:19Z</time></trkpt><trkpt lat="44.39165135857917" lon="8.524501538910593"><ele>270.5</ele><time>2026-04-12T09:28:20Z</time></trkpt><trkpt lat="44.39165976855781" lon="8.524406973444007"><ele>271.66666666666663</ele><time>2026-04-12T09:28:21Z</time></trkpt><trkpt lat="44.391646854606776" lon="8.524219934062558"><ele>272.8333333333333</ele><time>2026-04-12T09:28:23Z</time></trkpt><trkpt lat="44.39163882385334" lon="8.524120232179735"><ele>274.0</ele><time>2026-04-12T09:28:24Z</time></trkpt><trkpt lat="44.39163673472289" lon="8.524002364495749"><ele>274.0</ele><time>2026-04-12T09:28:25Z</time></trkpt><trkpt lat="44.39163888413176" lon="8.5238710121096"><ele>274.0</ele><time>2026-04-12T09:28:26Z</time></trkpt><trkpt lat="44.3916428563792" lon="8.523748600372524"><ele>274.0</ele><time>2026-04-12T09:28:27Z</time></trkpt><trkpt lat="44.39165066232225" lon="8.523635523365922"><ele>274.0</ele><time>2026-04-12T09:28:28Z</time></trkpt><trkpt lat="44.39166345761272" lon="8.52353701273991"><ele>274.0</ele><time>2026-04-12T09:28:29Z</time></trkpt><trkpt lat="44.391715434755795" lon="8.523393681363187"><ele>274.0</ele><time>2026-04-12T09:28:31Z</time></trkpt><trkpt lat="44.39181253624017" lon="8.523317875550404"><ele>273.0</ele><time>2026-04-12T09:28:33Z</time></trkpt><trkpt lat="44.39193990145852" lon="8.5233207866285"><ele>272.0</ele><time>2026-04-12T09:28:35Z</time></trkpt><trkpt lat="44.392018999735086" lon="8.523320997368844"><ele>271.0</ele><time>2026-04-12T09:28:36Z</time></trkpt><trkpt lat="44.39210729150258" lon="8.523328139910989"><ele>270.0</ele><time>2026-04-12T09:28:37Z</time></trkpt><trkpt lat="44.392196215991014" lon="8.523333958745788"><ele>269.0</ele><time>2026-04-12T09:28:38Z</time></trkpt><trkpt lat="44.39227771797528" lon="8.523341584277352"><ele>271.5</ele><time>2026-04-12T09:28:39Z</time></trkpt><trkpt lat="44.39236016132806" lon="8.52334363261973"><ele>274.0</ele><time>2026-04-12T09:28:40Z</time></trkpt><trkpt lat="44.39244044490162" lon="8.523346363086986"><ele>276.5</ele><time>2026-04-12T09:28:41Z</time></trkpt><trkpt lat="44.392509667342416" lon="8.52335166318655"><ele>279.0</ele><time>2026-04-12T09:28:42Z</time></trkpt><trkpt lat="44.39261498528656" lon="8.52341326777904"><ele>281.5</ele><time>2026-04-12T09:28:44Z</time></trkpt><trkpt lat="44.39266149554666" lon="8.523473244981261"><ele>284.0</ele><time>2026-04-12T09:28:45Z</time></trkpt><trkpt lat="44.392756227991526" lon="8.523528242203827"><ele>284.0</ele><time>2026-04-12T09:28:47Z</time></trkpt><trkpt lat="44.392849167918584" lon="8.523493451646116"><ele>284.0</ele><time>2026-04-12T09:28:49Z</time></trkpt><trkpt lat="44.392919385188186" lon="8.523372252778955"><ele>284.0</ele><time>2026-04-12T09:28:51Z</time></trkpt><trkpt lat="44.392937959595166" lon="8.5232726689225"><ele>284.0</ele><time>2026-04-12T09:28:52Z</time></trkpt><trkpt lat="44.392954805430435" lon="8.523175017700911"><ele>284.0</ele><time>2026-04-12T09:28:53Z</time></trkpt><trkpt lat="44.39297634606593" lon="8.523065962955396"><ele>284.0</ele><time>2026-04-12T09:28:54Z</time></trkpt><trkpt lat="44.39300580944832" lon="8.522953037287936"><ele>285.1666666666667</ele><time>2026-04-12T09:28:55Z</time></trkpt><trkpt lat="44.39302739148066" lon="8.52286512438196"><ele>286.33333333333337</ele><time>2026-04-12T09:28:56Z</time></trkpt><trkpt lat="44.39302113008105" lon="8.522726236638613"><ele>287.5</ele><time>2026-04-12T09:28:58Z</time></trkpt><trkpt lat="44.392951275860305" lon="8.52261866713783"><ele>288.6666666666667</ele><time>2026-04-12T09:29:00Z</time></trkpt><trkpt lat="44.39287192493384" lon="8.522630184717574"><ele>289.8333333333333</ele><time>2026-04-12T09:29:01Z</time></trkpt><trkpt lat="44.392795713802855" lon="8.522626769161164"><ele>291.0</ele><time>2026-04-12T09:29:02Z</time></trkpt><trkpt lat="44.39271883642998" lon="8.522614819642223"><ele>291.0</ele><time>2026-04-12T09:29:03Z</time></trkpt><trkpt lat="44.392638410973696" lon="8.522596701277108"><ele>291.0</ele><time>2026-04-12T09:29:04Z</time></trkpt><trkpt lat="44.39255535226046" lon="8.522576592200405"><ele>291.0</ele><time>2026-04-12T09:29:05Z</time></trkpt><trkpt lat="44.392481375065806" lon="8.522545772792775"><ele>291.0</ele><time>2026-04-12T09:29:06Z</time></trkpt><trkpt lat="44.392408238281966" lon="8.522526394107333"><ele>291.0</ele><time>2026-04-12T09:29:07Z</time></trkpt><trkpt lat="44.39230666076057" lon="8.522410810834776"><ele>291.0</ele><time>2026-04-12T09:29:09.001Z</time></trkpt><trkpt lat="44.39226574659104" lon="8.52232635095821"><ele>291.0</ele><time>2026-04-12T09:29:10.001Z</time></trkpt><trkpt lat="44.392230881352425" lon="8.522226412631671"><ele>291.0</ele><time>2026-04-12T09:29:11.001Z</time></trkpt><trkpt lat="44.39219200528072" lon="8.522134586564844"><ele>291.0</ele><time>2026-04-12T09:29:12.001Z</time></trkpt><trkpt lat="44.39215524906305" lon="8.522017928652872"><ele>291.0</ele><time>2026-04-12T09:29:13.001Z</time></trkpt><trkpt lat="44.39211266373704" lon="8.521915352982514"><ele>291.0</ele><time>2026-04-12T09:29:14.001Z</time></trkpt><trkpt lat="44.39207598140075" lon="8.521822698728569"><ele>291.0</ele><time>2026-04-12T09:29:15.001Z</time></trkpt><trkpt lat="44.39205185686015" lon="8.521724607644417"><ele>289.6666666666667</ele><time>2026-04-12T09:29:16.001Z</time></trkpt><trkpt lat="44.39203298892924" lon="8.521626750723465"><ele>288.3333333333333</ele><time>2026-04-12T09:29:17.001Z</time></trkpt><trkpt lat="44.39202690984579" lon="8.521504569340236"><ele>287.0</ele><time>2026-04-12T09:29:18.001Z</time></trkpt><trkpt lat="44.39202084417629" lon="8.521384483603173"><ele>285.66666666666663</ele><time>2026-04-12T09:29:19.001Z</time></trkpt><trkpt lat="44.39200551109443" lon="8.521285879902713"><ele>284.3333333333333</ele><time>2026-04-12T09:29:20.001Z</time></trkpt><trkpt lat="44.391980152979635" lon="8.52117860478446"><ele>283.0</ele><time>2026-04-12T09:29:21.001Z</time></trkpt><trkpt lat="44.391947129283956" lon="8.521071795773485"><ele>283.0</ele><time>2026-04-12T09:29:22.001Z</time></trkpt><trkpt lat="44.39190846055452" lon="8.520962285146062"><ele>283.0</ele><time>2026-04-12T09:29:23.001Z</time></trkpt><trkpt lat="44.391887768081205" lon="8.520870454648554"><ele>283.0</ele><time>2026-04-12T09:29:24.001Z</time></trkpt><trkpt lat="44.39188598145967" lon="8.52071883856269"><ele>283.0</ele><time>2026-04-12T09:29:26.001Z</time></trkpt><trkpt lat="44.39194979780908" lon="8.520627243541485"><ele>283.0</ele><time>2026-04-12T09:29:28.001Z</time></trkpt><trkpt lat="44.392052793218255" lon="8.52053395695195"><ele>283.0</ele><time>2026-04-12T09:29:30.001Z</time></trkpt><trkpt lat="44.39214084916974" lon="8.520422081162145"><ele>283.0</ele><time>2026-04-12T09:29:32.001Z</time></trkpt><trkpt lat="44.39216547100852" lon="8.520292825676231"><ele>283.0</ele><time>2026-04-12T09:29:34.001Z</time></trkpt><trkpt lat="44.39213084916222" lon="8.520128880249542"><ele>283.0</ele><time>2026-04-12T09:29:36.001Z</time></trkpt><trkpt lat="44.392097018723426" lon="8.520041511408142"><ele>283.0</ele><time>2026-04-12T09:29:37.001Z</time></trkpt><trkpt lat="44.39206607190455" lon="8.519964440904904"><ele>283.3333333333333</ele><time>2026-04-12T09:29:38.001Z</time></trkpt><trkpt lat="44.39206022471232" lon="8.519871287178297"><ele>283.66666666666663</ele><time>2026-04-12T09:29:39.001Z</time></trkpt><trkpt lat="44.39208120248284" lon="8.519683152592838"><ele>284.0</ele><time>2026-04-12T09:29:41.001Z</time></trkpt><trkpt lat="44.392094059027116" lon="8.519586590401182"><ele>284.3333333333333</ele><time>2026-04-12T09:29:42.001Z</time></trkpt><trkpt lat="44.39211057590727" lon="8.519474148739512"><ele>284.6666666666667</ele><time>2026-04-12T09:29:43.001Z</time></trkpt><trkpt lat="44.39212483881123" lon="8.519363902772811"><ele>285.0</ele><time>2026-04-12T09:29:44.001Z</time></trkpt><trkpt lat="44.3921404649781" lon="8.519246288364535"><ele>286.0</ele><time>2026-04-12T09:29:45.001Z</time></trkpt><trkpt lat="44.392157290680586" lon="8.51913583739605"><ele>287.0</ele><time>2026-04-12T09:29:46.001Z</time></trkpt><trkpt lat="44.3921877290949" lon="8.519039788974325"><ele>288.0</ele><time>2026-04-12T09:29:47.001Z</time></trkpt><trkpt lat="44.39222349172767" lon="8.518950340060597"><ele>289.0</ele><time>2026-04-12T09:29:48.001Z</time></trkpt><trkpt lat="44.39225875872491" lon="8.51883337061406"><ele>290.0</ele><time>2026-04-12T09:29:50.001Z</time></trkpt><trkpt lat="44.39223876376319" lon="8.518717914893474"><ele>291.0</ele><time>2026-04-12T09:29:52Z</time></trkpt><trkpt lat="44.39218824578208" lon="8.518657361135828"><ele>293.5</ele><time>2026-04-12T09:29:53Z</time></trkpt><trkpt lat="44.39211203229787" lon="8.51865394814458"><ele>296.0</ele><time>2026-04-12T09:29:54Z</time></trkpt><trkpt lat="44.39204301151622" lon="8.518623955460697"><ele>298.5</ele><time>2026-04-12T09:29:55Z</time></trkpt><trkpt lat="44.391969837931605" lon="8.518585394923285"><ele>301.0</ele><time>2026-04-12T09:29:56Z</time></trkpt><trkpt lat="44.39189693370571" lon="8.518552385722373"><ele>303.5</ele><time>2026-04-12T09:29:57Z</time></trkpt><trkpt lat="44.3918184302546" lon="8.518512033059046"><ele>306.0</ele><time>2026-04-12T09:29:58Z</time></trkpt><trkpt lat="44.39173801871343" lon="8.518469517670308"><ele>306.0</ele><time>2026-04-12T09:29:59Z</time></trkpt><trkpt lat="44.391675750628806" lon="8.51842405691054"><ele>306.0</ele><time>2026-04-12T09:30:00Z</time></trkpt><trkpt lat="44.391619658330484" lon="8.518362101204412"><ele>306.0</ele><time>2026-04-12T09:30:01Z</time></trkpt><trkpt lat="44.39156308383962" lon="8.518283444619533"><ele>306.0</ele><time>2026-04-12T09:30:02Z</time></trkpt><trkpt lat="44.39150730559672" lon="8.5181884399437"><ele>306.0</ele><time>2026-04-12T09:30:03Z</time></trkpt><trkpt lat="44.391447286438805" lon="8.518100177571915"><ele>306.0</ele><time>2026-04-12T09:30:04Z</time></trkpt><trkpt lat="44.39138933724988" lon="8.518025830658305"><ele>305.0</ele><time>2026-04-12T09:30:05Z</time></trkpt><trkpt lat="44.39133007128537" lon="8.517942690814756"><ele>304.0</ele><time>2026-04-12T09:30:06Z</time></trkpt><trkpt lat="44.39127635097537" lon="8.517876928997856"><ele>303.0</ele><time>2026-04-12T09:30:07Z</time></trkpt><trkpt lat="44.39123034201902" lon="8.517805027743655"><ele>302.0</ele><time>2026-04-12T09:30:08Z</time></trkpt><trkpt lat="44.39120067079353" lon="8.517726351104415"><ele>301.0</ele><time>2026-04-12T09:30:09Z</time></trkpt><trkpt lat="44.39118449236062" lon="8.517628589026177"><ele>300.0</ele><time>2026-04-12T09:30:10Z</time></trkpt><trkpt lat="44.39117616564847" lon="8.517521801140528"><ele>299.0</ele><time>2026-04-12T09:30:11Z</time></trkpt><trkpt lat="44.39116148184253" lon="8.51741918992125"><ele>299.0</ele><time>2026-04-12T09:30:12Z</time></trkpt><trkpt lat="44.391137070984314" lon="8.517330327089095"><ele>299.0</ele><time>2026-04-12T09:30:13Z</time></trkpt><trkpt lat="44.391104457783015" lon="8.517235040624817"><ele>299.0</ele><time>2026-04-12T09:30:14Z</time></trkpt><trkpt lat="44.391069389499805" lon="8.517111529781857"><ele>299.0</ele><time>2026-04-12T09:30:15Z</time></trkpt><trkpt lat="44.3910409158685" lon="8.517005665730748"><ele>299.0</ele><time>2026-04-12T09:30:16Z</time></trkpt><trkpt lat="44.391022612606136" lon="8.516907187847371"><ele>299.0</ele><time>2026-04-12T09:30:17Z</time></trkpt><trkpt lat="44.39101278933377" lon="8.516807305027386"><ele>300.5</ele><time>2026-04-12T09:30:18Z</time></trkpt><trkpt lat="44.391017316913945" lon="8.516701615399846"><ele>302.0</ele><time>2026-04-12T09:30:19Z</time></trkpt><trkpt lat="44.39103477776502" lon="8.516611843314584"><ele>303.5</ele><time>2026-04-12T09:30:20Z</time></trkpt><trkpt lat="44.39105430198195" lon="8.516517379786626"><ele>305.0</ele><time>2026-04-12T09:30:21Z</time></trkpt><trkpt lat="44.39107793783556" lon="8.516429898390852"><ele>306.5</ele><time>2026-04-12T09:30:22Z</time></trkpt><trkpt lat="44.391123600486644" lon="8.516273387996893"><ele>308.0</ele><time>2026-04-12T09:30:24Z</time></trkpt><trkpt lat="44.39112292401824" lon="8.516139178233864"><ele>309.83333333333337</ele><time>2026-04-12T09:30:26Z</time></trkpt><trkpt lat="44.391072104603126" lon="8.515996658728957"><ele>311.6666666666667</ele><time>2026-04-12T09:30:28Z</time></trkpt><trkpt lat="44.39103508467789" lon="8.515911033930408"><ele>313.5</ele><time>2026-04-12T09:30:29Z</time></trkpt><trkpt lat="44.39099935276078" lon="8.515837502539478"><ele>315.3333333333333</ele><time>2026-04-12T09:30:30Z</time></trkpt><trkpt lat="44.390969158216244" lon="8.515759445424813"><ele>317.16666666666663</ele><time>2026-04-12T09:30:31Z</time></trkpt><trkpt lat="44.39090086808862" lon="8.515611421224273"><ele>319.0</ele><time>2026-04-12T09:30:33Z</time></trkpt><trkpt lat="44.390826008690205" lon="8.515517963890753"><ele>319.0</ele><time>2026-04-12T09:30:35Z</time></trkpt><trkpt lat="44.390730729814145" lon="8.515446715318102"><ele>319.0</ele><time>2026-04-12T09:30:37Z</time></trkpt><trkpt lat="44.39066960158409" lon="8.515378915783453"><ele>319.0</ele><time>2026-04-12T09:30:39Z</time></trkpt><trkpt lat="44.39067107625571" lon="8.51527119091464"><ele>319.0</ele><time>2026-04-12T09:30:41Z</time></trkpt><trkpt lat="44.390734624163336" lon="8.515173715834067"><ele>319.0</ele><time>2026-04-12T09:30:43Z</time></trkpt><trkpt lat="44.39077302925756" lon="8.515003752068804"><ele>320.0</ele><time>2026-04-12T09:30:45Z</time></trkpt><trkpt lat="44.39079370114651" lon="8.514865988986939"><ele>320.0</ele><time>2026-04-12T09:30:47Z</time></trkpt><trkpt lat="44.390792905553745" lon="8.514722210939762"><ele>320.0</ele><time>2026-04-12T09:30:49Z</time></trkpt><trkpt lat="44.39080943583725" lon="8.514627562151036"><ele>320.0</ele><time>2026-04-12T09:30:52Z</time></trkpt></trkseg></trk></gpx>